<?xml version="1.0" encoding="UTF-8" standalone="no" ?>
<gpx xmlns="http://www.topografix.com/GPX/1/1" xmlns:xsi="http://www.w3.org/2001/XMLSchema-instance" xsi:schemaLocation="http://www.topografix.com/GPX/1/1 http://www.topografix.com/GPX/1/1/gpx.xsd" version="1.1" creator="VisuGPX - https://www.visugpx.com">
  <metadata>
    <name>Pornichet 29/04/2021</name>
    <desc><![CDATA[Sortie VTT du jeudi 29 avril 2021]]></desc>
  </metadata>
  <trk>
    <name><![CDATA[Pornichet Cyclisme]]></name>
    <trkseg>
      <trkpt lat="47.26415" lon="-2.31556">
        <ele>5</ele>
        <time>2021-04-29T07:16:15.000Z</time>
      </trkpt>
      <trkpt lat="47.26415" lon="-2.31554">
        <ele>5</ele>
        <time>2021-04-29T07:16:17.000Z</time>
      </trkpt>
      <trkpt lat="47.26412" lon="-2.31555">
        <ele>5.5999999046326</ele>
        <time>2021-04-29T07:16:32.000Z</time>
      </trkpt>
      <trkpt lat="47.26408" lon="-2.31556">
        <ele>5.5999999046326</ele>
        <time>2021-04-29T07:16:34.000Z</time>
      </trkpt>
      <trkpt lat="47.26404" lon="-2.31572">
        <ele>5.5999999046326</ele>
        <time>2021-04-29T07:16:38.000Z</time>
      </trkpt>
      <trkpt lat="47.26405" lon="-2.3161">
        <ele>5.5999999046326</ele>
        <time>2021-04-29T07:16:44.000Z</time>
      </trkpt>
      <trkpt lat="47.26407" lon="-2.31646">
        <ele>5.5999999046326</ele>
        <time>2021-04-29T07:16:49.000Z</time>
      </trkpt>
      <trkpt lat="47.26407" lon="-2.31663">
        <ele>5.5999999046326</ele>
        <time>2021-04-29T07:16:52.000Z</time>
      </trkpt>
      <trkpt lat="47.26403" lon="-2.31673">
        <ele>5.5999999046326</ele>
        <time>2021-04-29T07:16:54.000Z</time>
      </trkpt>
      <trkpt lat="47.26398" lon="-2.31674">
        <ele>5.5999999046326</ele>
        <time>2021-04-29T07:16:55.000Z</time>
      </trkpt>
      <trkpt lat="47.26388" lon="-2.31678">
        <ele>5.1999998092651</ele>
        <time>2021-04-29T07:16:57.000Z</time>
      </trkpt>
      <trkpt lat="47.26384" lon="-2.31681">
        <ele>4.8000001907349</ele>
        <time>2021-04-29T07:16:58.000Z</time>
      </trkpt>
      <trkpt lat="47.26379" lon="-2.31684">
        <ele>4.4000000953674</ele>
        <time>2021-04-29T07:16:59.000Z</time>
      </trkpt>
      <trkpt lat="47.26374" lon="-2.31688">
        <ele>4</ele>
        <time>2021-04-29T07:17:00.000Z</time>
      </trkpt>
      <trkpt lat="47.26369" lon="-2.3169">
        <ele>3.5999999046326</ele>
        <time>2021-04-29T07:17:01.000Z</time>
      </trkpt>
      <trkpt lat="47.26337" lon="-2.31705">
        <ele>3.5999999046326</ele>
        <time>2021-04-29T07:17:07.000Z</time>
      </trkpt>
      <trkpt lat="47.26325" lon="-2.3171">
        <ele>3.5999999046326</ele>
        <time>2021-04-29T07:17:09.000Z</time>
      </trkpt>
      <trkpt lat="47.26306" lon="-2.31724">
        <ele>2.7999999523163</ele>
        <time>2021-04-29T07:17:12.000Z</time>
      </trkpt>
      <trkpt lat="47.26303" lon="-2.31728">
        <ele>2.2000000476837</ele>
        <time>2021-04-29T07:17:14.000Z</time>
      </trkpt>
      <trkpt lat="47.26301" lon="-2.31732">
        <ele>1.7999999523163</ele>
        <time>2021-04-29T07:17:15.000Z</time>
      </trkpt>
      <trkpt lat="47.26301" lon="-2.31737">
        <ele>1.3999999761581</ele>
        <time>2021-04-29T07:17:16.000Z</time>
      </trkpt>
      <trkpt lat="47.26301" lon="-2.31743">
        <ele>1.3999999761581</ele>
        <time>2021-04-29T07:17:17.000Z</time>
      </trkpt>
      <trkpt lat="47.26304" lon="-2.31762">
        <ele>1.3999999761581</ele>
        <time>2021-04-29T07:17:20.000Z</time>
      </trkpt>
      <trkpt lat="47.26305" lon="-2.31775">
        <ele>1.3999999761581</ele>
        <time>2021-04-29T07:17:22.000Z</time>
      </trkpt>
      <trkpt lat="47.26306" lon="-2.31804">
        <ele>1.3999999761581</ele>
        <time>2021-04-29T07:17:26.000Z</time>
      </trkpt>
      <trkpt lat="47.26305" lon="-2.31818">
        <ele>1.3999999761581</ele>
        <time>2021-04-29T07:17:28.000Z</time>
      </trkpt>
      <trkpt lat="47.26304" lon="-2.31873">
        <ele>1.3999999761581</ele>
        <time>2021-04-29T07:17:36.000Z</time>
      </trkpt>
      <trkpt lat="47.26303" lon="-2.3188">
        <ele>1.3999999761581</ele>
        <time>2021-04-29T07:17:37.000Z</time>
      </trkpt>
      <trkpt lat="47.26297" lon="-2.31889">
        <ele>1</ele>
        <time>2021-04-29T07:17:39.000Z</time>
      </trkpt>
      <trkpt lat="47.26293" lon="-2.31893">
        <ele>0.60000002384186</ele>
        <time>2021-04-29T07:17:40.000Z</time>
      </trkpt>
      <trkpt lat="47.26288" lon="-2.31896">
        <ele>0.20000000298023</ele>
        <time>2021-04-29T07:17:41.000Z</time>
      </trkpt>
      <trkpt lat="47.26284" lon="-2.31899">
        <ele>-0.60000002384186</ele>
        <time>2021-04-29T07:17:42.000Z</time>
      </trkpt>
      <trkpt lat="47.26281" lon="-2.31902">
        <ele>-0.60000002384186</ele>
        <time>2021-04-29T07:17:43.000Z</time>
      </trkpt>
      <trkpt lat="47.26273" lon="-2.31909">
        <ele>-0.60000002384186</ele>
        <time>2021-04-29T07:17:45.000Z</time>
      </trkpt>
      <trkpt lat="47.26267" lon="-2.31918">
        <ele>-0.60000002384186</ele>
        <time>2021-04-29T07:17:47.000Z</time>
      </trkpt>
      <trkpt lat="47.26263" lon="-2.31928">
        <ele>-0.60000002384186</ele>
        <time>2021-04-29T07:17:49.000Z</time>
      </trkpt>
      <trkpt lat="47.26249" lon="-2.31956">
        <ele>-0.60000002384186</ele>
        <time>2021-04-29T07:17:56.000Z</time>
      </trkpt>
      <trkpt lat="47.26228" lon="-2.31976">
        <ele>-0.60000002384186</ele>
        <time>2021-04-29T07:18:01.000Z</time>
      </trkpt>
      <trkpt lat="47.26207" lon="-2.31995">
        <ele>-0.60000002384186</ele>
        <time>2021-04-29T07:18:08.000Z</time>
      </trkpt>
      <trkpt lat="47.26205" lon="-2.32008">
        <ele>-0.60000002384186</ele>
        <time>2021-04-29T07:18:12.000Z</time>
      </trkpt>
      <trkpt lat="47.26201" lon="-2.3201">
        <ele>-0.60000002384186</ele>
        <time>2021-04-29T07:18:14.000Z</time>
      </trkpt>
      <trkpt lat="47.26189" lon="-2.32008">
        <ele>-0.60000002384186</ele>
        <time>2021-04-29T07:18:18.000Z</time>
      </trkpt>
      <trkpt lat="47.26167" lon="-2.32023">
        <ele>-0.60000002384186</ele>
        <time>2021-04-29T07:18:24.000Z</time>
      </trkpt>
      <trkpt lat="47.26161" lon="-2.32042">
        <ele>-0.60000002384186</ele>
        <time>2021-04-29T07:18:27.000Z</time>
      </trkpt>
      <trkpt lat="47.26157" lon="-2.32056">
        <ele>-0.60000002384186</ele>
        <time>2021-04-29T07:18:29.000Z</time>
      </trkpt>
      <trkpt lat="47.26141" lon="-2.32106">
        <ele>-0.60000002384186</ele>
        <time>2021-04-29T07:18:36.000Z</time>
      </trkpt>
      <trkpt lat="47.26127" lon="-2.32144">
        <ele>-0.60000002384186</ele>
        <time>2021-04-29T07:18:42.000Z</time>
      </trkpt>
      <trkpt lat="47.26124" lon="-2.3215">
        <ele>-0.60000002384186</ele>
        <time>2021-04-29T07:18:43.000Z</time>
      </trkpt>
      <trkpt lat="47.26122" lon="-2.32157">
        <ele>-0.60000002384186</ele>
        <time>2021-04-29T07:18:44.000Z</time>
      </trkpt>
      <trkpt lat="47.26117" lon="-2.3217">
        <ele>-0.60000002384186</ele>
        <time>2021-04-29T07:18:46.000Z</time>
      </trkpt>
      <trkpt lat="47.26112" lon="-2.32182">
        <ele>-0.60000002384186</ele>
        <time>2021-04-29T07:18:48.000Z</time>
      </trkpt>
      <trkpt lat="47.26097" lon="-2.32212">
        <ele>-0.60000002384186</ele>
        <time>2021-04-29T07:18:53.000Z</time>
      </trkpt>
      <trkpt lat="47.26076" lon="-2.32241">
        <ele>-0.60000002384186</ele>
        <time>2021-04-29T07:18:59.000Z</time>
      </trkpt>
      <trkpt lat="47.26057" lon="-2.32264">
        <ele>-0.60000002384186</ele>
        <time>2021-04-29T07:19:04.000Z</time>
      </trkpt>
      <trkpt lat="47.26053" lon="-2.32268">
        <ele>-0.60000002384186</ele>
        <time>2021-04-29T07:19:05.000Z</time>
      </trkpt>
      <trkpt lat="47.26022" lon="-2.32301">
        <ele>-0.60000002384186</ele>
        <time>2021-04-29T07:19:13.000Z</time>
      </trkpt>
      <trkpt lat="47.25992" lon="-2.32341">
        <ele>-0.60000002384186</ele>
        <time>2021-04-29T07:19:21.000Z</time>
      </trkpt>
      <trkpt lat="47.25955" lon="-2.32389">
        <ele>-0.60000002384186</ele>
        <time>2021-04-29T07:19:31.000Z</time>
      </trkpt>
      <trkpt lat="47.2592" lon="-2.32436">
        <ele>-0.60000002384186</ele>
        <time>2021-04-29T07:19:41.000Z</time>
      </trkpt>
      <trkpt lat="47.25903" lon="-2.32466">
        <ele>-0.60000002384186</ele>
        <time>2021-04-29T07:19:48.000Z</time>
      </trkpt>
      <trkpt lat="47.2591" lon="-2.32474">
        <ele>-0.60000002384186</ele>
        <time>2021-04-29T07:19:51.000Z</time>
      </trkpt>
      <trkpt lat="47.25914" lon="-2.32476">
        <ele>-0.60000002384186</ele>
        <time>2021-04-29T07:19:52.000Z</time>
      </trkpt>
      <trkpt lat="47.25918" lon="-2.32479">
        <ele>-0.60000002384186</ele>
        <time>2021-04-29T07:19:53.000Z</time>
      </trkpt>
      <trkpt lat="47.25923" lon="-2.32489">
        <ele>-0.60000002384186</ele>
        <time>2021-04-29T07:19:55.000Z</time>
      </trkpt>
      <trkpt lat="47.25927" lon="-2.32502">
        <ele>-0.60000002384186</ele>
        <time>2021-04-29T07:19:57.000Z</time>
      </trkpt>
      <trkpt lat="47.25933" lon="-2.32522">
        <ele>-0.60000002384186</ele>
        <time>2021-04-29T07:20:00.000Z</time>
      </trkpt>
      <trkpt lat="47.25947" lon="-2.32567">
        <ele>-0.60000002384186</ele>
        <time>2021-04-29T07:20:07.000Z</time>
      </trkpt>
      <trkpt lat="47.25962" lon="-2.32622">
        <ele>-0.60000002384186</ele>
        <time>2021-04-29T07:20:15.000Z</time>
      </trkpt>
      <trkpt lat="47.25964" lon="-2.32643">
        <ele>-0.60000002384186</ele>
        <time>2021-04-29T07:20:18.000Z</time>
      </trkpt>
      <trkpt lat="47.25963" lon="-2.32657">
        <ele>-0.60000002384186</ele>
        <time>2021-04-29T07:20:20.000Z</time>
      </trkpt>
      <trkpt lat="47.25964" lon="-2.32662">
        <ele>-0.60000002384186</ele>
        <time>2021-04-29T07:20:21.000Z</time>
      </trkpt>
      <trkpt lat="47.2597" lon="-2.32666">
        <ele>-0.60000002384186</ele>
        <time>2021-04-29T07:20:23.000Z</time>
      </trkpt>
      <trkpt lat="47.25986" lon="-2.32661">
        <ele>-0.60000002384186</ele>
        <time>2021-04-29T07:20:27.000Z</time>
      </trkpt>
      <trkpt lat="47.26013" lon="-2.32657">
        <ele>-0.60000002384186</ele>
        <time>2021-04-29T07:20:33.000Z</time>
      </trkpt>
      <trkpt lat="47.26044" lon="-2.32652">
        <ele>-0.60000002384186</ele>
        <time>2021-04-29T07:20:40.000Z</time>
      </trkpt>
      <trkpt lat="47.26052" lon="-2.3265">
        <ele>-0.60000002384186</ele>
        <time>2021-04-29T07:20:42.000Z</time>
      </trkpt>
      <trkpt lat="47.26068" lon="-2.32646">
        <ele>-0.20000000298023</ele>
        <time>2021-04-29T07:20:46.000Z</time>
      </trkpt>
      <trkpt lat="47.26073" lon="-2.32645">
        <ele>0.20000000298023</ele>
        <time>2021-04-29T07:20:47.000Z</time>
      </trkpt>
      <trkpt lat="47.26077" lon="-2.32644">
        <ele>0.60000002384186</ele>
        <time>2021-04-29T07:20:48.000Z</time>
      </trkpt>
      <trkpt lat="47.26081" lon="-2.32643">
        <ele>1</ele>
        <time>2021-04-29T07:20:49.000Z</time>
      </trkpt>
      <trkpt lat="47.26085" lon="-2.32642">
        <ele>1.3999999761581</ele>
        <time>2021-04-29T07:20:50.000Z</time>
      </trkpt>
      <trkpt lat="47.26109" lon="-2.3264">
        <ele>1.3999999761581</ele>
        <time>2021-04-29T07:20:56.000Z</time>
      </trkpt>
      <trkpt lat="47.26139" lon="-2.32641">
        <ele>1.3999999761581</ele>
        <time>2021-04-29T07:21:03.000Z</time>
      </trkpt>
      <trkpt lat="47.2617" lon="-2.32654">
        <ele>1.3999999761581</ele>
        <time>2021-04-29T07:21:10.000Z</time>
      </trkpt>
      <trkpt lat="47.26202" lon="-2.32681">
        <ele>1.3999999761581</ele>
        <time>2021-04-29T07:21:18.000Z</time>
      </trkpt>
      <trkpt lat="47.26225" lon="-2.32709">
        <ele>1.3999999761581</ele>
        <time>2021-04-29T07:21:24.000Z</time>
      </trkpt>
      <trkpt lat="47.26253" lon="-2.3275">
        <ele>1.3999999761581</ele>
        <time>2021-04-29T07:21:31.000Z</time>
      </trkpt>
      <trkpt lat="47.26278" lon="-2.32797">
        <ele>1.3999999761581</ele>
        <time>2021-04-29T07:21:38.000Z</time>
      </trkpt>
      <trkpt lat="47.26287" lon="-2.32828">
        <ele>1.3999999761581</ele>
        <time>2021-04-29T07:21:42.000Z</time>
      </trkpt>
      <trkpt lat="47.26287" lon="-2.32836">
        <ele>1.3999999761581</ele>
        <time>2021-04-29T07:21:43.000Z</time>
      </trkpt>
      <trkpt lat="47.2629" lon="-2.32851">
        <ele>1.3999999761581</ele>
        <time>2021-04-29T07:21:45.000Z</time>
      </trkpt>
      <trkpt lat="47.26298" lon="-2.32861">
        <ele>0.60000002384186</ele>
        <time>2021-04-29T07:21:47.000Z</time>
      </trkpt>
      <trkpt lat="47.26303" lon="-2.32863">
        <ele>0.20000000298023</ele>
        <time>2021-04-29T07:21:48.000Z</time>
      </trkpt>
      <trkpt lat="47.26309" lon="-2.32865">
        <ele>-0.20000000298023</ele>
        <time>2021-04-29T07:21:49.000Z</time>
      </trkpt>
      <trkpt lat="47.26314" lon="-2.32868">
        <ele>-0.60000002384186</ele>
        <time>2021-04-29T07:21:50.000Z</time>
      </trkpt>
      <trkpt lat="47.26323" lon="-2.32886">
        <ele>-0.60000002384186</ele>
        <time>2021-04-29T07:21:53.000Z</time>
      </trkpt>
      <trkpt lat="47.26327" lon="-2.329">
        <ele>-0.60000002384186</ele>
        <time>2021-04-29T07:21:55.000Z</time>
      </trkpt>
      <trkpt lat="47.2634" lon="-2.32943">
        <ele>-0.60000002384186</ele>
        <time>2021-04-29T07:22:01.000Z</time>
      </trkpt>
      <trkpt lat="47.26348" lon="-2.32971">
        <ele>-0.60000002384186</ele>
        <time>2021-04-29T07:22:05.000Z</time>
      </trkpt>
      <trkpt lat="47.26357" lon="-2.32979">
        <ele>-0.60000002384186</ele>
        <time>2021-04-29T07:22:07.000Z</time>
      </trkpt>
      <trkpt lat="47.26367" lon="-2.32994">
        <ele>-0.60000002384186</ele>
        <time>2021-04-29T07:22:10.000Z</time>
      </trkpt>
      <trkpt lat="47.26368" lon="-2.33017">
        <ele>-0.60000002384186</ele>
        <time>2021-04-29T07:22:13.000Z</time>
      </trkpt>
      <trkpt lat="47.26371" lon="-2.33094">
        <ele>-0.60000002384186</ele>
        <time>2021-04-29T07:22:23.000Z</time>
      </trkpt>
      <trkpt lat="47.26375" lon="-2.33154">
        <ele>-0.60000002384186</ele>
        <time>2021-04-29T07:22:31.000Z</time>
      </trkpt>
      <trkpt lat="47.26378" lon="-2.33212">
        <ele>-0.60000002384186</ele>
        <time>2021-04-29T07:22:39.000Z</time>
      </trkpt>
      <trkpt lat="47.2638" lon="-2.33241">
        <ele>-0.60000002384186</ele>
        <time>2021-04-29T07:22:43.000Z</time>
      </trkpt>
      <trkpt lat="47.26387" lon="-2.3326">
        <ele>-0.60000002384186</ele>
        <time>2021-04-29T07:22:46.000Z</time>
      </trkpt>
      <trkpt lat="47.26401" lon="-2.33267">
        <ele>-0.60000002384186</ele>
        <time>2021-04-29T07:22:49.000Z</time>
      </trkpt>
      <trkpt lat="47.26411" lon="-2.33268">
        <ele>-0.60000002384186</ele>
        <time>2021-04-29T07:22:51.000Z</time>
      </trkpt>
      <trkpt lat="47.26435" lon="-2.33271">
        <ele>-0.60000002384186</ele>
        <time>2021-04-29T07:22:56.000Z</time>
      </trkpt>
      <trkpt lat="47.26482" lon="-2.33277">
        <ele>-0.60000002384186</ele>
        <time>2021-04-29T07:23:06.000Z</time>
      </trkpt>
      <trkpt lat="47.26507" lon="-2.33285">
        <ele>-0.60000002384186</ele>
        <time>2021-04-29T07:23:12.000Z</time>
      </trkpt>
      <trkpt lat="47.26515" lon="-2.33291">
        <ele>-0.60000002384186</ele>
        <time>2021-04-29T07:23:14.000Z</time>
      </trkpt>
      <trkpt lat="47.26528" lon="-2.33291">
        <ele>-0.60000002384186</ele>
        <time>2021-04-29T07:23:17.000Z</time>
      </trkpt>
      <trkpt lat="47.2653" lon="-2.3329">
        <ele>-0.60000002384186</ele>
        <time>2021-04-29T07:23:18.000Z</time>
      </trkpt>
      <trkpt lat="47.26531" lon="-2.33291">
        <ele>-0.60000002384186</ele>
        <time>2021-04-29T07:23:19.000Z</time>
      </trkpt>
      <trkpt lat="47.26532" lon="-2.33292">
        <ele>-0.60000002384186</ele>
        <time>2021-04-29T07:23:20.000Z</time>
      </trkpt>
      <trkpt lat="47.26541" lon="-2.33298">
        <ele>-0.60000002384186</ele>
        <time>2021-04-29T07:23:24.000Z</time>
      </trkpt>
      <trkpt lat="47.26549" lon="-2.33286">
        <ele>-0.60000002384186</ele>
        <time>2021-04-29T07:23:27.000Z</time>
      </trkpt>
      <trkpt lat="47.26556" lon="-2.33279">
        <ele>-0.60000002384186</ele>
        <time>2021-04-29T07:23:29.000Z</time>
      </trkpt>
      <trkpt lat="47.26573" lon="-2.33261">
        <ele>-0.60000002384186</ele>
        <time>2021-04-29T07:23:34.000Z</time>
      </trkpt>
      <trkpt lat="47.26603" lon="-2.33231">
        <ele>-0.60000002384186</ele>
        <time>2021-04-29T07:23:42.000Z</time>
      </trkpt>
      <trkpt lat="47.26635" lon="-2.33201">
        <ele>-0.60000002384186</ele>
        <time>2021-04-29T07:23:50.000Z</time>
      </trkpt>
      <trkpt lat="47.26661" lon="-2.33174">
        <ele>-0.60000002384186</ele>
        <time>2021-04-29T07:23:57.000Z</time>
      </trkpt>
      <trkpt lat="47.26685" lon="-2.33151">
        <ele>-0.20000000298023</ele>
        <time>2021-04-29T07:24:03.000Z</time>
      </trkpt>
      <trkpt lat="47.26689" lon="-2.33147">
        <ele>0.20000000298023</ele>
        <time>2021-04-29T07:24:04.000Z</time>
      </trkpt>
      <trkpt lat="47.26692" lon="-2.33142">
        <ele>0.60000002384186</ele>
        <time>2021-04-29T07:24:05.000Z</time>
      </trkpt>
      <trkpt lat="47.26696" lon="-2.33138">
        <ele>1</ele>
        <time>2021-04-29T07:24:06.000Z</time>
      </trkpt>
      <trkpt lat="47.267" lon="-2.33135">
        <ele>1.3999999761581</ele>
        <time>2021-04-29T07:24:07.000Z</time>
      </trkpt>
      <trkpt lat="47.26716" lon="-2.33119">
        <ele>1.3999999761581</ele>
        <time>2021-04-29T07:24:11.000Z</time>
      </trkpt>
      <trkpt lat="47.26741" lon="-2.33092">
        <ele>1.3999999761581</ele>
        <time>2021-04-29T07:24:18.000Z</time>
      </trkpt>
      <trkpt lat="47.26755" lon="-2.33087">
        <ele>1.3999999761581</ele>
        <time>2021-04-29T07:24:22.000Z</time>
      </trkpt>
      <trkpt lat="47.26763" lon="-2.33105">
        <ele>1.3999999761581</ele>
        <time>2021-04-29T07:24:25.000Z</time>
      </trkpt>
      <trkpt lat="47.26764" lon="-2.33136">
        <ele>1.3999999761581</ele>
        <time>2021-04-29T07:24:29.000Z</time>
      </trkpt>
      <trkpt lat="47.2676" lon="-2.33159">
        <ele>1.3999999761581</ele>
        <time>2021-04-29T07:24:32.000Z</time>
      </trkpt>
      <trkpt lat="47.26757" lon="-2.33173">
        <ele>1.3999999761581</ele>
        <time>2021-04-29T07:24:34.000Z</time>
      </trkpt>
      <trkpt lat="47.26743" lon="-2.3321">
        <ele>1.3999999761581</ele>
        <time>2021-04-29T07:24:40.000Z</time>
      </trkpt>
      <trkpt lat="47.26729" lon="-2.33249">
        <ele>1.3999999761581</ele>
        <time>2021-04-29T07:24:46.000Z</time>
      </trkpt>
      <trkpt lat="47.26728" lon="-2.33255">
        <ele>1.3999999761581</ele>
        <time>2021-04-29T07:24:47.000Z</time>
      </trkpt>
      <trkpt lat="47.26728" lon="-2.33276">
        <ele>1.3999999761581</ele>
        <time>2021-04-29T07:24:50.000Z</time>
      </trkpt>
      <trkpt lat="47.26737" lon="-2.33308">
        <ele>1.3999999761581</ele>
        <time>2021-04-29T07:24:54.000Z</time>
      </trkpt>
      <trkpt lat="47.2674" lon="-2.33316">
        <ele>1.3999999761581</ele>
        <time>2021-04-29T07:24:55.000Z</time>
      </trkpt>
      <trkpt lat="47.26749" lon="-2.33371">
        <ele>1.3999999761581</ele>
        <time>2021-04-29T07:25:02.000Z</time>
      </trkpt>
      <trkpt lat="47.26756" lon="-2.33427">
        <ele>1.3999999761581</ele>
        <time>2021-04-29T07:25:09.000Z</time>
      </trkpt>
      <trkpt lat="47.26765" lon="-2.33478">
        <ele>1.3999999761581</ele>
        <time>2021-04-29T07:25:16.000Z</time>
      </trkpt>
      <trkpt lat="47.26776" lon="-2.33538">
        <ele>1.3999999761581</ele>
        <time>2021-04-29T07:25:24.000Z</time>
      </trkpt>
      <trkpt lat="47.26778" lon="-2.3356">
        <ele>1.3999999761581</ele>
        <time>2021-04-29T07:25:27.000Z</time>
      </trkpt>
      <trkpt lat="47.26779" lon="-2.33589">
        <ele>1.3999999761581</ele>
        <time>2021-04-29T07:25:31.000Z</time>
      </trkpt>
      <trkpt lat="47.26779" lon="-2.33656">
        <ele>1.3999999761581</ele>
        <time>2021-04-29T07:25:41.000Z</time>
      </trkpt>
      <trkpt lat="47.26779" lon="-2.3368">
        <ele>1.3999999761581</ele>
        <time>2021-04-29T07:25:45.000Z</time>
      </trkpt>
      <trkpt lat="47.2678" lon="-2.33692">
        <ele>1.3999999761581</ele>
        <time>2021-04-29T07:25:47.000Z</time>
      </trkpt>
      <trkpt lat="47.26788" lon="-2.33712">
        <ele>1.3999999761581</ele>
        <time>2021-04-29T07:25:51.000Z</time>
      </trkpt>
      <trkpt lat="47.26791" lon="-2.33716">
        <ele>1.7999999523163</ele>
        <time>2021-04-29T07:25:52.000Z</time>
      </trkpt>
      <trkpt lat="47.26795" lon="-2.33721">
        <ele>2.2000000476837</ele>
        <time>2021-04-29T07:25:53.000Z</time>
      </trkpt>
      <trkpt lat="47.26798" lon="-2.33725">
        <ele>3</ele>
        <time>2021-04-29T07:25:54.000Z</time>
      </trkpt>
      <trkpt lat="47.26801" lon="-2.33729">
        <ele>3.4000000953674</ele>
        <time>2021-04-29T07:25:55.000Z</time>
      </trkpt>
      <trkpt lat="47.26812" lon="-2.3374">
        <ele>3.4000000953674</ele>
        <time>2021-04-29T07:25:58.000Z</time>
      </trkpt>
      <trkpt lat="47.26822" lon="-2.33751">
        <ele>3.4000000953674</ele>
        <time>2021-04-29T07:26:01.000Z</time>
      </trkpt>
      <trkpt lat="47.26836" lon="-2.33768">
        <ele>3.4000000953674</ele>
        <time>2021-04-29T07:26:05.000Z</time>
      </trkpt>
      <trkpt lat="47.26842" lon="-2.33776">
        <ele>3.4000000953674</ele>
        <time>2021-04-29T07:26:07.000Z</time>
      </trkpt>
      <trkpt lat="47.26856" lon="-2.33782">
        <ele>3.4000000953674</ele>
        <time>2021-04-29T07:26:10.000Z</time>
      </trkpt>
      <trkpt lat="47.26869" lon="-2.33785">
        <ele>3.4000000953674</ele>
        <time>2021-04-29T07:26:13.000Z</time>
      </trkpt>
      <trkpt lat="47.26878" lon="-2.33789">
        <ele>3.4000000953674</ele>
        <time>2021-04-29T07:26:15.000Z</time>
      </trkpt>
      <trkpt lat="47.2689" lon="-2.33796">
        <ele>3.4000000953674</ele>
        <time>2021-04-29T07:26:18.000Z</time>
      </trkpt>
      <trkpt lat="47.26896" lon="-2.33805">
        <ele>3.4000000953674</ele>
        <time>2021-04-29T07:26:20.000Z</time>
      </trkpt>
      <trkpt lat="47.269" lon="-2.33823">
        <ele>3.4000000953674</ele>
        <time>2021-04-29T07:26:23.000Z</time>
      </trkpt>
      <trkpt lat="47.26902" lon="-2.3383">
        <ele>3.4000000953674</ele>
        <time>2021-04-29T07:26:24.000Z</time>
      </trkpt>
      <trkpt lat="47.26913" lon="-2.33877">
        <ele>3.4000000953674</ele>
        <time>2021-04-29T07:26:31.000Z</time>
      </trkpt>
      <trkpt lat="47.26925" lon="-2.33929">
        <ele>3.4000000953674</ele>
        <time>2021-04-29T07:26:39.000Z</time>
      </trkpt>
      <trkpt lat="47.26935" lon="-2.33972">
        <ele>3.4000000953674</ele>
        <time>2021-04-29T07:26:46.000Z</time>
      </trkpt>
      <trkpt lat="47.26939" lon="-2.33991">
        <ele>3.7999999523163</ele>
        <time>2021-04-29T07:26:49.000Z</time>
      </trkpt>
      <trkpt lat="47.2694" lon="-2.33997">
        <ele>4.4000000953674</ele>
        <time>2021-04-29T07:26:50.000Z</time>
      </trkpt>
      <trkpt lat="47.26942" lon="-2.34004">
        <ele>4.8000001907349</ele>
        <time>2021-04-29T07:26:51.000Z</time>
      </trkpt>
      <trkpt lat="47.26943" lon="-2.3401">
        <ele>5.1999998092651</ele>
        <time>2021-04-29T07:26:52.000Z</time>
      </trkpt>
      <trkpt lat="47.26944" lon="-2.34017">
        <ele>5.5999999046326</ele>
        <time>2021-04-29T07:26:53.000Z</time>
      </trkpt>
      <trkpt lat="47.26946" lon="-2.3403">
        <ele>5.5999999046326</ele>
        <time>2021-04-29T07:26:55.000Z</time>
      </trkpt>
      <trkpt lat="47.26948" lon="-2.34036">
        <ele>5.5999999046326</ele>
        <time>2021-04-29T07:26:56.000Z</time>
      </trkpt>
      <trkpt lat="47.26955" lon="-2.34061">
        <ele>5.5999999046326</ele>
        <time>2021-04-29T07:27:00.000Z</time>
      </trkpt>
      <trkpt lat="47.26968" lon="-2.34114">
        <ele>5.5999999046326</ele>
        <time>2021-04-29T07:27:08.000Z</time>
      </trkpt>
      <trkpt lat="47.26978" lon="-2.3416">
        <ele>5.5999999046326</ele>
        <time>2021-04-29T07:27:15.000Z</time>
      </trkpt>
      <trkpt lat="47.2698" lon="-2.34167">
        <ele>5.5999999046326</ele>
        <time>2021-04-29T07:27:16.000Z</time>
      </trkpt>
      <trkpt lat="47.26993" lon="-2.34225">
        <ele>5.5999999046326</ele>
        <time>2021-04-29T07:27:25.000Z</time>
      </trkpt>
      <trkpt lat="47.26996" lon="-2.34238">
        <ele>5.5999999046326</ele>
        <time>2021-04-29T07:27:27.000Z</time>
      </trkpt>
      <trkpt lat="47.27006" lon="-2.34282">
        <ele>5.5999999046326</ele>
        <time>2021-04-29T07:27:34.000Z</time>
      </trkpt>
      <trkpt lat="47.27007" lon="-2.34288">
        <ele>5.5999999046326</ele>
        <time>2021-04-29T07:27:35.000Z</time>
      </trkpt>
      <trkpt lat="47.27006" lon="-2.34305">
        <ele>5.5999999046326</ele>
        <time>2021-04-29T07:27:38.000Z</time>
      </trkpt>
      <trkpt lat="47.27008" lon="-2.34316">
        <ele>5.5999999046326</ele>
        <time>2021-04-29T07:27:40.000Z</time>
      </trkpt>
      <trkpt lat="47.27014" lon="-2.3432">
        <ele>5.5999999046326</ele>
        <time>2021-04-29T07:27:42.000Z</time>
      </trkpt>
      <trkpt lat="47.27033" lon="-2.34321">
        <ele>5.5999999046326</ele>
        <time>2021-04-29T07:27:47.000Z</time>
      </trkpt>
      <trkpt lat="47.27068" lon="-2.34318">
        <ele>5.5999999046326</ele>
        <time>2021-04-29T07:27:55.000Z</time>
      </trkpt>
      <trkpt lat="47.27077" lon="-2.34319">
        <ele>6.4000000953674</ele>
        <time>2021-04-29T07:27:57.000Z</time>
      </trkpt>
      <trkpt lat="47.27081" lon="-2.34318">
        <ele>6.8000001907349</ele>
        <time>2021-04-29T07:27:58.000Z</time>
      </trkpt>
      <trkpt lat="47.27085" lon="-2.34319">
        <ele>7.4000000953674</ele>
        <time>2021-04-29T07:27:59.000Z</time>
      </trkpt>
      <trkpt lat="47.27089" lon="-2.34319">
        <ele>7.8000001907349</ele>
        <time>2021-04-29T07:28:00.000Z</time>
      </trkpt>
      <trkpt lat="47.27098" lon="-2.34319">
        <ele>7.8000001907349</ele>
        <time>2021-04-29T07:28:02.000Z</time>
      </trkpt>
      <trkpt lat="47.27123" lon="-2.34319">
        <ele>7.8000001907349</ele>
        <time>2021-04-29T07:28:08.000Z</time>
      </trkpt>
      <trkpt lat="47.27127" lon="-2.3432">
        <ele>7.8000001907349</ele>
        <time>2021-04-29T07:28:09.000Z</time>
      </trkpt>
      <trkpt lat="47.27135" lon="-2.3432">
        <ele>8.1999998092651</ele>
        <time>2021-04-29T07:28:11.000Z</time>
      </trkpt>
      <trkpt lat="47.27138" lon="-2.34319">
        <ele>8.6000003814697</ele>
        <time>2021-04-29T07:28:12.000Z</time>
      </trkpt>
      <trkpt lat="47.27142" lon="-2.34319">
        <ele>9</ele>
        <time>2021-04-29T07:28:13.000Z</time>
      </trkpt>
      <trkpt lat="47.27146" lon="-2.34319">
        <ele>9.3999996185303</ele>
        <time>2021-04-29T07:28:14.000Z</time>
      </trkpt>
      <trkpt lat="47.2715" lon="-2.34318">
        <ele>9.8000001907349</ele>
        <time>2021-04-29T07:28:15.000Z</time>
      </trkpt>
      <trkpt lat="47.27154" lon="-2.34318">
        <ele>9.8000001907349</ele>
        <time>2021-04-29T07:28:16.000Z</time>
      </trkpt>
      <trkpt lat="47.27186" lon="-2.34321">
        <ele>9.8000001907349</ele>
        <time>2021-04-29T07:28:23.000Z</time>
      </trkpt>
      <trkpt lat="47.27194" lon="-2.34322">
        <ele>10.39999961853</ele>
        <time>2021-04-29T07:28:25.000Z</time>
      </trkpt>
      <trkpt lat="47.27198" lon="-2.34322">
        <ele>10.800000190735</ele>
        <time>2021-04-29T07:28:26.000Z</time>
      </trkpt>
      <trkpt lat="47.27203" lon="-2.34322">
        <ele>11.199999809265</ele>
        <time>2021-04-29T07:28:27.000Z</time>
      </trkpt>
      <trkpt lat="47.27207" lon="-2.34322">
        <ele>11.60000038147</ele>
        <time>2021-04-29T07:28:28.000Z</time>
      </trkpt>
      <trkpt lat="47.27211" lon="-2.34321">
        <ele>12</ele>
        <time>2021-04-29T07:28:29.000Z</time>
      </trkpt>
      <trkpt lat="47.27216" lon="-2.34321">
        <ele>12</ele>
        <time>2021-04-29T07:28:30.000Z</time>
      </trkpt>
      <trkpt lat="47.27246" lon="-2.34321">
        <ele>12</ele>
        <time>2021-04-29T07:28:37.000Z</time>
      </trkpt>
      <trkpt lat="47.27263" lon="-2.3432">
        <ele>12.60000038147</ele>
        <time>2021-04-29T07:28:41.000Z</time>
      </trkpt>
      <trkpt lat="47.27267" lon="-2.3432">
        <ele>13</ele>
        <time>2021-04-29T07:28:42.000Z</time>
      </trkpt>
      <trkpt lat="47.27271" lon="-2.34319">
        <ele>13.39999961853</ele>
        <time>2021-04-29T07:28:43.000Z</time>
      </trkpt>
      <trkpt lat="47.27275" lon="-2.34319">
        <ele>13.800000190735</ele>
        <time>2021-04-29T07:28:44.000Z</time>
      </trkpt>
      <trkpt lat="47.27278" lon="-2.34317">
        <ele>14.199999809265</ele>
        <time>2021-04-29T07:28:45.000Z</time>
      </trkpt>
      <trkpt lat="47.27307" lon="-2.34305">
        <ele>14.199999809265</ele>
        <time>2021-04-29T07:28:52.000Z</time>
      </trkpt>
      <trkpt lat="47.27323" lon="-2.34296">
        <ele>14.60000038147</ele>
        <time>2021-04-29T07:28:56.000Z</time>
      </trkpt>
      <trkpt lat="47.27327" lon="-2.34294">
        <ele>15</ele>
        <time>2021-04-29T07:28:57.000Z</time>
      </trkpt>
      <trkpt lat="47.2733" lon="-2.34292">
        <ele>15.39999961853</ele>
        <time>2021-04-29T07:28:58.000Z</time>
      </trkpt>
      <trkpt lat="47.27334" lon="-2.3429">
        <ele>15.800000190735</ele>
        <time>2021-04-29T07:28:59.000Z</time>
      </trkpt>
      <trkpt lat="47.27338" lon="-2.34288">
        <ele>16.200000762939</ele>
        <time>2021-04-29T07:29:00.000Z</time>
      </trkpt>
      <trkpt lat="47.27341" lon="-2.34286">
        <ele>16.200000762939</ele>
        <time>2021-04-29T07:29:01.000Z</time>
      </trkpt>
      <trkpt lat="47.27367" lon="-2.34266">
        <ele>16.200000762939</ele>
        <time>2021-04-29T07:29:08.000Z</time>
      </trkpt>
      <trkpt lat="47.27378" lon="-2.34258">
        <ele>17.200000762939</ele>
        <time>2021-04-29T07:29:11.000Z</time>
      </trkpt>
      <trkpt lat="47.27382" lon="-2.34255">
        <ele>17.60000038147</ele>
        <time>2021-04-29T07:29:12.000Z</time>
      </trkpt>
      <trkpt lat="47.27385" lon="-2.34253">
        <ele>18</ele>
        <time>2021-04-29T07:29:13.000Z</time>
      </trkpt>
      <trkpt lat="47.27389" lon="-2.34251">
        <ele>18.39999961853</ele>
        <time>2021-04-29T07:29:14.000Z</time>
      </trkpt>
      <trkpt lat="47.27395" lon="-2.34247">
        <ele>18.39999961853</ele>
        <time>2021-04-29T07:29:16.000Z</time>
      </trkpt>
      <trkpt lat="47.27409" lon="-2.34237">
        <ele>18.39999961853</ele>
        <time>2021-04-29T07:29:21.000Z</time>
      </trkpt>
      <trkpt lat="47.27413" lon="-2.3424">
        <ele>18.39999961853</ele>
        <time>2021-04-29T07:29:23.000Z</time>
      </trkpt>
      <trkpt lat="47.27415" lon="-2.3425">
        <ele>18.39999961853</ele>
        <time>2021-04-29T07:29:25.000Z</time>
      </trkpt>
      <trkpt lat="47.27417" lon="-2.34276">
        <ele>18.39999961853</ele>
        <time>2021-04-29T07:29:29.000Z</time>
      </trkpt>
      <trkpt lat="47.27417" lon="-2.34325">
        <ele>18.39999961853</ele>
        <time>2021-04-29T07:29:37.000Z</time>
      </trkpt>
      <trkpt lat="47.27417" lon="-2.34348">
        <ele>18.799999237061</ele>
        <time>2021-04-29T07:29:41.000Z</time>
      </trkpt>
      <trkpt lat="47.27418" lon="-2.34354">
        <ele>19.200000762939</ele>
        <time>2021-04-29T07:29:42.000Z</time>
      </trkpt>
      <trkpt lat="47.27418" lon="-2.3436">
        <ele>19.60000038147</ele>
        <time>2021-04-29T07:29:43.000Z</time>
      </trkpt>
      <trkpt lat="47.27418" lon="-2.34366">
        <ele>20</ele>
        <time>2021-04-29T07:29:44.000Z</time>
      </trkpt>
      <trkpt lat="47.27419" lon="-2.34371">
        <ele>20.39999961853</ele>
        <time>2021-04-29T07:29:45.000Z</time>
      </trkpt>
      <trkpt lat="47.27419" lon="-2.34377">
        <ele>20.39999961853</ele>
        <time>2021-04-29T07:29:46.000Z</time>
      </trkpt>
      <trkpt lat="47.27424" lon="-2.34425">
        <ele>20.39999961853</ele>
        <time>2021-04-29T07:29:54.000Z</time>
      </trkpt>
      <trkpt lat="47.27426" lon="-2.34468">
        <ele>20.39999961853</ele>
        <time>2021-04-29T07:30:01.000Z</time>
      </trkpt>
      <trkpt lat="47.27427" lon="-2.34486">
        <ele>20.799999237061</ele>
        <time>2021-04-29T07:30:04.000Z</time>
      </trkpt>
      <trkpt lat="47.27428" lon="-2.34492">
        <ele>21.200000762939</ele>
        <time>2021-04-29T07:30:05.000Z</time>
      </trkpt>
      <trkpt lat="47.27429" lon="-2.34498">
        <ele>21.60000038147</ele>
        <time>2021-04-29T07:30:06.000Z</time>
      </trkpt>
      <trkpt lat="47.2743" lon="-2.34504">
        <ele>22</ele>
        <time>2021-04-29T07:30:07.000Z</time>
      </trkpt>
      <trkpt lat="47.27431" lon="-2.3451">
        <ele>22.39999961853</ele>
        <time>2021-04-29T07:30:08.000Z</time>
      </trkpt>
      <trkpt lat="47.27439" lon="-2.3454">
        <ele>22.39999961853</ele>
        <time>2021-04-29T07:30:14.000Z</time>
      </trkpt>
      <trkpt lat="47.27446" lon="-2.34575">
        <ele>22.39999961853</ele>
        <time>2021-04-29T07:30:20.000Z</time>
      </trkpt>
      <trkpt lat="47.27452" lon="-2.34616">
        <ele>22.39999961853</ele>
        <time>2021-04-29T07:30:26.000Z</time>
      </trkpt>
      <trkpt lat="47.27458" lon="-2.34669">
        <ele>22.39999961853</ele>
        <time>2021-04-29T07:30:33.000Z</time>
      </trkpt>
      <trkpt lat="47.27458" lon="-2.34715">
        <ele>22.39999961853</ele>
        <time>2021-04-29T07:30:39.000Z</time>
      </trkpt>
      <trkpt lat="47.27458" lon="-2.34775">
        <ele>22.39999961853</ele>
        <time>2021-04-29T07:30:46.000Z</time>
      </trkpt>
      <trkpt lat="47.2746" lon="-2.34829">
        <ele>22</ele>
        <time>2021-04-29T07:30:52.000Z</time>
      </trkpt>
      <trkpt lat="47.27461" lon="-2.34839">
        <ele>21.60000038147</ele>
        <time>2021-04-29T07:30:53.000Z</time>
      </trkpt>
      <trkpt lat="47.27461" lon="-2.34848">
        <ele>21.200000762939</ele>
        <time>2021-04-29T07:30:54.000Z</time>
      </trkpt>
      <trkpt lat="47.27461" lon="-2.34857">
        <ele>20.799999237061</ele>
        <time>2021-04-29T07:30:55.000Z</time>
      </trkpt>
      <trkpt lat="47.27461" lon="-2.34866">
        <ele>20.39999961853</ele>
        <time>2021-04-29T07:30:56.000Z</time>
      </trkpt>
      <trkpt lat="47.27464" lon="-2.3491">
        <ele>20.39999961853</ele>
        <time>2021-04-29T07:31:01.000Z</time>
      </trkpt>
      <trkpt lat="47.2747" lon="-2.3492">
        <ele>20</ele>
        <time>2021-04-29T07:31:03.000Z</time>
      </trkpt>
      <trkpt lat="47.27475" lon="-2.34919">
        <ele>19.60000038147</ele>
        <time>2021-04-29T07:31:04.000Z</time>
      </trkpt>
      <trkpt lat="47.27481" lon="-2.34917">
        <ele>19.200000762939</ele>
        <time>2021-04-29T07:31:05.000Z</time>
      </trkpt>
      <trkpt lat="47.27485" lon="-2.34916">
        <ele>18.799999237061</ele>
        <time>2021-04-29T07:31:06.000Z</time>
      </trkpt>
      <trkpt lat="47.27489" lon="-2.34916">
        <ele>18.39999961853</ele>
        <time>2021-04-29T07:31:07.000Z</time>
      </trkpt>
      <trkpt lat="47.27494" lon="-2.34914">
        <ele>18.39999961853</ele>
        <time>2021-04-29T07:31:08.000Z</time>
      </trkpt>
      <trkpt lat="47.2751" lon="-2.34908">
        <ele>18.39999961853</ele>
        <time>2021-04-29T07:31:12.000Z</time>
      </trkpt>
      <trkpt lat="47.27518" lon="-2.34902">
        <ele>18.799999237061</ele>
        <time>2021-04-29T07:31:14.000Z</time>
      </trkpt>
      <trkpt lat="47.27521" lon="-2.34899">
        <ele>19.200000762939</ele>
        <time>2021-04-29T07:31:15.000Z</time>
      </trkpt>
      <trkpt lat="47.27525" lon="-2.34899">
        <ele>19.60000038147</ele>
        <time>2021-04-29T07:31:16.000Z</time>
      </trkpt>
      <trkpt lat="47.2753" lon="-2.34899">
        <ele>20.200000762939</ele>
        <time>2021-04-29T07:31:17.000Z</time>
      </trkpt>
      <trkpt lat="47.27535" lon="-2.34899">
        <ele>20.60000038147</ele>
        <time>2021-04-29T07:31:18.000Z</time>
      </trkpt>
      <trkpt lat="47.27545" lon="-2.34901">
        <ele>20.60000038147</ele>
        <time>2021-04-29T07:31:20.000Z</time>
      </trkpt>
      <trkpt lat="47.2757" lon="-2.34903">
        <ele>20.60000038147</ele>
        <time>2021-04-29T07:31:25.000Z</time>
      </trkpt>
      <trkpt lat="47.2758" lon="-2.34905">
        <ele>20.60000038147</ele>
        <time>2021-04-29T07:31:27.000Z</time>
      </trkpt>
      <trkpt lat="47.27605" lon="-2.3491">
        <ele>20.60000038147</ele>
        <time>2021-04-29T07:31:32.000Z</time>
      </trkpt>
      <trkpt lat="47.2764" lon="-2.34914">
        <ele>20.60000038147</ele>
        <time>2021-04-29T07:31:39.000Z</time>
      </trkpt>
      <trkpt lat="47.2767" lon="-2.3491">
        <ele>20.60000038147</ele>
        <time>2021-04-29T07:31:45.000Z</time>
      </trkpt>
      <trkpt lat="47.2768" lon="-2.34927">
        <ele>20.60000038147</ele>
        <time>2021-04-29T07:31:48.000Z</time>
      </trkpt>
      <trkpt lat="47.27684" lon="-2.34958">
        <ele>20.60000038147</ele>
        <time>2021-04-29T07:31:52.000Z</time>
      </trkpt>
      <trkpt lat="47.27684" lon="-2.34968">
        <ele>20.60000038147</ele>
        <time>2021-04-29T07:31:53.000Z</time>
      </trkpt>
      <trkpt lat="47.27684" lon="-2.35009">
        <ele>20.60000038147</ele>
        <time>2021-04-29T07:31:58.000Z</time>
      </trkpt>
      <trkpt lat="47.27687" lon="-2.35026">
        <ele>20.200000762939</ele>
        <time>2021-04-29T07:32:00.000Z</time>
      </trkpt>
      <trkpt lat="47.2769" lon="-2.35032">
        <ele>19.39999961853</ele>
        <time>2021-04-29T07:32:01.000Z</time>
      </trkpt>
      <trkpt lat="47.27693" lon="-2.35037">
        <ele>19</ele>
        <time>2021-04-29T07:32:02.000Z</time>
      </trkpt>
      <trkpt lat="47.27699" lon="-2.35037">
        <ele>18.60000038147</ele>
        <time>2021-04-29T07:32:03.000Z</time>
      </trkpt>
      <trkpt lat="47.27705" lon="-2.35036">
        <ele>18.60000038147</ele>
        <time>2021-04-29T07:32:04.000Z</time>
      </trkpt>
      <trkpt lat="47.27743" lon="-2.35027">
        <ele>18.60000038147</ele>
        <time>2021-04-29T07:32:11.000Z</time>
      </trkpt>
      <trkpt lat="47.27757" lon="-2.35022">
        <ele>18</ele>
        <time>2021-04-29T07:32:14.000Z</time>
      </trkpt>
      <trkpt lat="47.2776" lon="-2.35025">
        <ele>17.60000038147</ele>
        <time>2021-04-29T07:32:15.000Z</time>
      </trkpt>
      <trkpt lat="47.27763" lon="-2.3503">
        <ele>17.200000762939</ele>
        <time>2021-04-29T07:32:16.000Z</time>
      </trkpt>
      <trkpt lat="47.27765" lon="-2.35035">
        <ele>16.799999237061</ele>
        <time>2021-04-29T07:32:17.000Z</time>
      </trkpt>
      <trkpt lat="47.27767" lon="-2.35041">
        <ele>16.39999961853</ele>
        <time>2021-04-29T07:32:18.000Z</time>
      </trkpt>
      <trkpt lat="47.27767" lon="-2.3505">
        <ele>16.39999961853</ele>
        <time>2021-04-29T07:32:19.000Z</time>
      </trkpt>
      <trkpt lat="47.27768" lon="-2.35065">
        <ele>16.39999961853</ele>
        <time>2021-04-29T07:32:21.000Z</time>
      </trkpt>
      <trkpt lat="47.27768" lon="-2.35072">
        <ele>16.39999961853</ele>
        <time>2021-04-29T07:32:22.000Z</time>
      </trkpt>
      <trkpt lat="47.27768" lon="-2.35082">
        <ele>16</ele>
        <time>2021-04-29T07:32:23.000Z</time>
      </trkpt>
      <trkpt lat="47.27768" lon="-2.35091">
        <ele>15.60000038147</ele>
        <time>2021-04-29T07:32:24.000Z</time>
      </trkpt>
      <trkpt lat="47.27769" lon="-2.35099">
        <ele>15</ele>
        <time>2021-04-29T07:32:25.000Z</time>
      </trkpt>
      <trkpt lat="47.27769" lon="-2.35108">
        <ele>14.60000038147</ele>
        <time>2021-04-29T07:32:26.000Z</time>
      </trkpt>
      <trkpt lat="47.27769" lon="-2.35117">
        <ele>14.199999809265</ele>
        <time>2021-04-29T07:32:27.000Z</time>
      </trkpt>
      <trkpt lat="47.2777" lon="-2.35135">
        <ele>14.199999809265</ele>
        <time>2021-04-29T07:32:29.000Z</time>
      </trkpt>
      <trkpt lat="47.27775" lon="-2.3521">
        <ele>14.199999809265</ele>
        <time>2021-04-29T07:32:37.000Z</time>
      </trkpt>
      <trkpt lat="47.27776" lon="-2.3522">
        <ele>14.199999809265</ele>
        <time>2021-04-29T07:32:38.000Z</time>
      </trkpt>
      <trkpt lat="47.27782" lon="-2.35257">
        <ele>14.199999809265</ele>
        <time>2021-04-29T07:32:42.000Z</time>
      </trkpt>
      <trkpt lat="47.27799" lon="-2.35337">
        <ele>14.199999809265</ele>
        <time>2021-04-29T07:32:51.000Z</time>
      </trkpt>
      <trkpt lat="47.27805" lon="-2.35353">
        <ele>14.199999809265</ele>
        <time>2021-04-29T07:32:53.000Z</time>
      </trkpt>
      <trkpt lat="47.27815" lon="-2.35363">
        <ele>14.199999809265</ele>
        <time>2021-04-29T07:32:55.000Z</time>
      </trkpt>
      <trkpt lat="47.27836" lon="-2.35363">
        <ele>14.199999809265</ele>
        <time>2021-04-29T07:32:59.000Z</time>
      </trkpt>
      <trkpt lat="47.27869" lon="-2.35362">
        <ele>14.199999809265</ele>
        <time>2021-04-29T07:33:06.000Z</time>
      </trkpt>
      <trkpt lat="47.27878" lon="-2.35366">
        <ele>14.199999809265</ele>
        <time>2021-04-29T07:33:08.000Z</time>
      </trkpt>
      <trkpt lat="47.2789" lon="-2.3538">
        <ele>14.199999809265</ele>
        <time>2021-04-29T07:33:11.000Z</time>
      </trkpt>
      <trkpt lat="47.27915" lon="-2.35417">
        <ele>14.199999809265</ele>
        <time>2021-04-29T07:33:18.000Z</time>
      </trkpt>
      <trkpt lat="47.27945" lon="-2.35453">
        <ele>14.199999809265</ele>
        <time>2021-04-29T07:33:25.000Z</time>
      </trkpt>
      <trkpt lat="47.2795" lon="-2.35457">
        <ele>14.199999809265</ele>
        <time>2021-04-29T07:33:26.000Z</time>
      </trkpt>
      <trkpt lat="47.27971" lon="-2.35471">
        <ele>14.199999809265</ele>
        <time>2021-04-29T07:33:30.000Z</time>
      </trkpt>
      <trkpt lat="47.27976" lon="-2.35476">
        <ele>14.199999809265</ele>
        <time>2021-04-29T07:33:31.000Z</time>
      </trkpt>
      <trkpt lat="47.27994" lon="-2.35508">
        <ele>14.199999809265</ele>
        <time>2021-04-29T07:33:36.000Z</time>
      </trkpt>
      <trkpt lat="47.28003" lon="-2.35531">
        <ele>14.199999809265</ele>
        <time>2021-04-29T07:33:40.000Z</time>
      </trkpt>
      <trkpt lat="47.28004" lon="-2.35537">
        <ele>14.199999809265</ele>
        <time>2021-04-29T07:33:41.000Z</time>
      </trkpt>
      <trkpt lat="47.28011" lon="-2.35559">
        <ele>14.199999809265</ele>
        <time>2021-04-29T07:33:46.000Z</time>
      </trkpt>
      <trkpt lat="47.28013" lon="-2.35563">
        <ele>14.199999809265</ele>
        <time>2021-04-29T07:33:47.000Z</time>
      </trkpt>
      <trkpt lat="47.28016" lon="-2.35564">
        <ele>14.800000190735</ele>
        <time>2021-04-29T07:33:48.000Z</time>
      </trkpt>
      <trkpt lat="47.2802" lon="-2.35563">
        <ele>15.199999809265</ele>
        <time>2021-04-29T07:33:49.000Z</time>
      </trkpt>
      <trkpt lat="47.28023" lon="-2.35563">
        <ele>15.60000038147</ele>
        <time>2021-04-29T07:33:50.000Z</time>
      </trkpt>
      <trkpt lat="47.28027" lon="-2.35565">
        <ele>16</ele>
        <time>2021-04-29T07:33:51.000Z</time>
      </trkpt>
      <trkpt lat="47.28031" lon="-2.35567">
        <ele>16.39999961853</ele>
        <time>2021-04-29T07:33:52.000Z</time>
      </trkpt>
      <trkpt lat="47.28034" lon="-2.35569">
        <ele>16.39999961853</ele>
        <time>2021-04-29T07:33:53.000Z</time>
      </trkpt>
      <trkpt lat="47.28038" lon="-2.35572">
        <ele>16.39999961853</ele>
        <time>2021-04-29T07:33:54.000Z</time>
      </trkpt>
      <trkpt lat="47.28052" lon="-2.35576">
        <ele>16.39999961853</ele>
        <time>2021-04-29T07:33:58.000Z</time>
      </trkpt>
      <trkpt lat="47.28068" lon="-2.35586">
        <ele>16.799999237061</ele>
        <time>2021-04-29T07:34:03.000Z</time>
      </trkpt>
      <trkpt lat="47.2807" lon="-2.35589">
        <ele>17.200000762939</ele>
        <time>2021-04-29T07:34:04.000Z</time>
      </trkpt>
      <trkpt lat="47.28073" lon="-2.35593">
        <ele>17.60000038147</ele>
        <time>2021-04-29T07:34:05.000Z</time>
      </trkpt>
      <trkpt lat="47.28075" lon="-2.35597">
        <ele>18.39999961853</ele>
        <time>2021-04-29T07:34:06.000Z</time>
      </trkpt>
      <trkpt lat="47.28086" lon="-2.35617">
        <ele>18.39999961853</ele>
        <time>2021-04-29T07:34:11.000Z</time>
      </trkpt>
      <trkpt lat="47.28092" lon="-2.35631">
        <ele>18.39999961853</ele>
        <time>2021-04-29T07:34:17.000Z</time>
      </trkpt>
      <trkpt lat="47.28092" lon="-2.35636">
        <ele>18.39999961853</ele>
        <time>2021-04-29T07:34:20.000Z</time>
      </trkpt>
      <trkpt lat="47.28089" lon="-2.35624">
        <ele>18.39999961853</ele>
        <time>2021-04-29T07:37:57.000Z</time>
      </trkpt>
      <trkpt lat="47.28087" lon="-2.35622">
        <ele>18.39999961853</ele>
        <time>2021-04-29T07:37:58.000Z</time>
      </trkpt>
      <trkpt lat="47.28079" lon="-2.35616">
        <ele>18.39999961853</ele>
        <time>2021-04-29T07:38:02.000Z</time>
      </trkpt>
      <trkpt lat="47.28076" lon="-2.35616">
        <ele>18.39999961853</ele>
        <time>2021-04-29T07:38:03.000Z</time>
      </trkpt>
      <trkpt lat="47.28071" lon="-2.35625">
        <ele>18.39999961853</ele>
        <time>2021-04-29T07:38:07.000Z</time>
      </trkpt>
      <trkpt lat="47.28075" lon="-2.3564">
        <ele>18.799999237061</ele>
        <time>2021-04-29T07:38:11.000Z</time>
      </trkpt>
      <trkpt lat="47.28076" lon="-2.35643">
        <ele>19.39999961853</ele>
        <time>2021-04-29T07:38:12.000Z</time>
      </trkpt>
      <trkpt lat="47.28077" lon="-2.35646">
        <ele>20.200000762939</ele>
        <time>2021-04-29T07:38:13.000Z</time>
      </trkpt>
      <trkpt lat="47.28078" lon="-2.35649">
        <ele>20.60000038147</ele>
        <time>2021-04-29T07:38:14.000Z</time>
      </trkpt>
      <trkpt lat="47.28079" lon="-2.35653">
        <ele>21</ele>
        <time>2021-04-29T07:38:15.000Z</time>
      </trkpt>
      <trkpt lat="47.2808" lon="-2.35656">
        <ele>21.39999961853</ele>
        <time>2021-04-29T07:38:16.000Z</time>
      </trkpt>
      <trkpt lat="47.2808" lon="-2.3566">
        <ele>21.799999237061</ele>
        <time>2021-04-29T07:38:17.000Z</time>
      </trkpt>
      <trkpt lat="47.28081" lon="-2.35665">
        <ele>22.39999961853</ele>
        <time>2021-04-29T07:38:18.000Z</time>
      </trkpt>
      <trkpt lat="47.28082" lon="-2.3567">
        <ele>22.799999237061</ele>
        <time>2021-04-29T07:38:19.000Z</time>
      </trkpt>
      <trkpt lat="47.28089" lon="-2.35694">
        <ele>23.200000762939</ele>
        <time>2021-04-29T07:38:24.000Z</time>
      </trkpt>
      <trkpt lat="47.28089" lon="-2.35698">
        <ele>23.60000038147</ele>
        <time>2021-04-29T07:38:25.000Z</time>
      </trkpt>
      <trkpt lat="47.28089" lon="-2.35702">
        <ele>24</ele>
        <time>2021-04-29T07:38:26.000Z</time>
      </trkpt>
      <trkpt lat="47.2809" lon="-2.35707">
        <ele>24.39999961853</ele>
        <time>2021-04-29T07:38:27.000Z</time>
      </trkpt>
      <trkpt lat="47.2809" lon="-2.3571">
        <ele>24.799999237061</ele>
        <time>2021-04-29T07:38:28.000Z</time>
      </trkpt>
      <trkpt lat="47.28089" lon="-2.35727">
        <ele>24.799999237061</ele>
        <time>2021-04-29T07:38:32.000Z</time>
      </trkpt>
      <trkpt lat="47.28082" lon="-2.35755">
        <ele>24.799999237061</ele>
        <time>2021-04-29T07:38:38.000Z</time>
      </trkpt>
      <trkpt lat="47.28081" lon="-2.35776">
        <ele>24.799999237061</ele>
        <time>2021-04-29T07:38:44.000Z</time>
      </trkpt>
      <trkpt lat="47.28078" lon="-2.35788">
        <ele>24.39999961853</ele>
        <time>2021-04-29T07:38:47.000Z</time>
      </trkpt>
      <trkpt lat="47.28077" lon="-2.35792">
        <ele>24</ele>
        <time>2021-04-29T07:38:48.000Z</time>
      </trkpt>
      <trkpt lat="47.28076" lon="-2.35797">
        <ele>23.60000038147</ele>
        <time>2021-04-29T07:38:49.000Z</time>
      </trkpt>
      <trkpt lat="47.28077" lon="-2.35801">
        <ele>23.200000762939</ele>
        <time>2021-04-29T07:38:50.000Z</time>
      </trkpt>
      <trkpt lat="47.28078" lon="-2.35803">
        <ele>22.799999237061</ele>
        <time>2021-04-29T07:38:51.000Z</time>
      </trkpt>
      <trkpt lat="47.2808" lon="-2.35806">
        <ele>22.39999961853</ele>
        <time>2021-04-29T07:38:53.000Z</time>
      </trkpt>
      <trkpt lat="47.2808" lon="-2.35807">
        <ele>21.799999237061</ele>
        <time>2021-04-29T07:38:54.000Z</time>
      </trkpt>
      <trkpt lat="47.28081" lon="-2.35806">
        <ele>21.39999961853</ele>
        <time>2021-04-29T07:38:55.000Z</time>
      </trkpt>
      <trkpt lat="47.28082" lon="-2.35806">
        <ele>21</ele>
        <time>2021-04-29T07:38:56.000Z</time>
      </trkpt>
      <trkpt lat="47.28083" lon="-2.35806">
        <ele>20.60000038147</ele>
        <time>2021-04-29T07:38:57.000Z</time>
      </trkpt>
      <trkpt lat="47.28084" lon="-2.35804">
        <ele>20.60000038147</ele>
        <time>2021-04-29T07:38:59.000Z</time>
      </trkpt>
      <trkpt lat="47.28091" lon="-2.35793">
        <ele>20.60000038147</ele>
        <time>2021-04-29T07:39:06.000Z</time>
      </trkpt>
      <trkpt lat="47.28101" lon="-2.35799">
        <ele>20.60000038147</ele>
        <time>2021-04-29T07:39:13.000Z</time>
      </trkpt>
      <trkpt lat="47.28101" lon="-2.35808">
        <ele>20.60000038147</ele>
        <time>2021-04-29T07:39:18.000Z</time>
      </trkpt>
      <trkpt lat="47.28123" lon="-2.35828">
        <ele>22.799999237061</ele>
        <time>2021-04-29T07:39:44.000Z</time>
      </trkpt>
      <trkpt lat="47.28124" lon="-2.35826">
        <ele>22.799999237061</ele>
        <time>2021-04-29T07:39:45.000Z</time>
      </trkpt>
      <trkpt lat="47.28137" lon="-2.35813">
        <ele>22.799999237061</ele>
        <time>2021-04-29T07:39:52.000Z</time>
      </trkpt>
      <trkpt lat="47.28144" lon="-2.35814">
        <ele>22.799999237061</ele>
        <time>2021-04-29T07:39:55.000Z</time>
      </trkpt>
      <trkpt lat="47.28148" lon="-2.35817">
        <ele>22.799999237061</ele>
        <time>2021-04-29T07:39:57.000Z</time>
      </trkpt>
      <trkpt lat="47.2816" lon="-2.35831">
        <ele>22.799999237061</ele>
        <time>2021-04-29T07:40:03.000Z</time>
      </trkpt>
      <trkpt lat="47.2818" lon="-2.35853">
        <ele>22.799999237061</ele>
        <time>2021-04-29T07:40:11.000Z</time>
      </trkpt>
      <trkpt lat="47.28202" lon="-2.35883">
        <ele>22.799999237061</ele>
        <time>2021-04-29T07:40:18.000Z</time>
      </trkpt>
      <trkpt lat="47.28223" lon="-2.35896">
        <ele>22.799999237061</ele>
        <time>2021-04-29T07:40:24.000Z</time>
      </trkpt>
      <trkpt lat="47.28238" lon="-2.35893">
        <ele>22.799999237061</ele>
        <time>2021-04-29T07:40:30.000Z</time>
      </trkpt>
      <trkpt lat="47.28242" lon="-2.35896">
        <ele>22.799999237061</ele>
        <time>2021-04-29T07:40:33.000Z</time>
      </trkpt>
      <trkpt lat="47.28244" lon="-2.35899">
        <ele>22.799999237061</ele>
        <time>2021-04-29T07:40:35.000Z</time>
      </trkpt>
      <trkpt lat="47.28248" lon="-2.35914">
        <ele>23.60000038147</ele>
        <time>2021-04-29T07:40:40.000Z</time>
      </trkpt>
      <trkpt lat="47.2825" lon="-2.35919">
        <ele>24</ele>
        <time>2021-04-29T07:40:41.000Z</time>
      </trkpt>
      <trkpt lat="47.28252" lon="-2.35923">
        <ele>24.39999961853</ele>
        <time>2021-04-29T07:40:42.000Z</time>
      </trkpt>
      <trkpt lat="47.28255" lon="-2.35928">
        <ele>24.799999237061</ele>
        <time>2021-04-29T07:40:43.000Z</time>
      </trkpt>
      <trkpt lat="47.2826" lon="-2.3594">
        <ele>24.799999237061</ele>
        <time>2021-04-29T07:40:45.000Z</time>
      </trkpt>
      <trkpt lat="47.28273" lon="-2.35968">
        <ele>24.39999961853</ele>
        <time>2021-04-29T07:40:49.000Z</time>
      </trkpt>
      <trkpt lat="47.28275" lon="-2.35977">
        <ele>24</ele>
        <time>2021-04-29T07:40:50.000Z</time>
      </trkpt>
      <trkpt lat="47.28276" lon="-2.35985">
        <ele>23.60000038147</ele>
        <time>2021-04-29T07:40:51.000Z</time>
      </trkpt>
      <trkpt lat="47.28276" lon="-2.35991">
        <ele>23.200000762939</ele>
        <time>2021-04-29T07:40:52.000Z</time>
      </trkpt>
      <trkpt lat="47.28275" lon="-2.35996">
        <ele>22.799999237061</ele>
        <time>2021-04-29T07:40:53.000Z</time>
      </trkpt>
      <trkpt lat="47.28275" lon="-2.36017">
        <ele>22.799999237061</ele>
        <time>2021-04-29T07:40:58.000Z</time>
      </trkpt>
      <trkpt lat="47.28277" lon="-2.36025">
        <ele>23.200000762939</ele>
        <time>2021-04-29T07:41:01.000Z</time>
      </trkpt>
      <trkpt lat="47.28278" lon="-2.36027">
        <ele>23.799999237061</ele>
        <time>2021-04-29T07:41:02.000Z</time>
      </trkpt>
      <trkpt lat="47.28279" lon="-2.36029">
        <ele>24.200000762939</ele>
        <time>2021-04-29T07:41:03.000Z</time>
      </trkpt>
      <trkpt lat="47.2828" lon="-2.36031">
        <ele>24.799999237061</ele>
        <time>2021-04-29T07:41:04.000Z</time>
      </trkpt>
      <trkpt lat="47.28281" lon="-2.36032">
        <ele>25.60000038147</ele>
        <time>2021-04-29T07:41:05.000Z</time>
      </trkpt>
      <trkpt lat="47.28283" lon="-2.36034">
        <ele>26.200000762939</ele>
        <time>2021-04-29T07:41:06.000Z</time>
      </trkpt>
      <trkpt lat="47.28284" lon="-2.36035">
        <ele>26.60000038147</ele>
        <time>2021-04-29T07:41:07.000Z</time>
      </trkpt>
      <trkpt lat="47.28286" lon="-2.36036">
        <ele>27</ele>
        <time>2021-04-29T07:41:08.000Z</time>
      </trkpt>
      <trkpt lat="47.28288" lon="-2.36038">
        <ele>27.39999961853</ele>
        <time>2021-04-29T07:41:09.000Z</time>
      </trkpt>
      <trkpt lat="47.2829" lon="-2.36039">
        <ele>27.39999961853</ele>
        <time>2021-04-29T07:41:10.000Z</time>
      </trkpt>
      <trkpt lat="47.28292" lon="-2.3604">
        <ele>27.799999237061</ele>
        <time>2021-04-29T07:41:11.000Z</time>
      </trkpt>
      <trkpt lat="47.28294" lon="-2.36042">
        <ele>28.39999961853</ele>
        <time>2021-04-29T07:41:12.000Z</time>
      </trkpt>
      <trkpt lat="47.28297" lon="-2.36043">
        <ele>28.799999237061</ele>
        <time>2021-04-29T07:41:13.000Z</time>
      </trkpt>
      <trkpt lat="47.283" lon="-2.36044">
        <ele>29.200000762939</ele>
        <time>2021-04-29T07:41:14.000Z</time>
      </trkpt>
      <trkpt lat="47.28303" lon="-2.36046">
        <ele>29.60000038147</ele>
        <time>2021-04-29T07:41:15.000Z</time>
      </trkpt>
      <trkpt lat="47.28306" lon="-2.36047">
        <ele>29.60000038147</ele>
        <time>2021-04-29T07:41:16.000Z</time>
      </trkpt>
      <trkpt lat="47.28321" lon="-2.36047">
        <ele>29.60000038147</ele>
        <time>2021-04-29T07:41:21.000Z</time>
      </trkpt>
      <trkpt lat="47.28336" lon="-2.36033">
        <ele>29.60000038147</ele>
        <time>2021-04-29T07:41:27.000Z</time>
      </trkpt>
      <trkpt lat="47.28347" lon="-2.36026">
        <ele>30</ele>
        <time>2021-04-29T07:41:31.000Z</time>
      </trkpt>
      <trkpt lat="47.28349" lon="-2.36025">
        <ele>30.39999961853</ele>
        <time>2021-04-29T07:41:32.000Z</time>
      </trkpt>
      <trkpt lat="47.28352" lon="-2.36024">
        <ele>30.799999237061</ele>
        <time>2021-04-29T07:41:33.000Z</time>
      </trkpt>
      <trkpt lat="47.28354" lon="-2.36023">
        <ele>31.39999961853</ele>
        <time>2021-04-29T07:41:34.000Z</time>
      </trkpt>
      <trkpt lat="47.28357" lon="-2.36023">
        <ele>31.799999237061</ele>
        <time>2021-04-29T07:41:35.000Z</time>
      </trkpt>
      <trkpt lat="47.28362" lon="-2.36022">
        <ele>32.200000762939</ele>
        <time>2021-04-29T07:41:37.000Z</time>
      </trkpt>
      <trkpt lat="47.28364" lon="-2.36021">
        <ele>32.599998474121</ele>
        <time>2021-04-29T07:41:38.000Z</time>
      </trkpt>
      <trkpt lat="47.28367" lon="-2.36021">
        <ele>33</ele>
        <time>2021-04-29T07:41:39.000Z</time>
      </trkpt>
      <trkpt lat="47.28369" lon="-2.36021">
        <ele>33.400001525879</ele>
        <time>2021-04-29T07:41:40.000Z</time>
      </trkpt>
      <trkpt lat="47.28372" lon="-2.36021">
        <ele>33.799999237061</ele>
        <time>2021-04-29T07:41:41.000Z</time>
      </trkpt>
      <trkpt lat="47.28378" lon="-2.3602">
        <ele>34.200000762939</ele>
        <time>2021-04-29T07:41:44.000Z</time>
      </trkpt>
      <trkpt lat="47.2838" lon="-2.3602">
        <ele>34.599998474121</ele>
        <time>2021-04-29T07:41:45.000Z</time>
      </trkpt>
      <trkpt lat="47.28382" lon="-2.3602">
        <ele>35</ele>
        <time>2021-04-29T07:41:46.000Z</time>
      </trkpt>
      <trkpt lat="47.28384" lon="-2.3602">
        <ele>35.400001525879</ele>
        <time>2021-04-29T07:41:47.000Z</time>
      </trkpt>
      <trkpt lat="47.28385" lon="-2.3602">
        <ele>36</ele>
        <time>2021-04-29T07:41:48.000Z</time>
      </trkpt>
      <trkpt lat="47.2839" lon="-2.3602">
        <ele>36.400001525879</ele>
        <time>2021-04-29T07:41:50.000Z</time>
      </trkpt>
      <trkpt lat="47.28393" lon="-2.3602">
        <ele>36.799999237061</ele>
        <time>2021-04-29T07:41:51.000Z</time>
      </trkpt>
      <trkpt lat="47.28395" lon="-2.3602">
        <ele>37.200000762939</ele>
        <time>2021-04-29T07:41:52.000Z</time>
      </trkpt>
      <trkpt lat="47.28398" lon="-2.3602">
        <ele>37.599998474121</ele>
        <time>2021-04-29T07:41:53.000Z</time>
      </trkpt>
      <trkpt lat="47.284" lon="-2.36019">
        <ele>38</ele>
        <time>2021-04-29T07:41:54.000Z</time>
      </trkpt>
      <trkpt lat="47.28409" lon="-2.36011">
        <ele>38</ele>
        <time>2021-04-29T07:41:58.000Z</time>
      </trkpt>
      <trkpt lat="47.28426" lon="-2.35992">
        <ele>38</ele>
        <time>2021-04-29T07:42:05.000Z</time>
      </trkpt>
      <trkpt lat="47.28442" lon="-2.35985">
        <ele>38</ele>
        <time>2021-04-29T07:42:11.000Z</time>
      </trkpt>
      <trkpt lat="47.28445" lon="-2.35987">
        <ele>38</ele>
        <time>2021-04-29T07:42:12.000Z</time>
      </trkpt>
      <trkpt lat="47.28451" lon="-2.35996">
        <ele>38</ele>
        <time>2021-04-29T07:42:17.000Z</time>
      </trkpt>
      <trkpt lat="47.28452" lon="-2.36001">
        <ele>38</ele>
        <time>2021-04-29T07:42:20.000Z</time>
      </trkpt>
      <trkpt lat="47.28453" lon="-2.36003">
        <ele>38.400001525879</ele>
        <time>2021-04-29T07:42:21.000Z</time>
      </trkpt>
      <trkpt lat="47.28454" lon="-2.36005">
        <ele>38.799999237061</ele>
        <time>2021-04-29T07:42:22.000Z</time>
      </trkpt>
      <trkpt lat="47.28454" lon="-2.36006">
        <ele>39.200000762939</ele>
        <time>2021-04-29T07:42:23.000Z</time>
      </trkpt>
      <trkpt lat="47.28456" lon="-2.36007">
        <ele>39.599998474121</ele>
        <time>2021-04-29T07:42:24.000Z</time>
      </trkpt>
      <trkpt lat="47.28456" lon="-2.36008">
        <ele>40</ele>
        <time>2021-04-29T07:42:25.000Z</time>
      </trkpt>
      <trkpt lat="47.2846" lon="-2.36018">
        <ele>40</ele>
        <time>2021-04-29T07:42:32.000Z</time>
      </trkpt>
      <trkpt lat="47.28466" lon="-2.36026">
        <ele>40</ele>
        <time>2021-04-29T07:42:39.000Z</time>
      </trkpt>
      <trkpt lat="47.28467" lon="-2.36027">
        <ele>40</ele>
        <time>2021-04-29T07:42:40.000Z</time>
      </trkpt>
      <trkpt lat="47.28479" lon="-2.36031">
        <ele>40</ele>
        <time>2021-04-29T07:42:44.000Z</time>
      </trkpt>
      <trkpt lat="47.28498" lon="-2.36039">
        <ele>40</ele>
        <time>2021-04-29T07:42:50.000Z</time>
      </trkpt>
      <trkpt lat="47.28515" lon="-2.36059">
        <ele>40</ele>
        <time>2021-04-29T07:42:57.000Z</time>
      </trkpt>
      <trkpt lat="47.2853" lon="-2.36082">
        <ele>40</ele>
        <time>2021-04-29T07:43:03.000Z</time>
      </trkpt>
      <trkpt lat="47.28534" lon="-2.36115">
        <ele>40</ele>
        <time>2021-04-29T07:43:07.000Z</time>
      </trkpt>
      <trkpt lat="47.2854" lon="-2.36137">
        <ele>40</ele>
        <time>2021-04-29T07:43:10.000Z</time>
      </trkpt>
      <trkpt lat="47.28546" lon="-2.36148">
        <ele>40</ele>
        <time>2021-04-29T07:43:12.000Z</time>
      </trkpt>
      <trkpt lat="47.28554" lon="-2.36148">
        <ele>40</ele>
        <time>2021-04-29T07:43:15.000Z</time>
      </trkpt>
      <trkpt lat="47.28559" lon="-2.36145">
        <ele>40</ele>
        <time>2021-04-29T07:43:17.000Z</time>
      </trkpt>
      <trkpt lat="47.28564" lon="-2.36142">
        <ele>40.400001525879</ele>
        <time>2021-04-29T07:43:19.000Z</time>
      </trkpt>
      <trkpt lat="47.28567" lon="-2.36141">
        <ele>41</ele>
        <time>2021-04-29T07:43:20.000Z</time>
      </trkpt>
      <trkpt lat="47.28569" lon="-2.3614">
        <ele>41.400001525879</ele>
        <time>2021-04-29T07:43:21.000Z</time>
      </trkpt>
      <trkpt lat="47.28571" lon="-2.3614">
        <ele>41.799999237061</ele>
        <time>2021-04-29T07:43:22.000Z</time>
      </trkpt>
      <trkpt lat="47.28573" lon="-2.3614">
        <ele>42.200000762939</ele>
        <time>2021-04-29T07:43:23.000Z</time>
      </trkpt>
      <trkpt lat="47.28576" lon="-2.3614">
        <ele>42.599998474121</ele>
        <time>2021-04-29T07:43:24.000Z</time>
      </trkpt>
      <trkpt lat="47.28578" lon="-2.36141">
        <ele>43.200000762939</ele>
        <time>2021-04-29T07:43:25.000Z</time>
      </trkpt>
      <trkpt lat="47.28582" lon="-2.36142">
        <ele>43.599998474121</ele>
        <time>2021-04-29T07:43:26.000Z</time>
      </trkpt>
      <trkpt lat="47.28586" lon="-2.36143">
        <ele>44</ele>
        <time>2021-04-29T07:43:27.000Z</time>
      </trkpt>
      <trkpt lat="47.28591" lon="-2.36143">
        <ele>44.400001525879</ele>
        <time>2021-04-29T07:43:28.000Z</time>
      </trkpt>
      <trkpt lat="47.28603" lon="-2.36139">
        <ele>44.400001525879</ele>
        <time>2021-04-29T07:43:31.000Z</time>
      </trkpt>
      <trkpt lat="47.28614" lon="-2.36131">
        <ele>44.400001525879</ele>
        <time>2021-04-29T07:43:35.000Z</time>
      </trkpt>
      <trkpt lat="47.28618" lon="-2.36128">
        <ele>44.400001525879</ele>
        <time>2021-04-29T07:43:37.000Z</time>
      </trkpt>
      <trkpt lat="47.28621" lon="-2.36128">
        <ele>44.400001525879</ele>
        <time>2021-04-29T07:43:39.000Z</time>
      </trkpt>
      <trkpt lat="47.28623" lon="-2.36127">
        <ele>44.400001525879</ele>
        <time>2021-04-29T07:43:40.000Z</time>
      </trkpt>
      <trkpt lat="47.28627" lon="-2.3612">
        <ele>44.400001525879</ele>
        <time>2021-04-29T07:43:43.000Z</time>
      </trkpt>
      <trkpt lat="47.28633" lon="-2.36112">
        <ele>44</ele>
        <time>2021-04-29T07:43:46.000Z</time>
      </trkpt>
      <trkpt lat="47.28635" lon="-2.3611">
        <ele>43.400001525879</ele>
        <time>2021-04-29T07:43:47.000Z</time>
      </trkpt>
      <trkpt lat="47.28637" lon="-2.36107">
        <ele>43</ele>
        <time>2021-04-29T07:43:48.000Z</time>
      </trkpt>
      <trkpt lat="47.28638" lon="-2.36104">
        <ele>42.200000762939</ele>
        <time>2021-04-29T07:43:49.000Z</time>
      </trkpt>
      <trkpt lat="47.2864" lon="-2.361">
        <ele>41.599998474121</ele>
        <time>2021-04-29T07:43:50.000Z</time>
      </trkpt>
      <trkpt lat="47.28641" lon="-2.36095">
        <ele>41</ele>
        <time>2021-04-29T07:43:51.000Z</time>
      </trkpt>
      <trkpt lat="47.28642" lon="-2.36091">
        <ele>40.200000762939</ele>
        <time>2021-04-29T07:43:52.000Z</time>
      </trkpt>
      <trkpt lat="47.28643" lon="-2.36088">
        <ele>39.400001525879</ele>
        <time>2021-04-29T07:43:53.000Z</time>
      </trkpt>
      <trkpt lat="47.28642" lon="-2.36085">
        <ele>38.599998474121</ele>
        <time>2021-04-29T07:43:54.000Z</time>
      </trkpt>
      <trkpt lat="47.28641" lon="-2.36083">
        <ele>37.799999237061</ele>
        <time>2021-04-29T07:43:55.000Z</time>
      </trkpt>
      <trkpt lat="47.28639" lon="-2.36082">
        <ele>37.200000762939</ele>
        <time>2021-04-29T07:43:56.000Z</time>
      </trkpt>
      <trkpt lat="47.28636" lon="-2.36081">
        <ele>36</ele>
        <time>2021-04-29T07:43:57.000Z</time>
      </trkpt>
      <trkpt lat="47.28634" lon="-2.3608">
        <ele>35.400001525879</ele>
        <time>2021-04-29T07:43:58.000Z</time>
      </trkpt>
      <trkpt lat="47.28631" lon="-2.36077">
        <ele>34.799999237061</ele>
        <time>2021-04-29T07:43:59.000Z</time>
      </trkpt>
      <trkpt lat="47.28628" lon="-2.36074">
        <ele>34.799999237061</ele>
        <time>2021-04-29T07:44:00.000Z</time>
      </trkpt>
      <trkpt lat="47.28616" lon="-2.36056">
        <ele>34.799999237061</ele>
        <time>2021-04-29T07:44:04.000Z</time>
      </trkpt>
      <trkpt lat="47.28612" lon="-2.36049">
        <ele>34.799999237061</ele>
        <time>2021-04-29T07:44:05.000Z</time>
      </trkpt>
      <trkpt lat="47.28599" lon="-2.36016">
        <ele>34.799999237061</ele>
        <time>2021-04-29T07:44:10.000Z</time>
      </trkpt>
      <trkpt lat="47.28586" lon="-2.35976">
        <ele>34.799999237061</ele>
        <time>2021-04-29T07:44:16.000Z</time>
      </trkpt>
      <trkpt lat="47.28572" lon="-2.35949">
        <ele>34.799999237061</ele>
        <time>2021-04-29T07:44:20.000Z</time>
      </trkpt>
      <trkpt lat="47.28563" lon="-2.35927">
        <ele>34.799999237061</ele>
        <time>2021-04-29T07:44:25.000Z</time>
      </trkpt>
      <trkpt lat="47.28552" lon="-2.35912">
        <ele>34.799999237061</ele>
        <time>2021-04-29T07:44:30.000Z</time>
      </trkpt>
      <trkpt lat="47.28552" lon="-2.35907">
        <ele>34.799999237061</ele>
        <time>2021-04-29T07:44:31.000Z</time>
      </trkpt>
      <trkpt lat="47.28556" lon="-2.35899">
        <ele>34.799999237061</ele>
        <time>2021-04-29T07:44:33.000Z</time>
      </trkpt>
      <trkpt lat="47.28569" lon="-2.35897">
        <ele>34.799999237061</ele>
        <time>2021-04-29T07:44:37.000Z</time>
      </trkpt>
      <trkpt lat="47.28574" lon="-2.35902">
        <ele>34.799999237061</ele>
        <time>2021-04-29T07:44:39.000Z</time>
      </trkpt>
      <trkpt lat="47.28577" lon="-2.35908">
        <ele>34.799999237061</ele>
        <time>2021-04-29T07:44:41.000Z</time>
      </trkpt>
      <trkpt lat="47.28581" lon="-2.35916">
        <ele>34</ele>
        <time>2021-04-29T07:44:46.000Z</time>
      </trkpt>
      <trkpt lat="47.28584" lon="-2.35914">
        <ele>33.599998474121</ele>
        <time>2021-04-29T07:44:47.000Z</time>
      </trkpt>
      <trkpt lat="47.28586" lon="-2.35914">
        <ele>33.200000762939</ele>
        <time>2021-04-29T07:44:48.000Z</time>
      </trkpt>
      <trkpt lat="47.28588" lon="-2.35911">
        <ele>32.799999237061</ele>
        <time>2021-04-29T07:44:49.000Z</time>
      </trkpt>
      <trkpt lat="47.28589" lon="-2.35907">
        <ele>32.799999237061</ele>
        <time>2021-04-29T07:44:50.000Z</time>
      </trkpt>
      <trkpt lat="47.28585" lon="-2.35896">
        <ele>32.799999237061</ele>
        <time>2021-04-29T07:44:53.000Z</time>
      </trkpt>
      <trkpt lat="47.28579" lon="-2.35883">
        <ele>32.799999237061</ele>
        <time>2021-04-29T07:44:56.000Z</time>
      </trkpt>
      <trkpt lat="47.28568" lon="-2.35864">
        <ele>32.200000762939</ele>
        <time>2021-04-29T07:45:00.000Z</time>
      </trkpt>
      <trkpt lat="47.28565" lon="-2.3586">
        <ele>31.799999237061</ele>
        <time>2021-04-29T07:45:01.000Z</time>
      </trkpt>
      <trkpt lat="47.28563" lon="-2.35856">
        <ele>31.39999961853</ele>
        <time>2021-04-29T07:45:02.000Z</time>
      </trkpt>
      <trkpt lat="47.28562" lon="-2.35851">
        <ele>31</ele>
        <time>2021-04-29T07:45:03.000Z</time>
      </trkpt>
      <trkpt lat="47.28563" lon="-2.35846">
        <ele>30.60000038147</ele>
        <time>2021-04-29T07:45:04.000Z</time>
      </trkpt>
      <trkpt lat="47.28563" lon="-2.35841">
        <ele>30.60000038147</ele>
        <time>2021-04-29T07:45:05.000Z</time>
      </trkpt>
      <trkpt lat="47.28562" lon="-2.35829">
        <ele>30.60000038147</ele>
        <time>2021-04-29T07:45:10.000Z</time>
      </trkpt>
      <trkpt lat="47.28561" lon="-2.35824">
        <ele>30.60000038147</ele>
        <time>2021-04-29T07:45:12.000Z</time>
      </trkpt>
      <trkpt lat="47.28557" lon="-2.35814">
        <ele>30.60000038147</ele>
        <time>2021-04-29T07:45:15.000Z</time>
      </trkpt>
      <trkpt lat="47.28556" lon="-2.35788">
        <ele>30.60000038147</ele>
        <time>2021-04-29T07:45:20.000Z</time>
      </trkpt>
      <trkpt lat="47.28551" lon="-2.3575">
        <ele>30.60000038147</ele>
        <time>2021-04-29T07:45:28.000Z</time>
      </trkpt>
      <trkpt lat="47.28539" lon="-2.35728">
        <ele>30.60000038147</ele>
        <time>2021-04-29T07:45:33.000Z</time>
      </trkpt>
      <trkpt lat="47.2852" lon="-2.35694">
        <ele>30.200000762939</ele>
        <time>2021-04-29T07:45:39.000Z</time>
      </trkpt>
      <trkpt lat="47.28518" lon="-2.35689">
        <ele>29.799999237061</ele>
        <time>2021-04-29T07:45:40.000Z</time>
      </trkpt>
      <trkpt lat="47.28516" lon="-2.35685">
        <ele>29.39999961853</ele>
        <time>2021-04-29T07:45:41.000Z</time>
      </trkpt>
      <trkpt lat="47.28512" lon="-2.35682">
        <ele>29</ele>
        <time>2021-04-29T07:45:42.000Z</time>
      </trkpt>
      <trkpt lat="47.28509" lon="-2.35678">
        <ele>28.60000038147</ele>
        <time>2021-04-29T07:45:43.000Z</time>
      </trkpt>
      <trkpt lat="47.28496" lon="-2.35665">
        <ele>28.60000038147</ele>
        <time>2021-04-29T07:45:45.000Z</time>
      </trkpt>
      <trkpt lat="47.28462" lon="-2.35631">
        <ele>28.60000038147</ele>
        <time>2021-04-29T07:45:53.000Z</time>
      </trkpt>
      <trkpt lat="47.28437" lon="-2.35597">
        <ele>28.60000038147</ele>
        <time>2021-04-29T07:45:59.000Z</time>
      </trkpt>
      <trkpt lat="47.2842" lon="-2.3556">
        <ele>28.60000038147</ele>
        <time>2021-04-29T07:46:06.000Z</time>
      </trkpt>
      <trkpt lat="47.28413" lon="-2.3554">
        <ele>28.60000038147</ele>
        <time>2021-04-29T07:46:09.000Z</time>
      </trkpt>
      <trkpt lat="47.28409" lon="-2.35521">
        <ele>28.60000038147</ele>
        <time>2021-04-29T07:46:11.000Z</time>
      </trkpt>
      <trkpt lat="47.28411" lon="-2.35494">
        <ele>28.60000038147</ele>
        <time>2021-04-29T07:46:14.000Z</time>
      </trkpt>
      <trkpt lat="47.28413" lon="-2.35481">
        <ele>28.60000038147</ele>
        <time>2021-04-29T07:46:16.000Z</time>
      </trkpt>
      <trkpt lat="47.28426" lon="-2.35449">
        <ele>28.60000038147</ele>
        <time>2021-04-29T07:46:22.000Z</time>
      </trkpt>
      <trkpt lat="47.28428" lon="-2.35444">
        <ele>29</ele>
        <time>2021-04-29T07:46:23.000Z</time>
      </trkpt>
      <trkpt lat="47.28431" lon="-2.3544">
        <ele>29.60000038147</ele>
        <time>2021-04-29T07:46:24.000Z</time>
      </trkpt>
      <trkpt lat="47.28433" lon="-2.35435">
        <ele>30.39999961853</ele>
        <time>2021-04-29T07:46:25.000Z</time>
      </trkpt>
      <trkpt lat="47.28435" lon="-2.35432">
        <ele>31</ele>
        <time>2021-04-29T07:46:26.000Z</time>
      </trkpt>
      <trkpt lat="47.2844" lon="-2.35428">
        <ele>31</ele>
        <time>2021-04-29T07:46:28.000Z</time>
      </trkpt>
      <trkpt lat="47.2845" lon="-2.35427">
        <ele>31</ele>
        <time>2021-04-29T07:46:33.000Z</time>
      </trkpt>
      <trkpt lat="47.28467" lon="-2.35442">
        <ele>31</ele>
        <time>2021-04-29T07:46:38.000Z</time>
      </trkpt>
      <trkpt lat="47.28482" lon="-2.35431">
        <ele>30.39999961853</ele>
        <time>2021-04-29T07:46:42.000Z</time>
      </trkpt>
      <trkpt lat="47.28484" lon="-2.35428">
        <ele>30</ele>
        <time>2021-04-29T07:46:43.000Z</time>
      </trkpt>
      <trkpt lat="47.28486" lon="-2.35425">
        <ele>29.60000038147</ele>
        <time>2021-04-29T07:46:44.000Z</time>
      </trkpt>
      <trkpt lat="47.28487" lon="-2.35421">
        <ele>29</ele>
        <time>2021-04-29T07:46:45.000Z</time>
      </trkpt>
      <trkpt lat="47.28487" lon="-2.35418">
        <ele>28.60000038147</ele>
        <time>2021-04-29T07:46:46.000Z</time>
      </trkpt>
      <trkpt lat="47.28487" lon="-2.35413">
        <ele>28</ele>
        <time>2021-04-29T07:46:47.000Z</time>
      </trkpt>
      <trkpt lat="47.28486" lon="-2.35409">
        <ele>27.39999961853</ele>
        <time>2021-04-29T07:46:48.000Z</time>
      </trkpt>
      <trkpt lat="47.28487" lon="-2.35404">
        <ele>27</ele>
        <time>2021-04-29T07:46:49.000Z</time>
      </trkpt>
      <trkpt lat="47.28485" lon="-2.35394">
        <ele>26.39999961853</ele>
        <time>2021-04-29T07:46:50.000Z</time>
      </trkpt>
      <trkpt lat="47.28484" lon="-2.35384">
        <ele>26.39999961853</ele>
        <time>2021-04-29T07:46:51.000Z</time>
      </trkpt>
      <trkpt lat="47.28484" lon="-2.35377">
        <ele>26</ele>
        <time>2021-04-29T07:46:52.000Z</time>
      </trkpt>
      <trkpt lat="47.28483" lon="-2.35371">
        <ele>25.60000038147</ele>
        <time>2021-04-29T07:46:53.000Z</time>
      </trkpt>
      <trkpt lat="47.28482" lon="-2.35365">
        <ele>25.200000762939</ele>
        <time>2021-04-29T07:46:54.000Z</time>
      </trkpt>
      <trkpt lat="47.28479" lon="-2.35359">
        <ele>24.799999237061</ele>
        <time>2021-04-29T07:46:55.000Z</time>
      </trkpt>
      <trkpt lat="47.28476" lon="-2.35355">
        <ele>24.200000762939</ele>
        <time>2021-04-29T07:46:56.000Z</time>
      </trkpt>
      <trkpt lat="47.28461" lon="-2.35349">
        <ele>24.200000762939</ele>
        <time>2021-04-29T07:47:01.000Z</time>
      </trkpt>
      <trkpt lat="47.28459" lon="-2.3535">
        <ele>24.200000762939</ele>
        <time>2021-04-29T07:47:02.000Z</time>
      </trkpt>
      <trkpt lat="47.28453" lon="-2.35354">
        <ele>24.799999237061</ele>
        <time>2021-04-29T07:47:04.000Z</time>
      </trkpt>
      <trkpt lat="47.28451" lon="-2.35357">
        <ele>25.200000762939</ele>
        <time>2021-04-29T07:47:05.000Z</time>
      </trkpt>
      <trkpt lat="47.28449" lon="-2.3536">
        <ele>25.799999237061</ele>
        <time>2021-04-29T07:47:06.000Z</time>
      </trkpt>
      <trkpt lat="47.28447" lon="-2.35364">
        <ele>26.39999961853</ele>
        <time>2021-04-29T07:47:07.000Z</time>
      </trkpt>
      <trkpt lat="47.28446" lon="-2.35368">
        <ele>26.799999237061</ele>
        <time>2021-04-29T07:47:08.000Z</time>
      </trkpt>
      <trkpt lat="47.28445" lon="-2.35372">
        <ele>27.200000762939</ele>
        <time>2021-04-29T07:47:09.000Z</time>
      </trkpt>
      <trkpt lat="47.28445" lon="-2.35377">
        <ele>27.799999237061</ele>
        <time>2021-04-29T07:47:10.000Z</time>
      </trkpt>
      <trkpt lat="47.28445" lon="-2.35381">
        <ele>28.200000762939</ele>
        <time>2021-04-29T07:47:11.000Z</time>
      </trkpt>
      <trkpt lat="47.28445" lon="-2.35385">
        <ele>28.799999237061</ele>
        <time>2021-04-29T07:47:12.000Z</time>
      </trkpt>
      <trkpt lat="47.28444" lon="-2.3539">
        <ele>29.200000762939</ele>
        <time>2021-04-29T07:47:13.000Z</time>
      </trkpt>
      <trkpt lat="47.28443" lon="-2.35394">
        <ele>29.60000038147</ele>
        <time>2021-04-29T07:47:14.000Z</time>
      </trkpt>
      <trkpt lat="47.28443" lon="-2.35398">
        <ele>30</ele>
        <time>2021-04-29T07:47:15.000Z</time>
      </trkpt>
      <trkpt lat="47.28443" lon="-2.354">
        <ele>30.60000038147</ele>
        <time>2021-04-29T07:47:16.000Z</time>
      </trkpt>
      <trkpt lat="47.28442" lon="-2.354">
        <ele>31</ele>
        <time>2021-04-29T07:47:17.000Z</time>
      </trkpt>
      <trkpt lat="47.28441" lon="-2.35401">
        <ele>31.39999961853</ele>
        <time>2021-04-29T07:47:18.000Z</time>
      </trkpt>
      <trkpt lat="47.28438" lon="-2.35404">
        <ele>32</ele>
        <time>2021-04-29T07:47:20.000Z</time>
      </trkpt>
      <trkpt lat="47.28435" lon="-2.35406">
        <ele>32.400001525879</ele>
        <time>2021-04-29T07:47:21.000Z</time>
      </trkpt>
      <trkpt lat="47.28434" lon="-2.35407">
        <ele>32.799999237061</ele>
        <time>2021-04-29T07:47:22.000Z</time>
      </trkpt>
      <trkpt lat="47.2843" lon="-2.3541">
        <ele>33.200000762939</ele>
        <time>2021-04-29T07:47:23.000Z</time>
      </trkpt>
      <trkpt lat="47.28425" lon="-2.35415">
        <ele>33.599998474121</ele>
        <time>2021-04-29T07:47:24.000Z</time>
      </trkpt>
      <trkpt lat="47.28414" lon="-2.35427">
        <ele>33.599998474121</ele>
        <time>2021-04-29T07:47:27.000Z</time>
      </trkpt>
      <trkpt lat="47.2841" lon="-2.35428">
        <ele>33.599998474121</ele>
        <time>2021-04-29T07:47:28.000Z</time>
      </trkpt>
      <trkpt lat="47.28398" lon="-2.3542">
        <ele>33.599998474121</ele>
        <time>2021-04-29T07:47:32.000Z</time>
      </trkpt>
      <trkpt lat="47.2839" lon="-2.35413">
        <ele>33.599998474121</ele>
        <time>2021-04-29T07:47:37.000Z</time>
      </trkpt>
      <trkpt lat="47.28386" lon="-2.35409">
        <ele>33.599998474121</ele>
        <time>2021-04-29T07:47:43.000Z</time>
      </trkpt>
      <trkpt lat="47.28381" lon="-2.35406">
        <ele>33.599998474121</ele>
        <time>2021-04-29T07:48:15.000Z</time>
      </trkpt>
      <trkpt lat="47.28376" lon="-2.354">
        <ele>33.200000762939</ele>
        <time>2021-04-29T07:48:17.000Z</time>
      </trkpt>
      <trkpt lat="47.28373" lon="-2.35396">
        <ele>32.799999237061</ele>
        <time>2021-04-29T07:48:18.000Z</time>
      </trkpt>
      <trkpt lat="47.28371" lon="-2.35391">
        <ele>32.400001525879</ele>
        <time>2021-04-29T07:48:19.000Z</time>
      </trkpt>
      <trkpt lat="47.28369" lon="-2.35385">
        <ele>31.799999237061</ele>
        <time>2021-04-29T07:48:20.000Z</time>
      </trkpt>
      <trkpt lat="47.28367" lon="-2.3538">
        <ele>31</ele>
        <time>2021-04-29T07:48:21.000Z</time>
      </trkpt>
      <trkpt lat="47.28366" lon="-2.35374">
        <ele>30.39999961853</ele>
        <time>2021-04-29T07:48:22.000Z</time>
      </trkpt>
      <trkpt lat="47.28364" lon="-2.3537">
        <ele>29.60000038147</ele>
        <time>2021-04-29T07:48:23.000Z</time>
      </trkpt>
      <trkpt lat="47.28362" lon="-2.35367">
        <ele>29</ele>
        <time>2021-04-29T07:48:24.000Z</time>
      </trkpt>
      <trkpt lat="47.28361" lon="-2.35364">
        <ele>28.200000762939</ele>
        <time>2021-04-29T07:48:25.000Z</time>
      </trkpt>
      <trkpt lat="47.2836" lon="-2.35362">
        <ele>27.39999961853</ele>
        <time>2021-04-29T07:48:26.000Z</time>
      </trkpt>
      <trkpt lat="47.28358" lon="-2.35357">
        <ele>26.60000038147</ele>
        <time>2021-04-29T07:48:27.000Z</time>
      </trkpt>
      <trkpt lat="47.28356" lon="-2.35352">
        <ele>26.200000762939</ele>
        <time>2021-04-29T07:48:28.000Z</time>
      </trkpt>
      <trkpt lat="47.28354" lon="-2.35347">
        <ele>25.39999961853</ele>
        <time>2021-04-29T07:48:29.000Z</time>
      </trkpt>
      <trkpt lat="47.28353" lon="-2.35339">
        <ele>24.799999237061</ele>
        <time>2021-04-29T07:48:30.000Z</time>
      </trkpt>
      <trkpt lat="47.2835" lon="-2.35331">
        <ele>24.39999961853</ele>
        <time>2021-04-29T07:48:31.000Z</time>
      </trkpt>
      <trkpt lat="47.28349" lon="-2.35322">
        <ele>24.39999961853</ele>
        <time>2021-04-29T07:48:32.000Z</time>
      </trkpt>
      <trkpt lat="47.28349" lon="-2.35314">
        <ele>24.39999961853</ele>
        <time>2021-04-29T07:48:33.000Z</time>
      </trkpt>
      <trkpt lat="47.28358" lon="-2.35286">
        <ele>24.39999961853</ele>
        <time>2021-04-29T07:48:37.000Z</time>
      </trkpt>
      <trkpt lat="47.28361" lon="-2.3528">
        <ele>24.39999961853</ele>
        <time>2021-04-29T07:48:38.000Z</time>
      </trkpt>
      <trkpt lat="47.28378" lon="-2.3525">
        <ele>24.39999961853</ele>
        <time>2021-04-29T07:48:43.000Z</time>
      </trkpt>
      <trkpt lat="47.28386" lon="-2.3523">
        <ele>24.39999961853</ele>
        <time>2021-04-29T07:48:46.000Z</time>
      </trkpt>
      <trkpt lat="47.28384" lon="-2.35216">
        <ele>24.39999961853</ele>
        <time>2021-04-29T07:48:48.000Z</time>
      </trkpt>
      <trkpt lat="47.28375" lon="-2.35189">
        <ele>24.39999961853</ele>
        <time>2021-04-29T07:48:52.000Z</time>
      </trkpt>
      <trkpt lat="47.28373" lon="-2.35183">
        <ele>24.39999961853</ele>
        <time>2021-04-29T07:48:53.000Z</time>
      </trkpt>
      <trkpt lat="47.2836" lon="-2.35144">
        <ele>24.39999961853</ele>
        <time>2021-04-29T07:48:59.000Z</time>
      </trkpt>
      <trkpt lat="47.28342" lon="-2.35096">
        <ele>24.39999961853</ele>
        <time>2021-04-29T07:49:07.000Z</time>
      </trkpt>
      <trkpt lat="47.28323" lon="-2.35084">
        <ele>24.39999961853</ele>
        <time>2021-04-29T07:49:11.000Z</time>
      </trkpt>
      <trkpt lat="47.28318" lon="-2.35083">
        <ele>24.39999961853</ele>
        <time>2021-04-29T07:49:12.000Z</time>
      </trkpt>
      <trkpt lat="47.28286" lon="-2.35073">
        <ele>24.39999961853</ele>
        <time>2021-04-29T07:49:18.000Z</time>
      </trkpt>
      <trkpt lat="47.28268" lon="-2.35057">
        <ele>24.39999961853</ele>
        <time>2021-04-29T07:49:22.000Z</time>
      </trkpt>
      <trkpt lat="47.28264" lon="-2.35052">
        <ele>24.39999961853</ele>
        <time>2021-04-29T07:49:23.000Z</time>
      </trkpt>
      <trkpt lat="47.28241" lon="-2.35021">
        <ele>24.39999961853</ele>
        <time>2021-04-29T07:49:29.000Z</time>
      </trkpt>
      <trkpt lat="47.28216" lon="-2.34968">
        <ele>24.39999961853</ele>
        <time>2021-04-29T07:49:36.000Z</time>
      </trkpt>
      <trkpt lat="47.28195" lon="-2.34908">
        <ele>24.39999961853</ele>
        <time>2021-04-29T07:49:43.000Z</time>
      </trkpt>
      <trkpt lat="47.28181" lon="-2.34851">
        <ele>24.39999961853</ele>
        <time>2021-04-29T07:49:49.000Z</time>
      </trkpt>
      <trkpt lat="47.28177" lon="-2.34822">
        <ele>24.39999961853</ele>
        <time>2021-04-29T07:49:52.000Z</time>
      </trkpt>
      <trkpt lat="47.28178" lon="-2.34801">
        <ele>24.39999961853</ele>
        <time>2021-04-29T07:49:54.000Z</time>
      </trkpt>
      <trkpt lat="47.28186" lon="-2.34761">
        <ele>24.39999961853</ele>
        <time>2021-04-29T07:49:58.000Z</time>
      </trkpt>
      <trkpt lat="47.28194" lon="-2.34745">
        <ele>24.39999961853</ele>
        <time>2021-04-29T07:50:00.000Z</time>
      </trkpt>
      <trkpt lat="47.28198" lon="-2.34737">
        <ele>25.200000762939</ele>
        <time>2021-04-29T07:50:01.000Z</time>
      </trkpt>
      <trkpt lat="47.28203" lon="-2.3473">
        <ele>25.60000038147</ele>
        <time>2021-04-29T07:50:02.000Z</time>
      </trkpt>
      <trkpt lat="47.28208" lon="-2.34723">
        <ele>26</ele>
        <time>2021-04-29T07:50:03.000Z</time>
      </trkpt>
      <trkpt lat="47.28213" lon="-2.34717">
        <ele>26.39999961853</ele>
        <time>2021-04-29T07:50:04.000Z</time>
      </trkpt>
      <trkpt lat="47.28235" lon="-2.34683">
        <ele>26.39999961853</ele>
        <time>2021-04-29T07:50:09.000Z</time>
      </trkpt>
      <trkpt lat="47.28261" lon="-2.34644">
        <ele>26.39999961853</ele>
        <time>2021-04-29T07:50:16.000Z</time>
      </trkpt>
      <trkpt lat="47.28279" lon="-2.34617">
        <ele>26.39999961853</ele>
        <time>2021-04-29T07:50:21.000Z</time>
      </trkpt>
      <trkpt lat="47.28287" lon="-2.34606">
        <ele>26.39999961853</ele>
        <time>2021-04-29T07:50:23.000Z</time>
      </trkpt>
      <trkpt lat="47.28299" lon="-2.34588">
        <ele>27.200000762939</ele>
        <time>2021-04-29T07:50:26.000Z</time>
      </trkpt>
      <trkpt lat="47.28303" lon="-2.34583">
        <ele>27.799999237061</ele>
        <time>2021-04-29T07:50:27.000Z</time>
      </trkpt>
      <trkpt lat="47.28307" lon="-2.34578">
        <ele>28.200000762939</ele>
        <time>2021-04-29T07:50:28.000Z</time>
      </trkpt>
      <trkpt lat="47.28311" lon="-2.34572">
        <ele>28.60000038147</ele>
        <time>2021-04-29T07:50:29.000Z</time>
      </trkpt>
      <trkpt lat="47.28326" lon="-2.34548">
        <ele>28.60000038147</ele>
        <time>2021-04-29T07:50:33.000Z</time>
      </trkpt>
      <trkpt lat="47.2835" lon="-2.34514">
        <ele>28.60000038147</ele>
        <time>2021-04-29T07:50:39.000Z</time>
      </trkpt>
      <trkpt lat="47.28386" lon="-2.34471">
        <ele>28.60000038147</ele>
        <time>2021-04-29T07:50:47.000Z</time>
      </trkpt>
      <trkpt lat="47.28429" lon="-2.34443">
        <ele>28.60000038147</ele>
        <time>2021-04-29T07:50:55.000Z</time>
      </trkpt>
      <trkpt lat="47.2848" lon="-2.34429">
        <ele>28.60000038147</ele>
        <time>2021-04-29T07:51:03.000Z</time>
      </trkpt>
      <trkpt lat="47.28528" lon="-2.34416">
        <ele>28.60000038147</ele>
        <time>2021-04-29T07:51:11.000Z</time>
      </trkpt>
      <trkpt lat="47.28557" lon="-2.34406">
        <ele>28.60000038147</ele>
        <time>2021-04-29T07:51:16.000Z</time>
      </trkpt>
      <trkpt lat="47.28567" lon="-2.34399">
        <ele>28.60000038147</ele>
        <time>2021-04-29T07:51:18.000Z</time>
      </trkpt>
      <trkpt lat="47.28573" lon="-2.34395">
        <ele>28.60000038147</ele>
        <time>2021-04-29T07:51:19.000Z</time>
      </trkpt>
      <trkpt lat="47.28587" lon="-2.34377">
        <ele>28.60000038147</ele>
        <time>2021-04-29T07:51:22.000Z</time>
      </trkpt>
      <trkpt lat="47.28594" lon="-2.34362">
        <ele>28.60000038147</ele>
        <time>2021-04-29T07:51:24.000Z</time>
      </trkpt>
      <trkpt lat="47.28602" lon="-2.34338">
        <ele>28.60000038147</ele>
        <time>2021-04-29T07:51:27.000Z</time>
      </trkpt>
      <trkpt lat="47.2862" lon="-2.34277">
        <ele>28.60000038147</ele>
        <time>2021-04-29T07:51:35.000Z</time>
      </trkpt>
      <trkpt lat="47.28622" lon="-2.34264">
        <ele>28.60000038147</ele>
        <time>2021-04-29T07:51:37.000Z</time>
      </trkpt>
      <trkpt lat="47.28618" lon="-2.34253">
        <ele>28.60000038147</ele>
        <time>2021-04-29T07:51:39.000Z</time>
      </trkpt>
      <trkpt lat="47.28603" lon="-2.34247">
        <ele>28.60000038147</ele>
        <time>2021-04-29T07:51:42.000Z</time>
      </trkpt>
      <trkpt lat="47.28598" lon="-2.34245">
        <ele>28.60000038147</ele>
        <time>2021-04-29T07:51:43.000Z</time>
      </trkpt>
      <trkpt lat="47.28567" lon="-2.34236">
        <ele>28.200000762939</ele>
        <time>2021-04-29T07:51:48.000Z</time>
      </trkpt>
      <trkpt lat="47.28561" lon="-2.34232">
        <ele>27.60000038147</ele>
        <time>2021-04-29T07:51:49.000Z</time>
      </trkpt>
      <trkpt lat="47.28554" lon="-2.34228">
        <ele>27.200000762939</ele>
        <time>2021-04-29T07:51:50.000Z</time>
      </trkpt>
      <trkpt lat="47.28547" lon="-2.34225">
        <ele>26.799999237061</ele>
        <time>2021-04-29T07:51:51.000Z</time>
      </trkpt>
      <trkpt lat="47.2854" lon="-2.34222">
        <ele>26.39999961853</ele>
        <time>2021-04-29T07:51:52.000Z</time>
      </trkpt>
      <trkpt lat="47.28507" lon="-2.34217">
        <ele>26.39999961853</ele>
        <time>2021-04-29T07:51:57.000Z</time>
      </trkpt>
      <trkpt lat="47.28469" lon="-2.34206">
        <ele>26.39999961853</ele>
        <time>2021-04-29T07:52:03.000Z</time>
      </trkpt>
      <trkpt lat="47.28429" lon="-2.34195">
        <ele>26.39999961853</ele>
        <time>2021-04-29T07:52:09.000Z</time>
      </trkpt>
      <trkpt lat="47.28422" lon="-2.34196">
        <ele>26.39999961853</ele>
        <time>2021-04-29T07:52:10.000Z</time>
      </trkpt>
      <trkpt lat="47.28402" lon="-2.34202">
        <ele>26.39999961853</ele>
        <time>2021-04-29T07:52:13.000Z</time>
      </trkpt>
      <trkpt lat="47.28392" lon="-2.34207">
        <ele>26.39999961853</ele>
        <time>2021-04-29T07:52:15.000Z</time>
      </trkpt>
      <trkpt lat="47.28376" lon="-2.34215">
        <ele>26.39999961853</ele>
        <time>2021-04-29T07:52:18.000Z</time>
      </trkpt>
      <trkpt lat="47.28371" lon="-2.34218">
        <ele>26</ele>
        <time>2021-04-29T07:52:19.000Z</time>
      </trkpt>
      <trkpt lat="47.28367" lon="-2.34221">
        <ele>25.60000038147</ele>
        <time>2021-04-29T07:52:20.000Z</time>
      </trkpt>
      <trkpt lat="47.28363" lon="-2.34221">
        <ele>25.200000762939</ele>
        <time>2021-04-29T07:52:21.000Z</time>
      </trkpt>
      <trkpt lat="47.28359" lon="-2.34217">
        <ele>24.799999237061</ele>
        <time>2021-04-29T07:52:22.000Z</time>
      </trkpt>
      <trkpt lat="47.28357" lon="-2.34211">
        <ele>24.39999961853</ele>
        <time>2021-04-29T07:52:23.000Z</time>
      </trkpt>
      <trkpt lat="47.28355" lon="-2.34198">
        <ele>24.39999961853</ele>
        <time>2021-04-29T07:52:25.000Z</time>
      </trkpt>
      <trkpt lat="47.28354" lon="-2.34183">
        <ele>24.39999961853</ele>
        <time>2021-04-29T07:52:27.000Z</time>
      </trkpt>
      <trkpt lat="47.28355" lon="-2.3415">
        <ele>24.39999961853</ele>
        <time>2021-04-29T07:52:31.000Z</time>
      </trkpt>
      <trkpt lat="47.28356" lon="-2.34142">
        <ele>24.39999961853</ele>
        <time>2021-04-29T07:52:32.000Z</time>
      </trkpt>
      <trkpt lat="47.28362" lon="-2.34117">
        <ele>24.39999961853</ele>
        <time>2021-04-29T07:52:35.000Z</time>
      </trkpt>
      <trkpt lat="47.28366" lon="-2.34094">
        <ele>24.39999961853</ele>
        <time>2021-04-29T07:52:38.000Z</time>
      </trkpt>
      <trkpt lat="47.28362" lon="-2.34081">
        <ele>24.39999961853</ele>
        <time>2021-04-29T07:52:40.000Z</time>
      </trkpt>
      <trkpt lat="47.28346" lon="-2.34061">
        <ele>24.39999961853</ele>
        <time>2021-04-29T07:52:44.000Z</time>
      </trkpt>
      <trkpt lat="47.28342" lon="-2.34048">
        <ele>24</ele>
        <time>2021-04-29T07:52:46.000Z</time>
      </trkpt>
      <trkpt lat="47.28343" lon="-2.34042">
        <ele>23.60000038147</ele>
        <time>2021-04-29T07:52:47.000Z</time>
      </trkpt>
      <trkpt lat="47.28343" lon="-2.34035">
        <ele>23.200000762939</ele>
        <time>2021-04-29T07:52:48.000Z</time>
      </trkpt>
      <trkpt lat="47.28342" lon="-2.34031">
        <ele>22.799999237061</ele>
        <time>2021-04-29T07:52:49.000Z</time>
      </trkpt>
      <trkpt lat="47.2834" lon="-2.34027">
        <ele>22.39999961853</ele>
        <time>2021-04-29T07:52:50.000Z</time>
      </trkpt>
      <trkpt lat="47.28338" lon="-2.34024">
        <ele>22.39999961853</ele>
        <time>2021-04-29T07:52:51.000Z</time>
      </trkpt>
      <trkpt lat="47.28338" lon="-2.3402">
        <ele>22.39999961853</ele>
        <time>2021-04-29T07:52:52.000Z</time>
      </trkpt>
      <trkpt lat="47.28342" lon="-2.34016">
        <ele>22.39999961853</ele>
        <time>2021-04-29T07:52:54.000Z</time>
      </trkpt>
      <trkpt lat="47.28353" lon="-2.34012">
        <ele>22.39999961853</ele>
        <time>2021-04-29T07:52:58.000Z</time>
      </trkpt>
      <trkpt lat="47.28362" lon="-2.34002">
        <ele>22.39999961853</ele>
        <time>2021-04-29T07:53:04.000Z</time>
      </trkpt>
      <trkpt lat="47.28352" lon="-2.34005">
        <ele>22.39999961853</ele>
        <time>2021-04-29T07:53:07.000Z</time>
      </trkpt>
      <trkpt lat="47.28338" lon="-2.3401">
        <ele>22.39999961853</ele>
        <time>2021-04-29T07:53:11.000Z</time>
      </trkpt>
      <trkpt lat="47.28332" lon="-2.33998">
        <ele>22.39999961853</ele>
        <time>2021-04-29T07:53:14.000Z</time>
      </trkpt>
      <trkpt lat="47.28328" lon="-2.33993">
        <ele>22.39999961853</ele>
        <time>2021-04-29T07:53:15.000Z</time>
      </trkpt>
      <trkpt lat="47.28325" lon="-2.33986">
        <ele>22.39999961853</ele>
        <time>2021-04-29T07:53:16.000Z</time>
      </trkpt>
      <trkpt lat="47.28317" lon="-2.33964">
        <ele>22.39999961853</ele>
        <time>2021-04-29T07:53:19.000Z</time>
      </trkpt>
      <trkpt lat="47.283" lon="-2.33918">
        <ele>22.39999961853</ele>
        <time>2021-04-29T07:53:25.000Z</time>
      </trkpt>
      <trkpt lat="47.28277" lon="-2.33866">
        <ele>22.39999961853</ele>
        <time>2021-04-29T07:53:31.000Z</time>
      </trkpt>
      <trkpt lat="47.28265" lon="-2.33839">
        <ele>22</ele>
        <time>2021-04-29T07:53:34.000Z</time>
      </trkpt>
      <trkpt lat="47.2826" lon="-2.33829">
        <ele>21.60000038147</ele>
        <time>2021-04-29T07:53:35.000Z</time>
      </trkpt>
      <trkpt lat="47.28255" lon="-2.33821">
        <ele>21.200000762939</ele>
        <time>2021-04-29T07:53:36.000Z</time>
      </trkpt>
      <trkpt lat="47.28248" lon="-2.33814">
        <ele>20.799999237061</ele>
        <time>2021-04-29T07:53:37.000Z</time>
      </trkpt>
      <trkpt lat="47.28241" lon="-2.3381">
        <ele>20.39999961853</ele>
        <time>2021-04-29T07:53:38.000Z</time>
      </trkpt>
      <trkpt lat="47.2821" lon="-2.33798">
        <ele>20.39999961853</ele>
        <time>2021-04-29T07:53:42.000Z</time>
      </trkpt>
      <trkpt lat="47.28202" lon="-2.33794">
        <ele>20.39999961853</ele>
        <time>2021-04-29T07:53:43.000Z</time>
      </trkpt>
      <trkpt lat="47.28182" lon="-2.33775">
        <ele>20.39999961853</ele>
        <time>2021-04-29T07:53:46.000Z</time>
      </trkpt>
      <trkpt lat="47.28176" lon="-2.33767">
        <ele>20.39999961853</ele>
        <time>2021-04-29T07:53:47.000Z</time>
      </trkpt>
      <trkpt lat="47.28142" lon="-2.33727">
        <ele>20.39999961853</ele>
        <time>2021-04-29T07:53:53.000Z</time>
      </trkpt>
      <trkpt lat="47.28137" lon="-2.3372">
        <ele>20.39999961853</ele>
        <time>2021-04-29T07:53:54.000Z</time>
      </trkpt>
      <trkpt lat="47.28125" lon="-2.33695">
        <ele>20.39999961853</ele>
        <time>2021-04-29T07:53:57.000Z</time>
      </trkpt>
      <trkpt lat="47.28117" lon="-2.33685">
        <ele>20</ele>
        <time>2021-04-29T07:53:59.000Z</time>
      </trkpt>
      <trkpt lat="47.28113" lon="-2.33681">
        <ele>19.39999961853</ele>
        <time>2021-04-29T07:54:00.000Z</time>
      </trkpt>
      <trkpt lat="47.2811" lon="-2.33678">
        <ele>19</ele>
        <time>2021-04-29T07:54:01.000Z</time>
      </trkpt>
      <trkpt lat="47.28107" lon="-2.33676">
        <ele>18.60000038147</ele>
        <time>2021-04-29T07:54:02.000Z</time>
      </trkpt>
      <trkpt lat="47.28105" lon="-2.33675">
        <ele>18.200000762939</ele>
        <time>2021-04-29T07:54:03.000Z</time>
      </trkpt>
      <trkpt lat="47.28105" lon="-2.3367">
        <ele>18.200000762939</ele>
        <time>2021-04-29T07:54:04.000Z</time>
      </trkpt>
      <trkpt lat="47.28103" lon="-2.33667">
        <ele>18.200000762939</ele>
        <time>2021-04-29T07:54:05.000Z</time>
      </trkpt>
      <trkpt lat="47.28094" lon="-2.33652">
        <ele>18.200000762939</ele>
        <time>2021-04-29T07:54:10.000Z</time>
      </trkpt>
      <trkpt lat="47.28089" lon="-2.33631">
        <ele>18.200000762939</ele>
        <time>2021-04-29T07:54:14.000Z</time>
      </trkpt>
      <trkpt lat="47.28085" lon="-2.33596">
        <ele>18.200000762939</ele>
        <time>2021-04-29T07:54:18.000Z</time>
      </trkpt>
      <trkpt lat="47.28076" lon="-2.33546">
        <ele>18.200000762939</ele>
        <time>2021-04-29T07:54:24.000Z</time>
      </trkpt>
      <trkpt lat="47.28074" lon="-2.33521">
        <ele>18.200000762939</ele>
        <time>2021-04-29T07:54:27.000Z</time>
      </trkpt>
      <trkpt lat="47.2808" lon="-2.33506">
        <ele>18.200000762939</ele>
        <time>2021-04-29T07:54:29.000Z</time>
      </trkpt>
      <trkpt lat="47.28089" lon="-2.33492">
        <ele>18.200000762939</ele>
        <time>2021-04-29T07:54:31.000Z</time>
      </trkpt>
      <trkpt lat="47.28097" lon="-2.33473">
        <ele>18.200000762939</ele>
        <time>2021-04-29T07:54:33.000Z</time>
      </trkpt>
      <trkpt lat="47.28128" lon="-2.33407">
        <ele>18.200000762939</ele>
        <time>2021-04-29T07:54:40.000Z</time>
      </trkpt>
      <trkpt lat="47.28132" lon="-2.33397">
        <ele>17.799999237061</ele>
        <time>2021-04-29T07:54:41.000Z</time>
      </trkpt>
      <trkpt lat="47.28136" lon="-2.33389">
        <ele>17.39999961853</ele>
        <time>2021-04-29T07:54:42.000Z</time>
      </trkpt>
      <trkpt lat="47.28141" lon="-2.3338">
        <ele>17</ele>
        <time>2021-04-29T07:54:43.000Z</time>
      </trkpt>
      <trkpt lat="47.28144" lon="-2.33372">
        <ele>16.60000038147</ele>
        <time>2021-04-29T07:54:44.000Z</time>
      </trkpt>
      <trkpt lat="47.28147" lon="-2.33365">
        <ele>16.200000762939</ele>
        <time>2021-04-29T07:54:45.000Z</time>
      </trkpt>
      <trkpt lat="47.28154" lon="-2.3335">
        <ele>16.200000762939</ele>
        <time>2021-04-29T07:54:47.000Z</time>
      </trkpt>
      <trkpt lat="47.28169" lon="-2.33316">
        <ele>15.800000190735</ele>
        <time>2021-04-29T07:54:51.000Z</time>
      </trkpt>
      <trkpt lat="47.28173" lon="-2.33308">
        <ele>15.39999961853</ele>
        <time>2021-04-29T07:54:52.000Z</time>
      </trkpt>
      <trkpt lat="47.28175" lon="-2.33298">
        <ele>14.800000190735</ele>
        <time>2021-04-29T07:54:53.000Z</time>
      </trkpt>
      <trkpt lat="47.28177" lon="-2.33289">
        <ele>14.39999961853</ele>
        <time>2021-04-29T07:54:54.000Z</time>
      </trkpt>
      <trkpt lat="47.28178" lon="-2.33279">
        <ele>14</ele>
        <time>2021-04-29T07:54:55.000Z</time>
      </trkpt>
      <trkpt lat="47.28183" lon="-2.3324">
        <ele>14</ele>
        <time>2021-04-29T07:54:59.000Z</time>
      </trkpt>
      <trkpt lat="47.28186" lon="-2.33182">
        <ele>13.60000038147</ele>
        <time>2021-04-29T07:55:05.000Z</time>
      </trkpt>
      <trkpt lat="47.28186" lon="-2.33173">
        <ele>13.199999809265</ele>
        <time>2021-04-29T07:55:06.000Z</time>
      </trkpt>
      <trkpt lat="47.28186" lon="-2.33163">
        <ele>12.800000190735</ele>
        <time>2021-04-29T07:55:07.000Z</time>
      </trkpt>
      <trkpt lat="47.28186" lon="-2.33154">
        <ele>12.39999961853</ele>
        <time>2021-04-29T07:55:08.000Z</time>
      </trkpt>
      <trkpt lat="47.28186" lon="-2.33145">
        <ele>12</ele>
        <time>2021-04-29T07:55:09.000Z</time>
      </trkpt>
      <trkpt lat="47.28188" lon="-2.33107">
        <ele>12</ele>
        <time>2021-04-29T07:55:13.000Z</time>
      </trkpt>
      <trkpt lat="47.2819" lon="-2.33098">
        <ele>12</ele>
        <time>2021-04-29T07:55:14.000Z</time>
      </trkpt>
      <trkpt lat="47.28197" lon="-2.33072">
        <ele>12</ele>
        <time>2021-04-29T07:55:17.000Z</time>
      </trkpt>
      <trkpt lat="47.28209" lon="-2.3305">
        <ele>12</ele>
        <time>2021-04-29T07:55:20.000Z</time>
      </trkpt>
      <trkpt lat="47.28218" lon="-2.33037">
        <ele>12</ele>
        <time>2021-04-29T07:55:22.000Z</time>
      </trkpt>
      <trkpt lat="47.28227" lon="-2.33026">
        <ele>12</ele>
        <time>2021-04-29T07:55:24.000Z</time>
      </trkpt>
      <trkpt lat="47.28244" lon="-2.33012">
        <ele>12</ele>
        <time>2021-04-29T07:55:27.000Z</time>
      </trkpt>
      <trkpt lat="47.28292" lon="-2.32976">
        <ele>12</ele>
        <time>2021-04-29T07:55:35.000Z</time>
      </trkpt>
      <trkpt lat="47.28339" lon="-2.32941">
        <ele>12</ele>
        <time>2021-04-29T07:55:43.000Z</time>
      </trkpt>
      <trkpt lat="47.28353" lon="-2.32923">
        <ele>12</ele>
        <time>2021-04-29T07:55:46.000Z</time>
      </trkpt>
      <trkpt lat="47.2836" lon="-2.32909">
        <ele>12</ele>
        <time>2021-04-29T07:55:48.000Z</time>
      </trkpt>
      <trkpt lat="47.28361" lon="-2.32884">
        <ele>12</ele>
        <time>2021-04-29T07:55:51.000Z</time>
      </trkpt>
      <trkpt lat="47.2836" lon="-2.32822">
        <ele>12</ele>
        <time>2021-04-29T07:55:58.000Z</time>
      </trkpt>
      <trkpt lat="47.28367" lon="-2.32779">
        <ele>12</ele>
        <time>2021-04-29T07:56:03.000Z</time>
      </trkpt>
      <trkpt lat="47.28378" lon="-2.3274">
        <ele>12</ele>
        <time>2021-04-29T07:56:08.000Z</time>
      </trkpt>
      <trkpt lat="47.28389" lon="-2.32685">
        <ele>12</ele>
        <time>2021-04-29T07:56:15.000Z</time>
      </trkpt>
      <trkpt lat="47.28402" lon="-2.32631">
        <ele>12</ele>
        <time>2021-04-29T07:56:22.000Z</time>
      </trkpt>
      <trkpt lat="47.28405" lon="-2.32617">
        <ele>12</ele>
        <time>2021-04-29T07:56:24.000Z</time>
      </trkpt>
      <trkpt lat="47.284" lon="-2.32606">
        <ele>12</ele>
        <time>2021-04-29T07:56:26.000Z</time>
      </trkpt>
      <trkpt lat="47.28391" lon="-2.32594">
        <ele>12</ele>
        <time>2021-04-29T07:56:29.000Z</time>
      </trkpt>
      <trkpt lat="47.28382" lon="-2.32585">
        <ele>12</ele>
        <time>2021-04-29T07:56:33.000Z</time>
      </trkpt>
      <trkpt lat="47.28369" lon="-2.32588">
        <ele>12</ele>
        <time>2021-04-29T07:56:37.000Z</time>
      </trkpt>
      <trkpt lat="47.2836" lon="-2.32578">
        <ele>12</ele>
        <time>2021-04-29T07:56:41.000Z</time>
      </trkpt>
      <trkpt lat="47.28359" lon="-2.32561">
        <ele>12</ele>
        <time>2021-04-29T07:56:45.000Z</time>
      </trkpt>
      <trkpt lat="47.28359" lon="-2.32555">
        <ele>12</ele>
        <time>2021-04-29T07:56:46.000Z</time>
      </trkpt>
      <trkpt lat="47.28355" lon="-2.32534">
        <ele>12</ele>
        <time>2021-04-29T07:56:50.000Z</time>
      </trkpt>
      <trkpt lat="47.28346" lon="-2.32534">
        <ele>12</ele>
        <time>2021-04-29T07:56:52.000Z</time>
      </trkpt>
      <trkpt lat="47.28318" lon="-2.32533">
        <ele>12</ele>
        <time>2021-04-29T07:56:57.000Z</time>
      </trkpt>
      <trkpt lat="47.28306" lon="-2.32532">
        <ele>12.39999961853</ele>
        <time>2021-04-29T07:56:59.000Z</time>
      </trkpt>
      <trkpt lat="47.28299" lon="-2.32531">
        <ele>13.199999809265</ele>
        <time>2021-04-29T07:57:00.000Z</time>
      </trkpt>
      <trkpt lat="47.28293" lon="-2.3253">
        <ele>13.60000038147</ele>
        <time>2021-04-29T07:57:01.000Z</time>
      </trkpt>
      <trkpt lat="47.28287" lon="-2.32529">
        <ele>14</ele>
        <time>2021-04-29T07:57:02.000Z</time>
      </trkpt>
      <trkpt lat="47.28274" lon="-2.32526">
        <ele>14</ele>
        <time>2021-04-29T07:57:04.000Z</time>
      </trkpt>
      <trkpt lat="47.28268" lon="-2.32523">
        <ele>14</ele>
        <time>2021-04-29T07:57:05.000Z</time>
      </trkpt>
      <trkpt lat="47.28252" lon="-2.32507">
        <ele>14</ele>
        <time>2021-04-29T07:57:08.000Z</time>
      </trkpt>
      <trkpt lat="47.28246" lon="-2.325">
        <ele>14</ele>
        <time>2021-04-29T07:57:09.000Z</time>
      </trkpt>
      <trkpt lat="47.28232" lon="-2.32481">
        <ele>14</ele>
        <time>2021-04-29T07:57:12.000Z</time>
      </trkpt>
      <trkpt lat="47.28224" lon="-2.32472">
        <ele>14</ele>
        <time>2021-04-29T07:57:14.000Z</time>
      </trkpt>
      <trkpt lat="47.28215" lon="-2.32466">
        <ele>14</ele>
        <time>2021-04-29T07:57:16.000Z</time>
      </trkpt>
      <trkpt lat="47.28206" lon="-2.32462">
        <ele>14</ele>
        <time>2021-04-29T07:57:18.000Z</time>
      </trkpt>
      <trkpt lat="47.28201" lon="-2.3246">
        <ele>14</ele>
        <time>2021-04-29T07:57:19.000Z</time>
      </trkpt>
      <trkpt lat="47.28193" lon="-2.32457">
        <ele>14</ele>
        <time>2021-04-29T07:57:21.000Z</time>
      </trkpt>
      <trkpt lat="47.28179" lon="-2.32453">
        <ele>14</ele>
        <time>2021-04-29T07:57:24.000Z</time>
      </trkpt>
      <trkpt lat="47.2817" lon="-2.32451">
        <ele>14</ele>
        <time>2021-04-29T07:57:26.000Z</time>
      </trkpt>
      <trkpt lat="47.28158" lon="-2.32451">
        <ele>14</ele>
        <time>2021-04-29T07:57:30.000Z</time>
      </trkpt>
      <trkpt lat="47.2814" lon="-2.32453">
        <ele>14</ele>
        <time>2021-04-29T07:57:36.000Z</time>
      </trkpt>
      <trkpt lat="47.28121" lon="-2.32452">
        <ele>14</ele>
        <time>2021-04-29T07:57:43.000Z</time>
      </trkpt>
      <trkpt lat="47.28111" lon="-2.32448">
        <ele>14</ele>
        <time>2021-04-29T07:57:49.000Z</time>
      </trkpt>
      <trkpt lat="47.28103" lon="-2.32441">
        <ele>14</ele>
        <time>2021-04-29T07:57:56.000Z</time>
      </trkpt>
      <trkpt lat="47.28096" lon="-2.32437">
        <ele>14</ele>
        <time>2021-04-29T07:58:10.000Z</time>
      </trkpt>
      <trkpt lat="47.28091" lon="-2.32436">
        <ele>14</ele>
        <time>2021-04-29T07:58:12.000Z</time>
      </trkpt>
      <trkpt lat="47.28076" lon="-2.32435">
        <ele>14</ele>
        <time>2021-04-29T07:58:17.000Z</time>
      </trkpt>
      <trkpt lat="47.28072" lon="-2.32435">
        <ele>14</ele>
        <time>2021-04-29T07:58:20.000Z</time>
      </trkpt>
      <trkpt lat="47.28072" lon="-2.32435">
        <ele>14</ele>
        <time>2021-04-29T07:58:45.000Z</time>
      </trkpt>
      <trkpt lat="47.28059" lon="-2.32433">
        <ele>14</ele>
        <time>2021-04-29T07:58:50.000Z</time>
      </trkpt>
      <trkpt lat="47.28038" lon="-2.32432">
        <ele>14</ele>
        <time>2021-04-29T07:58:55.000Z</time>
      </trkpt>
      <trkpt lat="47.28027" lon="-2.32431">
        <ele>14</ele>
        <time>2021-04-29T07:58:57.000Z</time>
      </trkpt>
      <trkpt lat="47.28017" lon="-2.32428">
        <ele>14</ele>
        <time>2021-04-29T07:58:59.000Z</time>
      </trkpt>
      <trkpt lat="47.28006" lon="-2.32425">
        <ele>14</ele>
        <time>2021-04-29T07:59:01.000Z</time>
      </trkpt>
      <trkpt lat="47.27996" lon="-2.32422">
        <ele>14.60000038147</ele>
        <time>2021-04-29T07:59:03.000Z</time>
      </trkpt>
      <trkpt lat="47.2799" lon="-2.3242">
        <ele>15</ele>
        <time>2021-04-29T07:59:04.000Z</time>
      </trkpt>
      <trkpt lat="47.27985" lon="-2.32418">
        <ele>15.39999961853</ele>
        <time>2021-04-29T07:59:05.000Z</time>
      </trkpt>
      <trkpt lat="47.27979" lon="-2.32417">
        <ele>15.800000190735</ele>
        <time>2021-04-29T07:59:06.000Z</time>
      </trkpt>
      <trkpt lat="47.27974" lon="-2.32415">
        <ele>16.200000762939</ele>
        <time>2021-04-29T07:59:07.000Z</time>
      </trkpt>
      <trkpt lat="47.27969" lon="-2.32412">
        <ele>16.200000762939</ele>
        <time>2021-04-29T07:59:08.000Z</time>
      </trkpt>
      <trkpt lat="47.27965" lon="-2.3241">
        <ele>16.200000762939</ele>
        <time>2021-04-29T07:59:09.000Z</time>
      </trkpt>
      <trkpt lat="47.27949" lon="-2.32406">
        <ele>16.200000762939</ele>
        <time>2021-04-29T07:59:13.000Z</time>
      </trkpt>
      <trkpt lat="47.27942" lon="-2.32404">
        <ele>16.200000762939</ele>
        <time>2021-04-29T07:59:17.000Z</time>
      </trkpt>
      <trkpt lat="47.27933" lon="-2.32398">
        <ele>16.200000762939</ele>
        <time>2021-04-29T07:59:25.000Z</time>
      </trkpt>
      <trkpt lat="47.27925" lon="-2.32392">
        <ele>16.200000762939</ele>
        <time>2021-04-29T07:59:31.000Z</time>
      </trkpt>
      <trkpt lat="47.2792" lon="-2.32389">
        <ele>16.200000762939</ele>
        <time>2021-04-29T07:59:33.000Z</time>
      </trkpt>
      <trkpt lat="47.27913" lon="-2.32394">
        <ele>16.200000762939</ele>
        <time>2021-04-29T07:59:36.000Z</time>
      </trkpt>
      <trkpt lat="47.27907" lon="-2.32403">
        <ele>16.200000762939</ele>
        <time>2021-04-29T07:59:40.000Z</time>
      </trkpt>
      <trkpt lat="47.27901" lon="-2.32414">
        <ele>16.200000762939</ele>
        <time>2021-04-29T07:59:43.000Z</time>
      </trkpt>
      <trkpt lat="47.27898" lon="-2.32419">
        <ele>16.200000762939</ele>
        <time>2021-04-29T07:59:44.000Z</time>
      </trkpt>
      <trkpt lat="47.27878" lon="-2.3245">
        <ele>16.200000762939</ele>
        <time>2021-04-29T07:59:51.000Z</time>
      </trkpt>
      <trkpt lat="47.27863" lon="-2.32461">
        <ele>16.200000762939</ele>
        <time>2021-04-29T07:59:55.000Z</time>
      </trkpt>
      <trkpt lat="47.27859" lon="-2.32465">
        <ele>16.200000762939</ele>
        <time>2021-04-29T07:59:56.000Z</time>
      </trkpt>
      <trkpt lat="47.27846" lon="-2.32482">
        <ele>16.200000762939</ele>
        <time>2021-04-29T08:00:00.000Z</time>
      </trkpt>
      <trkpt lat="47.27826" lon="-2.32511">
        <ele>16.200000762939</ele>
        <time>2021-04-29T08:00:06.000Z</time>
      </trkpt>
      <trkpt lat="47.2781" lon="-2.32534">
        <ele>16.60000038147</ele>
        <time>2021-04-29T08:00:10.000Z</time>
      </trkpt>
      <trkpt lat="47.27806" lon="-2.3254">
        <ele>17</ele>
        <time>2021-04-29T08:00:11.000Z</time>
      </trkpt>
      <trkpt lat="47.27802" lon="-2.32546">
        <ele>17.39999961853</ele>
        <time>2021-04-29T08:00:12.000Z</time>
      </trkpt>
      <trkpt lat="47.27798" lon="-2.32553">
        <ele>17.799999237061</ele>
        <time>2021-04-29T08:00:13.000Z</time>
      </trkpt>
      <trkpt lat="47.27793" lon="-2.32558">
        <ele>18.200000762939</ele>
        <time>2021-04-29T08:00:14.000Z</time>
      </trkpt>
      <trkpt lat="47.27789" lon="-2.32564">
        <ele>18.200000762939</ele>
        <time>2021-04-29T08:00:15.000Z</time>
      </trkpt>
      <trkpt lat="47.27782" lon="-2.32574">
        <ele>18.200000762939</ele>
        <time>2021-04-29T08:00:17.000Z</time>
      </trkpt>
      <trkpt lat="47.27775" lon="-2.32585">
        <ele>18.200000762939</ele>
        <time>2021-04-29T08:00:19.000Z</time>
      </trkpt>
      <trkpt lat="47.2777" lon="-2.32597">
        <ele>18.200000762939</ele>
        <time>2021-04-29T08:00:21.000Z</time>
      </trkpt>
      <trkpt lat="47.27766" lon="-2.32603">
        <ele>18.200000762939</ele>
        <time>2021-04-29T08:00:22.000Z</time>
      </trkpt>
      <trkpt lat="47.27763" lon="-2.32608">
        <ele>18.200000762939</ele>
        <time>2021-04-29T08:00:23.000Z</time>
      </trkpt>
      <trkpt lat="47.27753" lon="-2.32627">
        <ele>17.799999237061</ele>
        <time>2021-04-29T08:00:26.000Z</time>
      </trkpt>
      <trkpt lat="47.27751" lon="-2.32634">
        <ele>17.39999961853</ele>
        <time>2021-04-29T08:00:27.000Z</time>
      </trkpt>
      <trkpt lat="47.27749" lon="-2.32643">
        <ele>17</ele>
        <time>2021-04-29T08:00:28.000Z</time>
      </trkpt>
      <trkpt lat="47.27746" lon="-2.32652">
        <ele>16.60000038147</ele>
        <time>2021-04-29T08:00:29.000Z</time>
      </trkpt>
      <trkpt lat="47.27743" lon="-2.32661">
        <ele>16.200000762939</ele>
        <time>2021-04-29T08:00:30.000Z</time>
      </trkpt>
      <trkpt lat="47.2774" lon="-2.32669">
        <ele>15.800000190735</ele>
        <time>2021-04-29T08:00:31.000Z</time>
      </trkpt>
      <trkpt lat="47.27737" lon="-2.32677">
        <ele>15.39999961853</ele>
        <time>2021-04-29T08:00:32.000Z</time>
      </trkpt>
      <trkpt lat="47.27734" lon="-2.32683">
        <ele>14.60000038147</ele>
        <time>2021-04-29T08:00:33.000Z</time>
      </trkpt>
      <trkpt lat="47.2773" lon="-2.32689">
        <ele>14</ele>
        <time>2021-04-29T08:00:34.000Z</time>
      </trkpt>
      <trkpt lat="47.27726" lon="-2.32695">
        <ele>13.199999809265</ele>
        <time>2021-04-29T08:00:35.000Z</time>
      </trkpt>
      <trkpt lat="47.27723" lon="-2.327">
        <ele>12.199999809265</ele>
        <time>2021-04-29T08:00:36.000Z</time>
      </trkpt>
      <trkpt lat="47.2772" lon="-2.32704">
        <ele>11.39999961853</ele>
        <time>2021-04-29T08:00:37.000Z</time>
      </trkpt>
      <trkpt lat="47.27717" lon="-2.32707">
        <ele>10.60000038147</ele>
        <time>2021-04-29T08:00:38.000Z</time>
      </trkpt>
      <trkpt lat="47.27715" lon="-2.32709">
        <ele>9.8000001907349</ele>
        <time>2021-04-29T08:00:39.000Z</time>
      </trkpt>
      <trkpt lat="47.27714" lon="-2.3271">
        <ele>9.3999996185303</ele>
        <time>2021-04-29T08:00:40.000Z</time>
      </trkpt>
      <trkpt lat="47.27711" lon="-2.32713">
        <ele>8.8000001907349</ele>
        <time>2021-04-29T08:00:41.000Z</time>
      </trkpt>
      <trkpt lat="47.27709" lon="-2.32716">
        <ele>8</ele>
        <time>2021-04-29T08:00:42.000Z</time>
      </trkpt>
      <trkpt lat="47.27706" lon="-2.32719">
        <ele>7.5999999046326</ele>
        <time>2021-04-29T08:00:43.000Z</time>
      </trkpt>
      <trkpt lat="47.27695" lon="-2.32728">
        <ele>7.5999999046326</ele>
        <time>2021-04-29T08:00:48.000Z</time>
      </trkpt>
      <trkpt lat="47.27693" lon="-2.32728">
        <ele>7.5999999046326</ele>
        <time>2021-04-29T08:00:50.000Z</time>
      </trkpt>
      <trkpt lat="47.27692" lon="-2.32729">
        <ele>7.5999999046326</ele>
        <time>2021-04-29T08:01:21.000Z</time>
      </trkpt>
      <trkpt lat="47.2769" lon="-2.32728">
        <ele>7.5999999046326</ele>
        <time>2021-04-29T08:01:22.000Z</time>
      </trkpt>
      <trkpt lat="47.27681" lon="-2.32723">
        <ele>7.5999999046326</ele>
        <time>2021-04-29T08:01:26.000Z</time>
      </trkpt>
      <trkpt lat="47.27678" lon="-2.32721">
        <ele>7.5999999046326</ele>
        <time>2021-04-29T08:01:27.000Z</time>
      </trkpt>
      <trkpt lat="47.27662" lon="-2.32711">
        <ele>7.5999999046326</ele>
        <time>2021-04-29T08:01:32.000Z</time>
      </trkpt>
      <trkpt lat="47.27658" lon="-2.32709">
        <ele>7.5999999046326</ele>
        <time>2021-04-29T08:01:33.000Z</time>
      </trkpt>
      <trkpt lat="47.27644" lon="-2.32702">
        <ele>7.5999999046326</ele>
        <time>2021-04-29T08:01:36.000Z</time>
      </trkpt>
      <trkpt lat="47.27639" lon="-2.32698">
        <ele>7.5999999046326</ele>
        <time>2021-04-29T08:01:37.000Z</time>
      </trkpt>
      <trkpt lat="47.27628" lon="-2.32687">
        <ele>7.5999999046326</ele>
        <time>2021-04-29T08:01:40.000Z</time>
      </trkpt>
      <trkpt lat="47.27617" lon="-2.32687">
        <ele>7.5999999046326</ele>
        <time>2021-04-29T08:01:43.000Z</time>
      </trkpt>
      <trkpt lat="47.27604" lon="-2.32708">
        <ele>7.5999999046326</ele>
        <time>2021-04-29T08:01:47.000Z</time>
      </trkpt>
      <trkpt lat="47.27602" lon="-2.32714">
        <ele>7.5999999046326</ele>
        <time>2021-04-29T08:01:48.000Z</time>
      </trkpt>
      <trkpt lat="47.27596" lon="-2.32732">
        <ele>7.5999999046326</ele>
        <time>2021-04-29T08:01:51.000Z</time>
      </trkpt>
      <trkpt lat="47.27595" lon="-2.32738">
        <ele>7.5999999046326</ele>
        <time>2021-04-29T08:01:52.000Z</time>
      </trkpt>
      <trkpt lat="47.27594" lon="-2.32744">
        <ele>8</ele>
        <time>2021-04-29T08:01:53.000Z</time>
      </trkpt>
      <trkpt lat="47.27593" lon="-2.32749">
        <ele>8.3999996185303</ele>
        <time>2021-04-29T08:01:54.000Z</time>
      </trkpt>
      <trkpt lat="47.27593" lon="-2.32754">
        <ele>8.8000001907349</ele>
        <time>2021-04-29T08:01:55.000Z</time>
      </trkpt>
      <trkpt lat="47.27592" lon="-2.32758">
        <ele>10.199999809265</ele>
        <time>2021-04-29T08:01:56.000Z</time>
      </trkpt>
      <trkpt lat="47.27591" lon="-2.32761">
        <ele>10.800000190735</ele>
        <time>2021-04-29T08:01:57.000Z</time>
      </trkpt>
      <trkpt lat="47.27589" lon="-2.32764">
        <ele>11.39999961853</ele>
        <time>2021-04-29T08:01:58.000Z</time>
      </trkpt>
      <trkpt lat="47.27586" lon="-2.32768">
        <ele>12</ele>
        <time>2021-04-29T08:01:59.000Z</time>
      </trkpt>
      <trkpt lat="47.27582" lon="-2.32778">
        <ele>12</ele>
        <time>2021-04-29T08:02:01.000Z</time>
      </trkpt>
      <trkpt lat="47.27574" lon="-2.32797">
        <ele>12.39999961853</ele>
        <time>2021-04-29T08:02:04.000Z</time>
      </trkpt>
      <trkpt lat="47.27571" lon="-2.32805">
        <ele>12.800000190735</ele>
        <time>2021-04-29T08:02:05.000Z</time>
      </trkpt>
      <trkpt lat="47.27569" lon="-2.32811">
        <ele>13.199999809265</ele>
        <time>2021-04-29T08:02:06.000Z</time>
      </trkpt>
      <trkpt lat="47.27567" lon="-2.32816">
        <ele>13.60000038147</ele>
        <time>2021-04-29T08:02:07.000Z</time>
      </trkpt>
      <trkpt lat="47.27566" lon="-2.32819">
        <ele>14</ele>
        <time>2021-04-29T08:02:08.000Z</time>
      </trkpt>
      <trkpt lat="47.27556" lon="-2.32839">
        <ele>14</ele>
        <time>2021-04-29T08:02:14.000Z</time>
      </trkpt>
      <trkpt lat="47.27544" lon="-2.32856">
        <ele>14</ele>
        <time>2021-04-29T08:02:19.000Z</time>
      </trkpt>
      <trkpt lat="47.27545" lon="-2.3286">
        <ele>14.39999961853</ele>
        <time>2021-04-29T08:02:20.000Z</time>
      </trkpt>
      <trkpt lat="47.27547" lon="-2.32864">
        <ele>15.199999809265</ele>
        <time>2021-04-29T08:02:21.000Z</time>
      </trkpt>
      <trkpt lat="47.27549" lon="-2.32868">
        <ele>15.60000038147</ele>
        <time>2021-04-29T08:02:22.000Z</time>
      </trkpt>
      <trkpt lat="47.27552" lon="-2.32871">
        <ele>16</ele>
        <time>2021-04-29T08:02:23.000Z</time>
      </trkpt>
      <trkpt lat="47.27554" lon="-2.32874">
        <ele>16</ele>
        <time>2021-04-29T08:02:24.000Z</time>
      </trkpt>
      <trkpt lat="47.27566" lon="-2.32889">
        <ele>16</ele>
        <time>2021-04-29T08:02:28.000Z</time>
      </trkpt>
      <trkpt lat="47.27573" lon="-2.329">
        <ele>16</ele>
        <time>2021-04-29T08:02:31.000Z</time>
      </trkpt>
      <trkpt lat="47.27574" lon="-2.32904">
        <ele>16</ele>
        <time>2021-04-29T08:02:32.000Z</time>
      </trkpt>
      <trkpt lat="47.27573" lon="-2.32907">
        <ele>16.39999961853</ele>
        <time>2021-04-29T08:02:33.000Z</time>
      </trkpt>
      <trkpt lat="47.27571" lon="-2.3291">
        <ele>16.799999237061</ele>
        <time>2021-04-29T08:02:34.000Z</time>
      </trkpt>
      <trkpt lat="47.2757" lon="-2.32914">
        <ele>17.39999961853</ele>
        <time>2021-04-29T08:02:35.000Z</time>
      </trkpt>
      <trkpt lat="47.27569" lon="-2.32917">
        <ele>17.799999237061</ele>
        <time>2021-04-29T08:02:36.000Z</time>
      </trkpt>
      <trkpt lat="47.27567" lon="-2.3292">
        <ele>18.200000762939</ele>
        <time>2021-04-29T08:02:37.000Z</time>
      </trkpt>
      <trkpt lat="47.27557" lon="-2.3293">
        <ele>18.200000762939</ele>
        <time>2021-04-29T08:02:40.000Z</time>
      </trkpt>
      <trkpt lat="47.27548" lon="-2.32954">
        <ele>18.200000762939</ele>
        <time>2021-04-29T08:02:44.000Z</time>
      </trkpt>
      <trkpt lat="47.27552" lon="-2.32967">
        <ele>18.200000762939</ele>
        <time>2021-04-29T08:02:47.000Z</time>
      </trkpt>
      <trkpt lat="47.2755" lon="-2.32978">
        <ele>18.200000762939</ele>
        <time>2021-04-29T08:02:51.000Z</time>
      </trkpt>
      <trkpt lat="47.27539" lon="-2.32981">
        <ele>18.200000762939</ele>
        <time>2021-04-29T08:02:55.000Z</time>
      </trkpt>
      <trkpt lat="47.27526" lon="-2.32983">
        <ele>18.200000762939</ele>
        <time>2021-04-29T08:02:59.000Z</time>
      </trkpt>
      <trkpt lat="47.27524" lon="-2.32985">
        <ele>18.60000038147</ele>
        <time>2021-04-29T08:03:00.000Z</time>
      </trkpt>
      <trkpt lat="47.27522" lon="-2.32987">
        <ele>19</ele>
        <time>2021-04-29T08:03:01.000Z</time>
      </trkpt>
      <trkpt lat="47.2752" lon="-2.32988">
        <ele>19.39999961853</ele>
        <time>2021-04-29T08:03:02.000Z</time>
      </trkpt>
      <trkpt lat="47.27517" lon="-2.32988">
        <ele>20</ele>
        <time>2021-04-29T08:03:03.000Z</time>
      </trkpt>
      <trkpt lat="47.27513" lon="-2.32987">
        <ele>20.39999961853</ele>
        <time>2021-04-29T08:03:04.000Z</time>
      </trkpt>
      <trkpt lat="47.27507" lon="-2.32983">
        <ele>20.39999961853</ele>
        <time>2021-04-29T08:03:06.000Z</time>
      </trkpt>
      <trkpt lat="47.27496" lon="-2.32981">
        <ele>20.39999961853</ele>
        <time>2021-04-29T08:03:09.000Z</time>
      </trkpt>
      <trkpt lat="47.27485" lon="-2.32997">
        <ele>20.39999961853</ele>
        <time>2021-04-29T08:03:13.000Z</time>
      </trkpt>
      <trkpt lat="47.27483" lon="-2.33002">
        <ele>20.39999961853</ele>
        <time>2021-04-29T08:03:14.000Z</time>
      </trkpt>
      <trkpt lat="47.27466" lon="-2.33029">
        <ele>20.39999961853</ele>
        <time>2021-04-29T08:03:20.000Z</time>
      </trkpt>
      <trkpt lat="47.27452" lon="-2.33034">
        <ele>20.39999961853</ele>
        <time>2021-04-29T08:03:24.000Z</time>
      </trkpt>
      <trkpt lat="47.27433" lon="-2.33044">
        <ele>20.39999961853</ele>
        <time>2021-04-29T08:03:30.000Z</time>
      </trkpt>
      <trkpt lat="47.27425" lon="-2.33032">
        <ele>20.39999961853</ele>
        <time>2021-04-29T08:03:33.000Z</time>
      </trkpt>
      <trkpt lat="47.27422" lon="-2.33021">
        <ele>20.39999961853</ele>
        <time>2021-04-29T08:03:35.000Z</time>
      </trkpt>
      <trkpt lat="47.27417" lon="-2.33006">
        <ele>20.39999961853</ele>
        <time>2021-04-29T08:03:38.000Z</time>
      </trkpt>
      <trkpt lat="47.27411" lon="-2.32985">
        <ele>20.39999961853</ele>
        <time>2021-04-29T08:03:43.000Z</time>
      </trkpt>
      <trkpt lat="47.27402" lon="-2.32949">
        <ele>20.39999961853</ele>
        <time>2021-04-29T08:03:49.000Z</time>
      </trkpt>
      <trkpt lat="47.27392" lon="-2.32922">
        <ele>20.39999961853</ele>
        <time>2021-04-29T08:03:54.000Z</time>
      </trkpt>
      <trkpt lat="47.27392" lon="-2.32913">
        <ele>20</ele>
        <time>2021-04-29T08:03:56.000Z</time>
      </trkpt>
      <trkpt lat="47.27393" lon="-2.3291">
        <ele>19.60000038147</ele>
        <time>2021-04-29T08:03:57.000Z</time>
      </trkpt>
      <trkpt lat="47.27395" lon="-2.32907">
        <ele>19.200000762939</ele>
        <time>2021-04-29T08:03:58.000Z</time>
      </trkpt>
      <trkpt lat="47.27397" lon="-2.32904">
        <ele>18.200000762939</ele>
        <time>2021-04-29T08:03:59.000Z</time>
      </trkpt>
      <trkpt lat="47.27406" lon="-2.3289">
        <ele>18.200000762939</ele>
        <time>2021-04-29T08:04:03.000Z</time>
      </trkpt>
      <trkpt lat="47.27416" lon="-2.32864">
        <ele>18.200000762939</ele>
        <time>2021-04-29T08:04:08.000Z</time>
      </trkpt>
      <trkpt lat="47.27428" lon="-2.3283">
        <ele>18.200000762939</ele>
        <time>2021-04-29T08:04:13.000Z</time>
      </trkpt>
      <trkpt lat="47.27429" lon="-2.32822">
        <ele>17.799999237061</ele>
        <time>2021-04-29T08:04:14.000Z</time>
      </trkpt>
      <trkpt lat="47.27431" lon="-2.32813">
        <ele>17.39999961853</ele>
        <time>2021-04-29T08:04:15.000Z</time>
      </trkpt>
      <trkpt lat="47.27432" lon="-2.32805">
        <ele>17</ele>
        <time>2021-04-29T08:04:16.000Z</time>
      </trkpt>
      <trkpt lat="47.27433" lon="-2.32797">
        <ele>16.60000038147</ele>
        <time>2021-04-29T08:04:17.000Z</time>
      </trkpt>
      <trkpt lat="47.27435" lon="-2.32789">
        <ele>16.200000762939</ele>
        <time>2021-04-29T08:04:18.000Z</time>
      </trkpt>
      <trkpt lat="47.27436" lon="-2.3278">
        <ele>16.200000762939</ele>
        <time>2021-04-29T08:04:19.000Z</time>
      </trkpt>
      <trkpt lat="47.27449" lon="-2.32737">
        <ele>15.199999809265</ele>
        <time>2021-04-29T08:04:24.000Z</time>
      </trkpt>
      <trkpt lat="47.27453" lon="-2.32727">
        <ele>14.800000190735</ele>
        <time>2021-04-29T08:04:25.000Z</time>
      </trkpt>
      <trkpt lat="47.27457" lon="-2.32718">
        <ele>14.39999961853</ele>
        <time>2021-04-29T08:04:26.000Z</time>
      </trkpt>
      <trkpt lat="47.27462" lon="-2.32709">
        <ele>13.800000190735</ele>
        <time>2021-04-29T08:04:27.000Z</time>
      </trkpt>
      <trkpt lat="47.27466" lon="-2.327">
        <ele>13.39999961853</ele>
        <time>2021-04-29T08:04:28.000Z</time>
      </trkpt>
      <trkpt lat="47.2747" lon="-2.32693">
        <ele>12.800000190735</ele>
        <time>2021-04-29T08:04:29.000Z</time>
      </trkpt>
      <trkpt lat="47.27474" lon="-2.32688">
        <ele>12.199999809265</ele>
        <time>2021-04-29T08:04:30.000Z</time>
      </trkpt>
      <trkpt lat="47.27479" lon="-2.32683">
        <ele>11.800000190735</ele>
        <time>2021-04-29T08:04:31.000Z</time>
      </trkpt>
      <trkpt lat="47.27491" lon="-2.32675">
        <ele>11.199999809265</ele>
        <time>2021-04-29T08:04:33.000Z</time>
      </trkpt>
      <trkpt lat="47.27497" lon="-2.3267">
        <ele>10.800000190735</ele>
        <time>2021-04-29T08:04:34.000Z</time>
      </trkpt>
      <trkpt lat="47.27501" lon="-2.32664">
        <ele>10.39999961853</ele>
        <time>2021-04-29T08:04:35.000Z</time>
      </trkpt>
      <trkpt lat="47.27506" lon="-2.32656">
        <ele>10</ele>
        <time>2021-04-29T08:04:36.000Z</time>
      </trkpt>
      <trkpt lat="47.27509" lon="-2.32648">
        <ele>9.3999996185303</ele>
        <time>2021-04-29T08:04:37.000Z</time>
      </trkpt>
      <trkpt lat="47.27522" lon="-2.32622">
        <ele>9.3999996185303</ele>
        <time>2021-04-29T08:04:41.000Z</time>
      </trkpt>
      <trkpt lat="47.27531" lon="-2.32615">
        <ele>9.3999996185303</ele>
        <time>2021-04-29T08:04:43.000Z</time>
      </trkpt>
      <trkpt lat="47.27536" lon="-2.3261">
        <ele>9.3999996185303</ele>
        <time>2021-04-29T08:04:44.000Z</time>
      </trkpt>
      <trkpt lat="47.2754" lon="-2.32604">
        <ele>9.3999996185303</ele>
        <time>2021-04-29T08:04:45.000Z</time>
      </trkpt>
      <trkpt lat="47.27548" lon="-2.32591">
        <ele>9</ele>
        <time>2021-04-29T08:04:47.000Z</time>
      </trkpt>
      <trkpt lat="47.27551" lon="-2.32584">
        <ele>8.6000003814697</ele>
        <time>2021-04-29T08:04:48.000Z</time>
      </trkpt>
      <trkpt lat="47.27552" lon="-2.32577">
        <ele>7.8000001907349</ele>
        <time>2021-04-29T08:04:49.000Z</time>
      </trkpt>
      <trkpt lat="47.27552" lon="-2.32572">
        <ele>7.4000000953674</ele>
        <time>2021-04-29T08:04:50.000Z</time>
      </trkpt>
      <trkpt lat="47.27551" lon="-2.32558">
        <ele>7.4000000953674</ele>
        <time>2021-04-29T08:04:53.000Z</time>
      </trkpt>
      <trkpt lat="47.27547" lon="-2.32541">
        <ele>7.4000000953674</ele>
        <time>2021-04-29T08:04:56.000Z</time>
      </trkpt>
      <trkpt lat="47.27546" lon="-2.32528">
        <ele>8</ele>
        <time>2021-04-29T08:04:58.000Z</time>
      </trkpt>
      <trkpt lat="47.27546" lon="-2.32522">
        <ele>8.6000003814697</ele>
        <time>2021-04-29T08:04:59.000Z</time>
      </trkpt>
      <trkpt lat="47.27547" lon="-2.32517">
        <ele>9</ele>
        <time>2021-04-29T08:05:00.000Z</time>
      </trkpt>
      <trkpt lat="47.27549" lon="-2.32511">
        <ele>9.6000003814697</ele>
        <time>2021-04-29T08:05:01.000Z</time>
      </trkpt>
      <trkpt lat="47.2755" lon="-2.32506">
        <ele>10.199999809265</ele>
        <time>2021-04-29T08:05:02.000Z</time>
      </trkpt>
      <trkpt lat="47.27552" lon="-2.325">
        <ele>10.60000038147</ele>
        <time>2021-04-29T08:05:03.000Z</time>
      </trkpt>
      <trkpt lat="47.27553" lon="-2.32495">
        <ele>11.199999809265</ele>
        <time>2021-04-29T08:05:04.000Z</time>
      </trkpt>
      <trkpt lat="47.27555" lon="-2.3249">
        <ele>11.800000190735</ele>
        <time>2021-04-29T08:05:05.000Z</time>
      </trkpt>
      <trkpt lat="47.27556" lon="-2.32485">
        <ele>12.199999809265</ele>
        <time>2021-04-29T08:05:06.000Z</time>
      </trkpt>
      <trkpt lat="47.27557" lon="-2.3248">
        <ele>12.800000190735</ele>
        <time>2021-04-29T08:05:07.000Z</time>
      </trkpt>
      <trkpt lat="47.27557" lon="-2.32475">
        <ele>13.199999809265</ele>
        <time>2021-04-29T08:05:08.000Z</time>
      </trkpt>
      <trkpt lat="47.27558" lon="-2.32469">
        <ele>13.60000038147</ele>
        <time>2021-04-29T08:05:09.000Z</time>
      </trkpt>
      <trkpt lat="47.27559" lon="-2.32464">
        <ele>14</ele>
        <time>2021-04-29T08:05:10.000Z</time>
      </trkpt>
      <trkpt lat="47.27559" lon="-2.32458">
        <ele>14.60000038147</ele>
        <time>2021-04-29T08:05:11.000Z</time>
      </trkpt>
      <trkpt lat="47.27561" lon="-2.32448">
        <ele>15.39999961853</ele>
        <time>2021-04-29T08:05:13.000Z</time>
      </trkpt>
      <trkpt lat="47.27563" lon="-2.32442">
        <ele>15.800000190735</ele>
        <time>2021-04-29T08:05:14.000Z</time>
      </trkpt>
      <trkpt lat="47.27564" lon="-2.32436">
        <ele>16.200000762939</ele>
        <time>2021-04-29T08:05:15.000Z</time>
      </trkpt>
      <trkpt lat="47.27565" lon="-2.3243">
        <ele>16.799999237061</ele>
        <time>2021-04-29T08:05:16.000Z</time>
      </trkpt>
      <trkpt lat="47.27565" lon="-2.32424">
        <ele>16.799999237061</ele>
        <time>2021-04-29T08:05:17.000Z</time>
      </trkpt>
      <trkpt lat="47.2757" lon="-2.32388">
        <ele>16.799999237061</ele>
        <time>2021-04-29T08:05:23.000Z</time>
      </trkpt>
      <trkpt lat="47.27582" lon="-2.3236">
        <ele>16.799999237061</ele>
        <time>2021-04-29T08:05:29.000Z</time>
      </trkpt>
      <trkpt lat="47.27598" lon="-2.32321">
        <ele>16.799999237061</ele>
        <time>2021-04-29T08:05:37.000Z</time>
      </trkpt>
      <trkpt lat="47.27607" lon="-2.32291">
        <ele>16.799999237061</ele>
        <time>2021-04-29T08:05:44.000Z</time>
      </trkpt>
      <trkpt lat="47.27597" lon="-2.32276">
        <ele>16.799999237061</ele>
        <time>2021-04-29T08:05:48.000Z</time>
      </trkpt>
      <trkpt lat="47.27589" lon="-2.32268">
        <ele>16.799999237061</ele>
        <time>2021-04-29T08:05:50.000Z</time>
      </trkpt>
      <trkpt lat="47.27574" lon="-2.32256">
        <ele>16.799999237061</ele>
        <time>2021-04-29T08:05:53.000Z</time>
      </trkpt>
      <trkpt lat="47.27537" lon="-2.32226">
        <ele>16.799999237061</ele>
        <time>2021-04-29T08:05:59.000Z</time>
      </trkpt>
      <trkpt lat="47.27525" lon="-2.32214">
        <ele>16.200000762939</ele>
        <time>2021-04-29T08:06:01.000Z</time>
      </trkpt>
      <trkpt lat="47.27519" lon="-2.32207">
        <ele>15.800000190735</ele>
        <time>2021-04-29T08:06:02.000Z</time>
      </trkpt>
      <trkpt lat="47.27513" lon="-2.322">
        <ele>14.800000190735</ele>
        <time>2021-04-29T08:06:03.000Z</time>
      </trkpt>
      <trkpt lat="47.27507" lon="-2.32192">
        <ele>14.39999961853</ele>
        <time>2021-04-29T08:06:04.000Z</time>
      </trkpt>
      <trkpt lat="47.27501" lon="-2.32184">
        <ele>14.39999961853</ele>
        <time>2021-04-29T08:06:05.000Z</time>
      </trkpt>
      <trkpt lat="47.27483" lon="-2.32161">
        <ele>14</ele>
        <time>2021-04-29T08:06:08.000Z</time>
      </trkpt>
      <trkpt lat="47.27477" lon="-2.32153">
        <ele>13.60000038147</ele>
        <time>2021-04-29T08:06:09.000Z</time>
      </trkpt>
      <trkpt lat="47.27471" lon="-2.32145">
        <ele>13.199999809265</ele>
        <time>2021-04-29T08:06:10.000Z</time>
      </trkpt>
      <trkpt lat="47.27466" lon="-2.32138">
        <ele>12.800000190735</ele>
        <time>2021-04-29T08:06:11.000Z</time>
      </trkpt>
      <trkpt lat="47.2746" lon="-2.3213">
        <ele>12.39999961853</ele>
        <time>2021-04-29T08:06:12.000Z</time>
      </trkpt>
      <trkpt lat="47.27425" lon="-2.32084">
        <ele>12.39999961853</ele>
        <time>2021-04-29T08:06:19.000Z</time>
      </trkpt>
      <trkpt lat="47.27409" lon="-2.32066">
        <ele>12</ele>
        <time>2021-04-29T08:06:22.000Z</time>
      </trkpt>
      <trkpt lat="47.27404" lon="-2.3206">
        <ele>11.39999961853</ele>
        <time>2021-04-29T08:06:23.000Z</time>
      </trkpt>
      <trkpt lat="47.27398" lon="-2.32053">
        <ele>11</ele>
        <time>2021-04-29T08:06:24.000Z</time>
      </trkpt>
      <trkpt lat="47.27392" lon="-2.32047">
        <ele>10.60000038147</ele>
        <time>2021-04-29T08:06:25.000Z</time>
      </trkpt>
      <trkpt lat="47.27386" lon="-2.3204">
        <ele>10</ele>
        <time>2021-04-29T08:06:26.000Z</time>
      </trkpt>
      <trkpt lat="47.27372" lon="-2.32025">
        <ele>9.6000003814697</ele>
        <time>2021-04-29T08:06:28.000Z</time>
      </trkpt>
      <trkpt lat="47.27364" lon="-2.32018">
        <ele>9.1999998092651</ele>
        <time>2021-04-29T08:06:29.000Z</time>
      </trkpt>
      <trkpt lat="47.27357" lon="-2.32011">
        <ele>8.8000001907349</ele>
        <time>2021-04-29T08:06:30.000Z</time>
      </trkpt>
      <trkpt lat="47.2735" lon="-2.32004">
        <ele>8.3999996185303</ele>
        <time>2021-04-29T08:06:31.000Z</time>
      </trkpt>
      <trkpt lat="47.27343" lon="-2.31996">
        <ele>8</ele>
        <time>2021-04-29T08:06:32.000Z</time>
      </trkpt>
      <trkpt lat="47.27308" lon="-2.31962">
        <ele>7.5999999046326</ele>
        <time>2021-04-29T08:06:37.000Z</time>
      </trkpt>
      <trkpt lat="47.27302" lon="-2.31956">
        <ele>7.1999998092651</ele>
        <time>2021-04-29T08:06:38.000Z</time>
      </trkpt>
      <trkpt lat="47.27295" lon="-2.31951">
        <ele>6.8000001907349</ele>
        <time>2021-04-29T08:06:39.000Z</time>
      </trkpt>
      <trkpt lat="47.27289" lon="-2.31947">
        <ele>6.4000000953674</ele>
        <time>2021-04-29T08:06:40.000Z</time>
      </trkpt>
      <trkpt lat="47.27283" lon="-2.31944">
        <ele>6</ele>
        <time>2021-04-29T08:06:41.000Z</time>
      </trkpt>
      <trkpt lat="47.27276" lon="-2.31941">
        <ele>6</ele>
        <time>2021-04-29T08:06:42.000Z</time>
      </trkpt>
      <trkpt lat="47.27238" lon="-2.31927">
        <ele>6</ele>
        <time>2021-04-29T08:06:48.000Z</time>
      </trkpt>
      <trkpt lat="47.27227" lon="-2.31924">
        <ele>6</ele>
        <time>2021-04-29T08:06:50.000Z</time>
      </trkpt>
      <trkpt lat="47.27219" lon="-2.3192">
        <ele>6</ele>
        <time>2021-04-29T08:06:52.000Z</time>
      </trkpt>
      <trkpt lat="47.27211" lon="-2.31924">
        <ele>6</ele>
        <time>2021-04-29T08:06:55.000Z</time>
      </trkpt>
      <trkpt lat="47.27206" lon="-2.31933">
        <ele>6</ele>
        <time>2021-04-29T08:06:57.000Z</time>
      </trkpt>
      <trkpt lat="47.27201" lon="-2.31943">
        <ele>6</ele>
        <time>2021-04-29T08:06:59.000Z</time>
      </trkpt>
      <trkpt lat="47.27198" lon="-2.31947">
        <ele>6</ele>
        <time>2021-04-29T08:07:00.000Z</time>
      </trkpt>
      <trkpt lat="47.27182" lon="-2.31973">
        <ele>6</ele>
        <time>2021-04-29T08:07:05.000Z</time>
      </trkpt>
      <trkpt lat="47.27179" lon="-2.31981">
        <ele>6</ele>
        <time>2021-04-29T08:07:06.000Z</time>
      </trkpt>
      <trkpt lat="47.27176" lon="-2.31986">
        <ele>6</ele>
        <time>2021-04-29T08:07:07.000Z</time>
      </trkpt>
      <trkpt lat="47.27168" lon="-2.3199">
        <ele>6</ele>
        <time>2021-04-29T08:07:09.000Z</time>
      </trkpt>
      <trkpt lat="47.2716" lon="-2.31987">
        <ele>6</ele>
        <time>2021-04-29T08:07:11.000Z</time>
      </trkpt>
      <trkpt lat="47.27156" lon="-2.31985">
        <ele>6</ele>
        <time>2021-04-29T08:07:12.000Z</time>
      </trkpt>
      <trkpt lat="47.27147" lon="-2.31979">
        <ele>6</ele>
        <time>2021-04-29T08:07:14.000Z</time>
      </trkpt>
      <trkpt lat="47.27124" lon="-2.31963">
        <ele>6</ele>
        <time>2021-04-29T08:07:19.000Z</time>
      </trkpt>
      <trkpt lat="47.27095" lon="-2.31953">
        <ele>6</ele>
        <time>2021-04-29T08:07:25.000Z</time>
      </trkpt>
      <trkpt lat="47.2709" lon="-2.31953">
        <ele>6</ele>
        <time>2021-04-29T08:07:26.000Z</time>
      </trkpt>
      <trkpt lat="47.27064" lon="-2.31953">
        <ele>6</ele>
        <time>2021-04-29T08:07:31.000Z</time>
      </trkpt>
      <trkpt lat="47.27059" lon="-2.31952">
        <ele>6</ele>
        <time>2021-04-29T08:07:32.000Z</time>
      </trkpt>
      <trkpt lat="47.27046" lon="-2.31954">
        <ele>6</ele>
        <time>2021-04-29T08:07:35.000Z</time>
      </trkpt>
      <trkpt lat="47.27037" lon="-2.31961">
        <ele>6.4000000953674</ele>
        <time>2021-04-29T08:07:37.000Z</time>
      </trkpt>
      <trkpt lat="47.27033" lon="-2.31964">
        <ele>6.8000001907349</ele>
        <time>2021-04-29T08:07:38.000Z</time>
      </trkpt>
      <trkpt lat="47.27028" lon="-2.31967">
        <ele>7.1999998092651</ele>
        <time>2021-04-29T08:07:39.000Z</time>
      </trkpt>
      <trkpt lat="47.27023" lon="-2.3197">
        <ele>7.5999999046326</ele>
        <time>2021-04-29T08:07:40.000Z</time>
      </trkpt>
      <trkpt lat="47.27016" lon="-2.31974">
        <ele>8</ele>
        <time>2021-04-29T08:07:41.000Z</time>
      </trkpt>
      <trkpt lat="47.27011" lon="-2.31978">
        <ele>8</ele>
        <time>2021-04-29T08:07:42.000Z</time>
      </trkpt>
      <trkpt lat="47.27009" lon="-2.31983">
        <ele>8</ele>
        <time>2021-04-29T08:07:43.000Z</time>
      </trkpt>
      <trkpt lat="47.27011" lon="-2.32">
        <ele>8</ele>
        <time>2021-04-29T08:07:46.000Z</time>
      </trkpt>
      <trkpt lat="47.27012" lon="-2.32006">
        <ele>8</ele>
        <time>2021-04-29T08:07:47.000Z</time>
      </trkpt>
      <trkpt lat="47.27018" lon="-2.3204">
        <ele>8</ele>
        <time>2021-04-29T08:07:52.000Z</time>
      </trkpt>
      <trkpt lat="47.27019" lon="-2.32047">
        <ele>7.5999999046326</ele>
        <time>2021-04-29T08:07:53.000Z</time>
      </trkpt>
      <trkpt lat="47.27019" lon="-2.32053">
        <ele>7.1999998092651</ele>
        <time>2021-04-29T08:07:54.000Z</time>
      </trkpt>
      <trkpt lat="47.27019" lon="-2.3206">
        <ele>6.8000001907349</ele>
        <time>2021-04-29T08:07:55.000Z</time>
      </trkpt>
      <trkpt lat="47.27019" lon="-2.32066">
        <ele>6.4000000953674</ele>
        <time>2021-04-29T08:07:56.000Z</time>
      </trkpt>
      <trkpt lat="47.27018" lon="-2.32074">
        <ele>6</ele>
        <time>2021-04-29T08:07:57.000Z</time>
      </trkpt>
      <trkpt lat="47.27015" lon="-2.32105">
        <ele>6</ele>
        <time>2021-04-29T08:08:02.000Z</time>
      </trkpt>
      <trkpt lat="47.27004" lon="-2.32122">
        <ele>5.5999999046326</ele>
        <time>2021-04-29T08:08:06.000Z</time>
      </trkpt>
      <trkpt lat="47.27" lon="-2.32126">
        <ele>5.1999998092651</ele>
        <time>2021-04-29T08:08:07.000Z</time>
      </trkpt>
      <trkpt lat="47.26998" lon="-2.32132">
        <ele>4.5999999046326</ele>
        <time>2021-04-29T08:08:08.000Z</time>
      </trkpt>
      <trkpt lat="47.26996" lon="-2.32139">
        <ele>4.1999998092651</ele>
        <time>2021-04-29T08:08:09.000Z</time>
      </trkpt>
      <trkpt lat="47.26997" lon="-2.32146">
        <ele>3.7999999523163</ele>
        <time>2021-04-29T08:08:10.000Z</time>
      </trkpt>
      <trkpt lat="47.27002" lon="-2.32159">
        <ele>3.7999999523163</ele>
        <time>2021-04-29T08:08:12.000Z</time>
      </trkpt>
      <trkpt lat="47.27006" lon="-2.32165">
        <ele>3.7999999523163</ele>
        <time>2021-04-29T08:08:13.000Z</time>
      </trkpt>
      <trkpt lat="47.2702" lon="-2.32188">
        <ele>3.7999999523163</ele>
        <time>2021-04-29T08:08:17.000Z</time>
      </trkpt>
      <trkpt lat="47.27024" lon="-2.322">
        <ele>3.7999999523163</ele>
        <time>2021-04-29T08:08:19.000Z</time>
      </trkpt>
      <trkpt lat="47.27027" lon="-2.32216">
        <ele>3.7999999523163</ele>
        <time>2021-04-29T08:08:21.000Z</time>
      </trkpt>
      <trkpt lat="47.27028" lon="-2.32235">
        <ele>3.7999999523163</ele>
        <time>2021-04-29T08:08:23.000Z</time>
      </trkpt>
      <trkpt lat="47.27028" lon="-2.32305">
        <ele>3.7999999523163</ele>
        <time>2021-04-29T08:08:30.000Z</time>
      </trkpt>
      <trkpt lat="47.27027" lon="-2.32332">
        <ele>3.7999999523163</ele>
        <time>2021-04-29T08:08:33.000Z</time>
      </trkpt>
      <trkpt lat="47.27029" lon="-2.3235">
        <ele>3.7999999523163</ele>
        <time>2021-04-29T08:08:35.000Z</time>
      </trkpt>
      <trkpt lat="47.2703" lon="-2.32399">
        <ele>3.7999999523163</ele>
        <time>2021-04-29T08:08:40.000Z</time>
      </trkpt>
      <trkpt lat="47.2703" lon="-2.32408">
        <ele>3.7999999523163</ele>
        <time>2021-04-29T08:08:41.000Z</time>
      </trkpt>
      <trkpt lat="47.27034" lon="-2.32455">
        <ele>3.7999999523163</ele>
        <time>2021-04-29T08:08:46.000Z</time>
      </trkpt>
      <trkpt lat="47.27034" lon="-2.32473">
        <ele>3.7999999523163</ele>
        <time>2021-04-29T08:08:48.000Z</time>
      </trkpt>
      <trkpt lat="47.27031" lon="-2.32489">
        <ele>3.7999999523163</ele>
        <time>2021-04-29T08:08:50.000Z</time>
      </trkpt>
      <trkpt lat="47.27028" lon="-2.32494">
        <ele>3.7999999523163</ele>
        <time>2021-04-29T08:08:51.000Z</time>
      </trkpt>
      <trkpt lat="47.27014" lon="-2.32501">
        <ele>3.7999999523163</ele>
        <time>2021-04-29T08:08:54.000Z</time>
      </trkpt>
      <trkpt lat="47.26996" lon="-2.32489">
        <ele>3.7999999523163</ele>
        <time>2021-04-29T08:08:58.000Z</time>
      </trkpt>
      <trkpt lat="47.26986" lon="-2.3247">
        <ele>3.7999999523163</ele>
        <time>2021-04-29T08:09:01.000Z</time>
      </trkpt>
      <trkpt lat="47.2698" lon="-2.32458">
        <ele>3.7999999523163</ele>
        <time>2021-04-29T08:09:03.000Z</time>
      </trkpt>
      <trkpt lat="47.26956" lon="-2.32422">
        <ele>3.7999999523163</ele>
        <time>2021-04-29T08:09:09.000Z</time>
      </trkpt>
      <trkpt lat="47.26952" lon="-2.32415">
        <ele>3.7999999523163</ele>
        <time>2021-04-29T08:09:10.000Z</time>
      </trkpt>
      <trkpt lat="47.26946" lon="-2.32401">
        <ele>4.1999998092651</ele>
        <time>2021-04-29T08:09:12.000Z</time>
      </trkpt>
      <trkpt lat="47.26943" lon="-2.32395">
        <ele>4.8000001907349</ele>
        <time>2021-04-29T08:09:13.000Z</time>
      </trkpt>
      <trkpt lat="47.26941" lon="-2.32388">
        <ele>5.1999998092651</ele>
        <time>2021-04-29T08:09:14.000Z</time>
      </trkpt>
      <trkpt lat="47.26939" lon="-2.3238">
        <ele>5.5999999046326</ele>
        <time>2021-04-29T08:09:15.000Z</time>
      </trkpt>
      <trkpt lat="47.26938" lon="-2.32373">
        <ele>6</ele>
        <time>2021-04-29T08:09:16.000Z</time>
      </trkpt>
      <trkpt lat="47.26933" lon="-2.32351">
        <ele>6</ele>
        <time>2021-04-29T08:09:19.000Z</time>
      </trkpt>
      <trkpt lat="47.26931" lon="-2.32345">
        <ele>6</ele>
        <time>2021-04-29T08:09:20.000Z</time>
      </trkpt>
      <trkpt lat="47.26923" lon="-2.32329">
        <ele>6</ele>
        <time>2021-04-29T08:09:23.000Z</time>
      </trkpt>
      <trkpt lat="47.26919" lon="-2.32315">
        <ele>6</ele>
        <time>2021-04-29T08:09:25.000Z</time>
      </trkpt>
      <trkpt lat="47.269" lon="-2.3227">
        <ele>6</ele>
        <time>2021-04-29T08:09:31.000Z</time>
      </trkpt>
      <trkpt lat="47.26889" lon="-2.32252">
        <ele>6.4000000953674</ele>
        <time>2021-04-29T08:09:34.000Z</time>
      </trkpt>
      <trkpt lat="47.26886" lon="-2.32247">
        <ele>6.8000001907349</ele>
        <time>2021-04-29T08:09:35.000Z</time>
      </trkpt>
      <trkpt lat="47.26883" lon="-2.32242">
        <ele>7.4000000953674</ele>
        <time>2021-04-29T08:09:36.000Z</time>
      </trkpt>
      <trkpt lat="47.2688" lon="-2.32236">
        <ele>7.8000001907349</ele>
        <time>2021-04-29T08:09:37.000Z</time>
      </trkpt>
      <trkpt lat="47.26877" lon="-2.3223">
        <ele>8.1999998092651</ele>
        <time>2021-04-29T08:09:38.000Z</time>
      </trkpt>
      <trkpt lat="47.26865" lon="-2.32207">
        <ele>8.6000003814697</ele>
        <time>2021-04-29T08:09:42.000Z</time>
      </trkpt>
      <trkpt lat="47.26862" lon="-2.32201">
        <ele>9</ele>
        <time>2021-04-29T08:09:43.000Z</time>
      </trkpt>
      <trkpt lat="47.26859" lon="-2.32195">
        <ele>9.6000003814697</ele>
        <time>2021-04-29T08:09:44.000Z</time>
      </trkpt>
      <trkpt lat="47.26856" lon="-2.32189">
        <ele>10.39999961853</ele>
        <time>2021-04-29T08:09:45.000Z</time>
      </trkpt>
      <trkpt lat="47.26848" lon="-2.32172">
        <ele>10.39999961853</ele>
        <time>2021-04-29T08:09:48.000Z</time>
      </trkpt>
      <trkpt lat="47.26843" lon="-2.3216">
        <ele>10.39999961853</ele>
        <time>2021-04-29T08:09:50.000Z</time>
      </trkpt>
      <trkpt lat="47.26838" lon="-2.32148">
        <ele>10.39999961853</ele>
        <time>2021-04-29T08:09:52.000Z</time>
      </trkpt>
      <trkpt lat="47.26834" lon="-2.32135">
        <ele>10.800000190735</ele>
        <time>2021-04-29T08:09:54.000Z</time>
      </trkpt>
      <trkpt lat="47.26832" lon="-2.32128">
        <ele>11.199999809265</ele>
        <time>2021-04-29T08:09:55.000Z</time>
      </trkpt>
      <trkpt lat="47.2683" lon="-2.32122">
        <ele>11.60000038147</ele>
        <time>2021-04-29T08:09:56.000Z</time>
      </trkpt>
      <trkpt lat="47.26828" lon="-2.32115">
        <ele>12</ele>
        <time>2021-04-29T08:09:57.000Z</time>
      </trkpt>
      <trkpt lat="47.26827" lon="-2.32108">
        <ele>12.39999961853</ele>
        <time>2021-04-29T08:09:58.000Z</time>
      </trkpt>
      <trkpt lat="47.26822" lon="-2.32083">
        <ele>12.39999961853</ele>
        <time>2021-04-29T08:10:02.000Z</time>
      </trkpt>
      <trkpt lat="47.26813" lon="-2.32038">
        <ele>12.39999961853</ele>
        <time>2021-04-29T08:10:08.000Z</time>
      </trkpt>
      <trkpt lat="47.26806" lon="-2.32017">
        <ele>12.39999961853</ele>
        <time>2021-04-29T08:10:11.000Z</time>
      </trkpt>
      <trkpt lat="47.26797" lon="-2.31997">
        <ele>12.800000190735</ele>
        <time>2021-04-29T08:10:14.000Z</time>
      </trkpt>
      <trkpt lat="47.26794" lon="-2.31991">
        <ele>13.39999961853</ele>
        <time>2021-04-29T08:10:15.000Z</time>
      </trkpt>
      <trkpt lat="47.2679" lon="-2.31984">
        <ele>13.800000190735</ele>
        <time>2021-04-29T08:10:16.000Z</time>
      </trkpt>
      <trkpt lat="47.26787" lon="-2.31978">
        <ele>14.199999809265</ele>
        <time>2021-04-29T08:10:17.000Z</time>
      </trkpt>
      <trkpt lat="47.26783" lon="-2.31972">
        <ele>14.60000038147</ele>
        <time>2021-04-29T08:10:18.000Z</time>
      </trkpt>
      <trkpt lat="47.2678" lon="-2.31967">
        <ele>14.60000038147</ele>
        <time>2021-04-29T08:10:19.000Z</time>
      </trkpt>
      <trkpt lat="47.26769" lon="-2.31947">
        <ele>14.60000038147</ele>
        <time>2021-04-29T08:10:23.000Z</time>
      </trkpt>
      <trkpt lat="47.26765" lon="-2.31945">
        <ele>14.60000038147</ele>
        <time>2021-04-29T08:10:24.000Z</time>
      </trkpt>
      <trkpt lat="47.26761" lon="-2.31947">
        <ele>15</ele>
        <time>2021-04-29T08:10:25.000Z</time>
      </trkpt>
      <trkpt lat="47.26758" lon="-2.31951">
        <ele>15.39999961853</ele>
        <time>2021-04-29T08:10:26.000Z</time>
      </trkpt>
      <trkpt lat="47.26756" lon="-2.31956">
        <ele>15.800000190735</ele>
        <time>2021-04-29T08:10:27.000Z</time>
      </trkpt>
      <trkpt lat="47.26754" lon="-2.31961">
        <ele>16.200000762939</ele>
        <time>2021-04-29T08:10:28.000Z</time>
      </trkpt>
      <trkpt lat="47.2675" lon="-2.31966">
        <ele>16.799999237061</ele>
        <time>2021-04-29T08:10:29.000Z</time>
      </trkpt>
      <trkpt lat="47.26748" lon="-2.3197">
        <ele>16.799999237061</ele>
        <time>2021-04-29T08:10:30.000Z</time>
      </trkpt>
      <trkpt lat="47.26742" lon="-2.31978">
        <ele>16.799999237061</ele>
        <time>2021-04-29T08:10:32.000Z</time>
      </trkpt>
      <trkpt lat="47.26738" lon="-2.31982">
        <ele>16.799999237061</ele>
        <time>2021-04-29T08:10:33.000Z</time>
      </trkpt>
      <trkpt lat="47.26726" lon="-2.31993">
        <ele>16.799999237061</ele>
        <time>2021-04-29T08:10:36.000Z</time>
      </trkpt>
      <trkpt lat="47.26711" lon="-2.32004">
        <ele>17.200000762939</ele>
        <time>2021-04-29T08:10:40.000Z</time>
      </trkpt>
      <trkpt lat="47.26708" lon="-2.32006">
        <ele>17.60000038147</ele>
        <time>2021-04-29T08:10:41.000Z</time>
      </trkpt>
      <trkpt lat="47.26705" lon="-2.32009">
        <ele>18</ele>
        <time>2021-04-29T08:10:42.000Z</time>
      </trkpt>
      <trkpt lat="47.26702" lon="-2.32013">
        <ele>18.39999961853</ele>
        <time>2021-04-29T08:10:43.000Z</time>
      </trkpt>
      <trkpt lat="47.26699" lon="-2.32016">
        <ele>19</ele>
        <time>2021-04-29T08:10:44.000Z</time>
      </trkpt>
      <trkpt lat="47.26692" lon="-2.32029">
        <ele>19.39999961853</ele>
        <time>2021-04-29T08:10:47.000Z</time>
      </trkpt>
      <trkpt lat="47.2669" lon="-2.32034">
        <ele>19.799999237061</ele>
        <time>2021-04-29T08:10:48.000Z</time>
      </trkpt>
      <trkpt lat="47.26688" lon="-2.3204">
        <ele>20.200000762939</ele>
        <time>2021-04-29T08:10:49.000Z</time>
      </trkpt>
      <trkpt lat="47.26687" lon="-2.32046">
        <ele>20.60000038147</ele>
        <time>2021-04-29T08:10:50.000Z</time>
      </trkpt>
      <trkpt lat="47.26687" lon="-2.32052">
        <ele>21</ele>
        <time>2021-04-29T08:10:51.000Z</time>
      </trkpt>
      <trkpt lat="47.26686" lon="-2.32058">
        <ele>21</ele>
        <time>2021-04-29T08:10:52.000Z</time>
      </trkpt>
      <trkpt lat="47.26686" lon="-2.32064">
        <ele>21</ele>
        <time>2021-04-29T08:10:53.000Z</time>
      </trkpt>
      <trkpt lat="47.26686" lon="-2.32086">
        <ele>21</ele>
        <time>2021-04-29T08:10:56.000Z</time>
      </trkpt>
      <trkpt lat="47.26685" lon="-2.32093">
        <ele>21</ele>
        <time>2021-04-29T08:10:57.000Z</time>
      </trkpt>
      <trkpt lat="47.26684" lon="-2.32113">
        <ele>21</ele>
        <time>2021-04-29T08:11:00.000Z</time>
      </trkpt>
      <trkpt lat="47.2668" lon="-2.32122">
        <ele>21</ele>
        <time>2021-04-29T08:11:02.000Z</time>
      </trkpt>
      <trkpt lat="47.26673" lon="-2.32118">
        <ele>21</ele>
        <time>2021-04-29T08:11:05.000Z</time>
      </trkpt>
      <trkpt lat="47.26669" lon="-2.32101">
        <ele>21</ele>
        <time>2021-04-29T08:11:08.000Z</time>
      </trkpt>
      <trkpt lat="47.26666" lon="-2.32088">
        <ele>21</ele>
        <time>2021-04-29T08:11:10.000Z</time>
      </trkpt>
      <trkpt lat="47.26653" lon="-2.32031">
        <ele>21</ele>
        <time>2021-04-29T08:11:18.000Z</time>
      </trkpt>
      <trkpt lat="47.26649" lon="-2.32011">
        <ele>21</ele>
        <time>2021-04-29T08:11:21.000Z</time>
      </trkpt>
      <trkpt lat="47.26642" lon="-2.32004">
        <ele>21</ele>
        <time>2021-04-29T08:11:23.000Z</time>
      </trkpt>
      <trkpt lat="47.26628" lon="-2.32009">
        <ele>21</ele>
        <time>2021-04-29T08:11:26.000Z</time>
      </trkpt>
      <trkpt lat="47.26619" lon="-2.32013">
        <ele>21</ele>
        <time>2021-04-29T08:11:28.000Z</time>
      </trkpt>
      <trkpt lat="47.26597" lon="-2.32021">
        <ele>21</ele>
        <time>2021-04-29T08:11:32.000Z</time>
      </trkpt>
      <trkpt lat="47.26562" lon="-2.32034">
        <ele>21</ele>
        <time>2021-04-29T08:11:38.000Z</time>
      </trkpt>
      <trkpt lat="47.26547" lon="-2.32038">
        <ele>20.39999961853</ele>
        <time>2021-04-29T08:11:41.000Z</time>
      </trkpt>
      <trkpt lat="47.26545" lon="-2.32037">
        <ele>20</ele>
        <time>2021-04-29T08:11:42.000Z</time>
      </trkpt>
      <trkpt lat="47.26543" lon="-2.32037">
        <ele>19.39999961853</ele>
        <time>2021-04-29T08:11:43.000Z</time>
      </trkpt>
      <trkpt lat="47.26541" lon="-2.32036">
        <ele>19</ele>
        <time>2021-04-29T08:11:44.000Z</time>
      </trkpt>
      <trkpt lat="47.26539" lon="-2.32034">
        <ele>18.60000038147</ele>
        <time>2021-04-29T08:11:45.000Z</time>
      </trkpt>
      <trkpt lat="47.26538" lon="-2.32032">
        <ele>18.60000038147</ele>
        <time>2021-04-29T08:11:46.000Z</time>
      </trkpt>
      <trkpt lat="47.26537" lon="-2.32028">
        <ele>18.60000038147</ele>
        <time>2021-04-29T08:11:47.000Z</time>
      </trkpt>
      <trkpt lat="47.26535" lon="-2.3202">
        <ele>17.60000038147</ele>
        <time>2021-04-29T08:11:49.000Z</time>
      </trkpt>
      <trkpt lat="47.26534" lon="-2.32017">
        <ele>17.200000762939</ele>
        <time>2021-04-29T08:11:50.000Z</time>
      </trkpt>
      <trkpt lat="47.26533" lon="-2.32013">
        <ele>16.799999237061</ele>
        <time>2021-04-29T08:11:51.000Z</time>
      </trkpt>
      <trkpt lat="47.26532" lon="-2.32009">
        <ele>16.39999961853</ele>
        <time>2021-04-29T08:11:52.000Z</time>
      </trkpt>
      <trkpt lat="47.26524" lon="-2.32">
        <ele>16.39999961853</ele>
        <time>2021-04-29T08:11:55.000Z</time>
      </trkpt>
      <trkpt lat="47.26521" lon="-2.31999">
        <ele>16.39999961853</ele>
        <time>2021-04-29T08:11:56.000Z</time>
      </trkpt>
      <trkpt lat="47.2651" lon="-2.32001">
        <ele>16</ele>
        <time>2021-04-29T08:11:59.000Z</time>
      </trkpt>
      <trkpt lat="47.26505" lon="-2.32001">
        <ele>15.60000038147</ele>
        <time>2021-04-29T08:12:00.000Z</time>
      </trkpt>
      <trkpt lat="47.265" lon="-2.32001">
        <ele>15.199999809265</ele>
        <time>2021-04-29T08:12:01.000Z</time>
      </trkpt>
      <trkpt lat="47.26494" lon="-2.32001">
        <ele>14.800000190735</ele>
        <time>2021-04-29T08:12:02.000Z</time>
      </trkpt>
      <trkpt lat="47.26488" lon="-2.32001">
        <ele>14.39999961853</ele>
        <time>2021-04-29T08:12:03.000Z</time>
      </trkpt>
      <trkpt lat="47.26482" lon="-2.32001">
        <ele>14.39999961853</ele>
        <time>2021-04-29T08:12:04.000Z</time>
      </trkpt>
      <trkpt lat="47.26477" lon="-2.32002">
        <ele>14.39999961853</ele>
        <time>2021-04-29T08:12:05.000Z</time>
      </trkpt>
      <trkpt lat="47.26471" lon="-2.32003">
        <ele>13.800000190735</ele>
        <time>2021-04-29T08:12:06.000Z</time>
      </trkpt>
      <trkpt lat="47.26465" lon="-2.32003">
        <ele>13.39999961853</ele>
        <time>2021-04-29T08:12:07.000Z</time>
      </trkpt>
      <trkpt lat="47.26458" lon="-2.32003">
        <ele>13</ele>
        <time>2021-04-29T08:12:08.000Z</time>
      </trkpt>
      <trkpt lat="47.26452" lon="-2.32003">
        <ele>12.39999961853</ele>
        <time>2021-04-29T08:12:09.000Z</time>
      </trkpt>
      <trkpt lat="47.26445" lon="-2.32002">
        <ele>12</ele>
        <time>2021-04-29T08:12:10.000Z</time>
      </trkpt>
      <trkpt lat="47.26424" lon="-2.31998">
        <ele>11.199999809265</ele>
        <time>2021-04-29T08:12:13.000Z</time>
      </trkpt>
      <trkpt lat="47.26417" lon="-2.31997">
        <ele>10.800000190735</ele>
        <time>2021-04-29T08:12:14.000Z</time>
      </trkpt>
      <trkpt lat="47.26411" lon="-2.31996">
        <ele>10.39999961853</ele>
        <time>2021-04-29T08:12:15.000Z</time>
      </trkpt>
      <trkpt lat="47.26405" lon="-2.31994">
        <ele>9.8000001907349</ele>
        <time>2021-04-29T08:12:16.000Z</time>
      </trkpt>
      <trkpt lat="47.26397" lon="-2.31992">
        <ele>9.1999998092651</ele>
        <time>2021-04-29T08:12:17.000Z</time>
      </trkpt>
      <trkpt lat="47.26391" lon="-2.31992">
        <ele>8.6000003814697</ele>
        <time>2021-04-29T08:12:18.000Z</time>
      </trkpt>
      <trkpt lat="47.26385" lon="-2.31992">
        <ele>8.1999998092651</ele>
        <time>2021-04-29T08:12:19.000Z</time>
      </trkpt>
      <trkpt lat="47.2638" lon="-2.31992">
        <ele>7.5999999046326</ele>
        <time>2021-04-29T08:12:20.000Z</time>
      </trkpt>
      <trkpt lat="47.26374" lon="-2.3199">
        <ele>7.5999999046326</ele>
        <time>2021-04-29T08:12:21.000Z</time>
      </trkpt>
      <trkpt lat="47.26369" lon="-2.31987">
        <ele>7.1999998092651</ele>
        <time>2021-04-29T08:12:22.000Z</time>
      </trkpt>
      <trkpt lat="47.26363" lon="-2.31982">
        <ele>6.5999999046326</ele>
        <time>2021-04-29T08:12:23.000Z</time>
      </trkpt>
      <trkpt lat="47.26357" lon="-2.31975">
        <ele>6.1999998092651</ele>
        <time>2021-04-29T08:12:24.000Z</time>
      </trkpt>
      <trkpt lat="47.26352" lon="-2.31969">
        <ele>5.8000001907349</ele>
        <time>2021-04-29T08:12:25.000Z</time>
      </trkpt>
      <trkpt lat="47.26347" lon="-2.3196">
        <ele>5.1999998092651</ele>
        <time>2021-04-29T08:12:26.000Z</time>
      </trkpt>
      <trkpt lat="47.26344" lon="-2.31953">
        <ele>5.1999998092651</ele>
        <time>2021-04-29T08:12:27.000Z</time>
      </trkpt>
      <trkpt lat="47.2634" lon="-2.31948">
        <ele>5.1999998092651</ele>
        <time>2021-04-29T08:12:28.000Z</time>
      </trkpt>
      <trkpt lat="47.2633" lon="-2.31945">
        <ele>4.8000001907349</ele>
        <time>2021-04-29T08:12:30.000Z</time>
      </trkpt>
      <trkpt lat="47.26324" lon="-2.31944">
        <ele>4.4000000953674</ele>
        <time>2021-04-29T08:12:31.000Z</time>
      </trkpt>
      <trkpt lat="47.26318" lon="-2.31944">
        <ele>4</ele>
        <time>2021-04-29T08:12:32.000Z</time>
      </trkpt>
      <trkpt lat="47.26313" lon="-2.31944">
        <ele>3.5999999046326</ele>
        <time>2021-04-29T08:12:33.000Z</time>
      </trkpt>
      <trkpt lat="47.26307" lon="-2.31944">
        <ele>3.2000000476837</ele>
        <time>2021-04-29T08:12:34.000Z</time>
      </trkpt>
      <trkpt lat="47.26303" lon="-2.31941">
        <ele>3.2000000476837</ele>
        <time>2021-04-29T08:12:35.000Z</time>
      </trkpt>
      <trkpt lat="47.26297" lon="-2.31923">
        <ele>3.2000000476837</ele>
        <time>2021-04-29T08:12:38.000Z</time>
      </trkpt>
      <trkpt lat="47.26295" lon="-2.31891">
        <ele>3.2000000476837</ele>
        <time>2021-04-29T08:12:42.000Z</time>
      </trkpt>
      <trkpt lat="47.26295" lon="-2.31883">
        <ele>3.2000000476837</ele>
        <time>2021-04-29T08:12:43.000Z</time>
      </trkpt>
      <trkpt lat="47.26295" lon="-2.31874">
        <ele>3.2000000476837</ele>
        <time>2021-04-29T08:12:44.000Z</time>
      </trkpt>
      <trkpt lat="47.26294" lon="-2.31838">
        <ele>3.2000000476837</ele>
        <time>2021-04-29T08:12:48.000Z</time>
      </trkpt>
      <trkpt lat="47.26297" lon="-2.31791">
        <ele>3.2000000476837</ele>
        <time>2021-04-29T08:12:53.000Z</time>
      </trkpt>
      <trkpt lat="47.26296" lon="-2.31743">
        <ele>3.2000000476837</ele>
        <time>2021-04-29T08:12:59.000Z</time>
      </trkpt>
      <trkpt lat="47.26295" lon="-2.31729">
        <ele>3.2000000476837</ele>
        <time>2021-04-29T08:13:03.000Z</time>
      </trkpt>
      <trkpt lat="47.26294" lon="-2.31728">
        <ele>3.2000000476837</ele>
        <time>2021-04-29T08:13:04.000Z</time>
      </trkpt>
      <trkpt lat="47.26294" lon="-2.31717">
        <ele>3.2000000476837</ele>
        <time>2021-04-29T08:13:38.000Z</time>
      </trkpt>
      <trkpt lat="47.26293" lon="-2.31714">
        <ele>3.2000000476837</ele>
        <time>2021-04-29T08:13:39.000Z</time>
      </trkpt>
      <trkpt lat="47.26284" lon="-2.31698">
        <ele>3.2000000476837</ele>
        <time>2021-04-29T08:13:43.000Z</time>
      </trkpt>
      <trkpt lat="47.26265" lon="-2.31663">
        <ele>3.2000000476837</ele>
        <time>2021-04-29T08:13:49.000Z</time>
      </trkpt>
      <trkpt lat="47.26251" lon="-2.31628">
        <ele>3.2000000476837</ele>
        <time>2021-04-29T08:13:55.000Z</time>
      </trkpt>
      <trkpt lat="47.26249" lon="-2.31623">
        <ele>3.2000000476837</ele>
        <time>2021-04-29T08:13:56.000Z</time>
      </trkpt>
      <trkpt lat="47.26242" lon="-2.31611">
        <ele>3.2000000476837</ele>
        <time>2021-04-29T08:13:58.000Z</time>
      </trkpt>
      <trkpt lat="47.26232" lon="-2.31602">
        <ele>3.2000000476837</ele>
        <time>2021-04-29T08:14:00.000Z</time>
      </trkpt>
      <trkpt lat="47.26206" lon="-2.31595">
        <ele>3.2000000476837</ele>
        <time>2021-04-29T08:14:04.000Z</time>
      </trkpt>
      <trkpt lat="47.26187" lon="-2.316">
        <ele>3.2000000476837</ele>
        <time>2021-04-29T08:14:07.000Z</time>
      </trkpt>
      <trkpt lat="47.26175" lon="-2.31603">
        <ele>3.2000000476837</ele>
        <time>2021-04-29T08:14:09.000Z</time>
      </trkpt>
      <trkpt lat="47.26139" lon="-2.31614">
        <ele>3.2000000476837</ele>
        <time>2021-04-29T08:14:15.000Z</time>
      </trkpt>
      <trkpt lat="47.26134" lon="-2.31615">
        <ele>3.2000000476837</ele>
        <time>2021-04-29T08:14:16.000Z</time>
      </trkpt>
      <trkpt lat="47.26123" lon="-2.31616">
        <ele>3.2000000476837</ele>
        <time>2021-04-29T08:14:18.000Z</time>
      </trkpt>
      <trkpt lat="47.26111" lon="-2.3161">
        <ele>3.2000000476837</ele>
        <time>2021-04-29T08:14:21.000Z</time>
      </trkpt>
      <trkpt lat="47.26097" lon="-2.31599">
        <ele>3.2000000476837</ele>
        <time>2021-04-29T08:14:25.000Z</time>
      </trkpt>
      <trkpt lat="47.26087" lon="-2.31588">
        <ele>3.2000000476837</ele>
        <time>2021-04-29T08:14:28.000Z</time>
      </trkpt>
      <trkpt lat="47.26079" lon="-2.3158">
        <ele>3.2000000476837</ele>
        <time>2021-04-29T08:14:31.000Z</time>
      </trkpt>
      <trkpt lat="47.2607" lon="-2.31568">
        <ele>3.2000000476837</ele>
        <time>2021-04-29T08:14:34.000Z</time>
      </trkpt>
      <trkpt lat="47.26068" lon="-2.31563">
        <ele>3.2000000476837</ele>
        <time>2021-04-29T08:14:35.000Z</time>
      </trkpt>
      <trkpt lat="47.26053" lon="-2.31529">
        <ele>3.2000000476837</ele>
        <time>2021-04-29T08:14:40.000Z</time>
      </trkpt>
      <trkpt lat="47.26042" lon="-2.31511">
        <ele>3.2000000476837</ele>
        <time>2021-04-29T08:14:43.000Z</time>
      </trkpt>
      <trkpt lat="47.26041" lon="-2.31503">
        <ele>3.2000000476837</ele>
        <time>2021-04-29T08:14:45.000Z</time>
      </trkpt>
      <trkpt lat="47.26049" lon="-2.31491">
        <ele>3.2000000476837</ele>
        <time>2021-04-29T08:14:48.000Z</time>
      </trkpt>
      <trkpt lat="47.26053" lon="-2.31475">
        <ele>3.2000000476837</ele>
        <time>2021-04-29T08:14:51.000Z</time>
      </trkpt>
      <trkpt lat="47.26043" lon="-2.31465">
        <ele>3.2000000476837</ele>
        <time>2021-04-29T08:14:54.000Z</time>
      </trkpt>
      <trkpt lat="47.2601" lon="-2.31442">
        <ele>3.2000000476837</ele>
        <time>2021-04-29T08:15:01.000Z</time>
      </trkpt>
      <trkpt lat="47.25992" lon="-2.31425">
        <ele>3.2000000476837</ele>
        <time>2021-04-29T08:15:06.000Z</time>
      </trkpt>
      <trkpt lat="47.25995" lon="-2.31413">
        <ele>3.2000000476837</ele>
        <time>2021-04-29T08:15:09.000Z</time>
      </trkpt>
      <trkpt lat="47.25998" lon="-2.31408">
        <ele>3.2000000476837</ele>
        <time>2021-04-29T08:15:10.000Z</time>
      </trkpt>
      <trkpt lat="47.25999" lon="-2.31402">
        <ele>3.5999999046326</ele>
        <time>2021-04-29T08:15:11.000Z</time>
      </trkpt>
      <trkpt lat="47.26001" lon="-2.31398">
        <ele>4</ele>
        <time>2021-04-29T08:15:12.000Z</time>
      </trkpt>
      <trkpt lat="47.26002" lon="-2.31394">
        <ele>4.4000000953674</ele>
        <time>2021-04-29T08:15:13.000Z</time>
      </trkpt>
      <trkpt lat="47.26003" lon="-2.31391">
        <ele>4.8000001907349</ele>
        <time>2021-04-29T08:15:14.000Z</time>
      </trkpt>
      <trkpt lat="47.26004" lon="-2.3139">
        <ele>5.1999998092651</ele>
        <time>2021-04-29T08:15:15.000Z</time>
      </trkpt>
      <trkpt lat="47.26006" lon="-2.31388">
        <ele>5.1999998092651</ele>
        <time>2021-04-29T08:15:16.000Z</time>
      </trkpt>
      <trkpt lat="47.26007" lon="-2.31386">
        <ele>5.1999998092651</ele>
        <time>2021-04-29T08:15:17.000Z</time>
      </trkpt>
      <trkpt lat="47.26011" lon="-2.31373">
        <ele>5.1999998092651</ele>
        <time>2021-04-29T08:15:20.000Z</time>
      </trkpt>
      <trkpt lat="47.26012" lon="-2.31367">
        <ele>5.1999998092651</ele>
        <time>2021-04-29T08:15:21.000Z</time>
      </trkpt>
      <trkpt lat="47.26013" lon="-2.31353">
        <ele>5.1999998092651</ele>
        <time>2021-04-29T08:15:23.000Z</time>
      </trkpt>
      <trkpt lat="47.26017" lon="-2.31332">
        <ele>5.8000001907349</ele>
        <time>2021-04-29T08:15:26.000Z</time>
      </trkpt>
      <trkpt lat="47.26018" lon="-2.31326">
        <ele>6.1999998092651</ele>
        <time>2021-04-29T08:15:27.000Z</time>
      </trkpt>
      <trkpt lat="47.2602" lon="-2.31319">
        <ele>6.5999999046326</ele>
        <time>2021-04-29T08:15:28.000Z</time>
      </trkpt>
      <trkpt lat="47.26022" lon="-2.31312">
        <ele>7.1999998092651</ele>
        <time>2021-04-29T08:15:29.000Z</time>
      </trkpt>
      <trkpt lat="47.26023" lon="-2.31305">
        <ele>7.5999999046326</ele>
        <time>2021-04-29T08:15:30.000Z</time>
      </trkpt>
      <trkpt lat="47.26026" lon="-2.31293">
        <ele>7.5999999046326</ele>
        <time>2021-04-29T08:15:32.000Z</time>
      </trkpt>
      <trkpt lat="47.26028" lon="-2.31287">
        <ele>7.5999999046326</ele>
        <time>2021-04-29T08:15:33.000Z</time>
      </trkpt>
      <trkpt lat="47.2603" lon="-2.31281">
        <ele>8</ele>
        <time>2021-04-29T08:15:34.000Z</time>
      </trkpt>
      <trkpt lat="47.26031" lon="-2.31276">
        <ele>8.3999996185303</ele>
        <time>2021-04-29T08:15:35.000Z</time>
      </trkpt>
      <trkpt lat="47.26031" lon="-2.3127">
        <ele>8.8000001907349</ele>
        <time>2021-04-29T08:15:36.000Z</time>
      </trkpt>
      <trkpt lat="47.26029" lon="-2.31265">
        <ele>9.1999998092651</ele>
        <time>2021-04-29T08:15:37.000Z</time>
      </trkpt>
      <trkpt lat="47.26026" lon="-2.31261">
        <ele>9.6000003814697</ele>
        <time>2021-04-29T08:15:38.000Z</time>
      </trkpt>
      <trkpt lat="47.26017" lon="-2.31259">
        <ele>9.6000003814697</ele>
        <time>2021-04-29T08:15:40.000Z</time>
      </trkpt>
      <trkpt lat="47.26012" lon="-2.31258">
        <ele>9.6000003814697</ele>
        <time>2021-04-29T08:15:41.000Z</time>
      </trkpt>
      <trkpt lat="47.25982" lon="-2.31254">
        <ele>9.6000003814697</ele>
        <time>2021-04-29T08:15:47.000Z</time>
      </trkpt>
      <trkpt lat="47.25944" lon="-2.31242">
        <ele>9.6000003814697</ele>
        <time>2021-04-29T08:15:54.000Z</time>
      </trkpt>
      <trkpt lat="47.25928" lon="-2.31228">
        <ele>9.6000003814697</ele>
        <time>2021-04-29T08:15:57.000Z</time>
      </trkpt>
      <trkpt lat="47.25919" lon="-2.31216">
        <ele>9.6000003814697</ele>
        <time>2021-04-29T08:15:59.000Z</time>
      </trkpt>
      <trkpt lat="47.2591" lon="-2.31195">
        <ele>9.6000003814697</ele>
        <time>2021-04-29T08:16:02.000Z</time>
      </trkpt>
      <trkpt lat="47.25904" lon="-2.3118">
        <ele>9.6000003814697</ele>
        <time>2021-04-29T08:16:04.000Z</time>
      </trkpt>
      <trkpt lat="47.25895" lon="-2.31152">
        <ele>9.6000003814697</ele>
        <time>2021-04-29T08:16:08.000Z</time>
      </trkpt>
      <trkpt lat="47.25886" lon="-2.31142">
        <ele>9.6000003814697</ele>
        <time>2021-04-29T08:16:10.000Z</time>
      </trkpt>
      <trkpt lat="47.25877" lon="-2.31135">
        <ele>9.6000003814697</ele>
        <time>2021-04-29T08:16:12.000Z</time>
      </trkpt>
      <trkpt lat="47.25867" lon="-2.31127">
        <ele>10</ele>
        <time>2021-04-29T08:16:14.000Z</time>
      </trkpt>
      <trkpt lat="47.25863" lon="-2.31123">
        <ele>10.39999961853</ele>
        <time>2021-04-29T08:16:15.000Z</time>
      </trkpt>
      <trkpt lat="47.25859" lon="-2.31119">
        <ele>10.800000190735</ele>
        <time>2021-04-29T08:16:16.000Z</time>
      </trkpt>
      <trkpt lat="47.25854" lon="-2.31114">
        <ele>11.199999809265</ele>
        <time>2021-04-29T08:16:17.000Z</time>
      </trkpt>
      <trkpt lat="47.2585" lon="-2.3111">
        <ele>11.60000038147</ele>
        <time>2021-04-29T08:16:18.000Z</time>
      </trkpt>
      <trkpt lat="47.25832" lon="-2.3109">
        <ele>11.60000038147</ele>
        <time>2021-04-29T08:16:23.000Z</time>
      </trkpt>
      <trkpt lat="47.2582" lon="-2.311">
        <ele>11.60000038147</ele>
        <time>2021-04-29T08:16:26.000Z</time>
      </trkpt>
      <trkpt lat="47.25793" lon="-2.31126">
        <ele>11.60000038147</ele>
        <time>2021-04-29T08:16:32.000Z</time>
      </trkpt>
      <trkpt lat="47.25783" lon="-2.31121">
        <ele>11.60000038147</ele>
        <time>2021-04-29T08:16:34.000Z</time>
      </trkpt>
      <trkpt lat="47.25776" lon="-2.31109">
        <ele>11.60000038147</ele>
        <time>2021-04-29T08:16:36.000Z</time>
      </trkpt>
      <trkpt lat="47.25769" lon="-2.31096">
        <ele>11.60000038147</ele>
        <time>2021-04-29T08:16:38.000Z</time>
      </trkpt>
      <trkpt lat="47.25761" lon="-2.31074">
        <ele>12.199999809265</ele>
        <time>2021-04-29T08:16:42.000Z</time>
      </trkpt>
      <trkpt lat="47.25758" lon="-2.31068">
        <ele>12.60000038147</ele>
        <time>2021-04-29T08:16:43.000Z</time>
      </trkpt>
      <trkpt lat="47.25755" lon="-2.31062">
        <ele>13</ele>
        <time>2021-04-29T08:16:44.000Z</time>
      </trkpt>
      <trkpt lat="47.25756" lon="-2.31055">
        <ele>13.39999961853</ele>
        <time>2021-04-29T08:16:45.000Z</time>
      </trkpt>
      <trkpt lat="47.25757" lon="-2.31048">
        <ele>13.800000190735</ele>
        <time>2021-04-29T08:16:46.000Z</time>
      </trkpt>
      <trkpt lat="47.2576" lon="-2.31029">
        <ele>13.800000190735</ele>
        <time>2021-04-29T08:16:49.000Z</time>
      </trkpt>
      <trkpt lat="47.25762" lon="-2.31022">
        <ele>14.199999809265</ele>
        <time>2021-04-29T08:16:50.000Z</time>
      </trkpt>
      <trkpt lat="47.25763" lon="-2.31015">
        <ele>14.60000038147</ele>
        <time>2021-04-29T08:16:51.000Z</time>
      </trkpt>
      <trkpt lat="47.25764" lon="-2.31008">
        <ele>15</ele>
        <time>2021-04-29T08:16:52.000Z</time>
      </trkpt>
      <trkpt lat="47.25766" lon="-2.31001">
        <ele>15.39999961853</ele>
        <time>2021-04-29T08:16:53.000Z</time>
      </trkpt>
      <trkpt lat="47.25768" lon="-2.30995">
        <ele>15.800000190735</ele>
        <time>2021-04-29T08:16:54.000Z</time>
      </trkpt>
      <trkpt lat="47.2577" lon="-2.30989">
        <ele>15.800000190735</ele>
        <time>2021-04-29T08:16:55.000Z</time>
      </trkpt>
      <trkpt lat="47.25775" lon="-2.30969">
        <ele>16.200000762939</ele>
        <time>2021-04-29T08:16:58.000Z</time>
      </trkpt>
      <trkpt lat="47.25777" lon="-2.30963">
        <ele>16.60000038147</ele>
        <time>2021-04-29T08:16:59.000Z</time>
      </trkpt>
      <trkpt lat="47.25778" lon="-2.30957">
        <ele>17</ele>
        <time>2021-04-29T08:17:00.000Z</time>
      </trkpt>
      <trkpt lat="47.25781" lon="-2.30951">
        <ele>17.60000038147</ele>
        <time>2021-04-29T08:17:01.000Z</time>
      </trkpt>
      <trkpt lat="47.25782" lon="-2.30945">
        <ele>18</ele>
        <time>2021-04-29T08:17:02.000Z</time>
      </trkpt>
      <trkpt lat="47.25777" lon="-2.30938">
        <ele>18</ele>
        <time>2021-04-29T08:17:04.000Z</time>
      </trkpt>
      <trkpt lat="47.25761" lon="-2.3093">
        <ele>18</ele>
        <time>2021-04-29T08:17:08.000Z</time>
      </trkpt>
      <trkpt lat="47.25752" lon="-2.30928">
        <ele>18</ele>
        <time>2021-04-29T08:17:10.000Z</time>
      </trkpt>
      <trkpt lat="47.25738" lon="-2.30924">
        <ele>18</ele>
        <time>2021-04-29T08:17:13.000Z</time>
      </trkpt>
      <trkpt lat="47.25713" lon="-2.30917">
        <ele>18</ele>
        <time>2021-04-29T08:17:18.000Z</time>
      </trkpt>
      <trkpt lat="47.25679" lon="-2.30902">
        <ele>18</ele>
        <time>2021-04-29T08:17:25.000Z</time>
      </trkpt>
      <trkpt lat="47.25667" lon="-2.30904">
        <ele>18</ele>
        <time>2021-04-29T08:17:28.000Z</time>
      </trkpt>
      <trkpt lat="47.25663" lon="-2.30903">
        <ele>18</ele>
        <time>2021-04-29T08:17:29.000Z</time>
      </trkpt>
      <trkpt lat="47.25651" lon="-2.30895">
        <ele>18</ele>
        <time>2021-04-29T08:17:32.000Z</time>
      </trkpt>
      <trkpt lat="47.25648" lon="-2.30894">
        <ele>18</ele>
        <time>2021-04-29T08:17:33.000Z</time>
      </trkpt>
      <trkpt lat="47.25645" lon="-2.30895">
        <ele>18</ele>
        <time>2021-04-29T08:17:34.000Z</time>
      </trkpt>
      <trkpt lat="47.25645" lon="-2.30902">
        <ele>18</ele>
        <time>2021-04-29T08:17:36.000Z</time>
      </trkpt>
      <trkpt lat="47.25649" lon="-2.3091">
        <ele>18</ele>
        <time>2021-04-29T08:17:38.000Z</time>
      </trkpt>
      <trkpt lat="47.25649" lon="-2.30917">
        <ele>18</ele>
        <time>2021-04-29T08:17:39.000Z</time>
      </trkpt>
      <trkpt lat="47.25648" lon="-2.30923">
        <ele>18</ele>
        <time>2021-04-29T08:17:40.000Z</time>
      </trkpt>
      <trkpt lat="47.25643" lon="-2.30947">
        <ele>18</ele>
        <time>2021-04-29T08:17:43.000Z</time>
      </trkpt>
      <trkpt lat="47.2564" lon="-2.30965">
        <ele>18</ele>
        <time>2021-04-29T08:17:45.000Z</time>
      </trkpt>
      <trkpt lat="47.25626" lon="-2.31033">
        <ele>18</ele>
        <time>2021-04-29T08:17:53.000Z</time>
      </trkpt>
      <trkpt lat="47.25622" lon="-2.3105">
        <ele>18</ele>
        <time>2021-04-29T08:17:55.000Z</time>
      </trkpt>
      <trkpt lat="47.25616" lon="-2.31074">
        <ele>18</ele>
        <time>2021-04-29T08:17:58.000Z</time>
      </trkpt>
      <trkpt lat="47.25612" lon="-2.31082">
        <ele>18</ele>
        <time>2021-04-29T08:18:00.000Z</time>
      </trkpt>
      <trkpt lat="47.25608" lon="-2.31082">
        <ele>18</ele>
        <time>2021-04-29T08:18:01.000Z</time>
      </trkpt>
      <trkpt lat="47.25596" lon="-2.31072">
        <ele>18</ele>
        <time>2021-04-29T08:18:04.000Z</time>
      </trkpt>
      <trkpt lat="47.25588" lon="-2.31063">
        <ele>18</ele>
        <time>2021-04-29T08:18:06.000Z</time>
      </trkpt>
      <trkpt lat="47.25576" lon="-2.31049">
        <ele>18</ele>
        <time>2021-04-29T08:18:09.000Z</time>
      </trkpt>
      <trkpt lat="47.25553" lon="-2.31034">
        <ele>18</ele>
        <time>2021-04-29T08:18:13.000Z</time>
      </trkpt>
      <trkpt lat="47.25546" lon="-2.31032">
        <ele>17.39999961853</ele>
        <time>2021-04-29T08:18:14.000Z</time>
      </trkpt>
      <trkpt lat="47.2554" lon="-2.31031">
        <ele>17</ele>
        <time>2021-04-29T08:18:15.000Z</time>
      </trkpt>
      <trkpt lat="47.25534" lon="-2.31031">
        <ele>16.39999961853</ele>
        <time>2021-04-29T08:18:16.000Z</time>
      </trkpt>
      <trkpt lat="47.25529" lon="-2.31029">
        <ele>16</ele>
        <time>2021-04-29T08:18:17.000Z</time>
      </trkpt>
      <trkpt lat="47.25525" lon="-2.31027">
        <ele>15.60000038147</ele>
        <time>2021-04-29T08:18:18.000Z</time>
      </trkpt>
      <trkpt lat="47.2552" lon="-2.31023">
        <ele>15.60000038147</ele>
        <time>2021-04-29T08:18:19.000Z</time>
      </trkpt>
      <trkpt lat="47.2551" lon="-2.3101">
        <ele>15.60000038147</ele>
        <time>2021-04-29T08:18:22.000Z</time>
      </trkpt>
      <trkpt lat="47.25511" lon="-2.30994">
        <ele>15.60000038147</ele>
        <time>2021-04-29T08:18:25.000Z</time>
      </trkpt>
      <trkpt lat="47.25512" lon="-2.30987">
        <ele>16</ele>
        <time>2021-04-29T08:18:26.000Z</time>
      </trkpt>
      <trkpt lat="47.25514" lon="-2.3098">
        <ele>16.60000038147</ele>
        <time>2021-04-29T08:18:27.000Z</time>
      </trkpt>
      <trkpt lat="47.25515" lon="-2.30972">
        <ele>17</ele>
        <time>2021-04-29T08:18:28.000Z</time>
      </trkpt>
      <trkpt lat="47.25518" lon="-2.30964">
        <ele>17.39999961853</ele>
        <time>2021-04-29T08:18:29.000Z</time>
      </trkpt>
      <trkpt lat="47.2552" lon="-2.30957">
        <ele>18</ele>
        <time>2021-04-29T08:18:30.000Z</time>
      </trkpt>
      <trkpt lat="47.25526" lon="-2.30934">
        <ele>18</ele>
        <time>2021-04-29T08:18:33.000Z</time>
      </trkpt>
      <trkpt lat="47.25533" lon="-2.30922">
        <ele>18</ele>
        <time>2021-04-29T08:18:35.000Z</time>
      </trkpt>
      <trkpt lat="47.25554" lon="-2.30915">
        <ele>18</ele>
        <time>2021-04-29T08:18:39.000Z</time>
      </trkpt>
      <trkpt lat="47.25559" lon="-2.30914">
        <ele>18</ele>
        <time>2021-04-29T08:18:40.000Z</time>
      </trkpt>
      <trkpt lat="47.25581" lon="-2.3091">
        <ele>18</ele>
        <time>2021-04-29T08:18:44.000Z</time>
      </trkpt>
      <trkpt lat="47.25586" lon="-2.30905">
        <ele>18</ele>
        <time>2021-04-29T08:18:45.000Z</time>
      </trkpt>
      <trkpt lat="47.25597" lon="-2.30878">
        <ele>18</ele>
        <time>2021-04-29T08:18:49.000Z</time>
      </trkpt>
      <trkpt lat="47.25601" lon="-2.30853">
        <ele>18</ele>
        <time>2021-04-29T08:18:52.000Z</time>
      </trkpt>
      <trkpt lat="47.25603" lon="-2.30836">
        <ele>18</ele>
        <time>2021-04-29T08:18:54.000Z</time>
      </trkpt>
      <trkpt lat="47.25608" lon="-2.30765">
        <ele>18</ele>
        <time>2021-04-29T08:19:02.000Z</time>
      </trkpt>
      <trkpt lat="47.25617" lon="-2.30712">
        <ele>18</ele>
        <time>2021-04-29T08:19:08.000Z</time>
      </trkpt>
      <trkpt lat="47.25625" lon="-2.30689">
        <ele>18</ele>
        <time>2021-04-29T08:19:11.000Z</time>
      </trkpt>
      <trkpt lat="47.25626" lon="-2.30675">
        <ele>18</ele>
        <time>2021-04-29T08:19:13.000Z</time>
      </trkpt>
      <trkpt lat="47.25624" lon="-2.30666">
        <ele>18</ele>
        <time>2021-04-29T08:19:15.000Z</time>
      </trkpt>
      <trkpt lat="47.2562" lon="-2.30666">
        <ele>18</ele>
        <time>2021-04-29T08:19:16.000Z</time>
      </trkpt>
      <trkpt lat="47.25604" lon="-2.30663">
        <ele>18</ele>
        <time>2021-04-29T08:19:19.000Z</time>
      </trkpt>
      <trkpt lat="47.25599" lon="-2.30659">
        <ele>18</ele>
        <time>2021-04-29T08:19:20.000Z</time>
      </trkpt>
      <trkpt lat="47.25585" lon="-2.30647">
        <ele>18</ele>
        <time>2021-04-29T08:19:24.000Z</time>
      </trkpt>
      <trkpt lat="47.25585" lon="-2.30647">
        <ele>18</ele>
        <time>2021-04-29T08:19:25.000Z</time>
      </trkpt>
      <trkpt lat="47.25588" lon="-2.30647">
        <ele>18</ele>
        <time>2021-04-29T08:19:33.000Z</time>
      </trkpt>
      <trkpt lat="47.25588" lon="-2.30644">
        <ele>18</ele>
        <time>2021-04-29T08:19:34.000Z</time>
      </trkpt>
      <trkpt lat="47.25593" lon="-2.30622">
        <ele>18</ele>
        <time>2021-04-29T08:19:39.000Z</time>
      </trkpt>
      <trkpt lat="47.256" lon="-2.30586">
        <ele>18</ele>
        <time>2021-04-29T08:19:45.000Z</time>
      </trkpt>
      <trkpt lat="47.25591" lon="-2.30574">
        <ele>18</ele>
        <time>2021-04-29T08:19:48.000Z</time>
      </trkpt>
      <trkpt lat="47.25587" lon="-2.30572">
        <ele>18</ele>
        <time>2021-04-29T08:19:49.000Z</time>
      </trkpt>
      <trkpt lat="47.25559" lon="-2.30565">
        <ele>18</ele>
        <time>2021-04-29T08:19:54.000Z</time>
      </trkpt>
      <trkpt lat="47.25535" lon="-2.30561">
        <ele>18</ele>
        <time>2021-04-29T08:19:59.000Z</time>
      </trkpt>
      <trkpt lat="47.25531" lon="-2.30558">
        <ele>18</ele>
        <time>2021-04-29T08:20:00.000Z</time>
      </trkpt>
      <trkpt lat="47.25523" lon="-2.30542">
        <ele>18.799999237061</ele>
        <time>2021-04-29T08:20:03.000Z</time>
      </trkpt>
      <trkpt lat="47.25523" lon="-2.30535">
        <ele>19.200000762939</ele>
        <time>2021-04-29T08:20:04.000Z</time>
      </trkpt>
      <trkpt lat="47.25522" lon="-2.30528">
        <ele>19.60000038147</ele>
        <time>2021-04-29T08:20:05.000Z</time>
      </trkpt>
      <trkpt lat="47.25523" lon="-2.30521">
        <ele>20.200000762939</ele>
        <time>2021-04-29T08:20:06.000Z</time>
      </trkpt>
      <trkpt lat="47.25523" lon="-2.30513">
        <ele>20.200000762939</ele>
        <time>2021-04-29T08:20:07.000Z</time>
      </trkpt>
      <trkpt lat="47.25523" lon="-2.30506">
        <ele>20.200000762939</ele>
        <time>2021-04-29T08:20:08.000Z</time>
      </trkpt>
      <trkpt lat="47.25521" lon="-2.30468">
        <ele>20.200000762939</ele>
        <time>2021-04-29T08:20:13.000Z</time>
      </trkpt>
      <trkpt lat="47.2552" lon="-2.30408">
        <ele>20.200000762939</ele>
        <time>2021-04-29T08:20:21.000Z</time>
      </trkpt>
      <trkpt lat="47.2552" lon="-2.30401">
        <ele>20.200000762939</ele>
        <time>2021-04-29T08:20:22.000Z</time>
      </trkpt>
      <trkpt lat="47.25529" lon="-2.30387">
        <ele>20.200000762939</ele>
        <time>2021-04-29T08:20:25.000Z</time>
      </trkpt>
      <trkpt lat="47.25543" lon="-2.30379">
        <ele>20.200000762939</ele>
        <time>2021-04-29T08:20:28.000Z</time>
      </trkpt>
      <trkpt lat="47.25555" lon="-2.30374">
        <ele>20.200000762939</ele>
        <time>2021-04-29T08:20:30.000Z</time>
      </trkpt>
      <trkpt lat="47.25569" lon="-2.30369">
        <ele>20.60000038147</ele>
        <time>2021-04-29T08:20:32.000Z</time>
      </trkpt>
      <trkpt lat="47.25576" lon="-2.30368">
        <ele>21</ele>
        <time>2021-04-29T08:20:33.000Z</time>
      </trkpt>
      <trkpt lat="47.25583" lon="-2.30366">
        <ele>21.39999961853</ele>
        <time>2021-04-29T08:20:34.000Z</time>
      </trkpt>
      <trkpt lat="47.25589" lon="-2.30364">
        <ele>21.799999237061</ele>
        <time>2021-04-29T08:20:35.000Z</time>
      </trkpt>
      <trkpt lat="47.25596" lon="-2.30362">
        <ele>22.200000762939</ele>
        <time>2021-04-29T08:20:36.000Z</time>
      </trkpt>
      <trkpt lat="47.25625" lon="-2.30353">
        <ele>22.200000762939</ele>
        <time>2021-04-29T08:20:41.000Z</time>
      </trkpt>
      <trkpt lat="47.25629" lon="-2.30342">
        <ele>22.200000762939</ele>
        <time>2021-04-29T08:20:43.000Z</time>
      </trkpt>
      <trkpt lat="47.25627" lon="-2.30318">
        <ele>22.200000762939</ele>
        <time>2021-04-29T08:20:46.000Z</time>
      </trkpt>
      <trkpt lat="47.25619" lon="-2.3026">
        <ele>22.200000762939</ele>
        <time>2021-04-29T08:20:53.000Z</time>
      </trkpt>
      <trkpt lat="47.25606" lon="-2.3021">
        <ele>22.200000762939</ele>
        <time>2021-04-29T08:20:59.000Z</time>
      </trkpt>
      <trkpt lat="47.25602" lon="-2.30203">
        <ele>22.200000762939</ele>
        <time>2021-04-29T08:21:00.000Z</time>
      </trkpt>
      <trkpt lat="47.25581" lon="-2.30184">
        <ele>22.200000762939</ele>
        <time>2021-04-29T08:21:04.000Z</time>
      </trkpt>
      <trkpt lat="47.25558" lon="-2.3018">
        <ele>22.200000762939</ele>
        <time>2021-04-29T08:21:08.000Z</time>
      </trkpt>
      <trkpt lat="47.25547" lon="-2.30185">
        <ele>22.200000762939</ele>
        <time>2021-04-29T08:21:10.000Z</time>
      </trkpt>
      <trkpt lat="47.25538" lon="-2.3019">
        <ele>22.200000762939</ele>
        <time>2021-04-29T08:21:12.000Z</time>
      </trkpt>
      <trkpt lat="47.25529" lon="-2.30195">
        <ele>22.200000762939</ele>
        <time>2021-04-29T08:21:14.000Z</time>
      </trkpt>
      <trkpt lat="47.25515" lon="-2.30195">
        <ele>22.200000762939</ele>
        <time>2021-04-29T08:21:17.000Z</time>
      </trkpt>
      <trkpt lat="47.25501" lon="-2.30195">
        <ele>22.200000762939</ele>
        <time>2021-04-29T08:21:20.000Z</time>
      </trkpt>
      <trkpt lat="47.25495" lon="-2.30203">
        <ele>22.200000762939</ele>
        <time>2021-04-29T08:21:22.000Z</time>
      </trkpt>
      <trkpt lat="47.25487" lon="-2.30217">
        <ele>22.200000762939</ele>
        <time>2021-04-29T08:21:25.000Z</time>
      </trkpt>
      <trkpt lat="47.25483" lon="-2.30232">
        <ele>22.200000762939</ele>
        <time>2021-04-29T08:21:27.000Z</time>
      </trkpt>
      <trkpt lat="47.25478" lon="-2.30247">
        <ele>22.200000762939</ele>
        <time>2021-04-29T08:21:30.000Z</time>
      </trkpt>
      <trkpt lat="47.25468" lon="-2.30245">
        <ele>22.200000762939</ele>
        <time>2021-04-29T08:21:33.000Z</time>
      </trkpt>
      <trkpt lat="47.25448" lon="-2.30243">
        <ele>22.200000762939</ele>
        <time>2021-04-29T08:21:37.000Z</time>
      </trkpt>
      <trkpt lat="47.25437" lon="-2.3024">
        <ele>22.200000762939</ele>
        <time>2021-04-29T08:21:39.000Z</time>
      </trkpt>
      <trkpt lat="47.25432" lon="-2.30238">
        <ele>22.60000038147</ele>
        <time>2021-04-29T08:21:40.000Z</time>
      </trkpt>
      <trkpt lat="47.25428" lon="-2.30236">
        <ele>23</ele>
        <time>2021-04-29T08:21:41.000Z</time>
      </trkpt>
      <trkpt lat="47.25423" lon="-2.30234">
        <ele>23.799999237061</ele>
        <time>2021-04-29T08:21:42.000Z</time>
      </trkpt>
      <trkpt lat="47.25418" lon="-2.30232">
        <ele>24.200000762939</ele>
        <time>2021-04-29T08:21:43.000Z</time>
      </trkpt>
      <trkpt lat="47.25397" lon="-2.30224">
        <ele>24.200000762939</ele>
        <time>2021-04-29T08:21:47.000Z</time>
      </trkpt>
      <trkpt lat="47.2538" lon="-2.30216">
        <ele>24.200000762939</ele>
        <time>2021-04-29T08:21:51.000Z</time>
      </trkpt>
      <trkpt lat="47.25369" lon="-2.30213">
        <ele>24.200000762939</ele>
        <time>2021-04-29T08:21:53.000Z</time>
      </trkpt>
      <trkpt lat="47.25338" lon="-2.30211">
        <ele>24.200000762939</ele>
        <time>2021-04-29T08:21:59.000Z</time>
      </trkpt>
      <trkpt lat="47.25333" lon="-2.3021">
        <ele>24.60000038147</ele>
        <time>2021-04-29T08:22:00.000Z</time>
      </trkpt>
      <trkpt lat="47.25328" lon="-2.3021">
        <ele>25</ele>
        <time>2021-04-29T08:22:01.000Z</time>
      </trkpt>
      <trkpt lat="47.25323" lon="-2.30209">
        <ele>25.39999961853</ele>
        <time>2021-04-29T08:22:02.000Z</time>
      </trkpt>
      <trkpt lat="47.25318" lon="-2.30207">
        <ele>25.799999237061</ele>
        <time>2021-04-29T08:22:03.000Z</time>
      </trkpt>
      <trkpt lat="47.25314" lon="-2.30205">
        <ele>26.39999961853</ele>
        <time>2021-04-29T08:22:04.000Z</time>
      </trkpt>
      <trkpt lat="47.25307" lon="-2.30211">
        <ele>26.39999961853</ele>
        <time>2021-04-29T08:22:07.000Z</time>
      </trkpt>
      <trkpt lat="47.25304" lon="-2.30212">
        <ele>26.39999961853</ele>
        <time>2021-04-29T08:22:08.000Z</time>
      </trkpt>
      <trkpt lat="47.25299" lon="-2.3021">
        <ele>26.39999961853</ele>
        <time>2021-04-29T08:22:10.000Z</time>
      </trkpt>
      <trkpt lat="47.25283" lon="-2.30202">
        <ele>26.39999961853</ele>
        <time>2021-04-29T08:22:15.000Z</time>
      </trkpt>
      <trkpt lat="47.25257" lon="-2.3019">
        <ele>26.799999237061</ele>
        <time>2021-04-29T08:22:21.000Z</time>
      </trkpt>
      <trkpt lat="47.25252" lon="-2.30187">
        <ele>27.200000762939</ele>
        <time>2021-04-29T08:22:22.000Z</time>
      </trkpt>
      <trkpt lat="47.25247" lon="-2.30185">
        <ele>27.60000038147</ele>
        <time>2021-04-29T08:22:23.000Z</time>
      </trkpt>
      <trkpt lat="47.25241" lon="-2.30183">
        <ele>28</ele>
        <time>2021-04-29T08:22:24.000Z</time>
      </trkpt>
      <trkpt lat="47.25237" lon="-2.3018">
        <ele>28.39999961853</ele>
        <time>2021-04-29T08:22:25.000Z</time>
      </trkpt>
      <trkpt lat="47.25231" lon="-2.3018">
        <ele>28.39999961853</ele>
        <time>2021-04-29T08:22:26.000Z</time>
      </trkpt>
      <trkpt lat="47.25227" lon="-2.30178">
        <ele>28.39999961853</ele>
        <time>2021-04-29T08:22:27.000Z</time>
      </trkpt>
      <trkpt lat="47.25212" lon="-2.30163">
        <ele>28.39999961853</ele>
        <time>2021-04-29T08:22:31.000Z</time>
      </trkpt>
      <trkpt lat="47.25208" lon="-2.30158">
        <ele>28.799999237061</ele>
        <time>2021-04-29T08:22:32.000Z</time>
      </trkpt>
      <trkpt lat="47.25203" lon="-2.30154">
        <ele>29.200000762939</ele>
        <time>2021-04-29T08:22:33.000Z</time>
      </trkpt>
      <trkpt lat="47.25199" lon="-2.3015">
        <ele>29.60000038147</ele>
        <time>2021-04-29T08:22:34.000Z</time>
      </trkpt>
      <trkpt lat="47.25196" lon="-2.30146">
        <ele>30</ele>
        <time>2021-04-29T08:22:35.000Z</time>
      </trkpt>
      <trkpt lat="47.25193" lon="-2.3014">
        <ele>30.39999961853</ele>
        <time>2021-04-29T08:22:36.000Z</time>
      </trkpt>
      <trkpt lat="47.25189" lon="-2.30135">
        <ele>30.39999961853</ele>
        <time>2021-04-29T08:22:37.000Z</time>
      </trkpt>
      <trkpt lat="47.25174" lon="-2.30122">
        <ele>30.39999961853</ele>
        <time>2021-04-29T08:22:41.000Z</time>
      </trkpt>
      <trkpt lat="47.25149" lon="-2.30127">
        <ele>30.39999961853</ele>
        <time>2021-04-29T08:22:46.000Z</time>
      </trkpt>
      <trkpt lat="47.25134" lon="-2.30131">
        <ele>30.39999961853</ele>
        <time>2021-04-29T08:22:49.000Z</time>
      </trkpt>
      <trkpt lat="47.25129" lon="-2.30131">
        <ele>30.799999237061</ele>
        <time>2021-04-29T08:22:50.000Z</time>
      </trkpt>
      <trkpt lat="47.25123" lon="-2.30132">
        <ele>31.200000762939</ele>
        <time>2021-04-29T08:22:51.000Z</time>
      </trkpt>
      <trkpt lat="47.25118" lon="-2.30132">
        <ele>31.799999237061</ele>
        <time>2021-04-29T08:22:52.000Z</time>
      </trkpt>
      <trkpt lat="47.25113" lon="-2.30133">
        <ele>32.200000762939</ele>
        <time>2021-04-29T08:22:53.000Z</time>
      </trkpt>
      <trkpt lat="47.25108" lon="-2.30133">
        <ele>32.599998474121</ele>
        <time>2021-04-29T08:22:54.000Z</time>
      </trkpt>
      <trkpt lat="47.25093" lon="-2.30135">
        <ele>32.599998474121</ele>
        <time>2021-04-29T08:22:57.000Z</time>
      </trkpt>
      <trkpt lat="47.25069" lon="-2.30136">
        <ele>32.599998474121</ele>
        <time>2021-04-29T08:23:03.000Z</time>
      </trkpt>
      <trkpt lat="47.25066" lon="-2.30125">
        <ele>32.599998474121</ele>
        <time>2021-04-29T08:23:07.000Z</time>
      </trkpt>
      <trkpt lat="47.25068" lon="-2.30114">
        <ele>32.599998474121</ele>
        <time>2021-04-29T08:23:10.000Z</time>
      </trkpt>
      <trkpt lat="47.25068" lon="-2.30105">
        <ele>32.599998474121</ele>
        <time>2021-04-29T08:23:12.000Z</time>
      </trkpt>
      <trkpt lat="47.25071" lon="-2.30075">
        <ele>32.599998474121</ele>
        <time>2021-04-29T08:23:19.000Z</time>
      </trkpt>
      <trkpt lat="47.25072" lon="-2.30063">
        <ele>32.599998474121</ele>
        <time>2021-04-29T08:23:25.000Z</time>
      </trkpt>
      <trkpt lat="47.25073" lon="-2.30063">
        <ele>32.599998474121</ele>
        <time>2021-04-29T08:23:28.000Z</time>
      </trkpt>
      <trkpt lat="47.25072" lon="-2.30062">
        <ele>32.599998474121</ele>
        <time>2021-04-29T08:23:37.000Z</time>
      </trkpt>
      <trkpt lat="47.2507" lon="-2.30061">
        <ele>32.599998474121</ele>
        <time>2021-04-29T08:23:38.000Z</time>
      </trkpt>
      <trkpt lat="47.25059" lon="-2.30059">
        <ele>32.599998474121</ele>
        <time>2021-04-29T08:23:42.000Z</time>
      </trkpt>
      <trkpt lat="47.25041" lon="-2.30056">
        <ele>33</ele>
        <time>2021-04-29T08:23:46.000Z</time>
      </trkpt>
      <trkpt lat="47.25037" lon="-2.30055">
        <ele>33.400001525879</ele>
        <time>2021-04-29T08:23:47.000Z</time>
      </trkpt>
      <trkpt lat="47.25032" lon="-2.30055">
        <ele>34</ele>
        <time>2021-04-29T08:23:48.000Z</time>
      </trkpt>
      <trkpt lat="47.25028" lon="-2.30055">
        <ele>34.400001525879</ele>
        <time>2021-04-29T08:23:49.000Z</time>
      </trkpt>
      <trkpt lat="47.25023" lon="-2.30054">
        <ele>34.799999237061</ele>
        <time>2021-04-29T08:23:50.000Z</time>
      </trkpt>
      <trkpt lat="47.25012" lon="-2.30054">
        <ele>34.799999237061</ele>
        <time>2021-04-29T08:23:54.000Z</time>
      </trkpt>
      <trkpt lat="47.25002" lon="-2.30055">
        <ele>34.799999237061</ele>
        <time>2021-04-29T08:24:01.000Z</time>
      </trkpt>
      <trkpt lat="47.24989" lon="-2.30056">
        <ele>34.799999237061</ele>
        <time>2021-04-29T08:24:07.000Z</time>
      </trkpt>
      <trkpt lat="47.24973" lon="-2.30057">
        <ele>34.799999237061</ele>
        <time>2021-04-29T08:24:11.000Z</time>
      </trkpt>
      <trkpt lat="47.24944" lon="-2.30056">
        <ele>34.799999237061</ele>
        <time>2021-04-29T08:24:17.000Z</time>
      </trkpt>
      <trkpt lat="47.24907" lon="-2.30055">
        <ele>34.799999237061</ele>
        <time>2021-04-29T08:24:25.000Z</time>
      </trkpt>
      <trkpt lat="47.24904" lon="-2.30052">
        <ele>34.799999237061</ele>
        <time>2021-04-29T08:24:26.000Z</time>
      </trkpt>
      <trkpt lat="47.24901" lon="-2.30041">
        <ele>34.799999237061</ele>
        <time>2021-04-29T08:24:28.000Z</time>
      </trkpt>
      <trkpt lat="47.24901" lon="-2.30026">
        <ele>34.799999237061</ele>
        <time>2021-04-29T08:24:30.000Z</time>
      </trkpt>
      <trkpt lat="47.249" lon="-2.30018">
        <ele>34.799999237061</ele>
        <time>2021-04-29T08:24:31.000Z</time>
      </trkpt>
      <trkpt lat="47.24899" lon="-2.30009">
        <ele>35.200000762939</ele>
        <time>2021-04-29T08:24:32.000Z</time>
      </trkpt>
      <trkpt lat="47.24897" lon="-2.30001">
        <ele>36</ele>
        <time>2021-04-29T08:24:33.000Z</time>
      </trkpt>
      <trkpt lat="47.24895" lon="-2.29992">
        <ele>36.400001525879</ele>
        <time>2021-04-29T08:24:34.000Z</time>
      </trkpt>
      <trkpt lat="47.24893" lon="-2.29983">
        <ele>36.799999237061</ele>
        <time>2021-04-29T08:24:35.000Z</time>
      </trkpt>
      <trkpt lat="47.24889" lon="-2.29965">
        <ele>36.799999237061</ele>
        <time>2021-04-29T08:24:37.000Z</time>
      </trkpt>
      <trkpt lat="47.24877" lon="-2.29904">
        <ele>36.799999237061</ele>
        <time>2021-04-29T08:24:44.000Z</time>
      </trkpt>
      <trkpt lat="47.24872" lon="-2.2987">
        <ele>36.799999237061</ele>
        <time>2021-04-29T08:24:48.000Z</time>
      </trkpt>
      <trkpt lat="47.24868" lon="-2.29854">
        <ele>36.799999237061</ele>
        <time>2021-04-29T08:24:50.000Z</time>
      </trkpt>
      <trkpt lat="47.24861" lon="-2.29829">
        <ele>36.799999237061</ele>
        <time>2021-04-29T08:24:54.000Z</time>
      </trkpt>
      <trkpt lat="47.24857" lon="-2.29828">
        <ele>36.799999237061</ele>
        <time>2021-04-29T08:24:55.000Z</time>
      </trkpt>
      <trkpt lat="47.2485" lon="-2.29833">
        <ele>36.799999237061</ele>
        <time>2021-04-29T08:24:57.000Z</time>
      </trkpt>
      <trkpt lat="47.24841" lon="-2.29838">
        <ele>36.799999237061</ele>
        <time>2021-04-29T08:24:59.000Z</time>
      </trkpt>
      <trkpt lat="47.24827" lon="-2.29844">
        <ele>36.799999237061</ele>
        <time>2021-04-29T08:25:02.000Z</time>
      </trkpt>
      <trkpt lat="47.24792" lon="-2.29859">
        <ele>36.799999237061</ele>
        <time>2021-04-29T08:25:08.000Z</time>
      </trkpt>
      <trkpt lat="47.2476" lon="-2.29882">
        <ele>36.799999237061</ele>
        <time>2021-04-29T08:25:14.000Z</time>
      </trkpt>
      <trkpt lat="47.24746" lon="-2.29897">
        <ele>36.799999237061</ele>
        <time>2021-04-29T08:25:17.000Z</time>
      </trkpt>
      <trkpt lat="47.24741" lon="-2.29913">
        <ele>36.799999237061</ele>
        <time>2021-04-29T08:25:19.000Z</time>
      </trkpt>
      <trkpt lat="47.24742" lon="-2.2993">
        <ele>36.799999237061</ele>
        <time>2021-04-29T08:25:21.000Z</time>
      </trkpt>
      <trkpt lat="47.24742" lon="-2.29956">
        <ele>36.799999237061</ele>
        <time>2021-04-29T08:25:24.000Z</time>
      </trkpt>
      <trkpt lat="47.2474" lon="-2.29975">
        <ele>36.799999237061</ele>
        <time>2021-04-29T08:25:26.000Z</time>
      </trkpt>
      <trkpt lat="47.24733" lon="-2.29999">
        <ele>36.799999237061</ele>
        <time>2021-04-29T08:25:29.000Z</time>
      </trkpt>
      <trkpt lat="47.2473" lon="-2.30006">
        <ele>36.799999237061</ele>
        <time>2021-04-29T08:25:30.000Z</time>
      </trkpt>
      <trkpt lat="47.24717" lon="-2.30025">
        <ele>36.400001525879</ele>
        <time>2021-04-29T08:25:33.000Z</time>
      </trkpt>
      <trkpt lat="47.24712" lon="-2.3003">
        <ele>36</ele>
        <time>2021-04-29T08:25:34.000Z</time>
      </trkpt>
      <trkpt lat="47.24708" lon="-2.30034">
        <ele>35.599998474121</ele>
        <time>2021-04-29T08:25:35.000Z</time>
      </trkpt>
      <trkpt lat="47.24704" lon="-2.30039">
        <ele>35</ele>
        <time>2021-04-29T08:25:36.000Z</time>
      </trkpt>
      <trkpt lat="47.24699" lon="-2.30043">
        <ele>34.599998474121</ele>
        <time>2021-04-29T08:25:37.000Z</time>
      </trkpt>
      <trkpt lat="47.24694" lon="-2.30046">
        <ele>34.599998474121</ele>
        <time>2021-04-29T08:25:38.000Z</time>
      </trkpt>
      <trkpt lat="47.24655" lon="-2.30076">
        <ele>34.599998474121</ele>
        <time>2021-04-29T08:25:46.000Z</time>
      </trkpt>
      <trkpt lat="47.24653" lon="-2.30078">
        <ele>34.200000762939</ele>
        <time>2021-04-29T08:25:47.000Z</time>
      </trkpt>
      <trkpt lat="47.24652" lon="-2.30079">
        <ele>33.400001525879</ele>
        <time>2021-04-29T08:25:48.000Z</time>
      </trkpt>
      <trkpt lat="47.24651" lon="-2.30079">
        <ele>32.799999237061</ele>
        <time>2021-04-29T08:25:49.000Z</time>
      </trkpt>
      <trkpt lat="47.2465" lon="-2.3008">
        <ele>32.400001525879</ele>
        <time>2021-04-29T08:25:50.000Z</time>
      </trkpt>
      <trkpt lat="47.24651" lon="-2.30079">
        <ele>32.400001525879</ele>
        <time>2021-04-29T08:25:51.000Z</time>
      </trkpt>
      <trkpt lat="47.24649" lon="-2.30082">
        <ele>32.400001525879</ele>
        <time>2021-04-29T08:25:54.000Z</time>
      </trkpt>
      <trkpt lat="47.24647" lon="-2.30085">
        <ele>32.400001525879</ele>
        <time>2021-04-29T08:25:55.000Z</time>
      </trkpt>
      <trkpt lat="47.24633" lon="-2.301">
        <ele>32.400001525879</ele>
        <time>2021-04-29T08:25:59.000Z</time>
      </trkpt>
      <trkpt lat="47.24607" lon="-2.30122">
        <ele>32.400001525879</ele>
        <time>2021-04-29T08:26:04.000Z</time>
      </trkpt>
      <trkpt lat="47.24582" lon="-2.30157">
        <ele>32.400001525879</ele>
        <time>2021-04-29T08:26:09.000Z</time>
      </trkpt>
      <trkpt lat="47.2455" lon="-2.30205">
        <ele>32.400001525879</ele>
        <time>2021-04-29T08:26:16.000Z</time>
      </trkpt>
      <trkpt lat="47.2452" lon="-2.30234">
        <ele>32</ele>
        <time>2021-04-29T08:26:22.000Z</time>
      </trkpt>
      <trkpt lat="47.24515" lon="-2.30238">
        <ele>31.60000038147</ele>
        <time>2021-04-29T08:26:23.000Z</time>
      </trkpt>
      <trkpt lat="47.2451" lon="-2.30242">
        <ele>31.200000762939</ele>
        <time>2021-04-29T08:26:24.000Z</time>
      </trkpt>
      <trkpt lat="47.24505" lon="-2.30246">
        <ele>30.799999237061</ele>
        <time>2021-04-29T08:26:25.000Z</time>
      </trkpt>
      <trkpt lat="47.24499" lon="-2.3025">
        <ele>30.39999961853</ele>
        <time>2021-04-29T08:26:26.000Z</time>
      </trkpt>
      <trkpt lat="47.24487" lon="-2.3026">
        <ele>30.39999961853</ele>
        <time>2021-04-29T08:26:28.000Z</time>
      </trkpt>
      <trkpt lat="47.24482" lon="-2.30267">
        <ele>30.39999961853</ele>
        <time>2021-04-29T08:26:29.000Z</time>
      </trkpt>
      <trkpt lat="47.24469" lon="-2.30292">
        <ele>30.39999961853</ele>
        <time>2021-04-29T08:26:32.000Z</time>
      </trkpt>
      <trkpt lat="47.24464" lon="-2.30301">
        <ele>30</ele>
        <time>2021-04-29T08:26:33.000Z</time>
      </trkpt>
      <trkpt lat="47.24461" lon="-2.30311">
        <ele>29.60000038147</ele>
        <time>2021-04-29T08:26:34.000Z</time>
      </trkpt>
      <trkpt lat="47.24457" lon="-2.30321">
        <ele>29</ele>
        <time>2021-04-29T08:26:35.000Z</time>
      </trkpt>
      <trkpt lat="47.24458" lon="-2.30334">
        <ele>28.60000038147</ele>
        <time>2021-04-29T08:26:36.000Z</time>
      </trkpt>
      <trkpt lat="47.24458" lon="-2.30347">
        <ele>28.200000762939</ele>
        <time>2021-04-29T08:26:37.000Z</time>
      </trkpt>
      <trkpt lat="47.24459" lon="-2.30359">
        <ele>28.200000762939</ele>
        <time>2021-04-29T08:26:38.000Z</time>
      </trkpt>
      <trkpt lat="47.2446" lon="-2.30398">
        <ele>27.799999237061</ele>
        <time>2021-04-29T08:26:41.000Z</time>
      </trkpt>
      <trkpt lat="47.2446" lon="-2.30412">
        <ele>27.200000762939</ele>
        <time>2021-04-29T08:26:42.000Z</time>
      </trkpt>
      <trkpt lat="47.24459" lon="-2.30425">
        <ele>26.799999237061</ele>
        <time>2021-04-29T08:26:43.000Z</time>
      </trkpt>
      <trkpt lat="47.2446" lon="-2.30439">
        <ele>26.39999961853</ele>
        <time>2021-04-29T08:26:44.000Z</time>
      </trkpt>
      <trkpt lat="47.24462" lon="-2.3045">
        <ele>26</ele>
        <time>2021-04-29T08:26:45.000Z</time>
      </trkpt>
      <trkpt lat="47.24464" lon="-2.30461">
        <ele>25.39999961853</ele>
        <time>2021-04-29T08:26:46.000Z</time>
      </trkpt>
      <trkpt lat="47.24468" lon="-2.3047">
        <ele>25</ele>
        <time>2021-04-29T08:26:47.000Z</time>
      </trkpt>
      <trkpt lat="47.24471" lon="-2.30479">
        <ele>24.60000038147</ele>
        <time>2021-04-29T08:26:48.000Z</time>
      </trkpt>
      <trkpt lat="47.24475" lon="-2.30488">
        <ele>24</ele>
        <time>2021-04-29T08:26:49.000Z</time>
      </trkpt>
      <trkpt lat="47.24478" lon="-2.305">
        <ele>23.60000038147</ele>
        <time>2021-04-29T08:26:50.000Z</time>
      </trkpt>
      <trkpt lat="47.24477" lon="-2.30531">
        <ele>23.60000038147</ele>
        <time>2021-04-29T08:26:53.000Z</time>
      </trkpt>
      <trkpt lat="47.24466" lon="-2.30546">
        <ele>23.60000038147</ele>
        <time>2021-04-29T08:26:56.000Z</time>
      </trkpt>
      <trkpt lat="47.24461" lon="-2.30551">
        <ele>23.60000038147</ele>
        <time>2021-04-29T08:26:57.000Z</time>
      </trkpt>
      <trkpt lat="47.24437" lon="-2.3057">
        <ele>23.200000762939</ele>
        <time>2021-04-29T08:27:01.000Z</time>
      </trkpt>
      <trkpt lat="47.24429" lon="-2.30574">
        <ele>22.39999961853</ele>
        <time>2021-04-29T08:27:02.000Z</time>
      </trkpt>
      <trkpt lat="47.24422" lon="-2.30578">
        <ele>22</ele>
        <time>2021-04-29T08:27:03.000Z</time>
      </trkpt>
      <trkpt lat="47.24415" lon="-2.30581">
        <ele>21.60000038147</ele>
        <time>2021-04-29T08:27:04.000Z</time>
      </trkpt>
      <trkpt lat="47.24407" lon="-2.30583">
        <ele>21.60000038147</ele>
        <time>2021-04-29T08:27:05.000Z</time>
      </trkpt>
      <trkpt lat="47.24398" lon="-2.30585">
        <ele>21.60000038147</ele>
        <time>2021-04-29T08:27:06.000Z</time>
      </trkpt>
      <trkpt lat="47.24385" lon="-2.3058">
        <ele>21</ele>
        <time>2021-04-29T08:27:08.000Z</time>
      </trkpt>
      <trkpt lat="47.24378" lon="-2.30576">
        <ele>20.60000038147</ele>
        <time>2021-04-29T08:27:09.000Z</time>
      </trkpt>
      <trkpt lat="47.24372" lon="-2.30572">
        <ele>20.200000762939</ele>
        <time>2021-04-29T08:27:10.000Z</time>
      </trkpt>
      <trkpt lat="47.24365" lon="-2.30566">
        <ele>19.799999237061</ele>
        <time>2021-04-29T08:27:11.000Z</time>
      </trkpt>
      <trkpt lat="47.24359" lon="-2.30561">
        <ele>19.200000762939</ele>
        <time>2021-04-29T08:27:12.000Z</time>
      </trkpt>
      <trkpt lat="47.2434" lon="-2.30547">
        <ele>19.200000762939</ele>
        <time>2021-04-29T08:27:15.000Z</time>
      </trkpt>
      <trkpt lat="47.2433" lon="-2.30536">
        <ele>19.200000762939</ele>
        <time>2021-04-29T08:27:18.000Z</time>
      </trkpt>
      <trkpt lat="47.24324" lon="-2.30524">
        <ele>19.200000762939</ele>
        <time>2021-04-29T08:27:22.000Z</time>
      </trkpt>
      <trkpt lat="47.24323" lon="-2.3052">
        <ele>19.799999237061</ele>
        <time>2021-04-29T08:27:23.000Z</time>
      </trkpt>
      <trkpt lat="47.24325" lon="-2.30513">
        <ele>20.200000762939</ele>
        <time>2021-04-29T08:27:24.000Z</time>
      </trkpt>
      <trkpt lat="47.24328" lon="-2.30505">
        <ele>20.60000038147</ele>
        <time>2021-04-29T08:27:25.000Z</time>
      </trkpt>
      <trkpt lat="47.24335" lon="-2.30492">
        <ele>21</ele>
        <time>2021-04-29T08:27:26.000Z</time>
      </trkpt>
      <trkpt lat="47.2434" lon="-2.30482">
        <ele>21.60000038147</ele>
        <time>2021-04-29T08:27:27.000Z</time>
      </trkpt>
      <trkpt lat="47.24349" lon="-2.30462">
        <ele>22</ele>
        <time>2021-04-29T08:27:30.000Z</time>
      </trkpt>
      <trkpt lat="47.2435" lon="-2.3046">
        <ele>22.39999961853</ele>
        <time>2021-04-29T08:27:31.000Z</time>
      </trkpt>
      <trkpt lat="47.24348" lon="-2.30461">
        <ele>22.799999237061</ele>
        <time>2021-04-29T08:27:32.000Z</time>
      </trkpt>
      <trkpt lat="47.24346" lon="-2.30461">
        <ele>23.200000762939</ele>
        <time>2021-04-29T08:27:33.000Z</time>
      </trkpt>
      <trkpt lat="47.24343" lon="-2.30459">
        <ele>23.799999237061</ele>
        <time>2021-04-29T08:27:34.000Z</time>
      </trkpt>
      <trkpt lat="47.24334" lon="-2.30452">
        <ele>23.799999237061</ele>
        <time>2021-04-29T08:27:37.000Z</time>
      </trkpt>
      <trkpt lat="47.2431" lon="-2.30432">
        <ele>24.200000762939</ele>
        <time>2021-04-29T08:27:43.000Z</time>
      </trkpt>
      <trkpt lat="47.24306" lon="-2.30429">
        <ele>24.60000038147</ele>
        <time>2021-04-29T08:27:44.000Z</time>
      </trkpt>
      <trkpt lat="47.24302" lon="-2.30427">
        <ele>25</ele>
        <time>2021-04-29T08:27:45.000Z</time>
      </trkpt>
      <trkpt lat="47.24298" lon="-2.30424">
        <ele>25.39999961853</ele>
        <time>2021-04-29T08:27:46.000Z</time>
      </trkpt>
      <trkpt lat="47.24295" lon="-2.3042">
        <ele>25.799999237061</ele>
        <time>2021-04-29T08:27:47.000Z</time>
      </trkpt>
      <trkpt lat="47.24291" lon="-2.30417">
        <ele>25.799999237061</ele>
        <time>2021-04-29T08:27:48.000Z</time>
      </trkpt>
      <trkpt lat="47.24288" lon="-2.30414">
        <ele>25.799999237061</ele>
        <time>2021-04-29T08:27:49.000Z</time>
      </trkpt>
      <trkpt lat="47.24273" lon="-2.30395">
        <ele>25.799999237061</ele>
        <time>2021-04-29T08:27:53.000Z</time>
      </trkpt>
      <trkpt lat="47.24244" lon="-2.30353">
        <ele>25.799999237061</ele>
        <time>2021-04-29T08:28:00.000Z</time>
      </trkpt>
      <trkpt lat="47.24227" lon="-2.30329">
        <ele>25.799999237061</ele>
        <time>2021-04-29T08:28:06.000Z</time>
      </trkpt>
      <trkpt lat="47.24224" lon="-2.30332">
        <ele>25.799999237061</ele>
        <time>2021-04-29T08:28:07.000Z</time>
      </trkpt>
      <trkpt lat="47.24215" lon="-2.30334">
        <ele>25.799999237061</ele>
        <time>2021-04-29T08:28:09.000Z</time>
      </trkpt>
      <trkpt lat="47.24206" lon="-2.30335">
        <ele>25.799999237061</ele>
        <time>2021-04-29T08:28:11.000Z</time>
      </trkpt>
      <trkpt lat="47.24201" lon="-2.30331">
        <ele>25.200000762939</ele>
        <time>2021-04-29T08:28:12.000Z</time>
      </trkpt>
      <trkpt lat="47.24197" lon="-2.30327">
        <ele>24.60000038147</ele>
        <time>2021-04-29T08:28:13.000Z</time>
      </trkpt>
      <trkpt lat="47.24194" lon="-2.30322">
        <ele>24.200000762939</ele>
        <time>2021-04-29T08:28:14.000Z</time>
      </trkpt>
      <trkpt lat="47.24191" lon="-2.30316">
        <ele>23.60000038147</ele>
        <time>2021-04-29T08:28:15.000Z</time>
      </trkpt>
      <trkpt lat="47.24189" lon="-2.30309">
        <ele>23.200000762939</ele>
        <time>2021-04-29T08:28:16.000Z</time>
      </trkpt>
      <trkpt lat="47.24188" lon="-2.30302">
        <ele>23.200000762939</ele>
        <time>2021-04-29T08:28:17.000Z</time>
      </trkpt>
      <trkpt lat="47.24187" lon="-2.30294">
        <ele>23.200000762939</ele>
        <time>2021-04-29T08:28:18.000Z</time>
      </trkpt>
      <trkpt lat="47.24185" lon="-2.30279">
        <ele>22.799999237061</ele>
        <time>2021-04-29T08:28:20.000Z</time>
      </trkpt>
      <trkpt lat="47.24184" lon="-2.30271">
        <ele>22.200000762939</ele>
        <time>2021-04-29T08:28:21.000Z</time>
      </trkpt>
      <trkpt lat="47.24183" lon="-2.30263">
        <ele>21.799999237061</ele>
        <time>2021-04-29T08:28:22.000Z</time>
      </trkpt>
      <trkpt lat="47.24183" lon="-2.30256">
        <ele>21.39999961853</ele>
        <time>2021-04-29T08:28:23.000Z</time>
      </trkpt>
      <trkpt lat="47.24183" lon="-2.3025">
        <ele>21</ele>
        <time>2021-04-29T08:28:24.000Z</time>
      </trkpt>
      <trkpt lat="47.24183" lon="-2.30238">
        <ele>21</ele>
        <time>2021-04-29T08:28:27.000Z</time>
      </trkpt>
      <trkpt lat="47.24178" lon="-2.30243">
        <ele>21</ele>
        <time>2021-04-29T08:28:29.000Z</time>
      </trkpt>
      <trkpt lat="47.24163" lon="-2.30244">
        <ele>21</ele>
        <time>2021-04-29T08:28:33.000Z</time>
      </trkpt>
      <trkpt lat="47.24152" lon="-2.30233">
        <ele>21</ele>
        <time>2021-04-29T08:28:36.000Z</time>
      </trkpt>
      <trkpt lat="47.24149" lon="-2.30229">
        <ele>21</ele>
        <time>2021-04-29T08:28:37.000Z</time>
      </trkpt>
      <trkpt lat="47.24144" lon="-2.3022">
        <ele>21</ele>
        <time>2021-04-29T08:28:39.000Z</time>
      </trkpt>
      <trkpt lat="47.24135" lon="-2.30207">
        <ele>21</ele>
        <time>2021-04-29T08:28:42.000Z</time>
      </trkpt>
      <trkpt lat="47.24132" lon="-2.30202">
        <ele>21.39999961853</ele>
        <time>2021-04-29T08:28:43.000Z</time>
      </trkpt>
      <trkpt lat="47.2413" lon="-2.30197">
        <ele>21.799999237061</ele>
        <time>2021-04-29T08:28:44.000Z</time>
      </trkpt>
      <trkpt lat="47.24128" lon="-2.30193">
        <ele>22.39999961853</ele>
        <time>2021-04-29T08:28:45.000Z</time>
      </trkpt>
      <trkpt lat="47.24126" lon="-2.30189">
        <ele>22.799999237061</ele>
        <time>2021-04-29T08:28:46.000Z</time>
      </trkpt>
      <trkpt lat="47.24124" lon="-2.30184">
        <ele>23.200000762939</ele>
        <time>2021-04-29T08:28:47.000Z</time>
      </trkpt>
      <trkpt lat="47.24123" lon="-2.3018">
        <ele>23.200000762939</ele>
        <time>2021-04-29T08:28:48.000Z</time>
      </trkpt>
      <trkpt lat="47.2412" lon="-2.30171">
        <ele>23.60000038147</ele>
        <time>2021-04-29T08:28:51.000Z</time>
      </trkpt>
      <trkpt lat="47.24119" lon="-2.30169">
        <ele>24.200000762939</ele>
        <time>2021-04-29T08:28:52.000Z</time>
      </trkpt>
      <trkpt lat="47.24119" lon="-2.30168">
        <ele>24.60000038147</ele>
        <time>2021-04-29T08:28:53.000Z</time>
      </trkpt>
      <trkpt lat="47.24119" lon="-2.30167">
        <ele>25.200000762939</ele>
        <time>2021-04-29T08:28:54.000Z</time>
      </trkpt>
      <trkpt lat="47.24119" lon="-2.30166">
        <ele>25.60000038147</ele>
        <time>2021-04-29T08:28:55.000Z</time>
      </trkpt>
      <trkpt lat="47.24107" lon="-2.30162">
        <ele>27.799999237061</ele>
        <time>2021-04-29T08:31:33.000Z</time>
      </trkpt>
      <trkpt lat="47.24103" lon="-2.30163">
        <ele>27.799999237061</ele>
        <time>2021-04-29T08:31:35.000Z</time>
      </trkpt>
      <trkpt lat="47.24091" lon="-2.30163">
        <ele>27.799999237061</ele>
        <time>2021-04-29T08:31:38.000Z</time>
      </trkpt>
      <trkpt lat="47.24087" lon="-2.30164">
        <ele>27.799999237061</ele>
        <time>2021-04-29T08:31:39.000Z</time>
      </trkpt>
      <trkpt lat="47.24084" lon="-2.30165">
        <ele>27.799999237061</ele>
        <time>2021-04-29T08:31:40.000Z</time>
      </trkpt>
      <trkpt lat="47.24064" lon="-2.30177">
        <ele>27.799999237061</ele>
        <time>2021-04-29T08:31:46.000Z</time>
      </trkpt>
      <trkpt lat="47.24046" lon="-2.30188">
        <ele>27.799999237061</ele>
        <time>2021-04-29T08:31:52.000Z</time>
      </trkpt>
      <trkpt lat="47.24034" lon="-2.30183">
        <ele>27.799999237061</ele>
        <time>2021-04-29T08:31:56.000Z</time>
      </trkpt>
      <trkpt lat="47.24018" lon="-2.30169">
        <ele>27.799999237061</ele>
        <time>2021-04-29T08:32:01.000Z</time>
      </trkpt>
      <trkpt lat="47.23997" lon="-2.3015">
        <ele>27.799999237061</ele>
        <time>2021-04-29T08:32:06.000Z</time>
      </trkpt>
      <trkpt lat="47.23991" lon="-2.30145">
        <ele>27.799999237061</ele>
        <time>2021-04-29T08:32:09.000Z</time>
      </trkpt>
      <trkpt lat="47.23986" lon="-2.3014">
        <ele>27.799999237061</ele>
        <time>2021-04-29T08:32:15.000Z</time>
      </trkpt>
      <trkpt lat="47.23985" lon="-2.3014">
        <ele>27.799999237061</ele>
        <time>2021-04-29T08:32:16.000Z</time>
      </trkpt>
      <trkpt lat="47.2398" lon="-2.30136">
        <ele>27.799999237061</ele>
        <time>2021-04-29T08:32:21.000Z</time>
      </trkpt>
      <trkpt lat="47.23979" lon="-2.30133">
        <ele>27.799999237061</ele>
        <time>2021-04-29T08:32:23.000Z</time>
      </trkpt>
      <trkpt lat="47.23978" lon="-2.3013">
        <ele>27.799999237061</ele>
        <time>2021-04-29T08:32:25.000Z</time>
      </trkpt>
      <trkpt lat="47.23974" lon="-2.3012">
        <ele>27.799999237061</ele>
        <time>2021-04-29T08:32:29.000Z</time>
      </trkpt>
      <trkpt lat="47.23971" lon="-2.30098">
        <ele>27.799999237061</ele>
        <time>2021-04-29T08:32:35.000Z</time>
      </trkpt>
      <trkpt lat="47.23974" lon="-2.30082">
        <ele>27.799999237061</ele>
        <time>2021-04-29T08:32:38.000Z</time>
      </trkpt>
      <trkpt lat="47.23978" lon="-2.30076">
        <ele>27.799999237061</ele>
        <time>2021-04-29T08:32:39.000Z</time>
      </trkpt>
      <trkpt lat="47.23984" lon="-2.3006">
        <ele>28.200000762939</ele>
        <time>2021-04-29T08:32:42.000Z</time>
      </trkpt>
      <trkpt lat="47.23986" lon="-2.30055">
        <ele>28.60000038147</ele>
        <time>2021-04-29T08:32:43.000Z</time>
      </trkpt>
      <trkpt lat="47.23988" lon="-2.3005">
        <ele>29</ele>
        <time>2021-04-29T08:32:44.000Z</time>
      </trkpt>
      <trkpt lat="47.23992" lon="-2.30044">
        <ele>29.39999961853</ele>
        <time>2021-04-29T08:32:45.000Z</time>
      </trkpt>
      <trkpt lat="47.23995" lon="-2.30037">
        <ele>29.799999237061</ele>
        <time>2021-04-29T08:32:46.000Z</time>
      </trkpt>
      <trkpt lat="47.24015" lon="-2.30014">
        <ele>29.799999237061</ele>
        <time>2021-04-29T08:32:51.000Z</time>
      </trkpt>
      <trkpt lat="47.24036" lon="-2.29995">
        <ele>29.799999237061</ele>
        <time>2021-04-29T08:32:56.000Z</time>
      </trkpt>
      <trkpt lat="47.2405" lon="-2.29993">
        <ele>29.799999237061</ele>
        <time>2021-04-29T08:33:01.000Z</time>
      </trkpt>
      <trkpt lat="47.24055" lon="-2.29991">
        <ele>29.799999237061</ele>
        <time>2021-04-29T08:33:03.000Z</time>
      </trkpt>
      <trkpt lat="47.24061" lon="-2.2999">
        <ele>29.799999237061</ele>
        <time>2021-04-29T08:33:05.000Z</time>
      </trkpt>
      <trkpt lat="47.24069" lon="-2.29998">
        <ele>29.799999237061</ele>
        <time>2021-04-29T08:33:09.000Z</time>
      </trkpt>
      <trkpt lat="47.24072" lon="-2.30002">
        <ele>29.799999237061</ele>
        <time>2021-04-29T08:33:10.000Z</time>
      </trkpt>
      <trkpt lat="47.24076" lon="-2.30002">
        <ele>29.799999237061</ele>
        <time>2021-04-29T08:33:11.000Z</time>
      </trkpt>
      <trkpt lat="47.24081" lon="-2.30005">
        <ele>29.799999237061</ele>
        <time>2021-04-29T08:33:13.000Z</time>
      </trkpt>
      <trkpt lat="47.24096" lon="-2.3">
        <ele>29.799999237061</ele>
        <time>2021-04-29T08:33:16.000Z</time>
      </trkpt>
      <trkpt lat="47.24098" lon="-2.29993">
        <ele>29.799999237061</ele>
        <time>2021-04-29T08:33:17.000Z</time>
      </trkpt>
      <trkpt lat="47.24106" lon="-2.29983">
        <ele>29.799999237061</ele>
        <time>2021-04-29T08:33:21.000Z</time>
      </trkpt>
      <trkpt lat="47.24118" lon="-2.29981">
        <ele>29.799999237061</ele>
        <time>2021-04-29T08:33:25.000Z</time>
      </trkpt>
      <trkpt lat="47.24138" lon="-2.29981">
        <ele>29.799999237061</ele>
        <time>2021-04-29T08:33:30.000Z</time>
      </trkpt>
      <trkpt lat="47.24152" lon="-2.29979">
        <ele>29.799999237061</ele>
        <time>2021-04-29T08:33:34.000Z</time>
      </trkpt>
      <trkpt lat="47.24155" lon="-2.29984">
        <ele>29.799999237061</ele>
        <time>2021-04-29T08:33:38.000Z</time>
      </trkpt>
      <trkpt lat="47.24158" lon="-2.29989">
        <ele>29.799999237061</ele>
        <time>2021-04-29T08:33:39.000Z</time>
      </trkpt>
      <trkpt lat="47.24166" lon="-2.30003">
        <ele>29.799999237061</ele>
        <time>2021-04-29T08:33:42.000Z</time>
      </trkpt>
      <trkpt lat="47.24171" lon="-2.30009">
        <ele>29.799999237061</ele>
        <time>2021-04-29T08:33:44.000Z</time>
      </trkpt>
      <trkpt lat="47.24173" lon="-2.30013">
        <ele>29.39999961853</ele>
        <time>2021-04-29T08:33:46.000Z</time>
      </trkpt>
      <trkpt lat="47.24174" lon="-2.30015">
        <ele>29</ele>
        <time>2021-04-29T08:33:47.000Z</time>
      </trkpt>
      <trkpt lat="47.24175" lon="-2.30017">
        <ele>28.60000038147</ele>
        <time>2021-04-29T08:33:48.000Z</time>
      </trkpt>
      <trkpt lat="47.24175" lon="-2.30018">
        <ele>28</ele>
        <time>2021-04-29T08:33:49.000Z</time>
      </trkpt>
      <trkpt lat="47.24177" lon="-2.3002">
        <ele>27.60000038147</ele>
        <time>2021-04-29T08:33:50.000Z</time>
      </trkpt>
      <trkpt lat="47.24178" lon="-2.30024">
        <ele>27.60000038147</ele>
        <time>2021-04-29T08:33:52.000Z</time>
      </trkpt>
      <trkpt lat="47.24175" lon="-2.30029">
        <ele>27.60000038147</ele>
        <time>2021-04-29T08:34:20.000Z</time>
      </trkpt>
      <trkpt lat="47.24169" lon="-2.30028">
        <ele>27.60000038147</ele>
        <time>2021-04-29T08:34:23.000Z</time>
      </trkpt>
      <trkpt lat="47.24156" lon="-2.30015">
        <ele>27.60000038147</ele>
        <time>2021-04-29T08:34:28.000Z</time>
      </trkpt>
      <trkpt lat="47.24151" lon="-2.30006">
        <ele>28</ele>
        <time>2021-04-29T08:34:31.000Z</time>
      </trkpt>
      <trkpt lat="47.2415" lon="-2.30004">
        <ele>28.60000038147</ele>
        <time>2021-04-29T08:34:32.000Z</time>
      </trkpt>
      <trkpt lat="47.24149" lon="-2.30002">
        <ele>29</ele>
        <time>2021-04-29T08:34:33.000Z</time>
      </trkpt>
      <trkpt lat="47.24149" lon="-2.3">
        <ele>29.39999961853</ele>
        <time>2021-04-29T08:34:34.000Z</time>
      </trkpt>
      <trkpt lat="47.24148" lon="-2.29998">
        <ele>29.799999237061</ele>
        <time>2021-04-29T08:34:35.000Z</time>
      </trkpt>
      <trkpt lat="47.2415" lon="-2.29992">
        <ele>29.799999237061</ele>
        <time>2021-04-29T08:34:39.000Z</time>
      </trkpt>
      <trkpt lat="47.2415" lon="-2.29991">
        <ele>29.799999237061</ele>
        <time>2021-04-29T08:34:40.000Z</time>
      </trkpt>
      <trkpt lat="47.24156" lon="-2.29985">
        <ele>29.799999237061</ele>
        <time>2021-04-29T08:36:08.000Z</time>
      </trkpt>
      <trkpt lat="47.24163" lon="-2.29982">
        <ele>29.799999237061</ele>
        <time>2021-04-29T08:36:10.000Z</time>
      </trkpt>
      <trkpt lat="47.24187" lon="-2.2997">
        <ele>29.799999237061</ele>
        <time>2021-04-29T08:36:15.000Z</time>
      </trkpt>
      <trkpt lat="47.24221" lon="-2.29954">
        <ele>29.799999237061</ele>
        <time>2021-04-29T08:36:21.000Z</time>
      </trkpt>
      <trkpt lat="47.24246" lon="-2.29936">
        <ele>29.799999237061</ele>
        <time>2021-04-29T08:36:25.000Z</time>
      </trkpt>
      <trkpt lat="47.24253" lon="-2.29929">
        <ele>29.799999237061</ele>
        <time>2021-04-29T08:36:26.000Z</time>
      </trkpt>
      <trkpt lat="47.24267" lon="-2.29917">
        <ele>29.799999237061</ele>
        <time>2021-04-29T08:36:29.000Z</time>
      </trkpt>
      <trkpt lat="47.2428" lon="-2.29906">
        <ele>29.39999961853</ele>
        <time>2021-04-29T08:36:32.000Z</time>
      </trkpt>
      <trkpt lat="47.24287" lon="-2.29901">
        <ele>29</ele>
        <time>2021-04-29T08:36:33.000Z</time>
      </trkpt>
      <trkpt lat="47.24292" lon="-2.29897">
        <ele>28.60000038147</ele>
        <time>2021-04-29T08:36:34.000Z</time>
      </trkpt>
      <trkpt lat="47.24298" lon="-2.29893">
        <ele>28.200000762939</ele>
        <time>2021-04-29T08:36:35.000Z</time>
      </trkpt>
      <trkpt lat="47.24303" lon="-2.29888">
        <ele>27.799999237061</ele>
        <time>2021-04-29T08:36:36.000Z</time>
      </trkpt>
      <trkpt lat="47.24313" lon="-2.29869">
        <ele>27.799999237061</ele>
        <time>2021-04-29T08:36:39.000Z</time>
      </trkpt>
      <trkpt lat="47.24315" lon="-2.29862">
        <ele>27.799999237061</ele>
        <time>2021-04-29T08:36:40.000Z</time>
      </trkpt>
      <trkpt lat="47.24315" lon="-2.29845">
        <ele>27.799999237061</ele>
        <time>2021-04-29T08:36:42.000Z</time>
      </trkpt>
      <trkpt lat="47.24317" lon="-2.29828">
        <ele>27.799999237061</ele>
        <time>2021-04-29T08:36:44.000Z</time>
      </trkpt>
      <trkpt lat="47.24323" lon="-2.29814">
        <ele>27.799999237061</ele>
        <time>2021-04-29T08:36:46.000Z</time>
      </trkpt>
      <trkpt lat="47.24328" lon="-2.2981">
        <ele>27.799999237061</ele>
        <time>2021-04-29T08:36:47.000Z</time>
      </trkpt>
      <trkpt lat="47.2434" lon="-2.29806">
        <ele>27.799999237061</ele>
        <time>2021-04-29T08:36:49.000Z</time>
      </trkpt>
      <trkpt lat="47.24351" lon="-2.29801">
        <ele>28.200000762939</ele>
        <time>2021-04-29T08:36:51.000Z</time>
      </trkpt>
      <trkpt lat="47.24356" lon="-2.29797">
        <ele>28.60000038147</ele>
        <time>2021-04-29T08:36:52.000Z</time>
      </trkpt>
      <trkpt lat="47.24361" lon="-2.29792">
        <ele>29</ele>
        <time>2021-04-29T08:36:53.000Z</time>
      </trkpt>
      <trkpt lat="47.24365" lon="-2.29786">
        <ele>30</ele>
        <time>2021-04-29T08:36:54.000Z</time>
      </trkpt>
      <trkpt lat="47.24368" lon="-2.29779">
        <ele>30</ele>
        <time>2021-04-29T08:36:55.000Z</time>
      </trkpt>
      <trkpt lat="47.24372" lon="-2.29771">
        <ele>30</ele>
        <time>2021-04-29T08:36:56.000Z</time>
      </trkpt>
      <trkpt lat="47.24378" lon="-2.29756">
        <ele>30</ele>
        <time>2021-04-29T08:36:58.000Z</time>
      </trkpt>
      <trkpt lat="47.24392" lon="-2.2972">
        <ele>30</ele>
        <time>2021-04-29T08:37:03.000Z</time>
      </trkpt>
      <trkpt lat="47.24395" lon="-2.29714">
        <ele>30</ele>
        <time>2021-04-29T08:37:04.000Z</time>
      </trkpt>
      <trkpt lat="47.2441" lon="-2.29697">
        <ele>30</ele>
        <time>2021-04-29T08:37:08.000Z</time>
      </trkpt>
      <trkpt lat="47.24415" lon="-2.29694">
        <ele>30</ele>
        <time>2021-04-29T08:37:09.000Z</time>
      </trkpt>
      <trkpt lat="47.24434" lon="-2.29681">
        <ele>30</ele>
        <time>2021-04-29T08:37:14.000Z</time>
      </trkpt>
      <trkpt lat="47.24437" lon="-2.29673">
        <ele>30</ele>
        <time>2021-04-29T08:37:18.000Z</time>
      </trkpt>
      <trkpt lat="47.24438" lon="-2.29661">
        <ele>30</ele>
        <time>2021-04-29T08:37:24.000Z</time>
      </trkpt>
      <trkpt lat="47.24434" lon="-2.29647">
        <ele>30</ele>
        <time>2021-04-29T08:37:29.000Z</time>
      </trkpt>
      <trkpt lat="47.2444" lon="-2.29639">
        <ele>30</ele>
        <time>2021-04-29T08:37:32.000Z</time>
      </trkpt>
      <trkpt lat="47.24444" lon="-2.29636">
        <ele>30</ele>
        <time>2021-04-29T08:37:33.000Z</time>
      </trkpt>
      <trkpt lat="47.24463" lon="-2.2962">
        <ele>30</ele>
        <time>2021-04-29T08:37:37.000Z</time>
      </trkpt>
      <trkpt lat="47.24491" lon="-2.29591">
        <ele>30.39999961853</ele>
        <time>2021-04-29T08:37:43.000Z</time>
      </trkpt>
      <trkpt lat="47.24496" lon="-2.29586">
        <ele>31.200000762939</ele>
        <time>2021-04-29T08:37:44.000Z</time>
      </trkpt>
      <trkpt lat="47.245" lon="-2.29582">
        <ele>31.60000038147</ele>
        <time>2021-04-29T08:37:45.000Z</time>
      </trkpt>
      <trkpt lat="47.24505" lon="-2.29579">
        <ele>32.200000762939</ele>
        <time>2021-04-29T08:37:46.000Z</time>
      </trkpt>
      <trkpt lat="47.24514" lon="-2.29572">
        <ele>32.200000762939</ele>
        <time>2021-04-29T08:37:48.000Z</time>
      </trkpt>
      <trkpt lat="47.24517" lon="-2.29566">
        <ele>32.200000762939</ele>
        <time>2021-04-29T08:37:49.000Z</time>
      </trkpt>
      <trkpt lat="47.2452" lon="-2.29546">
        <ele>32.200000762939</ele>
        <time>2021-04-29T08:37:52.000Z</time>
      </trkpt>
      <trkpt lat="47.2452" lon="-2.29538">
        <ele>32.200000762939</ele>
        <time>2021-04-29T08:37:53.000Z</time>
      </trkpt>
      <trkpt lat="47.24517" lon="-2.295">
        <ele>32.200000762939</ele>
        <time>2021-04-29T08:37:58.000Z</time>
      </trkpt>
      <trkpt lat="47.24516" lon="-2.29492">
        <ele>32.599998474121</ele>
        <time>2021-04-29T08:37:59.000Z</time>
      </trkpt>
      <trkpt lat="47.24516" lon="-2.29483">
        <ele>33</ele>
        <time>2021-04-29T08:38:00.000Z</time>
      </trkpt>
      <trkpt lat="47.24517" lon="-2.29476">
        <ele>33.400001525879</ele>
        <time>2021-04-29T08:38:01.000Z</time>
      </trkpt>
      <trkpt lat="47.24517" lon="-2.29468">
        <ele>33.799999237061</ele>
        <time>2021-04-29T08:38:02.000Z</time>
      </trkpt>
      <trkpt lat="47.24518" lon="-2.2946">
        <ele>34.200000762939</ele>
        <time>2021-04-29T08:38:03.000Z</time>
      </trkpt>
      <trkpt lat="47.24519" lon="-2.29444">
        <ele>34.200000762939</ele>
        <time>2021-04-29T08:38:05.000Z</time>
      </trkpt>
      <trkpt lat="47.24519" lon="-2.29386">
        <ele>34.200000762939</ele>
        <time>2021-04-29T08:38:12.000Z</time>
      </trkpt>
      <trkpt lat="47.24518" lon="-2.29369">
        <ele>34.200000762939</ele>
        <time>2021-04-29T08:38:14.000Z</time>
      </trkpt>
      <trkpt lat="47.24514" lon="-2.29345">
        <ele>34.200000762939</ele>
        <time>2021-04-29T08:38:17.000Z</time>
      </trkpt>
      <trkpt lat="47.24516" lon="-2.29309">
        <ele>34.200000762939</ele>
        <time>2021-04-29T08:38:21.000Z</time>
      </trkpt>
      <trkpt lat="47.24515" lon="-2.2925">
        <ele>34.200000762939</ele>
        <time>2021-04-29T08:38:27.000Z</time>
      </trkpt>
      <trkpt lat="47.24521" lon="-2.29191">
        <ele>34.200000762939</ele>
        <time>2021-04-29T08:38:33.000Z</time>
      </trkpt>
      <trkpt lat="47.24523" lon="-2.29182">
        <ele>34.200000762939</ele>
        <time>2021-04-29T08:38:34.000Z</time>
      </trkpt>
      <trkpt lat="47.24537" lon="-2.29123">
        <ele>34.200000762939</ele>
        <time>2021-04-29T08:38:40.000Z</time>
      </trkpt>
      <trkpt lat="47.24548" lon="-2.29074">
        <ele>34.200000762939</ele>
        <time>2021-04-29T08:38:45.000Z</time>
      </trkpt>
      <trkpt lat="47.2455" lon="-2.29064">
        <ele>33.799999237061</ele>
        <time>2021-04-29T08:38:46.000Z</time>
      </trkpt>
      <trkpt lat="47.24552" lon="-2.29054">
        <ele>33.400001525879</ele>
        <time>2021-04-29T08:38:47.000Z</time>
      </trkpt>
      <trkpt lat="47.24554" lon="-2.29044">
        <ele>33</ele>
        <time>2021-04-29T08:38:48.000Z</time>
      </trkpt>
      <trkpt lat="47.24555" lon="-2.29033">
        <ele>32.599998474121</ele>
        <time>2021-04-29T08:38:49.000Z</time>
      </trkpt>
      <trkpt lat="47.24556" lon="-2.29022">
        <ele>32.200000762939</ele>
        <time>2021-04-29T08:38:50.000Z</time>
      </trkpt>
      <trkpt lat="47.24557" lon="-2.29">
        <ele>32.200000762939</ele>
        <time>2021-04-29T08:38:52.000Z</time>
      </trkpt>
      <trkpt lat="47.24554" lon="-2.2898">
        <ele>32.200000762939</ele>
        <time>2021-04-29T08:38:54.000Z</time>
      </trkpt>
      <trkpt lat="47.2455" lon="-2.28959">
        <ele>32.200000762939</ele>
        <time>2021-04-29T08:38:56.000Z</time>
      </trkpt>
      <trkpt lat="47.24538" lon="-2.28919">
        <ele>31.799999237061</ele>
        <time>2021-04-29T08:39:00.000Z</time>
      </trkpt>
      <trkpt lat="47.24535" lon="-2.28909">
        <ele>31.39999961853</ele>
        <time>2021-04-29T08:39:01.000Z</time>
      </trkpt>
      <trkpt lat="47.24531" lon="-2.289">
        <ele>31</ele>
        <time>2021-04-29T08:39:02.000Z</time>
      </trkpt>
      <trkpt lat="47.24528" lon="-2.28891">
        <ele>30.60000038147</ele>
        <time>2021-04-29T08:39:03.000Z</time>
      </trkpt>
      <trkpt lat="47.24527" lon="-2.2888">
        <ele>30.200000762939</ele>
        <time>2021-04-29T08:39:04.000Z</time>
      </trkpt>
      <trkpt lat="47.24528" lon="-2.2887">
        <ele>30.200000762939</ele>
        <time>2021-04-29T08:39:05.000Z</time>
      </trkpt>
      <trkpt lat="47.24539" lon="-2.28848">
        <ele>30.200000762939</ele>
        <time>2021-04-29T08:39:08.000Z</time>
      </trkpt>
      <trkpt lat="47.24544" lon="-2.28843">
        <ele>30.200000762939</ele>
        <time>2021-04-29T08:39:09.000Z</time>
      </trkpt>
      <trkpt lat="47.24564" lon="-2.28823">
        <ele>30.200000762939</ele>
        <time>2021-04-29T08:39:13.000Z</time>
      </trkpt>
      <trkpt lat="47.24578" lon="-2.28807">
        <ele>30.200000762939</ele>
        <time>2021-04-29T08:39:16.000Z</time>
      </trkpt>
      <trkpt lat="47.24587" lon="-2.28799">
        <ele>30.200000762939</ele>
        <time>2021-04-29T08:39:18.000Z</time>
      </trkpt>
      <trkpt lat="47.24608" lon="-2.28782">
        <ele>30.200000762939</ele>
        <time>2021-04-29T08:39:22.000Z</time>
      </trkpt>
      <trkpt lat="47.24618" lon="-2.28771">
        <ele>30.200000762939</ele>
        <time>2021-04-29T08:39:24.000Z</time>
      </trkpt>
      <trkpt lat="47.24623" lon="-2.28764">
        <ele>30.200000762939</ele>
        <time>2021-04-29T08:39:25.000Z</time>
      </trkpt>
      <trkpt lat="47.24642" lon="-2.28738">
        <ele>30.200000762939</ele>
        <time>2021-04-29T08:39:29.000Z</time>
      </trkpt>
      <trkpt lat="47.2468" lon="-2.28687">
        <ele>30.200000762939</ele>
        <time>2021-04-29T08:39:37.000Z</time>
      </trkpt>
      <trkpt lat="47.24707" lon="-2.2865">
        <ele>30.200000762939</ele>
        <time>2021-04-29T08:39:43.000Z</time>
      </trkpt>
      <trkpt lat="47.24712" lon="-2.28645">
        <ele>30.200000762939</ele>
        <time>2021-04-29T08:39:44.000Z</time>
      </trkpt>
      <trkpt lat="47.24736" lon="-2.28617">
        <ele>30.200000762939</ele>
        <time>2021-04-29T08:39:49.000Z</time>
      </trkpt>
      <trkpt lat="47.24739" lon="-2.2861">
        <ele>30.200000762939</ele>
        <time>2021-04-29T08:39:50.000Z</time>
      </trkpt>
      <trkpt lat="47.24743" lon="-2.28603">
        <ele>30.60000038147</ele>
        <time>2021-04-29T08:39:51.000Z</time>
      </trkpt>
      <trkpt lat="47.24745" lon="-2.28595">
        <ele>31</ele>
        <time>2021-04-29T08:39:52.000Z</time>
      </trkpt>
      <trkpt lat="47.24747" lon="-2.28587">
        <ele>31.39999961853</ele>
        <time>2021-04-29T08:39:53.000Z</time>
      </trkpt>
      <trkpt lat="47.24749" lon="-2.28579">
        <ele>31.799999237061</ele>
        <time>2021-04-29T08:39:54.000Z</time>
      </trkpt>
      <trkpt lat="47.24752" lon="-2.28571">
        <ele>32.200000762939</ele>
        <time>2021-04-29T08:39:55.000Z</time>
      </trkpt>
      <trkpt lat="47.2476" lon="-2.2856">
        <ele>32.200000762939</ele>
        <time>2021-04-29T08:39:57.000Z</time>
      </trkpt>
      <trkpt lat="47.24796" lon="-2.28522">
        <ele>32.200000762939</ele>
        <time>2021-04-29T08:40:04.000Z</time>
      </trkpt>
      <trkpt lat="47.24825" lon="-2.28496">
        <ele>32.200000762939</ele>
        <time>2021-04-29T08:40:09.000Z</time>
      </trkpt>
      <trkpt lat="47.24862" lon="-2.28466">
        <ele>32.200000762939</ele>
        <time>2021-04-29T08:40:15.000Z</time>
      </trkpt>
      <trkpt lat="47.24885" lon="-2.28439">
        <ele>31.799999237061</ele>
        <time>2021-04-29T08:40:19.000Z</time>
      </trkpt>
      <trkpt lat="47.24891" lon="-2.28433">
        <ele>31.39999961853</ele>
        <time>2021-04-29T08:40:20.000Z</time>
      </trkpt>
      <trkpt lat="47.24897" lon="-2.28427">
        <ele>31</ele>
        <time>2021-04-29T08:40:21.000Z</time>
      </trkpt>
      <trkpt lat="47.24903" lon="-2.28423">
        <ele>30.60000038147</ele>
        <time>2021-04-29T08:40:22.000Z</time>
      </trkpt>
      <trkpt lat="47.24909" lon="-2.28419">
        <ele>30.200000762939</ele>
        <time>2021-04-29T08:40:23.000Z</time>
      </trkpt>
      <trkpt lat="47.24923" lon="-2.28413">
        <ele>29.60000038147</ele>
        <time>2021-04-29T08:40:25.000Z</time>
      </trkpt>
      <trkpt lat="47.2493" lon="-2.28411">
        <ele>29.200000762939</ele>
        <time>2021-04-29T08:40:26.000Z</time>
      </trkpt>
      <trkpt lat="47.24937" lon="-2.28409">
        <ele>28.60000038147</ele>
        <time>2021-04-29T08:40:27.000Z</time>
      </trkpt>
      <trkpt lat="47.24944" lon="-2.28407">
        <ele>28.200000762939</ele>
        <time>2021-04-29T08:40:28.000Z</time>
      </trkpt>
      <trkpt lat="47.24952" lon="-2.28404">
        <ele>27.60000038147</ele>
        <time>2021-04-29T08:40:29.000Z</time>
      </trkpt>
      <trkpt lat="47.24967" lon="-2.28397">
        <ele>27.60000038147</ele>
        <time>2021-04-29T08:40:31.000Z</time>
      </trkpt>
      <trkpt lat="47.24974" lon="-2.28392">
        <ele>27.200000762939</ele>
        <time>2021-04-29T08:40:32.000Z</time>
      </trkpt>
      <trkpt lat="47.2498" lon="-2.28386">
        <ele>26.799999237061</ele>
        <time>2021-04-29T08:40:33.000Z</time>
      </trkpt>
      <trkpt lat="47.24986" lon="-2.28379">
        <ele>26.39999961853</ele>
        <time>2021-04-29T08:40:34.000Z</time>
      </trkpt>
      <trkpt lat="47.24991" lon="-2.2837">
        <ele>26</ele>
        <time>2021-04-29T08:40:35.000Z</time>
      </trkpt>
      <trkpt lat="47.24995" lon="-2.28362">
        <ele>25.39999961853</ele>
        <time>2021-04-29T08:40:36.000Z</time>
      </trkpt>
      <trkpt lat="47.25004" lon="-2.28346">
        <ele>25.39999961853</ele>
        <time>2021-04-29T08:40:38.000Z</time>
      </trkpt>
      <trkpt lat="47.25009" lon="-2.28339">
        <ele>25.39999961853</ele>
        <time>2021-04-29T08:40:39.000Z</time>
      </trkpt>
      <trkpt lat="47.25019" lon="-2.28329">
        <ele>25.39999961853</ele>
        <time>2021-04-29T08:40:41.000Z</time>
      </trkpt>
      <trkpt lat="47.25027" lon="-2.28319">
        <ele>25.39999961853</ele>
        <time>2021-04-29T08:40:43.000Z</time>
      </trkpt>
      <trkpt lat="47.25031" lon="-2.28307">
        <ele>25.39999961853</ele>
        <time>2021-04-29T08:40:45.000Z</time>
      </trkpt>
      <trkpt lat="47.25032" lon="-2.28293">
        <ele>25.39999961853</ele>
        <time>2021-04-29T08:40:47.000Z</time>
      </trkpt>
      <trkpt lat="47.25032" lon="-2.28285">
        <ele>25.39999961853</ele>
        <time>2021-04-29T08:40:48.000Z</time>
      </trkpt>
      <trkpt lat="47.25033" lon="-2.28277">
        <ele>25.39999961853</ele>
        <time>2021-04-29T08:40:49.000Z</time>
      </trkpt>
      <trkpt lat="47.25035" lon="-2.2826">
        <ele>26</ele>
        <time>2021-04-29T08:40:51.000Z</time>
      </trkpt>
      <trkpt lat="47.25036" lon="-2.28252">
        <ele>26.39999961853</ele>
        <time>2021-04-29T08:40:52.000Z</time>
      </trkpt>
      <trkpt lat="47.25037" lon="-2.28245">
        <ele>26.799999237061</ele>
        <time>2021-04-29T08:40:53.000Z</time>
      </trkpt>
      <trkpt lat="47.25038" lon="-2.28238">
        <ele>27.200000762939</ele>
        <time>2021-04-29T08:40:54.000Z</time>
      </trkpt>
      <trkpt lat="47.25039" lon="-2.28231">
        <ele>27.60000038147</ele>
        <time>2021-04-29T08:40:55.000Z</time>
      </trkpt>
      <trkpt lat="47.2504" lon="-2.28225">
        <ele>27.60000038147</ele>
        <time>2021-04-29T08:40:56.000Z</time>
      </trkpt>
      <trkpt lat="47.25046" lon="-2.28204">
        <ele>27.60000038147</ele>
        <time>2021-04-29T08:40:59.000Z</time>
      </trkpt>
      <trkpt lat="47.25058" lon="-2.28157">
        <ele>27.60000038147</ele>
        <time>2021-04-29T08:41:05.000Z</time>
      </trkpt>
      <trkpt lat="47.25069" lon="-2.28119">
        <ele>27.60000038147</ele>
        <time>2021-04-29T08:41:10.000Z</time>
      </trkpt>
      <trkpt lat="47.25073" lon="-2.28095">
        <ele>27.60000038147</ele>
        <time>2021-04-29T08:41:13.000Z</time>
      </trkpt>
      <trkpt lat="47.25078" lon="-2.2808">
        <ele>27.60000038147</ele>
        <time>2021-04-29T08:41:15.000Z</time>
      </trkpt>
      <trkpt lat="47.25082" lon="-2.28071">
        <ele>27.60000038147</ele>
        <time>2021-04-29T08:41:16.000Z</time>
      </trkpt>
      <trkpt lat="47.25095" lon="-2.28042">
        <ele>27.60000038147</ele>
        <time>2021-04-29T08:41:20.000Z</time>
      </trkpt>
      <trkpt lat="47.25115" lon="-2.27995">
        <ele>27.60000038147</ele>
        <time>2021-04-29T08:41:26.000Z</time>
      </trkpt>
      <trkpt lat="47.25127" lon="-2.27974">
        <ele>28</ele>
        <time>2021-04-29T08:41:29.000Z</time>
      </trkpt>
      <trkpt lat="47.25132" lon="-2.27968">
        <ele>28.39999961853</ele>
        <time>2021-04-29T08:41:30.000Z</time>
      </trkpt>
      <trkpt lat="47.25137" lon="-2.27962">
        <ele>29</ele>
        <time>2021-04-29T08:41:31.000Z</time>
      </trkpt>
      <trkpt lat="47.25142" lon="-2.27957">
        <ele>29.39999961853</ele>
        <time>2021-04-29T08:41:32.000Z</time>
      </trkpt>
      <trkpt lat="47.25146" lon="-2.27953">
        <ele>29.799999237061</ele>
        <time>2021-04-29T08:41:33.000Z</time>
      </trkpt>
      <trkpt lat="47.25155" lon="-2.27945">
        <ele>29.799999237061</ele>
        <time>2021-04-29T08:41:35.000Z</time>
      </trkpt>
      <trkpt lat="47.25184" lon="-2.27926">
        <ele>29.799999237061</ele>
        <time>2021-04-29T08:41:40.000Z</time>
      </trkpt>
      <trkpt lat="47.25201" lon="-2.27914">
        <ele>29.799999237061</ele>
        <time>2021-04-29T08:41:43.000Z</time>
      </trkpt>
      <trkpt lat="47.25207" lon="-2.27911">
        <ele>30.200000762939</ele>
        <time>2021-04-29T08:41:44.000Z</time>
      </trkpt>
      <trkpt lat="47.25212" lon="-2.27908">
        <ele>30.60000038147</ele>
        <time>2021-04-29T08:41:45.000Z</time>
      </trkpt>
      <trkpt lat="47.25217" lon="-2.27905">
        <ele>31.200000762939</ele>
        <time>2021-04-29T08:41:46.000Z</time>
      </trkpt>
      <trkpt lat="47.25223" lon="-2.27903">
        <ele>31.60000038147</ele>
        <time>2021-04-29T08:41:47.000Z</time>
      </trkpt>
      <trkpt lat="47.25228" lon="-2.27901">
        <ele>32</ele>
        <time>2021-04-29T08:41:48.000Z</time>
      </trkpt>
      <trkpt lat="47.25239" lon="-2.27895">
        <ele>32</ele>
        <time>2021-04-29T08:41:50.000Z</time>
      </trkpt>
      <trkpt lat="47.25248" lon="-2.2789">
        <ele>32</ele>
        <time>2021-04-29T08:41:52.000Z</time>
      </trkpt>
      <trkpt lat="47.25281" lon="-2.27877">
        <ele>32</ele>
        <time>2021-04-29T08:41:58.000Z</time>
      </trkpt>
      <trkpt lat="47.25322" lon="-2.27869">
        <ele>32</ele>
        <time>2021-04-29T08:42:05.000Z</time>
      </trkpt>
      <trkpt lat="47.25339" lon="-2.27866">
        <ele>32.400001525879</ele>
        <time>2021-04-29T08:42:08.000Z</time>
      </trkpt>
      <trkpt lat="47.25345" lon="-2.27865">
        <ele>32.799999237061</ele>
        <time>2021-04-29T08:42:09.000Z</time>
      </trkpt>
      <trkpt lat="47.2535" lon="-2.27863">
        <ele>33.200000762939</ele>
        <time>2021-04-29T08:42:10.000Z</time>
      </trkpt>
      <trkpt lat="47.25356" lon="-2.27861">
        <ele>33.599998474121</ele>
        <time>2021-04-29T08:42:11.000Z</time>
      </trkpt>
      <trkpt lat="47.25362" lon="-2.27859">
        <ele>34</ele>
        <time>2021-04-29T08:42:12.000Z</time>
      </trkpt>
      <trkpt lat="47.25398" lon="-2.27848">
        <ele>34</ele>
        <time>2021-04-29T08:42:18.000Z</time>
      </trkpt>
      <trkpt lat="47.2541" lon="-2.27842">
        <ele>34.400001525879</ele>
        <time>2021-04-29T08:42:20.000Z</time>
      </trkpt>
      <trkpt lat="47.25416" lon="-2.27839">
        <ele>34.799999237061</ele>
        <time>2021-04-29T08:42:21.000Z</time>
      </trkpt>
      <trkpt lat="47.25421" lon="-2.27835">
        <ele>35.400001525879</ele>
        <time>2021-04-29T08:42:22.000Z</time>
      </trkpt>
      <trkpt lat="47.25426" lon="-2.2783">
        <ele>35.799999237061</ele>
        <time>2021-04-29T08:42:23.000Z</time>
      </trkpt>
      <trkpt lat="47.25431" lon="-2.27826">
        <ele>36.200000762939</ele>
        <time>2021-04-29T08:42:24.000Z</time>
      </trkpt>
      <trkpt lat="47.25453" lon="-2.27801">
        <ele>36.200000762939</ele>
        <time>2021-04-29T08:42:29.000Z</time>
      </trkpt>
      <trkpt lat="47.25484" lon="-2.27766">
        <ele>36.200000762939</ele>
        <time>2021-04-29T08:42:36.000Z</time>
      </trkpt>
      <trkpt lat="47.25496" lon="-2.27754">
        <ele>36.200000762939</ele>
        <time>2021-04-29T08:42:39.000Z</time>
      </trkpt>
      <trkpt lat="47.25501" lon="-2.27753">
        <ele>36.200000762939</ele>
        <time>2021-04-29T08:42:40.000Z</time>
      </trkpt>
      <trkpt lat="47.25512" lon="-2.27761">
        <ele>36.200000762939</ele>
        <time>2021-04-29T08:42:44.000Z</time>
      </trkpt>
      <trkpt lat="47.25515" lon="-2.27764">
        <ele>36.200000762939</ele>
        <time>2021-04-29T08:42:45.000Z</time>
      </trkpt>
      <trkpt lat="47.25521" lon="-2.27777">
        <ele>36.599998474121</ele>
        <time>2021-04-29T08:42:49.000Z</time>
      </trkpt>
      <trkpt lat="47.25523" lon="-2.2778">
        <ele>37</ele>
        <time>2021-04-29T08:42:50.000Z</time>
      </trkpt>
      <trkpt lat="47.25525" lon="-2.27783">
        <ele>37.400001525879</ele>
        <time>2021-04-29T08:42:51.000Z</time>
      </trkpt>
      <trkpt lat="47.25527" lon="-2.27786">
        <ele>37.799999237061</ele>
        <time>2021-04-29T08:42:52.000Z</time>
      </trkpt>
      <trkpt lat="47.25529" lon="-2.27789">
        <ele>38.200000762939</ele>
        <time>2021-04-29T08:42:53.000Z</time>
      </trkpt>
      <trkpt lat="47.25533" lon="-2.27795">
        <ele>38.200000762939</ele>
        <time>2021-04-29T08:42:55.000Z</time>
      </trkpt>
      <trkpt lat="47.25549" lon="-2.2782">
        <ele>38.200000762939</ele>
        <time>2021-04-29T08:43:02.000Z</time>
      </trkpt>
      <trkpt lat="47.25568" lon="-2.27844">
        <ele>38.200000762939</ele>
        <time>2021-04-29T08:43:08.000Z</time>
      </trkpt>
      <trkpt lat="47.25581" lon="-2.2786">
        <ele>38.200000762939</ele>
        <time>2021-04-29T08:43:12.000Z</time>
      </trkpt>
      <trkpt lat="47.25589" lon="-2.27868">
        <ele>38.599998474121</ele>
        <time>2021-04-29T08:43:14.000Z</time>
      </trkpt>
      <trkpt lat="47.25592" lon="-2.27872">
        <ele>39</ele>
        <time>2021-04-29T08:43:15.000Z</time>
      </trkpt>
      <trkpt lat="47.25597" lon="-2.27876">
        <ele>39.400001525879</ele>
        <time>2021-04-29T08:43:16.000Z</time>
      </trkpt>
      <trkpt lat="47.25601" lon="-2.2788">
        <ele>39.799999237061</ele>
        <time>2021-04-29T08:43:17.000Z</time>
      </trkpt>
      <trkpt lat="47.25605" lon="-2.27884">
        <ele>40.400001525879</ele>
        <time>2021-04-29T08:43:18.000Z</time>
      </trkpt>
      <trkpt lat="47.25613" lon="-2.27892">
        <ele>40.400001525879</ele>
        <time>2021-04-29T08:43:20.000Z</time>
      </trkpt>
      <trkpt lat="47.25643" lon="-2.27918">
        <ele>40.400001525879</ele>
        <time>2021-04-29T08:43:26.000Z</time>
      </trkpt>
      <trkpt lat="47.25659" lon="-2.27945">
        <ele>40.400001525879</ele>
        <time>2021-04-29T08:43:30.000Z</time>
      </trkpt>
      <trkpt lat="47.25676" lon="-2.27978">
        <ele>40.400001525879</ele>
        <time>2021-04-29T08:43:35.000Z</time>
      </trkpt>
      <trkpt lat="47.25683" lon="-2.27988">
        <ele>40.400001525879</ele>
        <time>2021-04-29T08:43:37.000Z</time>
      </trkpt>
      <trkpt lat="47.25693" lon="-2.28">
        <ele>40.799999237061</ele>
        <time>2021-04-29T08:43:40.000Z</time>
      </trkpt>
      <trkpt lat="47.25697" lon="-2.28005">
        <ele>41.200000762939</ele>
        <time>2021-04-29T08:43:41.000Z</time>
      </trkpt>
      <trkpt lat="47.257" lon="-2.28009">
        <ele>41.599998474121</ele>
        <time>2021-04-29T08:43:42.000Z</time>
      </trkpt>
      <trkpt lat="47.25704" lon="-2.28013">
        <ele>42</ele>
        <time>2021-04-29T08:43:43.000Z</time>
      </trkpt>
      <trkpt lat="47.25707" lon="-2.28017">
        <ele>42.400001525879</ele>
        <time>2021-04-29T08:43:44.000Z</time>
      </trkpt>
      <trkpt lat="47.25715" lon="-2.28027">
        <ele>42.400001525879</ele>
        <time>2021-04-29T08:43:46.000Z</time>
      </trkpt>
      <trkpt lat="47.25744" lon="-2.28059">
        <ele>42.400001525879</ele>
        <time>2021-04-29T08:43:52.000Z</time>
      </trkpt>
      <trkpt lat="47.25769" lon="-2.28081">
        <ele>42.400001525879</ele>
        <time>2021-04-29T08:43:57.000Z</time>
      </trkpt>
      <trkpt lat="47.258" lon="-2.28109">
        <ele>42.400001525879</ele>
        <time>2021-04-29T08:44:03.000Z</time>
      </trkpt>
      <trkpt lat="47.25833" lon="-2.28138">
        <ele>42.400001525879</ele>
        <time>2021-04-29T08:44:09.000Z</time>
      </trkpt>
      <trkpt lat="47.25857" lon="-2.2816">
        <ele>42.400001525879</ele>
        <time>2021-04-29T08:44:14.000Z</time>
      </trkpt>
      <trkpt lat="47.25861" lon="-2.28165">
        <ele>42.400001525879</ele>
        <time>2021-04-29T08:44:15.000Z</time>
      </trkpt>
      <trkpt lat="47.25873" lon="-2.28178">
        <ele>42.400001525879</ele>
        <time>2021-04-29T08:44:18.000Z</time>
      </trkpt>
      <trkpt lat="47.25883" lon="-2.28181">
        <ele>42.400001525879</ele>
        <time>2021-04-29T08:44:20.000Z</time>
      </trkpt>
      <trkpt lat="47.25907" lon="-2.28186">
        <ele>42.400001525879</ele>
        <time>2021-04-29T08:44:25.000Z</time>
      </trkpt>
      <trkpt lat="47.2592" lon="-2.28188">
        <ele>42.400001525879</ele>
        <time>2021-04-29T08:44:29.000Z</time>
      </trkpt>
      <trkpt lat="47.25935" lon="-2.2818">
        <ele>42.400001525879</ele>
        <time>2021-04-29T08:44:33.000Z</time>
      </trkpt>
      <trkpt lat="47.25944" lon="-2.28176">
        <ele>42.400001525879</ele>
        <time>2021-04-29T08:44:35.000Z</time>
      </trkpt>
      <trkpt lat="47.25956" lon="-2.28177">
        <ele>42.400001525879</ele>
        <time>2021-04-29T08:44:37.000Z</time>
      </trkpt>
      <trkpt lat="47.25979" lon="-2.2818">
        <ele>42.799999237061</ele>
        <time>2021-04-29T08:44:41.000Z</time>
      </trkpt>
      <trkpt lat="47.25985" lon="-2.28176">
        <ele>43.200000762939</ele>
        <time>2021-04-29T08:44:42.000Z</time>
      </trkpt>
      <trkpt lat="47.25991" lon="-2.28173">
        <ele>43.599998474121</ele>
        <time>2021-04-29T08:44:43.000Z</time>
      </trkpt>
      <trkpt lat="47.25996" lon="-2.28169">
        <ele>44</ele>
        <time>2021-04-29T08:44:44.000Z</time>
      </trkpt>
      <trkpt lat="47.26001" lon="-2.28164">
        <ele>44.400001525879</ele>
        <time>2021-04-29T08:44:45.000Z</time>
      </trkpt>
      <trkpt lat="47.26007" lon="-2.28159">
        <ele>44.400001525879</ele>
        <time>2021-04-29T08:44:46.000Z</time>
      </trkpt>
      <trkpt lat="47.26042" lon="-2.2813">
        <ele>44.400001525879</ele>
        <time>2021-04-29T08:44:52.000Z</time>
      </trkpt>
      <trkpt lat="47.26062" lon="-2.2812">
        <ele>44.400001525879</ele>
        <time>2021-04-29T08:44:55.000Z</time>
      </trkpt>
      <trkpt lat="47.26075" lon="-2.28116">
        <ele>44.400001525879</ele>
        <time>2021-04-29T08:44:57.000Z</time>
      </trkpt>
      <trkpt lat="47.26108" lon="-2.28103">
        <ele>44.400001525879</ele>
        <time>2021-04-29T08:45:02.000Z</time>
      </trkpt>
      <trkpt lat="47.26148" lon="-2.28082">
        <ele>44</ele>
        <time>2021-04-29T08:45:08.000Z</time>
      </trkpt>
      <trkpt lat="47.26154" lon="-2.28078">
        <ele>43.599998474121</ele>
        <time>2021-04-29T08:45:09.000Z</time>
      </trkpt>
      <trkpt lat="47.26161" lon="-2.28074">
        <ele>42.599998474121</ele>
        <time>2021-04-29T08:45:10.000Z</time>
      </trkpt>
      <trkpt lat="47.26167" lon="-2.28069">
        <ele>42.200000762939</ele>
        <time>2021-04-29T08:45:11.000Z</time>
      </trkpt>
      <trkpt lat="47.26192" lon="-2.28048">
        <ele>42.200000762939</ele>
        <time>2021-04-29T08:45:15.000Z</time>
      </trkpt>
      <trkpt lat="47.26229" lon="-2.28013">
        <ele>41.799999237061</ele>
        <time>2021-04-29T08:45:21.000Z</time>
      </trkpt>
      <trkpt lat="47.26235" lon="-2.28007">
        <ele>41.400001525879</ele>
        <time>2021-04-29T08:45:22.000Z</time>
      </trkpt>
      <trkpt lat="47.26241" lon="-2.28002">
        <ele>41</ele>
        <time>2021-04-29T08:45:23.000Z</time>
      </trkpt>
      <trkpt lat="47.26248" lon="-2.27998">
        <ele>40.400001525879</ele>
        <time>2021-04-29T08:45:24.000Z</time>
      </trkpt>
      <trkpt lat="47.26255" lon="-2.27993">
        <ele>40</ele>
        <time>2021-04-29T08:45:25.000Z</time>
      </trkpt>
      <trkpt lat="47.26261" lon="-2.27988">
        <ele>40</ele>
        <time>2021-04-29T08:45:26.000Z</time>
      </trkpt>
      <trkpt lat="47.26277" lon="-2.27973">
        <ele>40</ele>
        <time>2021-04-29T08:45:29.000Z</time>
      </trkpt>
      <trkpt lat="47.2628" lon="-2.27967">
        <ele>40</ele>
        <time>2021-04-29T08:45:30.000Z</time>
      </trkpt>
      <trkpt lat="47.26281" lon="-2.27959">
        <ele>39.599998474121</ele>
        <time>2021-04-29T08:45:31.000Z</time>
      </trkpt>
      <trkpt lat="47.26281" lon="-2.27952">
        <ele>39.200000762939</ele>
        <time>2021-04-29T08:45:32.000Z</time>
      </trkpt>
      <trkpt lat="47.2628" lon="-2.27945">
        <ele>38.799999237061</ele>
        <time>2021-04-29T08:45:33.000Z</time>
      </trkpt>
      <trkpt lat="47.26277" lon="-2.27937">
        <ele>38.200000762939</ele>
        <time>2021-04-29T08:45:34.000Z</time>
      </trkpt>
      <trkpt lat="47.26274" lon="-2.2793">
        <ele>37.799999237061</ele>
        <time>2021-04-29T08:45:35.000Z</time>
      </trkpt>
      <trkpt lat="47.2627" lon="-2.27922">
        <ele>37.799999237061</ele>
        <time>2021-04-29T08:45:36.000Z</time>
      </trkpt>
      <trkpt lat="47.26265" lon="-2.27915">
        <ele>37.799999237061</ele>
        <time>2021-04-29T08:45:37.000Z</time>
      </trkpt>
      <trkpt lat="47.26231" lon="-2.27853">
        <ele>37.799999237061</ele>
        <time>2021-04-29T08:45:45.000Z</time>
      </trkpt>
      <trkpt lat="47.26201" lon="-2.27795">
        <ele>37.799999237061</ele>
        <time>2021-04-29T08:45:52.000Z</time>
      </trkpt>
      <trkpt lat="47.26183" lon="-2.27752">
        <ele>38.200000762939</ele>
        <time>2021-04-29T08:45:57.000Z</time>
      </trkpt>
      <trkpt lat="47.26179" lon="-2.27744">
        <ele>38.599998474121</ele>
        <time>2021-04-29T08:45:58.000Z</time>
      </trkpt>
      <trkpt lat="47.26176" lon="-2.27734">
        <ele>39</ele>
        <time>2021-04-29T08:45:59.000Z</time>
      </trkpt>
      <trkpt lat="47.26173" lon="-2.27725">
        <ele>39.799999237061</ele>
        <time>2021-04-29T08:46:00.000Z</time>
      </trkpt>
      <trkpt lat="47.26163" lon="-2.27691">
        <ele>39.799999237061</ele>
        <time>2021-04-29T08:46:04.000Z</time>
      </trkpt>
      <trkpt lat="47.26146" lon="-2.27634">
        <ele>39.799999237061</ele>
        <time>2021-04-29T08:46:11.000Z</time>
      </trkpt>
      <trkpt lat="47.2614" lon="-2.27602">
        <ele>39.799999237061</ele>
        <time>2021-04-29T08:46:15.000Z</time>
      </trkpt>
      <trkpt lat="47.26137" lon="-2.27594">
        <ele>39.799999237061</ele>
        <time>2021-04-29T08:46:16.000Z</time>
      </trkpt>
      <trkpt lat="47.26121" lon="-2.27583">
        <ele>39.799999237061</ele>
        <time>2021-04-29T08:46:19.000Z</time>
      </trkpt>
      <trkpt lat="47.26102" lon="-2.27593">
        <ele>39.799999237061</ele>
        <time>2021-04-29T08:46:22.000Z</time>
      </trkpt>
      <trkpt lat="47.26063" lon="-2.27615">
        <ele>39.799999237061</ele>
        <time>2021-04-29T08:46:29.000Z</time>
      </trkpt>
      <trkpt lat="47.26052" lon="-2.27617">
        <ele>39.799999237061</ele>
        <time>2021-04-29T08:46:31.000Z</time>
      </trkpt>
      <trkpt lat="47.26042" lon="-2.27611">
        <ele>39.799999237061</ele>
        <time>2021-04-29T08:46:33.000Z</time>
      </trkpt>
      <trkpt lat="47.26028" lon="-2.27586">
        <ele>39.799999237061</ele>
        <time>2021-04-29T08:46:37.000Z</time>
      </trkpt>
      <trkpt lat="47.26026" lon="-2.27579">
        <ele>39.799999237061</ele>
        <time>2021-04-29T08:46:38.000Z</time>
      </trkpt>
      <trkpt lat="47.26014" lon="-2.27544">
        <ele>39.799999237061</ele>
        <time>2021-04-29T08:46:43.000Z</time>
      </trkpt>
      <trkpt lat="47.26011" lon="-2.2753">
        <ele>39.799999237061</ele>
        <time>2021-04-29T08:46:45.000Z</time>
      </trkpt>
      <trkpt lat="47.26012" lon="-2.27518">
        <ele>39.799999237061</ele>
        <time>2021-04-29T08:46:47.000Z</time>
      </trkpt>
      <trkpt lat="47.26018" lon="-2.27489">
        <ele>39.799999237061</ele>
        <time>2021-04-29T08:46:51.000Z</time>
      </trkpt>
      <trkpt lat="47.26022" lon="-2.27479">
        <ele>39.799999237061</ele>
        <time>2021-04-29T08:46:52.000Z</time>
      </trkpt>
      <trkpt lat="47.26026" lon="-2.2747">
        <ele>39.799999237061</ele>
        <time>2021-04-29T08:46:53.000Z</time>
      </trkpt>
      <trkpt lat="47.2604" lon="-2.2744">
        <ele>39.799999237061</ele>
        <time>2021-04-29T08:46:57.000Z</time>
      </trkpt>
      <trkpt lat="47.26063" lon="-2.27393">
        <ele>39.799999237061</ele>
        <time>2021-04-29T08:47:04.000Z</time>
      </trkpt>
      <trkpt lat="47.26098" lon="-2.27357">
        <ele>39.799999237061</ele>
        <time>2021-04-29T08:47:09.000Z</time>
      </trkpt>
      <trkpt lat="47.26125" lon="-2.27328">
        <ele>39.799999237061</ele>
        <time>2021-04-29T08:47:14.000Z</time>
      </trkpt>
      <trkpt lat="47.26131" lon="-2.27323">
        <ele>39.799999237061</ele>
        <time>2021-04-29T08:47:15.000Z</time>
      </trkpt>
      <trkpt lat="47.2615" lon="-2.2732">
        <ele>39.799999237061</ele>
        <time>2021-04-29T08:47:18.000Z</time>
      </trkpt>
      <trkpt lat="47.2617" lon="-2.27319">
        <ele>39.799999237061</ele>
        <time>2021-04-29T08:47:21.000Z</time>
      </trkpt>
      <trkpt lat="47.26178" lon="-2.27318">
        <ele>39.799999237061</ele>
        <time>2021-04-29T08:47:22.000Z</time>
      </trkpt>
      <trkpt lat="47.26215" lon="-2.27317">
        <ele>39.799999237061</ele>
        <time>2021-04-29T08:47:27.000Z</time>
      </trkpt>
      <trkpt lat="47.26264" lon="-2.27323">
        <ele>39.799999237061</ele>
        <time>2021-04-29T08:47:34.000Z</time>
      </trkpt>
      <trkpt lat="47.26294" lon="-2.27325">
        <ele>39.400001525879</ele>
        <time>2021-04-29T08:47:38.000Z</time>
      </trkpt>
      <trkpt lat="47.26302" lon="-2.27326">
        <ele>38.599998474121</ele>
        <time>2021-04-29T08:47:39.000Z</time>
      </trkpt>
      <trkpt lat="47.2631" lon="-2.27327">
        <ele>38.200000762939</ele>
        <time>2021-04-29T08:47:40.000Z</time>
      </trkpt>
      <trkpt lat="47.26318" lon="-2.27327">
        <ele>37.799999237061</ele>
        <time>2021-04-29T08:47:41.000Z</time>
      </trkpt>
      <trkpt lat="47.26332" lon="-2.27328">
        <ele>37.799999237061</ele>
        <time>2021-04-29T08:47:43.000Z</time>
      </trkpt>
      <trkpt lat="47.26347" lon="-2.2733">
        <ele>37.799999237061</ele>
        <time>2021-04-29T08:47:45.000Z</time>
      </trkpt>
      <trkpt lat="47.26381" lon="-2.27331">
        <ele>37.799999237061</ele>
        <time>2021-04-29T08:47:50.000Z</time>
      </trkpt>
      <trkpt lat="47.26409" lon="-2.27332">
        <ele>37.799999237061</ele>
        <time>2021-04-29T08:47:54.000Z</time>
      </trkpt>
      <trkpt lat="47.26415" lon="-2.27334">
        <ele>37.400001525879</ele>
        <time>2021-04-29T08:47:55.000Z</time>
      </trkpt>
      <trkpt lat="47.26421" lon="-2.27336">
        <ele>37</ele>
        <time>2021-04-29T08:47:56.000Z</time>
      </trkpt>
      <trkpt lat="47.26427" lon="-2.2734">
        <ele>36.599998474121</ele>
        <time>2021-04-29T08:47:57.000Z</time>
      </trkpt>
      <trkpt lat="47.26432" lon="-2.27346">
        <ele>36.200000762939</ele>
        <time>2021-04-29T08:47:58.000Z</time>
      </trkpt>
      <trkpt lat="47.26437" lon="-2.27353">
        <ele>35.799999237061</ele>
        <time>2021-04-29T08:47:59.000Z</time>
      </trkpt>
      <trkpt lat="47.26449" lon="-2.27377">
        <ele>35.799999237061</ele>
        <time>2021-04-29T08:48:02.000Z</time>
      </trkpt>
      <trkpt lat="47.26451" lon="-2.27385">
        <ele>35.799999237061</ele>
        <time>2021-04-29T08:48:03.000Z</time>
      </trkpt>
      <trkpt lat="47.26454" lon="-2.27394">
        <ele>35.200000762939</ele>
        <time>2021-04-29T08:48:04.000Z</time>
      </trkpt>
      <trkpt lat="47.26457" lon="-2.27402">
        <ele>34.799999237061</ele>
        <time>2021-04-29T08:48:05.000Z</time>
      </trkpt>
      <trkpt lat="47.26459" lon="-2.27411">
        <ele>34.400001525879</ele>
        <time>2021-04-29T08:48:06.000Z</time>
      </trkpt>
      <trkpt lat="47.26462" lon="-2.2742">
        <ele>34</ele>
        <time>2021-04-29T08:48:07.000Z</time>
      </trkpt>
      <trkpt lat="47.26465" lon="-2.2743">
        <ele>33.599998474121</ele>
        <time>2021-04-29T08:48:08.000Z</time>
      </trkpt>
      <trkpt lat="47.26481" lon="-2.27486">
        <ele>33.599998474121</ele>
        <time>2021-04-29T08:48:14.000Z</time>
      </trkpt>
      <trkpt lat="47.26486" lon="-2.27505">
        <ele>33.200000762939</ele>
        <time>2021-04-29T08:48:16.000Z</time>
      </trkpt>
      <trkpt lat="47.26488" lon="-2.27515">
        <ele>32.799999237061</ele>
        <time>2021-04-29T08:48:17.000Z</time>
      </trkpt>
      <trkpt lat="47.2649" lon="-2.27525">
        <ele>32.400001525879</ele>
        <time>2021-04-29T08:48:18.000Z</time>
      </trkpt>
      <trkpt lat="47.26492" lon="-2.27536">
        <ele>32</ele>
        <time>2021-04-29T08:48:19.000Z</time>
      </trkpt>
      <trkpt lat="47.26493" lon="-2.27547">
        <ele>31.60000038147</ele>
        <time>2021-04-29T08:48:20.000Z</time>
      </trkpt>
      <trkpt lat="47.26497" lon="-2.27565">
        <ele>31.60000038147</ele>
        <time>2021-04-29T08:48:22.000Z</time>
      </trkpt>
      <trkpt lat="47.265" lon="-2.27572">
        <ele>31.60000038147</ele>
        <time>2021-04-29T08:48:23.000Z</time>
      </trkpt>
      <trkpt lat="47.26514" lon="-2.27577">
        <ele>31.60000038147</ele>
        <time>2021-04-29T08:48:26.000Z</time>
      </trkpt>
      <trkpt lat="47.2652" lon="-2.27576">
        <ele>31.200000762939</ele>
        <time>2021-04-29T08:48:27.000Z</time>
      </trkpt>
      <trkpt lat="47.26527" lon="-2.27576">
        <ele>30.200000762939</ele>
        <time>2021-04-29T08:48:28.000Z</time>
      </trkpt>
      <trkpt lat="47.26533" lon="-2.27577">
        <ele>29.799999237061</ele>
        <time>2021-04-29T08:48:29.000Z</time>
      </trkpt>
      <trkpt lat="47.26539" lon="-2.27578">
        <ele>29.39999961853</ele>
        <time>2021-04-29T08:48:30.000Z</time>
      </trkpt>
      <trkpt lat="47.26558" lon="-2.2758">
        <ele>29.39999961853</ele>
        <time>2021-04-29T08:48:33.000Z</time>
      </trkpt>
      <trkpt lat="47.26576" lon="-2.2758">
        <ele>29.39999961853</ele>
        <time>2021-04-29T08:48:36.000Z</time>
      </trkpt>
      <trkpt lat="47.26605" lon="-2.2759">
        <ele>29.39999961853</ele>
        <time>2021-04-29T08:48:41.000Z</time>
      </trkpt>
      <trkpt lat="47.2663" lon="-2.27604">
        <ele>29.39999961853</ele>
        <time>2021-04-29T08:48:46.000Z</time>
      </trkpt>
      <trkpt lat="47.26648" lon="-2.27614">
        <ele>29.39999961853</ele>
        <time>2021-04-29T08:48:51.000Z</time>
      </trkpt>
      <trkpt lat="47.26667" lon="-2.27626">
        <ele>29.39999961853</ele>
        <time>2021-04-29T08:48:57.000Z</time>
      </trkpt>
      <trkpt lat="47.26671" lon="-2.27627">
        <ele>29.39999961853</ele>
        <time>2021-04-29T08:48:58.000Z</time>
      </trkpt>
      <trkpt lat="47.26692" lon="-2.27633">
        <ele>29.39999961853</ele>
        <time>2021-04-29T08:49:02.000Z</time>
      </trkpt>
      <trkpt lat="47.26714" lon="-2.27643">
        <ele>29.39999961853</ele>
        <time>2021-04-29T08:49:06.000Z</time>
      </trkpt>
      <trkpt lat="47.26726" lon="-2.27646">
        <ele>29.39999961853</ele>
        <time>2021-04-29T08:49:08.000Z</time>
      </trkpt>
      <trkpt lat="47.26757" lon="-2.27656">
        <ele>29.39999961853</ele>
        <time>2021-04-29T08:49:13.000Z</time>
      </trkpt>
      <trkpt lat="47.26767" lon="-2.27645">
        <ele>29.39999961853</ele>
        <time>2021-04-29T08:49:16.000Z</time>
      </trkpt>
      <trkpt lat="47.26767" lon="-2.27617">
        <ele>29.39999961853</ele>
        <time>2021-04-29T08:49:20.000Z</time>
      </trkpt>
      <trkpt lat="47.26766" lon="-2.27608">
        <ele>29.39999961853</ele>
        <time>2021-04-29T08:49:21.000Z</time>
      </trkpt>
      <trkpt lat="47.26759" lon="-2.27572">
        <ele>29.39999961853</ele>
        <time>2021-04-29T08:49:25.000Z</time>
      </trkpt>
      <trkpt lat="47.26756" lon="-2.27516">
        <ele>29.39999961853</ele>
        <time>2021-04-29T08:49:31.000Z</time>
      </trkpt>
      <trkpt lat="47.26755" lon="-2.27506">
        <ele>29.799999237061</ele>
        <time>2021-04-29T08:49:32.000Z</time>
      </trkpt>
      <trkpt lat="47.26755" lon="-2.27496">
        <ele>30.200000762939</ele>
        <time>2021-04-29T08:49:33.000Z</time>
      </trkpt>
      <trkpt lat="47.26755" lon="-2.27487">
        <ele>30.60000038147</ele>
        <time>2021-04-29T08:49:34.000Z</time>
      </trkpt>
      <trkpt lat="47.26755" lon="-2.27479">
        <ele>31.200000762939</ele>
        <time>2021-04-29T08:49:35.000Z</time>
      </trkpt>
      <trkpt lat="47.26755" lon="-2.27471">
        <ele>31.60000038147</ele>
        <time>2021-04-29T08:49:36.000Z</time>
      </trkpt>
      <trkpt lat="47.26755" lon="-2.27454">
        <ele>31.60000038147</ele>
        <time>2021-04-29T08:49:38.000Z</time>
      </trkpt>
      <trkpt lat="47.26754" lon="-2.27422">
        <ele>31.60000038147</ele>
        <time>2021-04-29T08:49:42.000Z</time>
      </trkpt>
      <trkpt lat="47.26755" lon="-2.27417">
        <ele>31.60000038147</ele>
        <time>2021-04-29T08:49:43.000Z</time>
      </trkpt>
      <trkpt lat="47.26763" lon="-2.27411">
        <ele>31.60000038147</ele>
        <time>2021-04-29T08:49:46.000Z</time>
      </trkpt>
      <trkpt lat="47.26766" lon="-2.27411">
        <ele>31.60000038147</ele>
        <time>2021-04-29T08:49:47.000Z</time>
      </trkpt>
      <trkpt lat="47.26783" lon="-2.27411">
        <ele>31.60000038147</ele>
        <time>2021-04-29T08:49:51.000Z</time>
      </trkpt>
      <trkpt lat="47.2681" lon="-2.2741">
        <ele>31.200000762939</ele>
        <time>2021-04-29T08:49:57.000Z</time>
      </trkpt>
      <trkpt lat="47.26815" lon="-2.27411">
        <ele>30.799999237061</ele>
        <time>2021-04-29T08:49:58.000Z</time>
      </trkpt>
      <trkpt lat="47.2682" lon="-2.2741">
        <ele>30.200000762939</ele>
        <time>2021-04-29T08:49:59.000Z</time>
      </trkpt>
      <trkpt lat="47.26824" lon="-2.27409">
        <ele>29.799999237061</ele>
        <time>2021-04-29T08:50:00.000Z</time>
      </trkpt>
      <trkpt lat="47.26828" lon="-2.27408">
        <ele>29.39999961853</ele>
        <time>2021-04-29T08:50:01.000Z</time>
      </trkpt>
      <trkpt lat="47.26838" lon="-2.27405">
        <ele>29.39999961853</ele>
        <time>2021-04-29T08:50:03.000Z</time>
      </trkpt>
      <trkpt lat="47.26858" lon="-2.27397">
        <ele>29.39999961853</ele>
        <time>2021-04-29T08:50:07.000Z</time>
      </trkpt>
      <trkpt lat="47.26864" lon="-2.27394">
        <ele>29.39999961853</ele>
        <time>2021-04-29T08:50:08.000Z</time>
      </trkpt>
      <trkpt lat="47.26886" lon="-2.27386">
        <ele>29</ele>
        <time>2021-04-29T08:50:12.000Z</time>
      </trkpt>
      <trkpt lat="47.26891" lon="-2.27383">
        <ele>28.60000038147</ele>
        <time>2021-04-29T08:50:13.000Z</time>
      </trkpt>
      <trkpt lat="47.26896" lon="-2.2738">
        <ele>28</ele>
        <time>2021-04-29T08:50:14.000Z</time>
      </trkpt>
      <trkpt lat="47.269" lon="-2.27376">
        <ele>27.60000038147</ele>
        <time>2021-04-29T08:50:15.000Z</time>
      </trkpt>
      <trkpt lat="47.26904" lon="-2.27373">
        <ele>27</ele>
        <time>2021-04-29T08:50:16.000Z</time>
      </trkpt>
      <trkpt lat="47.26906" lon="-2.27368">
        <ele>26.60000038147</ele>
        <time>2021-04-29T08:50:17.000Z</time>
      </trkpt>
      <trkpt lat="47.26909" lon="-2.27363">
        <ele>26</ele>
        <time>2021-04-29T08:50:18.000Z</time>
      </trkpt>
      <trkpt lat="47.26911" lon="-2.2736">
        <ele>25.39999961853</ele>
        <time>2021-04-29T08:50:19.000Z</time>
      </trkpt>
      <trkpt lat="47.26913" lon="-2.27357">
        <ele>25</ele>
        <time>2021-04-29T08:50:20.000Z</time>
      </trkpt>
      <trkpt lat="47.26915" lon="-2.27352">
        <ele>25</ele>
        <time>2021-04-29T08:50:21.000Z</time>
      </trkpt>
      <trkpt lat="47.26921" lon="-2.27337">
        <ele>25</ele>
        <time>2021-04-29T08:50:25.000Z</time>
      </trkpt>
      <trkpt lat="47.26923" lon="-2.27323">
        <ele>25</ele>
        <time>2021-04-29T08:50:30.000Z</time>
      </trkpt>
      <trkpt lat="47.26924" lon="-2.27306">
        <ele>25</ele>
        <time>2021-04-29T08:50:36.000Z</time>
      </trkpt>
      <trkpt lat="47.26922" lon="-2.27297">
        <ele>25</ele>
        <time>2021-04-29T08:50:40.000Z</time>
      </trkpt>
      <trkpt lat="47.26921" lon="-2.27291">
        <ele>25</ele>
        <time>2021-04-29T08:50:42.000Z</time>
      </trkpt>
      <trkpt lat="47.26923" lon="-2.27281">
        <ele>25</ele>
        <time>2021-04-29T08:50:46.000Z</time>
      </trkpt>
      <trkpt lat="47.26926" lon="-2.27278">
        <ele>25</ele>
        <time>2021-04-29T08:50:48.000Z</time>
      </trkpt>
      <trkpt lat="47.26934" lon="-2.27277">
        <ele>25</ele>
        <time>2021-04-29T08:50:50.000Z</time>
      </trkpt>
      <trkpt lat="47.26945" lon="-2.27267">
        <ele>25</ele>
        <time>2021-04-29T08:50:53.000Z</time>
      </trkpt>
      <trkpt lat="47.26955" lon="-2.27255">
        <ele>25</ele>
        <time>2021-04-29T08:50:56.000Z</time>
      </trkpt>
      <trkpt lat="47.26957" lon="-2.27251">
        <ele>25</ele>
        <time>2021-04-29T08:50:57.000Z</time>
      </trkpt>
      <trkpt lat="47.26963" lon="-2.2723">
        <ele>25</ele>
        <time>2021-04-29T08:51:02.000Z</time>
      </trkpt>
      <trkpt lat="47.26963" lon="-2.2722">
        <ele>25</ele>
        <time>2021-04-29T08:51:06.000Z</time>
      </trkpt>
      <trkpt lat="47.26964" lon="-2.27218">
        <ele>25</ele>
        <time>2021-04-29T08:51:07.000Z</time>
      </trkpt>
      <trkpt lat="47.26971" lon="-2.27213">
        <ele>25</ele>
        <time>2021-04-29T08:51:11.000Z</time>
      </trkpt>
      <trkpt lat="47.26974" lon="-2.27211">
        <ele>25</ele>
        <time>2021-04-29T08:51:13.000Z</time>
      </trkpt>
      <trkpt lat="47.26982" lon="-2.2721">
        <ele>25</ele>
        <time>2021-04-29T08:51:16.000Z</time>
      </trkpt>
      <trkpt lat="47.26987" lon="-2.27201">
        <ele>25</ele>
        <time>2021-04-29T08:51:20.000Z</time>
      </trkpt>
      <trkpt lat="47.26988" lon="-2.27198">
        <ele>25</ele>
        <time>2021-04-29T08:51:21.000Z</time>
      </trkpt>
      <trkpt lat="47.26991" lon="-2.27195">
        <ele>25</ele>
        <time>2021-04-29T08:51:23.000Z</time>
      </trkpt>
      <trkpt lat="47.26996" lon="-2.2719">
        <ele>25</ele>
        <time>2021-04-29T08:51:26.000Z</time>
      </trkpt>
      <trkpt lat="47.26997" lon="-2.27186">
        <ele>25</ele>
        <time>2021-04-29T08:51:28.000Z</time>
      </trkpt>
      <trkpt lat="47.26998" lon="-2.27185">
        <ele>25</ele>
        <time>2021-04-29T08:51:30.000Z</time>
      </trkpt>
      <trkpt lat="47.26999" lon="-2.27182">
        <ele>24.200000762939</ele>
        <time>2021-04-29T08:51:32.000Z</time>
      </trkpt>
      <trkpt lat="47.27" lon="-2.2718">
        <ele>23.799999237061</ele>
        <time>2021-04-29T08:51:33.000Z</time>
      </trkpt>
      <trkpt lat="47.27002" lon="-2.27178">
        <ele>23.39999961853</ele>
        <time>2021-04-29T08:51:34.000Z</time>
      </trkpt>
      <trkpt lat="47.27003" lon="-2.27177">
        <ele>23</ele>
        <time>2021-04-29T08:51:35.000Z</time>
      </trkpt>
      <trkpt lat="47.27006" lon="-2.27171">
        <ele>23</ele>
        <time>2021-04-29T08:51:37.000Z</time>
      </trkpt>
      <trkpt lat="47.27014" lon="-2.2716">
        <ele>23</ele>
        <time>2021-04-29T08:51:39.000Z</time>
      </trkpt>
      <trkpt lat="47.27013" lon="-2.27153">
        <ele>23</ele>
        <time>2021-04-29T08:51:41.000Z</time>
      </trkpt>
      <trkpt lat="47.27011" lon="-2.27146">
        <ele>23</ele>
        <time>2021-04-29T08:51:43.000Z</time>
      </trkpt>
      <trkpt lat="47.27003" lon="-2.27131">
        <ele>23</ele>
        <time>2021-04-29T08:51:47.000Z</time>
      </trkpt>
      <trkpt lat="47.26997" lon="-2.27121">
        <ele>23.39999961853</ele>
        <time>2021-04-29T08:51:49.000Z</time>
      </trkpt>
      <trkpt lat="47.26994" lon="-2.27116">
        <ele>23.799999237061</ele>
        <time>2021-04-29T08:51:50.000Z</time>
      </trkpt>
      <trkpt lat="47.26991" lon="-2.27111">
        <ele>24.200000762939</ele>
        <time>2021-04-29T08:51:51.000Z</time>
      </trkpt>
      <trkpt lat="47.26988" lon="-2.27105">
        <ele>24.60000038147</ele>
        <time>2021-04-29T08:51:52.000Z</time>
      </trkpt>
      <trkpt lat="47.26987" lon="-2.27097">
        <ele>25</ele>
        <time>2021-04-29T08:51:53.000Z</time>
      </trkpt>
      <trkpt lat="47.26985" lon="-2.27082">
        <ele>25</ele>
        <time>2021-04-29T08:51:55.000Z</time>
      </trkpt>
      <trkpt lat="47.26979" lon="-2.27064">
        <ele>25</ele>
        <time>2021-04-29T08:51:58.000Z</time>
      </trkpt>
      <trkpt lat="47.26978" lon="-2.27057">
        <ele>25</ele>
        <time>2021-04-29T08:51:59.000Z</time>
      </trkpt>
      <trkpt lat="47.2696" lon="-2.27018">
        <ele>25</ele>
        <time>2021-04-29T08:52:05.000Z</time>
      </trkpt>
      <trkpt lat="47.26954" lon="-2.27004">
        <ele>25</ele>
        <time>2021-04-29T08:52:07.000Z</time>
      </trkpt>
      <trkpt lat="47.26948" lon="-2.26989">
        <ele>25</ele>
        <time>2021-04-29T08:52:09.000Z</time>
      </trkpt>
      <trkpt lat="47.26949" lon="-2.26968">
        <ele>24.60000038147</ele>
        <time>2021-04-29T08:52:12.000Z</time>
      </trkpt>
      <trkpt lat="47.26951" lon="-2.26961">
        <ele>24</ele>
        <time>2021-04-29T08:52:13.000Z</time>
      </trkpt>
      <trkpt lat="47.26954" lon="-2.26955">
        <ele>23.60000038147</ele>
        <time>2021-04-29T08:52:14.000Z</time>
      </trkpt>
      <trkpt lat="47.26956" lon="-2.26948">
        <ele>23.200000762939</ele>
        <time>2021-04-29T08:52:15.000Z</time>
      </trkpt>
      <trkpt lat="47.26959" lon="-2.26941">
        <ele>22.799999237061</ele>
        <time>2021-04-29T08:52:16.000Z</time>
      </trkpt>
      <trkpt lat="47.26965" lon="-2.2692">
        <ele>22.799999237061</ele>
        <time>2021-04-29T08:52:19.000Z</time>
      </trkpt>
      <trkpt lat="47.26966" lon="-2.26886">
        <ele>22.799999237061</ele>
        <time>2021-04-29T08:52:25.000Z</time>
      </trkpt>
      <trkpt lat="47.26959" lon="-2.26848">
        <ele>22.799999237061</ele>
        <time>2021-04-29T08:52:31.000Z</time>
      </trkpt>
      <trkpt lat="47.26958" lon="-2.26841">
        <ele>22.799999237061</ele>
        <time>2021-04-29T08:52:32.000Z</time>
      </trkpt>
      <trkpt lat="47.26962" lon="-2.26823">
        <ele>22.799999237061</ele>
        <time>2021-04-29T08:52:35.000Z</time>
      </trkpt>
      <trkpt lat="47.26965" lon="-2.26819">
        <ele>22.799999237061</ele>
        <time>2021-04-29T08:52:36.000Z</time>
      </trkpt>
      <trkpt lat="47.2697" lon="-2.26812">
        <ele>22.39999961853</ele>
        <time>2021-04-29T08:52:38.000Z</time>
      </trkpt>
      <trkpt lat="47.26972" lon="-2.26809">
        <ele>22</ele>
        <time>2021-04-29T08:52:39.000Z</time>
      </trkpt>
      <trkpt lat="47.26974" lon="-2.26808">
        <ele>21.60000038147</ele>
        <time>2021-04-29T08:52:40.000Z</time>
      </trkpt>
      <trkpt lat="47.26976" lon="-2.26807">
        <ele>21.200000762939</ele>
        <time>2021-04-29T08:52:41.000Z</time>
      </trkpt>
      <trkpt lat="47.26978" lon="-2.26806">
        <ele>20.60000038147</ele>
        <time>2021-04-29T08:52:42.000Z</time>
      </trkpt>
      <trkpt lat="47.26984" lon="-2.268">
        <ele>20.60000038147</ele>
        <time>2021-04-29T08:52:46.000Z</time>
      </trkpt>
      <trkpt lat="47.26994" lon="-2.26793">
        <ele>20.60000038147</ele>
        <time>2021-04-29T08:52:52.000Z</time>
      </trkpt>
      <trkpt lat="47.27006" lon="-2.26779">
        <ele>20.60000038147</ele>
        <time>2021-04-29T08:52:56.000Z</time>
      </trkpt>
      <trkpt lat="47.27018" lon="-2.26767">
        <ele>20.60000038147</ele>
        <time>2021-04-29T08:53:01.000Z</time>
      </trkpt>
      <trkpt lat="47.27028" lon="-2.26755">
        <ele>20.60000038147</ele>
        <time>2021-04-29T08:53:06.000Z</time>
      </trkpt>
      <trkpt lat="47.27034" lon="-2.26733">
        <ele>20.60000038147</ele>
        <time>2021-04-29T08:53:11.000Z</time>
      </trkpt>
      <trkpt lat="47.27037" lon="-2.26703">
        <ele>20.60000038147</ele>
        <time>2021-04-29T08:53:16.000Z</time>
      </trkpt>
      <trkpt lat="47.27035" lon="-2.26684">
        <ele>20.60000038147</ele>
        <time>2021-04-29T08:53:19.000Z</time>
      </trkpt>
      <trkpt lat="47.27035" lon="-2.26673">
        <ele>20.60000038147</ele>
        <time>2021-04-29T08:53:21.000Z</time>
      </trkpt>
      <trkpt lat="47.27035" lon="-2.26637">
        <ele>20.60000038147</ele>
        <time>2021-04-29T08:53:27.000Z</time>
      </trkpt>
      <trkpt lat="47.27025" lon="-2.26618">
        <ele>20.60000038147</ele>
        <time>2021-04-29T08:53:31.000Z</time>
      </trkpt>
      <trkpt lat="47.27015" lon="-2.26607">
        <ele>21</ele>
        <time>2021-04-29T08:53:34.000Z</time>
      </trkpt>
      <trkpt lat="47.27008" lon="-2.26601">
        <ele>21.60000038147</ele>
        <time>2021-04-29T08:53:35.000Z</time>
      </trkpt>
      <trkpt lat="47.27003" lon="-2.26595">
        <ele>22</ele>
        <time>2021-04-29T08:53:36.000Z</time>
      </trkpt>
      <trkpt lat="47.26998" lon="-2.2659">
        <ele>22.39999961853</ele>
        <time>2021-04-29T08:53:37.000Z</time>
      </trkpt>
      <trkpt lat="47.26993" lon="-2.26584">
        <ele>22.799999237061</ele>
        <time>2021-04-29T08:53:38.000Z</time>
      </trkpt>
      <trkpt lat="47.26985" lon="-2.26573">
        <ele>22.799999237061</ele>
        <time>2021-04-29T08:53:40.000Z</time>
      </trkpt>
      <trkpt lat="47.26981" lon="-2.26567">
        <ele>22.799999237061</ele>
        <time>2021-04-29T08:53:41.000Z</time>
      </trkpt>
      <trkpt lat="47.26977" lon="-2.2656">
        <ele>22.799999237061</ele>
        <time>2021-04-29T08:53:42.000Z</time>
      </trkpt>
      <trkpt lat="47.26964" lon="-2.26532">
        <ele>22.799999237061</ele>
        <time>2021-04-29T08:53:47.000Z</time>
      </trkpt>
      <trkpt lat="47.26962" lon="-2.26528">
        <ele>23.200000762939</ele>
        <time>2021-04-29T08:53:48.000Z</time>
      </trkpt>
      <trkpt lat="47.26962" lon="-2.26522">
        <ele>24</ele>
        <time>2021-04-29T08:53:49.000Z</time>
      </trkpt>
      <trkpt lat="47.26962" lon="-2.26518">
        <ele>24.39999961853</ele>
        <time>2021-04-29T08:53:50.000Z</time>
      </trkpt>
      <trkpt lat="47.26963" lon="-2.26514">
        <ele>24.799999237061</ele>
        <time>2021-04-29T08:53:51.000Z</time>
      </trkpt>
      <trkpt lat="47.26973" lon="-2.26494">
        <ele>24.799999237061</ele>
        <time>2021-04-29T08:53:56.000Z</time>
      </trkpt>
      <trkpt lat="47.26977" lon="-2.26479">
        <ele>24.799999237061</ele>
        <time>2021-04-29T08:54:00.000Z</time>
      </trkpt>
      <trkpt lat="47.2698" lon="-2.26477">
        <ele>24.799999237061</ele>
        <time>2021-04-29T08:54:03.000Z</time>
      </trkpt>
      <trkpt lat="47.2698" lon="-2.26478">
        <ele>24.799999237061</ele>
        <time>2021-04-29T08:55:28.000Z</time>
      </trkpt>
      <trkpt lat="47.26982" lon="-2.26478">
        <ele>24.799999237061</ele>
        <time>2021-04-29T08:55:29.000Z</time>
      </trkpt>
      <trkpt lat="47.2699" lon="-2.2647">
        <ele>24.799999237061</ele>
        <time>2021-04-29T08:55:32.000Z</time>
      </trkpt>
      <trkpt lat="47.26994" lon="-2.26465">
        <ele>24.799999237061</ele>
        <time>2021-04-29T08:55:33.000Z</time>
      </trkpt>
      <trkpt lat="47.26997" lon="-2.2646">
        <ele>25.200000762939</ele>
        <time>2021-04-29T08:55:34.000Z</time>
      </trkpt>
      <trkpt lat="47.27" lon="-2.26455">
        <ele>25.60000038147</ele>
        <time>2021-04-29T08:55:35.000Z</time>
      </trkpt>
      <trkpt lat="47.27004" lon="-2.2645">
        <ele>26</ele>
        <time>2021-04-29T08:55:36.000Z</time>
      </trkpt>
      <trkpt lat="47.27007" lon="-2.26445">
        <ele>26.39999961853</ele>
        <time>2021-04-29T08:55:37.000Z</time>
      </trkpt>
      <trkpt lat="47.27011" lon="-2.2644">
        <ele>26.799999237061</ele>
        <time>2021-04-29T08:55:38.000Z</time>
      </trkpt>
      <trkpt lat="47.27033" lon="-2.26408">
        <ele>26.799999237061</ele>
        <time>2021-04-29T08:55:44.000Z</time>
      </trkpt>
      <trkpt lat="47.27063" lon="-2.26367">
        <ele>26.799999237061</ele>
        <time>2021-04-29T08:55:51.000Z</time>
      </trkpt>
      <trkpt lat="47.27087" lon="-2.26331">
        <ele>26.799999237061</ele>
        <time>2021-04-29T08:55:56.000Z</time>
      </trkpt>
      <trkpt lat="47.27125" lon="-2.26277">
        <ele>26.799999237061</ele>
        <time>2021-04-29T08:56:04.000Z</time>
      </trkpt>
      <trkpt lat="47.27164" lon="-2.26227">
        <ele>26.799999237061</ele>
        <time>2021-04-29T08:56:11.000Z</time>
      </trkpt>
      <trkpt lat="47.27206" lon="-2.26187">
        <ele>26.799999237061</ele>
        <time>2021-04-29T08:56:18.000Z</time>
      </trkpt>
      <trkpt lat="47.27213" lon="-2.26182">
        <ele>26.39999961853</ele>
        <time>2021-04-29T08:56:19.000Z</time>
      </trkpt>
      <trkpt lat="47.2722" lon="-2.26177">
        <ele>26</ele>
        <time>2021-04-29T08:56:20.000Z</time>
      </trkpt>
      <trkpt lat="47.27226" lon="-2.26173">
        <ele>25.60000038147</ele>
        <time>2021-04-29T08:56:21.000Z</time>
      </trkpt>
      <trkpt lat="47.27233" lon="-2.26169">
        <ele>25.200000762939</ele>
        <time>2021-04-29T08:56:22.000Z</time>
      </trkpt>
      <trkpt lat="47.27239" lon="-2.26165">
        <ele>24.60000038147</ele>
        <time>2021-04-29T08:56:23.000Z</time>
      </trkpt>
      <trkpt lat="47.27246" lon="-2.26162">
        <ele>24.60000038147</ele>
        <time>2021-04-29T08:56:24.000Z</time>
      </trkpt>
      <trkpt lat="47.27296" lon="-2.26139">
        <ele>24.60000038147</ele>
        <time>2021-04-29T08:56:32.000Z</time>
      </trkpt>
      <trkpt lat="47.27332" lon="-2.2613">
        <ele>24.60000038147</ele>
        <time>2021-04-29T08:56:38.000Z</time>
      </trkpt>
      <trkpt lat="47.27337" lon="-2.26127">
        <ele>24.60000038147</ele>
        <time>2021-04-29T08:56:39.000Z</time>
      </trkpt>
      <trkpt lat="47.27344" lon="-2.26116">
        <ele>24.60000038147</ele>
        <time>2021-04-29T08:56:41.000Z</time>
      </trkpt>
      <trkpt lat="47.27344" lon="-2.26103">
        <ele>24.200000762939</ele>
        <time>2021-04-29T08:56:43.000Z</time>
      </trkpt>
      <trkpt lat="47.27343" lon="-2.26095">
        <ele>23.799999237061</ele>
        <time>2021-04-29T08:56:44.000Z</time>
      </trkpt>
      <trkpt lat="47.27342" lon="-2.26087">
        <ele>23.39999961853</ele>
        <time>2021-04-29T08:56:45.000Z</time>
      </trkpt>
      <trkpt lat="47.27339" lon="-2.26079">
        <ele>23</ele>
        <time>2021-04-29T08:56:46.000Z</time>
      </trkpt>
      <trkpt lat="47.27336" lon="-2.26071">
        <ele>22.60000038147</ele>
        <time>2021-04-29T08:56:47.000Z</time>
      </trkpt>
      <trkpt lat="47.27331" lon="-2.26063">
        <ele>22.60000038147</ele>
        <time>2021-04-29T08:56:48.000Z</time>
      </trkpt>
      <trkpt lat="47.27326" lon="-2.26054">
        <ele>22.60000038147</ele>
        <time>2021-04-29T08:56:49.000Z</time>
      </trkpt>
      <trkpt lat="47.27297" lon="-2.26005">
        <ele>22.60000038147</ele>
        <time>2021-04-29T08:56:56.000Z</time>
      </trkpt>
      <trkpt lat="47.27295" lon="-2.25999">
        <ele>22.60000038147</ele>
        <time>2021-04-29T08:56:57.000Z</time>
      </trkpt>
      <trkpt lat="47.27295" lon="-2.2599">
        <ele>22.60000038147</ele>
        <time>2021-04-29T08:56:59.000Z</time>
      </trkpt>
      <trkpt lat="47.27298" lon="-2.25983">
        <ele>22.60000038147</ele>
        <time>2021-04-29T08:57:01.000Z</time>
      </trkpt>
      <trkpt lat="47.273" lon="-2.2598">
        <ele>22.60000038147</ele>
        <time>2021-04-29T08:57:02.000Z</time>
      </trkpt>
      <trkpt lat="47.27303" lon="-2.25977">
        <ele>22.60000038147</ele>
        <time>2021-04-29T08:57:03.000Z</time>
      </trkpt>
      <trkpt lat="47.2731" lon="-2.25972">
        <ele>22.60000038147</ele>
        <time>2021-04-29T08:57:05.000Z</time>
      </trkpt>
      <trkpt lat="47.2732" lon="-2.25967">
        <ele>22.60000038147</ele>
        <time>2021-04-29T08:57:07.000Z</time>
      </trkpt>
      <trkpt lat="47.27352" lon="-2.25952">
        <ele>22.60000038147</ele>
        <time>2021-04-29T08:57:13.000Z</time>
      </trkpt>
      <trkpt lat="47.27371" lon="-2.25929">
        <ele>22.60000038147</ele>
        <time>2021-04-29T08:57:17.000Z</time>
      </trkpt>
      <trkpt lat="47.27382" lon="-2.25917">
        <ele>22.60000038147</ele>
        <time>2021-04-29T08:57:19.000Z</time>
      </trkpt>
      <trkpt lat="47.27404" lon="-2.25891">
        <ele>22.60000038147</ele>
        <time>2021-04-29T08:57:23.000Z</time>
      </trkpt>
      <trkpt lat="47.27408" lon="-2.25883">
        <ele>22.60000038147</ele>
        <time>2021-04-29T08:57:24.000Z</time>
      </trkpt>
      <trkpt lat="47.27433" lon="-2.25837">
        <ele>22.60000038147</ele>
        <time>2021-04-29T08:57:30.000Z</time>
      </trkpt>
      <trkpt lat="47.27437" lon="-2.25831">
        <ele>22.60000038147</ele>
        <time>2021-04-29T08:57:31.000Z</time>
      </trkpt>
      <trkpt lat="47.27448" lon="-2.25809">
        <ele>22.60000038147</ele>
        <time>2021-04-29T08:57:34.000Z</time>
      </trkpt>
      <trkpt lat="47.27466" lon="-2.25795">
        <ele>22.60000038147</ele>
        <time>2021-04-29T08:57:38.000Z</time>
      </trkpt>
      <trkpt lat="47.27474" lon="-2.25787">
        <ele>22.60000038147</ele>
        <time>2021-04-29T08:57:40.000Z</time>
      </trkpt>
      <trkpt lat="47.27492" lon="-2.25769">
        <ele>22.60000038147</ele>
        <time>2021-04-29T08:57:44.000Z</time>
      </trkpt>
      <trkpt lat="47.27519" lon="-2.25731">
        <ele>22.60000038147</ele>
        <time>2021-04-29T08:57:51.000Z</time>
      </trkpt>
      <trkpt lat="47.2753" lon="-2.25711">
        <ele>22.200000762939</ele>
        <time>2021-04-29T08:57:54.000Z</time>
      </trkpt>
      <trkpt lat="47.27534" lon="-2.25704">
        <ele>21.799999237061</ele>
        <time>2021-04-29T08:57:55.000Z</time>
      </trkpt>
      <trkpt lat="47.27538" lon="-2.25697">
        <ele>21.39999961853</ele>
        <time>2021-04-29T08:57:56.000Z</time>
      </trkpt>
      <trkpt lat="47.27542" lon="-2.2569">
        <ele>21</ele>
        <time>2021-04-29T08:57:57.000Z</time>
      </trkpt>
      <trkpt lat="47.27547" lon="-2.25682">
        <ele>20.60000038147</ele>
        <time>2021-04-29T08:57:58.000Z</time>
      </trkpt>
      <trkpt lat="47.27559" lon="-2.25664">
        <ele>20.60000038147</ele>
        <time>2021-04-29T08:58:01.000Z</time>
      </trkpt>
      <trkpt lat="47.27562" lon="-2.25659">
        <ele>20.200000762939</ele>
        <time>2021-04-29T08:58:02.000Z</time>
      </trkpt>
      <trkpt lat="47.27566" lon="-2.25655">
        <ele>19.799999237061</ele>
        <time>2021-04-29T08:58:03.000Z</time>
      </trkpt>
      <trkpt lat="47.27568" lon="-2.25653">
        <ele>19.39999961853</ele>
        <time>2021-04-29T08:58:04.000Z</time>
      </trkpt>
      <trkpt lat="47.2757" lon="-2.25652">
        <ele>19</ele>
        <time>2021-04-29T08:58:05.000Z</time>
      </trkpt>
      <trkpt lat="47.27571" lon="-2.25651">
        <ele>18.60000038147</ele>
        <time>2021-04-29T08:58:06.000Z</time>
      </trkpt>
      <trkpt lat="47.27572" lon="-2.25651">
        <ele>18.60000038147</ele>
        <time>2021-04-29T08:58:07.000Z</time>
      </trkpt>
      <trkpt lat="47.27572" lon="-2.25651">
        <ele>18.60000038147</ele>
        <time>2021-04-29T08:58:08.000Z</time>
      </trkpt>
      <trkpt lat="47.27572" lon="-2.25647">
        <ele>18.60000038147</ele>
        <time>2021-04-29T08:58:22.000Z</time>
      </trkpt>
      <trkpt lat="47.27572" lon="-2.25644">
        <ele>18.60000038147</ele>
        <time>2021-04-29T08:58:23.000Z</time>
      </trkpt>
      <trkpt lat="47.27579" lon="-2.25626">
        <ele>18.60000038147</ele>
        <time>2021-04-29T08:58:28.000Z</time>
      </trkpt>
      <trkpt lat="47.27588" lon="-2.25631">
        <ele>18.60000038147</ele>
        <time>2021-04-29T08:58:32.000Z</time>
      </trkpt>
      <trkpt lat="47.27605" lon="-2.25638">
        <ele>18.60000038147</ele>
        <time>2021-04-29T08:58:37.000Z</time>
      </trkpt>
      <trkpt lat="47.27618" lon="-2.25651">
        <ele>18.60000038147</ele>
        <time>2021-04-29T08:58:42.000Z</time>
      </trkpt>
      <trkpt lat="47.27618" lon="-2.25654">
        <ele>18.60000038147</ele>
        <time>2021-04-29T08:58:45.000Z</time>
      </trkpt>
      <trkpt lat="47.27617" lon="-2.25654">
        <ele>18.60000038147</ele>
        <time>2021-04-29T08:58:46.000Z</time>
      </trkpt>
      <trkpt lat="47.27609" lon="-2.25655">
        <ele>18.60000038147</ele>
        <time>2021-04-29T08:58:50.000Z</time>
      </trkpt>
      <trkpt lat="47.27598" lon="-2.25656">
        <ele>18.60000038147</ele>
        <time>2021-04-29T08:58:54.000Z</time>
      </trkpt>
      <trkpt lat="47.2759" lon="-2.25664">
        <ele>18.60000038147</ele>
        <time>2021-04-29T08:58:57.000Z</time>
      </trkpt>
      <trkpt lat="47.2759" lon="-2.25668">
        <ele>18.60000038147</ele>
        <time>2021-04-29T08:58:58.000Z</time>
      </trkpt>
      <trkpt lat="47.27593" lon="-2.25677">
        <ele>18.60000038147</ele>
        <time>2021-04-29T08:59:01.000Z</time>
      </trkpt>
      <trkpt lat="47.27601" lon="-2.25694">
        <ele>18.60000038147</ele>
        <time>2021-04-29T08:59:05.000Z</time>
      </trkpt>
      <trkpt lat="47.27608" lon="-2.25713">
        <ele>18.60000038147</ele>
        <time>2021-04-29T08:59:09.000Z</time>
      </trkpt>
      <trkpt lat="47.27611" lon="-2.25725">
        <ele>18.60000038147</ele>
        <time>2021-04-29T08:59:12.000Z</time>
      </trkpt>
      <trkpt lat="47.27612" lon="-2.25735">
        <ele>18.60000038147</ele>
        <time>2021-04-29T08:59:14.000Z</time>
      </trkpt>
      <trkpt lat="47.27611" lon="-2.25746">
        <ele>18.60000038147</ele>
        <time>2021-04-29T08:59:16.000Z</time>
      </trkpt>
      <trkpt lat="47.27608" lon="-2.25775">
        <ele>18.60000038147</ele>
        <time>2021-04-29T08:59:21.000Z</time>
      </trkpt>
      <trkpt lat="47.27602" lon="-2.258">
        <ele>18.60000038147</ele>
        <time>2021-04-29T08:59:26.000Z</time>
      </trkpt>
      <trkpt lat="47.27605" lon="-2.25807">
        <ele>18.60000038147</ele>
        <time>2021-04-29T08:59:28.000Z</time>
      </trkpt>
      <trkpt lat="47.27607" lon="-2.25812">
        <ele>18.60000038147</ele>
        <time>2021-04-29T08:59:29.000Z</time>
      </trkpt>
      <trkpt lat="47.27617" lon="-2.25833">
        <ele>18.60000038147</ele>
        <time>2021-04-29T08:59:33.000Z</time>
      </trkpt>
      <trkpt lat="47.27621" lon="-2.25838">
        <ele>18.60000038147</ele>
        <time>2021-04-29T08:59:34.000Z</time>
      </trkpt>
      <trkpt lat="47.27625" lon="-2.25843">
        <ele>18.60000038147</ele>
        <time>2021-04-29T08:59:35.000Z</time>
      </trkpt>
      <trkpt lat="47.27634" lon="-2.25852">
        <ele>18.60000038147</ele>
        <time>2021-04-29T08:59:38.000Z</time>
      </trkpt>
      <trkpt lat="47.27639" lon="-2.25854">
        <ele>18.60000038147</ele>
        <time>2021-04-29T08:59:39.000Z</time>
      </trkpt>
      <trkpt lat="47.27646" lon="-2.25853">
        <ele>18.60000038147</ele>
        <time>2021-04-29T08:59:41.000Z</time>
      </trkpt>
      <trkpt lat="47.27653" lon="-2.25847">
        <ele>18.60000038147</ele>
        <time>2021-04-29T08:59:43.000Z</time>
      </trkpt>
      <trkpt lat="47.27657" lon="-2.25844">
        <ele>18.60000038147</ele>
        <time>2021-04-29T08:59:44.000Z</time>
      </trkpt>
      <trkpt lat="47.27666" lon="-2.25828">
        <ele>18.60000038147</ele>
        <time>2021-04-29T08:59:47.000Z</time>
      </trkpt>
      <trkpt lat="47.27664" lon="-2.25807">
        <ele>18.60000038147</ele>
        <time>2021-04-29T08:59:50.000Z</time>
      </trkpt>
      <trkpt lat="47.27658" lon="-2.25795">
        <ele>18.60000038147</ele>
        <time>2021-04-29T08:59:52.000Z</time>
      </trkpt>
      <trkpt lat="47.27655" lon="-2.25783">
        <ele>18.60000038147</ele>
        <time>2021-04-29T08:59:54.000Z</time>
      </trkpt>
      <trkpt lat="47.27655" lon="-2.25777">
        <ele>18.60000038147</ele>
        <time>2021-04-29T08:59:55.000Z</time>
      </trkpt>
      <trkpt lat="47.27651" lon="-2.25742">
        <ele>18.60000038147</ele>
        <time>2021-04-29T09:00:00.000Z</time>
      </trkpt>
      <trkpt lat="47.27649" lon="-2.25719">
        <ele>18.60000038147</ele>
        <time>2021-04-29T09:00:04.000Z</time>
      </trkpt>
      <trkpt lat="47.27646" lon="-2.25707">
        <ele>18.60000038147</ele>
        <time>2021-04-29T09:00:06.000Z</time>
      </trkpt>
      <trkpt lat="47.27643" lon="-2.25692">
        <ele>18.60000038147</ele>
        <time>2021-04-29T09:00:09.000Z</time>
      </trkpt>
      <trkpt lat="47.27637" lon="-2.25666">
        <ele>18.60000038147</ele>
        <time>2021-04-29T09:00:14.000Z</time>
      </trkpt>
      <trkpt lat="47.27634" lon="-2.25659">
        <ele>18.60000038147</ele>
        <time>2021-04-29T09:00:16.000Z</time>
      </trkpt>
      <trkpt lat="47.2763" lon="-2.25657">
        <ele>18.60000038147</ele>
        <time>2021-04-29T09:00:18.000Z</time>
      </trkpt>
      <trkpt lat="47.2763" lon="-2.25657">
        <ele>18.60000038147</ele>
        <time>2021-04-29T09:00:21.000Z</time>
      </trkpt>
      <trkpt lat="47.27628" lon="-2.25652">
        <ele>18.60000038147</ele>
        <time>2021-04-29T09:01:30.000Z</time>
      </trkpt>
      <trkpt lat="47.27625" lon="-2.25641">
        <ele>18.60000038147</ele>
        <time>2021-04-29T09:01:34.000Z</time>
      </trkpt>
      <trkpt lat="47.27621" lon="-2.25636">
        <ele>18.60000038147</ele>
        <time>2021-04-29T09:01:36.000Z</time>
      </trkpt>
      <trkpt lat="47.27614" lon="-2.25629">
        <ele>18.60000038147</ele>
        <time>2021-04-29T09:01:38.000Z</time>
      </trkpt>
      <trkpt lat="47.27604" lon="-2.25618">
        <ele>18.60000038147</ele>
        <time>2021-04-29T09:01:41.000Z</time>
      </trkpt>
      <trkpt lat="47.27585" lon="-2.2561">
        <ele>18.60000038147</ele>
        <time>2021-04-29T09:01:46.000Z</time>
      </trkpt>
      <trkpt lat="47.2757" lon="-2.25605">
        <ele>18.60000038147</ele>
        <time>2021-04-29T09:01:52.000Z</time>
      </trkpt>
      <trkpt lat="47.27565" lon="-2.25584">
        <ele>18.60000038147</ele>
        <time>2021-04-29T09:01:56.000Z</time>
      </trkpt>
      <trkpt lat="47.27554" lon="-2.25531">
        <ele>18.60000038147</ele>
        <time>2021-04-29T09:02:03.000Z</time>
      </trkpt>
      <trkpt lat="47.27542" lon="-2.25502">
        <ele>18.60000038147</ele>
        <time>2021-04-29T09:02:07.000Z</time>
      </trkpt>
      <trkpt lat="47.27538" lon="-2.25496">
        <ele>18.60000038147</ele>
        <time>2021-04-29T09:02:08.000Z</time>
      </trkpt>
      <trkpt lat="47.27519" lon="-2.25473">
        <ele>18.60000038147</ele>
        <time>2021-04-29T09:02:12.000Z</time>
      </trkpt>
      <trkpt lat="47.27508" lon="-2.25462">
        <ele>18.60000038147</ele>
        <time>2021-04-29T09:02:14.000Z</time>
      </trkpt>
      <trkpt lat="47.27497" lon="-2.25456">
        <ele>18.60000038147</ele>
        <time>2021-04-29T09:02:16.000Z</time>
      </trkpt>
      <trkpt lat="47.27487" lon="-2.25455">
        <ele>18.60000038147</ele>
        <time>2021-04-29T09:02:18.000Z</time>
      </trkpt>
      <trkpt lat="47.27464" lon="-2.25454">
        <ele>18.60000038147</ele>
        <time>2021-04-29T09:02:22.000Z</time>
      </trkpt>
      <trkpt lat="47.27453" lon="-2.2545">
        <ele>18.60000038147</ele>
        <time>2021-04-29T09:02:24.000Z</time>
      </trkpt>
      <trkpt lat="47.27448" lon="-2.25446">
        <ele>18.60000038147</ele>
        <time>2021-04-29T09:02:25.000Z</time>
      </trkpt>
      <trkpt lat="47.27434" lon="-2.25433">
        <ele>18.60000038147</ele>
        <time>2021-04-29T09:02:28.000Z</time>
      </trkpt>
      <trkpt lat="47.2743" lon="-2.25428">
        <ele>18.60000038147</ele>
        <time>2021-04-29T09:02:29.000Z</time>
      </trkpt>
      <trkpt lat="47.27418" lon="-2.25413">
        <ele>18.60000038147</ele>
        <time>2021-04-29T09:02:32.000Z</time>
      </trkpt>
      <trkpt lat="47.27415" lon="-2.25409">
        <ele>18.60000038147</ele>
        <time>2021-04-29T09:02:33.000Z</time>
      </trkpt>
      <trkpt lat="47.27407" lon="-2.25392">
        <ele>18.60000038147</ele>
        <time>2021-04-29T09:02:37.000Z</time>
      </trkpt>
      <trkpt lat="47.27402" lon="-2.25379">
        <ele>18.60000038147</ele>
        <time>2021-04-29T09:02:41.000Z</time>
      </trkpt>
      <trkpt lat="47.27402" lon="-2.2537">
        <ele>18.60000038147</ele>
        <time>2021-04-29T09:02:43.000Z</time>
      </trkpt>
      <trkpt lat="47.27404" lon="-2.25356">
        <ele>18.60000038147</ele>
        <time>2021-04-29T09:02:45.000Z</time>
      </trkpt>
      <trkpt lat="47.27398" lon="-2.2533">
        <ele>18.60000038147</ele>
        <time>2021-04-29T09:02:49.000Z</time>
      </trkpt>
      <trkpt lat="47.27396" lon="-2.25325">
        <ele>18.60000038147</ele>
        <time>2021-04-29T09:02:50.000Z</time>
      </trkpt>
      <trkpt lat="47.27393" lon="-2.25304">
        <ele>18.60000038147</ele>
        <time>2021-04-29T09:02:54.000Z</time>
      </trkpt>
      <trkpt lat="47.27393" lon="-2.25273">
        <ele>18.60000038147</ele>
        <time>2021-04-29T09:02:59.000Z</time>
      </trkpt>
      <trkpt lat="47.27388" lon="-2.2523">
        <ele>18.60000038147</ele>
        <time>2021-04-29T09:03:05.000Z</time>
      </trkpt>
      <trkpt lat="47.2739" lon="-2.25207">
        <ele>18.60000038147</ele>
        <time>2021-04-29T09:03:09.000Z</time>
      </trkpt>
      <trkpt lat="47.27387" lon="-2.25195">
        <ele>18.60000038147</ele>
        <time>2021-04-29T09:03:11.000Z</time>
      </trkpt>
      <trkpt lat="47.27385" lon="-2.25182">
        <ele>18.60000038147</ele>
        <time>2021-04-29T09:03:13.000Z</time>
      </trkpt>
      <trkpt lat="47.2737" lon="-2.25135">
        <ele>18.60000038147</ele>
        <time>2021-04-29T09:03:19.000Z</time>
      </trkpt>
      <trkpt lat="47.27348" lon="-2.25084">
        <ele>18.60000038147</ele>
        <time>2021-04-29T09:03:27.000Z</time>
      </trkpt>
      <trkpt lat="47.27337" lon="-2.25065">
        <ele>18.60000038147</ele>
        <time>2021-04-29T09:03:32.000Z</time>
      </trkpt>
      <trkpt lat="47.27334" lon="-2.25057">
        <ele>18.60000038147</ele>
        <time>2021-04-29T09:03:37.000Z</time>
      </trkpt>
      <trkpt lat="47.27336" lon="-2.25038">
        <ele>18.60000038147</ele>
        <time>2021-04-29T09:17:52.000Z</time>
      </trkpt>
      <trkpt lat="47.27335" lon="-2.2503">
        <ele>18.60000038147</ele>
        <time>2021-04-29T09:17:55.000Z</time>
      </trkpt>
      <trkpt lat="47.27331" lon="-2.25011">
        <ele>18.60000038147</ele>
        <time>2021-04-29T09:18:01.000Z</time>
      </trkpt>
      <trkpt lat="47.27333" lon="-2.24986">
        <ele>18.60000038147</ele>
        <time>2021-04-29T09:18:07.000Z</time>
      </trkpt>
      <trkpt lat="47.27344" lon="-2.24963">
        <ele>18.60000038147</ele>
        <time>2021-04-29T09:18:12.000Z</time>
      </trkpt>
      <trkpt lat="47.27359" lon="-2.24942">
        <ele>18.60000038147</ele>
        <time>2021-04-29T09:18:17.000Z</time>
      </trkpt>
      <trkpt lat="47.27381" lon="-2.24912">
        <ele>18.60000038147</ele>
        <time>2021-04-29T09:18:24.000Z</time>
      </trkpt>
      <trkpt lat="47.27394" lon="-2.24895">
        <ele>18.60000038147</ele>
        <time>2021-04-29T09:18:29.000Z</time>
      </trkpt>
      <trkpt lat="47.27406" lon="-2.24883">
        <ele>18.60000038147</ele>
        <time>2021-04-29T09:18:33.000Z</time>
      </trkpt>
      <trkpt lat="47.27407" lon="-2.24879">
        <ele>18.60000038147</ele>
        <time>2021-04-29T09:18:34.000Z</time>
      </trkpt>
      <trkpt lat="47.27411" lon="-2.24861">
        <ele>18.60000038147</ele>
        <time>2021-04-29T09:18:40.000Z</time>
      </trkpt>
      <trkpt lat="47.27426" lon="-2.24817">
        <ele>18.60000038147</ele>
        <time>2021-04-29T09:18:47.000Z</time>
      </trkpt>
      <trkpt lat="47.2743" lon="-2.2481">
        <ele>18.60000038147</ele>
        <time>2021-04-29T09:18:48.000Z</time>
      </trkpt>
      <trkpt lat="47.2744" lon="-2.24793">
        <ele>18.60000038147</ele>
        <time>2021-04-29T09:18:51.000Z</time>
      </trkpt>
      <trkpt lat="47.27446" lon="-2.24786">
        <ele>18.60000038147</ele>
        <time>2021-04-29T09:18:53.000Z</time>
      </trkpt>
      <trkpt lat="47.27455" lon="-2.24782">
        <ele>19</ele>
        <time>2021-04-29T09:18:55.000Z</time>
      </trkpt>
      <trkpt lat="47.27459" lon="-2.2478">
        <ele>19.39999961853</ele>
        <time>2021-04-29T09:18:56.000Z</time>
      </trkpt>
      <trkpt lat="47.27463" lon="-2.2478">
        <ele>19.799999237061</ele>
        <time>2021-04-29T09:18:57.000Z</time>
      </trkpt>
      <trkpt lat="47.27467" lon="-2.2478">
        <ele>20.39999961853</ele>
        <time>2021-04-29T09:18:58.000Z</time>
      </trkpt>
      <trkpt lat="47.27471" lon="-2.24781">
        <ele>20.799999237061</ele>
        <time>2021-04-29T09:18:59.000Z</time>
      </trkpt>
      <trkpt lat="47.27478" lon="-2.24783">
        <ele>21.200000762939</ele>
        <time>2021-04-29T09:19:01.000Z</time>
      </trkpt>
      <trkpt lat="47.27482" lon="-2.24784">
        <ele>21.60000038147</ele>
        <time>2021-04-29T09:19:02.000Z</time>
      </trkpt>
      <trkpt lat="47.27485" lon="-2.24784">
        <ele>22.200000762939</ele>
        <time>2021-04-29T09:19:03.000Z</time>
      </trkpt>
      <trkpt lat="47.27488" lon="-2.24785">
        <ele>22.60000038147</ele>
        <time>2021-04-29T09:19:04.000Z</time>
      </trkpt>
      <trkpt lat="47.27492" lon="-2.24785">
        <ele>23</ele>
        <time>2021-04-29T09:19:05.000Z</time>
      </trkpt>
      <trkpt lat="47.27512" lon="-2.24787">
        <ele>23.39999961853</ele>
        <time>2021-04-29T09:19:11.000Z</time>
      </trkpt>
      <trkpt lat="47.27516" lon="-2.24787">
        <ele>23.799999237061</ele>
        <time>2021-04-29T09:19:12.000Z</time>
      </trkpt>
      <trkpt lat="47.2752" lon="-2.24786">
        <ele>24.60000038147</ele>
        <time>2021-04-29T09:19:13.000Z</time>
      </trkpt>
      <trkpt lat="47.27524" lon="-2.24786">
        <ele>25</ele>
        <time>2021-04-29T09:19:14.000Z</time>
      </trkpt>
      <trkpt lat="47.27533" lon="-2.24786">
        <ele>25</ele>
        <time>2021-04-29T09:19:16.000Z</time>
      </trkpt>
      <trkpt lat="47.27541" lon="-2.24785">
        <ele>25</ele>
        <time>2021-04-29T09:19:18.000Z</time>
      </trkpt>
      <trkpt lat="47.2756" lon="-2.24787">
        <ele>25</ele>
        <time>2021-04-29T09:19:23.000Z</time>
      </trkpt>
      <trkpt lat="47.27586" lon="-2.24789">
        <ele>25</ele>
        <time>2021-04-29T09:19:29.000Z</time>
      </trkpt>
      <trkpt lat="47.27608" lon="-2.24791">
        <ele>25.39999961853</ele>
        <time>2021-04-29T09:19:34.000Z</time>
      </trkpt>
      <trkpt lat="47.27612" lon="-2.24791">
        <ele>25.799999237061</ele>
        <time>2021-04-29T09:19:35.000Z</time>
      </trkpt>
      <trkpt lat="47.27617" lon="-2.2479">
        <ele>26.200000762939</ele>
        <time>2021-04-29T09:19:36.000Z</time>
      </trkpt>
      <trkpt lat="47.27623" lon="-2.2479">
        <ele>26.60000038147</ele>
        <time>2021-04-29T09:19:37.000Z</time>
      </trkpt>
      <trkpt lat="47.27627" lon="-2.2479">
        <ele>27</ele>
        <time>2021-04-29T09:19:38.000Z</time>
      </trkpt>
      <trkpt lat="47.27649" lon="-2.24795">
        <ele>27</ele>
        <time>2021-04-29T09:19:43.000Z</time>
      </trkpt>
      <trkpt lat="47.27673" lon="-2.24805">
        <ele>27</ele>
        <time>2021-04-29T09:19:47.000Z</time>
      </trkpt>
      <trkpt lat="47.27686" lon="-2.24805">
        <ele>27</ele>
        <time>2021-04-29T09:19:49.000Z</time>
      </trkpt>
      <trkpt lat="47.27709" lon="-2.24803">
        <ele>27</ele>
        <time>2021-04-29T09:19:53.000Z</time>
      </trkpt>
      <trkpt lat="47.27748" lon="-2.24803">
        <ele>27</ele>
        <time>2021-04-29T09:20:01.000Z</time>
      </trkpt>
      <trkpt lat="47.27782" lon="-2.24801">
        <ele>27</ele>
        <time>2021-04-29T09:20:08.000Z</time>
      </trkpt>
      <trkpt lat="47.27808" lon="-2.24799">
        <ele>27</ele>
        <time>2021-04-29T09:20:14.000Z</time>
      </trkpt>
      <trkpt lat="47.27818" lon="-2.24797">
        <ele>27</ele>
        <time>2021-04-29T09:20:16.000Z</time>
      </trkpt>
      <trkpt lat="47.2784" lon="-2.24793">
        <ele>27</ele>
        <time>2021-04-29T09:20:20.000Z</time>
      </trkpt>
      <trkpt lat="47.27846" lon="-2.24791">
        <ele>27</ele>
        <time>2021-04-29T09:20:21.000Z</time>
      </trkpt>
      <trkpt lat="47.27856" lon="-2.2478">
        <ele>27</ele>
        <time>2021-04-29T09:20:24.000Z</time>
      </trkpt>
      <trkpt lat="47.27858" lon="-2.24773">
        <ele>27</ele>
        <time>2021-04-29T09:20:27.000Z</time>
      </trkpt>
      <trkpt lat="47.27866" lon="-2.24771">
        <ele>27</ele>
        <time>2021-04-29T09:20:31.000Z</time>
      </trkpt>
      <trkpt lat="47.27881" lon="-2.2477">
        <ele>27</ele>
        <time>2021-04-29T09:20:36.000Z</time>
      </trkpt>
      <trkpt lat="47.27897" lon="-2.24769">
        <ele>27</ele>
        <time>2021-04-29T09:20:43.000Z</time>
      </trkpt>
      <trkpt lat="47.27909" lon="-2.24768">
        <ele>27.39999961853</ele>
        <time>2021-04-29T09:20:48.000Z</time>
      </trkpt>
      <trkpt lat="47.27911" lon="-2.24768">
        <ele>28</ele>
        <time>2021-04-29T09:20:49.000Z</time>
      </trkpt>
      <trkpt lat="47.27913" lon="-2.24767">
        <ele>28.39999961853</ele>
        <time>2021-04-29T09:20:50.000Z</time>
      </trkpt>
      <trkpt lat="47.27915" lon="-2.24766">
        <ele>28.799999237061</ele>
        <time>2021-04-29T09:20:51.000Z</time>
      </trkpt>
      <trkpt lat="47.27917" lon="-2.24768">
        <ele>29.200000762939</ele>
        <time>2021-04-29T09:20:52.000Z</time>
      </trkpt>
      <trkpt lat="47.2792" lon="-2.2477">
        <ele>29.200000762939</ele>
        <time>2021-04-29T09:20:54.000Z</time>
      </trkpt>
      <trkpt lat="47.27921" lon="-2.24773">
        <ele>29.200000762939</ele>
        <time>2021-04-29T09:20:56.000Z</time>
      </trkpt>
      <trkpt lat="47.2792" lon="-2.24775">
        <ele>29.200000762939</ele>
        <time>2021-04-29T09:20:57.000Z</time>
      </trkpt>
      <trkpt lat="47.27918" lon="-2.24778">
        <ele>29.200000762939</ele>
        <time>2021-04-29T09:20:59.000Z</time>
      </trkpt>
      <trkpt lat="47.2791" lon="-2.24785">
        <ele>29.200000762939</ele>
        <time>2021-04-29T09:21:03.000Z</time>
      </trkpt>
      <trkpt lat="47.27908" lon="-2.24787">
        <ele>29.200000762939</ele>
        <time>2021-04-29T09:21:05.000Z</time>
      </trkpt>
      <trkpt lat="47.27905" lon="-2.24787">
        <ele>29.200000762939</ele>
        <time>2021-04-29T09:21:06.000Z</time>
      </trkpt>
      <trkpt lat="47.27902" lon="-2.24787">
        <ele>29.200000762939</ele>
        <time>2021-04-29T09:21:07.000Z</time>
      </trkpt>
      <trkpt lat="47.27896" lon="-2.24796">
        <ele>29.200000762939</ele>
        <time>2021-04-29T09:21:11.000Z</time>
      </trkpt>
      <trkpt lat="47.27904" lon="-2.24802">
        <ele>29.200000762939</ele>
        <time>2021-04-29T09:21:14.000Z</time>
      </trkpt>
      <trkpt lat="47.27909" lon="-2.24805">
        <ele>29.200000762939</ele>
        <time>2021-04-29T09:21:15.000Z</time>
      </trkpt>
      <trkpt lat="47.27914" lon="-2.24809">
        <ele>29.200000762939</ele>
        <time>2021-04-29T09:21:16.000Z</time>
      </trkpt>
      <trkpt lat="47.27919" lon="-2.24812">
        <ele>29.200000762939</ele>
        <time>2021-04-29T09:21:17.000Z</time>
      </trkpt>
      <trkpt lat="47.27927" lon="-2.24815">
        <ele>29.200000762939</ele>
        <time>2021-04-29T09:21:19.000Z</time>
      </trkpt>
      <trkpt lat="47.27932" lon="-2.24816">
        <ele>29.200000762939</ele>
        <time>2021-04-29T09:21:20.000Z</time>
      </trkpt>
      <trkpt lat="47.27949" lon="-2.24823">
        <ele>29.200000762939</ele>
        <time>2021-04-29T09:21:24.000Z</time>
      </trkpt>
      <trkpt lat="47.2796" lon="-2.24825">
        <ele>29.200000762939</ele>
        <time>2021-04-29T09:21:26.000Z</time>
      </trkpt>
      <trkpt lat="47.27976" lon="-2.2483">
        <ele>29.200000762939</ele>
        <time>2021-04-29T09:21:29.000Z</time>
      </trkpt>
      <trkpt lat="47.27981" lon="-2.24831">
        <ele>29.200000762939</ele>
        <time>2021-04-29T09:21:30.000Z</time>
      </trkpt>
      <trkpt lat="47.28" lon="-2.24834">
        <ele>29.200000762939</ele>
        <time>2021-04-29T09:21:34.000Z</time>
      </trkpt>
      <trkpt lat="47.28013" lon="-2.24836">
        <ele>29.200000762939</ele>
        <time>2021-04-29T09:21:37.000Z</time>
      </trkpt>
      <trkpt lat="47.28027" lon="-2.24838">
        <ele>29.200000762939</ele>
        <time>2021-04-29T09:21:40.000Z</time>
      </trkpt>
      <trkpt lat="47.2804" lon="-2.24841">
        <ele>29.200000762939</ele>
        <time>2021-04-29T09:21:43.000Z</time>
      </trkpt>
      <trkpt lat="47.28045" lon="-2.24842">
        <ele>29.200000762939</ele>
        <time>2021-04-29T09:21:44.000Z</time>
      </trkpt>
      <trkpt lat="47.28049" lon="-2.24843">
        <ele>29.200000762939</ele>
        <time>2021-04-29T09:21:45.000Z</time>
      </trkpt>
      <trkpt lat="47.28068" lon="-2.24847">
        <ele>29.200000762939</ele>
        <time>2021-04-29T09:21:49.000Z</time>
      </trkpt>
      <trkpt lat="47.28092" lon="-2.24851">
        <ele>29.200000762939</ele>
        <time>2021-04-29T09:21:54.000Z</time>
      </trkpt>
      <trkpt lat="47.28114" lon="-2.24857">
        <ele>29.200000762939</ele>
        <time>2021-04-29T09:21:58.000Z</time>
      </trkpt>
      <trkpt lat="47.28136" lon="-2.24857">
        <ele>28.799999237061</ele>
        <time>2021-04-29T09:22:02.000Z</time>
      </trkpt>
      <trkpt lat="47.28141" lon="-2.24855">
        <ele>28.200000762939</ele>
        <time>2021-04-29T09:22:03.000Z</time>
      </trkpt>
      <trkpt lat="47.28145" lon="-2.24854">
        <ele>27.799999237061</ele>
        <time>2021-04-29T09:22:04.000Z</time>
      </trkpt>
      <trkpt lat="47.28148" lon="-2.24852">
        <ele>27.39999961853</ele>
        <time>2021-04-29T09:22:05.000Z</time>
      </trkpt>
      <trkpt lat="47.28151" lon="-2.24849">
        <ele>27</ele>
        <time>2021-04-29T09:22:06.000Z</time>
      </trkpt>
      <trkpt lat="47.28154" lon="-2.24846">
        <ele>26.39999961853</ele>
        <time>2021-04-29T09:22:07.000Z</time>
      </trkpt>
      <trkpt lat="47.28156" lon="-2.24841">
        <ele>26</ele>
        <time>2021-04-29T09:22:08.000Z</time>
      </trkpt>
      <trkpt lat="47.28159" lon="-2.24835">
        <ele>25.60000038147</ele>
        <time>2021-04-29T09:22:09.000Z</time>
      </trkpt>
      <trkpt lat="47.2816" lon="-2.24829">
        <ele>25.200000762939</ele>
        <time>2021-04-29T09:22:10.000Z</time>
      </trkpt>
      <trkpt lat="47.28162" lon="-2.24823">
        <ele>24.60000038147</ele>
        <time>2021-04-29T09:22:11.000Z</time>
      </trkpt>
      <trkpt lat="47.28163" lon="-2.24816">
        <ele>24.60000038147</ele>
        <time>2021-04-29T09:22:12.000Z</time>
      </trkpt>
      <trkpt lat="47.28169" lon="-2.24808">
        <ele>24.60000038147</ele>
        <time>2021-04-29T09:22:14.000Z</time>
      </trkpt>
      <trkpt lat="47.28172" lon="-2.24807">
        <ele>24.60000038147</ele>
        <time>2021-04-29T09:22:15.000Z</time>
      </trkpt>
      <trkpt lat="47.28189" lon="-2.24807">
        <ele>24.200000762939</ele>
        <time>2021-04-29T09:22:18.000Z</time>
      </trkpt>
      <trkpt lat="47.28196" lon="-2.24808">
        <ele>23.799999237061</ele>
        <time>2021-04-29T09:22:19.000Z</time>
      </trkpt>
      <trkpt lat="47.28203" lon="-2.24809">
        <ele>23.200000762939</ele>
        <time>2021-04-29T09:22:20.000Z</time>
      </trkpt>
      <trkpt lat="47.2821" lon="-2.2481">
        <ele>22.799999237061</ele>
        <time>2021-04-29T09:22:21.000Z</time>
      </trkpt>
      <trkpt lat="47.28219" lon="-2.24811">
        <ele>22.200000762939</ele>
        <time>2021-04-29T09:22:22.000Z</time>
      </trkpt>
      <trkpt lat="47.28227" lon="-2.2481">
        <ele>21.799999237061</ele>
        <time>2021-04-29T09:22:23.000Z</time>
      </trkpt>
      <trkpt lat="47.28235" lon="-2.24807">
        <ele>21</ele>
        <time>2021-04-29T09:22:24.000Z</time>
      </trkpt>
      <trkpt lat="47.28244" lon="-2.24803">
        <ele>20.39999961853</ele>
        <time>2021-04-29T09:22:25.000Z</time>
      </trkpt>
      <trkpt lat="47.28252" lon="-2.24798">
        <ele>19.60000038147</ele>
        <time>2021-04-29T09:22:26.000Z</time>
      </trkpt>
      <trkpt lat="47.2826" lon="-2.24793">
        <ele>19</ele>
        <time>2021-04-29T09:22:27.000Z</time>
      </trkpt>
      <trkpt lat="47.28268" lon="-2.24788">
        <ele>18.200000762939</ele>
        <time>2021-04-29T09:22:28.000Z</time>
      </trkpt>
      <trkpt lat="47.28275" lon="-2.24783">
        <ele>18.200000762939</ele>
        <time>2021-04-29T09:22:29.000Z</time>
      </trkpt>
      <trkpt lat="47.28298" lon="-2.24768">
        <ele>17.39999961853</ele>
        <time>2021-04-29T09:22:32.000Z</time>
      </trkpt>
      <trkpt lat="47.28305" lon="-2.24765">
        <ele>17</ele>
        <time>2021-04-29T09:22:33.000Z</time>
      </trkpt>
      <trkpt lat="47.28312" lon="-2.2476">
        <ele>16.60000038147</ele>
        <time>2021-04-29T09:22:34.000Z</time>
      </trkpt>
      <trkpt lat="47.28318" lon="-2.24757">
        <ele>16.200000762939</ele>
        <time>2021-04-29T09:22:35.000Z</time>
      </trkpt>
      <trkpt lat="47.28325" lon="-2.24755">
        <ele>16.200000762939</ele>
        <time>2021-04-29T09:22:36.000Z</time>
      </trkpt>
      <trkpt lat="47.28346" lon="-2.24758">
        <ele>15.800000190735</ele>
        <time>2021-04-29T09:22:39.000Z</time>
      </trkpt>
      <trkpt lat="47.28352" lon="-2.24762">
        <ele>15.39999961853</ele>
        <time>2021-04-29T09:22:40.000Z</time>
      </trkpt>
      <trkpt lat="47.28358" lon="-2.24766">
        <ele>15</ele>
        <time>2021-04-29T09:22:41.000Z</time>
      </trkpt>
      <trkpt lat="47.28361" lon="-2.24769">
        <ele>14.39999961853</ele>
        <time>2021-04-29T09:22:42.000Z</time>
      </trkpt>
      <trkpt lat="47.28364" lon="-2.24771">
        <ele>13.800000190735</ele>
        <time>2021-04-29T09:22:43.000Z</time>
      </trkpt>
      <trkpt lat="47.28367" lon="-2.24773">
        <ele>13.199999809265</ele>
        <time>2021-04-29T09:22:44.000Z</time>
      </trkpt>
      <trkpt lat="47.2837" lon="-2.24775">
        <ele>12.60000038147</ele>
        <time>2021-04-29T09:22:45.000Z</time>
      </trkpt>
      <trkpt lat="47.28373" lon="-2.24776">
        <ele>12</ele>
        <time>2021-04-29T09:22:46.000Z</time>
      </trkpt>
      <trkpt lat="47.28376" lon="-2.24775">
        <ele>12</ele>
        <time>2021-04-29T09:22:47.000Z</time>
      </trkpt>
      <trkpt lat="47.28383" lon="-2.24773">
        <ele>11.60000038147</ele>
        <time>2021-04-29T09:22:49.000Z</time>
      </trkpt>
      <trkpt lat="47.28387" lon="-2.2477">
        <ele>11.199999809265</ele>
        <time>2021-04-29T09:22:50.000Z</time>
      </trkpt>
      <trkpt lat="47.28392" lon="-2.24767">
        <ele>10.800000190735</ele>
        <time>2021-04-29T09:22:51.000Z</time>
      </trkpt>
      <trkpt lat="47.28397" lon="-2.24763">
        <ele>10.39999961853</ele>
        <time>2021-04-29T09:22:52.000Z</time>
      </trkpt>
      <trkpt lat="47.28402" lon="-2.2476">
        <ele>10</ele>
        <time>2021-04-29T09:22:53.000Z</time>
      </trkpt>
      <trkpt lat="47.28418" lon="-2.24748">
        <ele>10</ele>
        <time>2021-04-29T09:22:54.000Z</time>
      </trkpt>
      <trkpt lat="47.28424" lon="-2.24744">
        <ele>10</ele>
        <time>2021-04-29T09:22:57.000Z</time>
      </trkpt>
      <trkpt lat="47.28441" lon="-2.24732">
        <ele>10</ele>
        <time>2021-04-29T09:23:00.000Z</time>
      </trkpt>
      <trkpt lat="47.28453" lon="-2.24725">
        <ele>10</ele>
        <time>2021-04-29T09:23:02.000Z</time>
      </trkpt>
      <trkpt lat="47.28483" lon="-2.24702">
        <ele>10</ele>
        <time>2021-04-29T09:23:07.000Z</time>
      </trkpt>
      <trkpt lat="47.28525" lon="-2.24673">
        <ele>10</ele>
        <time>2021-04-29T09:23:14.000Z</time>
      </trkpt>
      <trkpt lat="47.2856" lon="-2.24644">
        <ele>10</ele>
        <time>2021-04-29T09:23:20.000Z</time>
      </trkpt>
      <trkpt lat="47.28582" lon="-2.24626">
        <ele>10</ele>
        <time>2021-04-29T09:23:25.000Z</time>
      </trkpt>
      <trkpt lat="47.28588" lon="-2.24616">
        <ele>10</ele>
        <time>2021-04-29T09:23:30.000Z</time>
      </trkpt>
      <trkpt lat="47.28603" lon="-2.24594">
        <ele>10</ele>
        <time>2021-04-29T09:23:36.000Z</time>
      </trkpt>
      <trkpt lat="47.28607" lon="-2.24582">
        <ele>10</ele>
        <time>2021-04-29T09:23:38.000Z</time>
      </trkpt>
      <trkpt lat="47.28612" lon="-2.2456">
        <ele>10</ele>
        <time>2021-04-29T09:23:41.000Z</time>
      </trkpt>
      <trkpt lat="47.28628" lon="-2.24502">
        <ele>10</ele>
        <time>2021-04-29T09:23:48.000Z</time>
      </trkpt>
      <trkpt lat="47.28642" lon="-2.24444">
        <ele>10</ele>
        <time>2021-04-29T09:23:54.000Z</time>
      </trkpt>
      <trkpt lat="47.28654" lon="-2.24397">
        <ele>10</ele>
        <time>2021-04-29T09:23:59.000Z</time>
      </trkpt>
      <trkpt lat="47.28672" lon="-2.24331">
        <ele>10</ele>
        <time>2021-04-29T09:24:06.000Z</time>
      </trkpt>
      <trkpt lat="47.28689" lon="-2.24268">
        <ele>10</ele>
        <time>2021-04-29T09:24:13.000Z</time>
      </trkpt>
      <trkpt lat="47.28688" lon="-2.24229">
        <ele>10</ele>
        <time>2021-04-29T09:24:17.000Z</time>
      </trkpt>
      <trkpt lat="47.28686" lon="-2.24221">
        <ele>10</ele>
        <time>2021-04-29T09:24:18.000Z</time>
      </trkpt>
      <trkpt lat="47.2868" lon="-2.24176">
        <ele>10</ele>
        <time>2021-04-29T09:24:23.000Z</time>
      </trkpt>
      <trkpt lat="47.28678" lon="-2.24147">
        <ele>10.39999961853</ele>
        <time>2021-04-29T09:24:26.000Z</time>
      </trkpt>
      <trkpt lat="47.28678" lon="-2.24137">
        <ele>10.800000190735</ele>
        <time>2021-04-29T09:24:27.000Z</time>
      </trkpt>
      <trkpt lat="47.28677" lon="-2.24128">
        <ele>11.199999809265</ele>
        <time>2021-04-29T09:24:28.000Z</time>
      </trkpt>
      <trkpt lat="47.28675" lon="-2.24117">
        <ele>11.60000038147</ele>
        <time>2021-04-29T09:24:29.000Z</time>
      </trkpt>
      <trkpt lat="47.28675" lon="-2.24108">
        <ele>12</ele>
        <time>2021-04-29T09:24:30.000Z</time>
      </trkpt>
      <trkpt lat="47.28669" lon="-2.2405">
        <ele>12</ele>
        <time>2021-04-29T09:24:36.000Z</time>
      </trkpt>
      <trkpt lat="47.28664" lon="-2.23976">
        <ele>12</ele>
        <time>2021-04-29T09:24:43.000Z</time>
      </trkpt>
      <trkpt lat="47.28656" lon="-2.23908">
        <ele>12</ele>
        <time>2021-04-29T09:24:50.000Z</time>
      </trkpt>
      <trkpt lat="47.28645" lon="-2.23829">
        <ele>12</ele>
        <time>2021-04-29T09:24:58.000Z</time>
      </trkpt>
      <trkpt lat="47.28634" lon="-2.23752">
        <ele>12</ele>
        <time>2021-04-29T09:25:06.000Z</time>
      </trkpt>
      <trkpt lat="47.28629" lon="-2.23724">
        <ele>12</ele>
        <time>2021-04-29T09:25:09.000Z</time>
      </trkpt>
      <trkpt lat="47.28625" lon="-2.23694">
        <ele>12</ele>
        <time>2021-04-29T09:25:12.000Z</time>
      </trkpt>
      <trkpt lat="47.28621" lon="-2.2362">
        <ele>12</ele>
        <time>2021-04-29T09:25:19.000Z</time>
      </trkpt>
      <trkpt lat="47.28622" lon="-2.23603">
        <ele>11.60000038147</ele>
        <time>2021-04-29T09:25:21.000Z</time>
      </trkpt>
      <trkpt lat="47.28623" lon="-2.23595">
        <ele>11.199999809265</ele>
        <time>2021-04-29T09:25:22.000Z</time>
      </trkpt>
      <trkpt lat="47.28624" lon="-2.23587">
        <ele>10.60000038147</ele>
        <time>2021-04-29T09:25:23.000Z</time>
      </trkpt>
      <trkpt lat="47.28626" lon="-2.2358">
        <ele>10.199999809265</ele>
        <time>2021-04-29T09:25:24.000Z</time>
      </trkpt>
      <trkpt lat="47.28629" lon="-2.23572">
        <ele>9.8000001907349</ele>
        <time>2021-04-29T09:25:25.000Z</time>
      </trkpt>
      <trkpt lat="47.28635" lon="-2.23561">
        <ele>9.8000001907349</ele>
        <time>2021-04-29T09:25:27.000Z</time>
      </trkpt>
      <trkpt lat="47.28645" lon="-2.23559">
        <ele>9.8000001907349</ele>
        <time>2021-04-29T09:25:29.000Z</time>
      </trkpt>
      <trkpt lat="47.28649" lon="-2.23554">
        <ele>9.8000001907349</ele>
        <time>2021-04-29T09:25:30.000Z</time>
      </trkpt>
      <trkpt lat="47.28654" lon="-2.23535">
        <ele>9.8000001907349</ele>
        <time>2021-04-29T09:25:33.000Z</time>
      </trkpt>
      <trkpt lat="47.28655" lon="-2.23508">
        <ele>9.8000001907349</ele>
        <time>2021-04-29T09:25:37.000Z</time>
      </trkpt>
      <trkpt lat="47.28658" lon="-2.23493">
        <ele>9.8000001907349</ele>
        <time>2021-04-29T09:25:39.000Z</time>
      </trkpt>
      <trkpt lat="47.28661" lon="-2.23471">
        <ele>9.8000001907349</ele>
        <time>2021-04-29T09:25:42.000Z</time>
      </trkpt>
      <trkpt lat="47.28661" lon="-2.23454">
        <ele>9.8000001907349</ele>
        <time>2021-04-29T09:25:44.000Z</time>
      </trkpt>
      <trkpt lat="47.28657" lon="-2.23439">
        <ele>9.8000001907349</ele>
        <time>2021-04-29T09:25:46.000Z</time>
      </trkpt>
      <trkpt lat="47.28653" lon="-2.23423">
        <ele>9.8000001907349</ele>
        <time>2021-04-29T09:25:48.000Z</time>
      </trkpt>
      <trkpt lat="47.2865" lon="-2.23403">
        <ele>9.8000001907349</ele>
        <time>2021-04-29T09:25:50.000Z</time>
      </trkpt>
      <trkpt lat="47.28649" lon="-2.23383">
        <ele>9.8000001907349</ele>
        <time>2021-04-29T09:25:52.000Z</time>
      </trkpt>
      <trkpt lat="47.28649" lon="-2.23364">
        <ele>9.8000001907349</ele>
        <time>2021-04-29T09:25:54.000Z</time>
      </trkpt>
      <trkpt lat="47.28649" lon="-2.23357">
        <ele>9.3999996185303</ele>
        <time>2021-04-29T09:25:55.000Z</time>
      </trkpt>
      <trkpt lat="47.28651" lon="-2.23354">
        <ele>9</ele>
        <time>2021-04-29T09:25:56.000Z</time>
      </trkpt>
      <trkpt lat="47.28653" lon="-2.23356">
        <ele>8.6000003814697</ele>
        <time>2021-04-29T09:25:57.000Z</time>
      </trkpt>
      <trkpt lat="47.28657" lon="-2.23358">
        <ele>8</ele>
        <time>2021-04-29T09:25:58.000Z</time>
      </trkpt>
      <trkpt lat="47.28661" lon="-2.2336">
        <ele>7.5999999046326</ele>
        <time>2021-04-29T09:25:59.000Z</time>
      </trkpt>
      <trkpt lat="47.28666" lon="-2.2336">
        <ele>7.5999999046326</ele>
        <time>2021-04-29T09:26:01.000Z</time>
      </trkpt>
      <trkpt lat="47.28668" lon="-2.23347">
        <ele>7.5999999046326</ele>
        <time>2021-04-29T09:26:04.000Z</time>
      </trkpt>
      <trkpt lat="47.28669" lon="-2.23341">
        <ele>8</ele>
        <time>2021-04-29T09:26:05.000Z</time>
      </trkpt>
      <trkpt lat="47.2867" lon="-2.23335">
        <ele>8.3999996185303</ele>
        <time>2021-04-29T09:26:06.000Z</time>
      </trkpt>
      <trkpt lat="47.28671" lon="-2.23329">
        <ele>9</ele>
        <time>2021-04-29T09:26:07.000Z</time>
      </trkpt>
      <trkpt lat="47.28672" lon="-2.23324">
        <ele>9.3999996185303</ele>
        <time>2021-04-29T09:26:08.000Z</time>
      </trkpt>
      <trkpt lat="47.28673" lon="-2.23318">
        <ele>9.8000001907349</ele>
        <time>2021-04-29T09:26:09.000Z</time>
      </trkpt>
      <trkpt lat="47.28674" lon="-2.23313">
        <ele>9.8000001907349</ele>
        <time>2021-04-29T09:26:10.000Z</time>
      </trkpt>
      <trkpt lat="47.28677" lon="-2.23289">
        <ele>9.8000001907349</ele>
        <time>2021-04-29T09:26:15.000Z</time>
      </trkpt>
      <trkpt lat="47.2868" lon="-2.2327">
        <ele>9.8000001907349</ele>
        <time>2021-04-29T09:26:18.000Z</time>
      </trkpt>
      <trkpt lat="47.28682" lon="-2.2325">
        <ele>9.8000001907349</ele>
        <time>2021-04-29T09:26:22.000Z</time>
      </trkpt>
      <trkpt lat="47.28681" lon="-2.23227">
        <ele>9.8000001907349</ele>
        <time>2021-04-29T09:26:26.000Z</time>
      </trkpt>
      <trkpt lat="47.28678" lon="-2.23206">
        <ele>9.8000001907349</ele>
        <time>2021-04-29T09:26:29.000Z</time>
      </trkpt>
      <trkpt lat="47.28675" lon="-2.23199">
        <ele>9.8000001907349</ele>
        <time>2021-04-29T09:26:30.000Z</time>
      </trkpt>
      <trkpt lat="47.28665" lon="-2.23188">
        <ele>9.1999998092651</ele>
        <time>2021-04-29T09:26:32.000Z</time>
      </trkpt>
      <trkpt lat="47.2866" lon="-2.23183">
        <ele>8.8000001907349</ele>
        <time>2021-04-29T09:26:33.000Z</time>
      </trkpt>
      <trkpt lat="47.28654" lon="-2.2318">
        <ele>8.3999996185303</ele>
        <time>2021-04-29T09:26:34.000Z</time>
      </trkpt>
      <trkpt lat="47.28649" lon="-2.23177">
        <ele>8</ele>
        <time>2021-04-29T09:26:35.000Z</time>
      </trkpt>
      <trkpt lat="47.28643" lon="-2.23178">
        <ele>7.5999999046326</ele>
        <time>2021-04-29T09:26:36.000Z</time>
      </trkpt>
      <trkpt lat="47.28638" lon="-2.2318">
        <ele>7.5999999046326</ele>
        <time>2021-04-29T09:26:37.000Z</time>
      </trkpt>
      <trkpt lat="47.28613" lon="-2.23197">
        <ele>7.5999999046326</ele>
        <time>2021-04-29T09:26:42.000Z</time>
      </trkpt>
      <trkpt lat="47.28608" lon="-2.23201">
        <ele>7.5999999046326</ele>
        <time>2021-04-29T09:26:43.000Z</time>
      </trkpt>
      <trkpt lat="47.28596" lon="-2.23219">
        <ele>7.5999999046326</ele>
        <time>2021-04-29T09:26:46.000Z</time>
      </trkpt>
      <trkpt lat="47.28594" lon="-2.23226">
        <ele>7.5999999046326</ele>
        <time>2021-04-29T09:26:47.000Z</time>
      </trkpt>
      <trkpt lat="47.28591" lon="-2.23252">
        <ele>7.5999999046326</ele>
        <time>2021-04-29T09:26:50.000Z</time>
      </trkpt>
      <trkpt lat="47.28591" lon="-2.2326">
        <ele>7.5999999046326</ele>
        <time>2021-04-29T09:26:51.000Z</time>
      </trkpt>
      <trkpt lat="47.28596" lon="-2.23284">
        <ele>7.5999999046326</ele>
        <time>2021-04-29T09:26:54.000Z</time>
      </trkpt>
      <trkpt lat="47.28598" lon="-2.23292">
        <ele>7.5999999046326</ele>
        <time>2021-04-29T09:26:55.000Z</time>
      </trkpt>
      <trkpt lat="47.28608" lon="-2.23299">
        <ele>7.5999999046326</ele>
        <time>2021-04-29T09:26:57.000Z</time>
      </trkpt>
      <trkpt lat="47.28619" lon="-2.23302">
        <ele>7.5999999046326</ele>
        <time>2021-04-29T09:26:59.000Z</time>
      </trkpt>
      <trkpt lat="47.28624" lon="-2.23303">
        <ele>7.5999999046326</ele>
        <time>2021-04-29T09:27:00.000Z</time>
      </trkpt>
      <trkpt lat="47.2863" lon="-2.23302">
        <ele>7.5999999046326</ele>
        <time>2021-04-29T09:27:01.000Z</time>
      </trkpt>
      <trkpt lat="47.28639" lon="-2.233">
        <ele>7.5999999046326</ele>
        <time>2021-04-29T09:27:03.000Z</time>
      </trkpt>
      <trkpt lat="47.28646" lon="-2.23299">
        <ele>7.5999999046326</ele>
        <time>2021-04-29T09:27:05.000Z</time>
      </trkpt>
      <trkpt lat="47.2865" lon="-2.233">
        <ele>7.5999999046326</ele>
        <time>2021-04-29T09:27:06.000Z</time>
      </trkpt>
      <trkpt lat="47.28663" lon="-2.23302">
        <ele>7.5999999046326</ele>
        <time>2021-04-29T09:27:09.000Z</time>
      </trkpt>
      <trkpt lat="47.28669" lon="-2.23299">
        <ele>8</ele>
        <time>2021-04-29T09:27:12.000Z</time>
      </trkpt>
      <trkpt lat="47.28671" lon="-2.23301">
        <ele>8.3999996185303</ele>
        <time>2021-04-29T09:27:13.000Z</time>
      </trkpt>
      <trkpt lat="47.28671" lon="-2.23304">
        <ele>8.8000001907349</ele>
        <time>2021-04-29T09:27:14.000Z</time>
      </trkpt>
      <trkpt lat="47.28672" lon="-2.23307">
        <ele>9.1999998092651</ele>
        <time>2021-04-29T09:27:15.000Z</time>
      </trkpt>
      <trkpt lat="47.28672" lon="-2.23311">
        <ele>9.6000003814697</ele>
        <time>2021-04-29T09:27:16.000Z</time>
      </trkpt>
      <trkpt lat="47.28673" lon="-2.23319">
        <ele>9.6000003814697</ele>
        <time>2021-04-29T09:27:18.000Z</time>
      </trkpt>
      <trkpt lat="47.28674" lon="-2.2333">
        <ele>9.6000003814697</ele>
        <time>2021-04-29T09:27:20.000Z</time>
      </trkpt>
      <trkpt lat="47.28673" lon="-2.23347">
        <ele>9.6000003814697</ele>
        <time>2021-04-29T09:27:23.000Z</time>
      </trkpt>
      <trkpt lat="47.2867" lon="-2.2335">
        <ele>9.6000003814697</ele>
        <time>2021-04-29T09:27:24.000Z</time>
      </trkpt>
      <trkpt lat="47.2866" lon="-2.23349">
        <ele>9.6000003814697</ele>
        <time>2021-04-29T09:27:27.000Z</time>
      </trkpt>
      <trkpt lat="47.28657" lon="-2.23348">
        <ele>9.6000003814697</ele>
        <time>2021-04-29T09:27:28.000Z</time>
      </trkpt>
      <trkpt lat="47.28654" lon="-2.23351">
        <ele>9.6000003814697</ele>
        <time>2021-04-29T09:27:29.000Z</time>
      </trkpt>
      <trkpt lat="47.28652" lon="-2.23353">
        <ele>8.6000003814697</ele>
        <time>2021-04-29T09:27:30.000Z</time>
      </trkpt>
      <trkpt lat="47.28649" lon="-2.23356">
        <ele>8.1999998092651</ele>
        <time>2021-04-29T09:27:31.000Z</time>
      </trkpt>
      <trkpt lat="47.28648" lon="-2.23361">
        <ele>7.8000001907349</ele>
        <time>2021-04-29T09:27:32.000Z</time>
      </trkpt>
      <trkpt lat="47.28646" lon="-2.23366">
        <ele>7.4000000953674</ele>
        <time>2021-04-29T09:27:33.000Z</time>
      </trkpt>
      <trkpt lat="47.28643" lon="-2.2338">
        <ele>7.4000000953674</ele>
        <time>2021-04-29T09:27:35.000Z</time>
      </trkpt>
      <trkpt lat="47.28644" lon="-2.23412">
        <ele>7.4000000953674</ele>
        <time>2021-04-29T09:27:39.000Z</time>
      </trkpt>
      <trkpt lat="47.2865" lon="-2.2343">
        <ele>7.4000000953674</ele>
        <time>2021-04-29T09:27:42.000Z</time>
      </trkpt>
      <trkpt lat="47.28654" lon="-2.23443">
        <ele>7.4000000953674</ele>
        <time>2021-04-29T09:27:44.000Z</time>
      </trkpt>
      <trkpt lat="47.28656" lon="-2.23467">
        <ele>7.8000001907349</ele>
        <time>2021-04-29T09:27:47.000Z</time>
      </trkpt>
      <trkpt lat="47.28656" lon="-2.23474">
        <ele>8.1999998092651</ele>
        <time>2021-04-29T09:27:48.000Z</time>
      </trkpt>
      <trkpt lat="47.28655" lon="-2.23482">
        <ele>8.6000003814697</ele>
        <time>2021-04-29T09:27:49.000Z</time>
      </trkpt>
      <trkpt lat="47.28655" lon="-2.2349">
        <ele>9</ele>
        <time>2021-04-29T09:27:50.000Z</time>
      </trkpt>
      <trkpt lat="47.28654" lon="-2.23498">
        <ele>9.3999996185303</ele>
        <time>2021-04-29T09:27:51.000Z</time>
      </trkpt>
      <trkpt lat="47.2865" lon="-2.23526">
        <ele>9.3999996185303</ele>
        <time>2021-04-29T09:27:55.000Z</time>
      </trkpt>
      <trkpt lat="47.28648" lon="-2.23541">
        <ele>9.3999996185303</ele>
        <time>2021-04-29T09:27:57.000Z</time>
      </trkpt>
      <trkpt lat="47.2865" lon="-2.23551">
        <ele>9.3999996185303</ele>
        <time>2021-04-29T09:27:59.000Z</time>
      </trkpt>
      <trkpt lat="47.28659" lon="-2.23557">
        <ele>9.3999996185303</ele>
        <time>2021-04-29T09:28:02.000Z</time>
      </trkpt>
      <trkpt lat="47.28671" lon="-2.23567">
        <ele>9.3999996185303</ele>
        <time>2021-04-29T09:28:08.000Z</time>
      </trkpt>
      <trkpt lat="47.28684" lon="-2.23586">
        <ele>9.3999996185303</ele>
        <time>2021-04-29T09:28:15.000Z</time>
      </trkpt>
      <trkpt lat="47.28695" lon="-2.23592">
        <ele>9.3999996185303</ele>
        <time>2021-04-29T09:28:20.000Z</time>
      </trkpt>
      <trkpt lat="47.28708" lon="-2.23585">
        <ele>9.3999996185303</ele>
        <time>2021-04-29T09:28:26.000Z</time>
      </trkpt>
      <trkpt lat="47.28715" lon="-2.23567">
        <ele>9.3999996185303</ele>
        <time>2021-04-29T09:28:30.000Z</time>
      </trkpt>
      <trkpt lat="47.28729" lon="-2.23544">
        <ele>9.3999996185303</ele>
        <time>2021-04-29T09:28:35.000Z</time>
      </trkpt>
      <trkpt lat="47.28732" lon="-2.23541">
        <ele>9.3999996185303</ele>
        <time>2021-04-29T09:28:36.000Z</time>
      </trkpt>
      <trkpt lat="47.28769" lon="-2.23518">
        <ele>9.3999996185303</ele>
        <time>2021-04-29T09:28:43.000Z</time>
      </trkpt>
      <trkpt lat="47.28775" lon="-2.23516">
        <ele>10.39999961853</ele>
        <time>2021-04-29T09:28:44.000Z</time>
      </trkpt>
      <trkpt lat="47.2878" lon="-2.23513">
        <ele>10.800000190735</ele>
        <time>2021-04-29T09:28:45.000Z</time>
      </trkpt>
      <trkpt lat="47.28786" lon="-2.23511">
        <ele>11.199999809265</ele>
        <time>2021-04-29T09:28:46.000Z</time>
      </trkpt>
      <trkpt lat="47.28792" lon="-2.2351">
        <ele>11.800000190735</ele>
        <time>2021-04-29T09:28:47.000Z</time>
      </trkpt>
      <trkpt lat="47.28804" lon="-2.23509">
        <ele>11.800000190735</ele>
        <time>2021-04-29T09:28:49.000Z</time>
      </trkpt>
      <trkpt lat="47.2882" lon="-2.23508">
        <ele>12.199999809265</ele>
        <time>2021-04-29T09:28:52.000Z</time>
      </trkpt>
      <trkpt lat="47.28826" lon="-2.23507">
        <ele>12.60000038147</ele>
        <time>2021-04-29T09:28:53.000Z</time>
      </trkpt>
      <trkpt lat="47.28831" lon="-2.23507">
        <ele>13</ele>
        <time>2021-04-29T09:28:54.000Z</time>
      </trkpt>
      <trkpt lat="47.28836" lon="-2.23507">
        <ele>13.39999961853</ele>
        <time>2021-04-29T09:28:55.000Z</time>
      </trkpt>
      <trkpt lat="47.28841" lon="-2.23507">
        <ele>13.800000190735</ele>
        <time>2021-04-29T09:28:56.000Z</time>
      </trkpt>
      <trkpt lat="47.28878" lon="-2.23502">
        <ele>14.39999961853</ele>
        <time>2021-04-29T09:29:03.000Z</time>
      </trkpt>
      <trkpt lat="47.28884" lon="-2.23503">
        <ele>14.800000190735</ele>
        <time>2021-04-29T09:29:04.000Z</time>
      </trkpt>
      <trkpt lat="47.28889" lon="-2.23504">
        <ele>15.199999809265</ele>
        <time>2021-04-29T09:29:05.000Z</time>
      </trkpt>
      <trkpt lat="47.28894" lon="-2.23503">
        <ele>15.800000190735</ele>
        <time>2021-04-29T09:29:06.000Z</time>
      </trkpt>
      <trkpt lat="47.28899" lon="-2.23502">
        <ele>16.200000762939</ele>
        <time>2021-04-29T09:29:07.000Z</time>
      </trkpt>
      <trkpt lat="47.2891" lon="-2.235">
        <ele>16.200000762939</ele>
        <time>2021-04-29T09:29:09.000Z</time>
      </trkpt>
      <trkpt lat="47.28935" lon="-2.23492">
        <ele>16.200000762939</ele>
        <time>2021-04-29T09:29:14.000Z</time>
      </trkpt>
      <trkpt lat="47.28948" lon="-2.2349">
        <ele>16.200000762939</ele>
        <time>2021-04-29T09:29:17.000Z</time>
      </trkpt>
      <trkpt lat="47.28957" lon="-2.23487">
        <ele>16.200000762939</ele>
        <time>2021-04-29T09:29:19.000Z</time>
      </trkpt>
      <trkpt lat="47.28959" lon="-2.23482">
        <ele>16.200000762939</ele>
        <time>2021-04-29T09:29:20.000Z</time>
      </trkpt>
      <trkpt lat="47.28959" lon="-2.23471">
        <ele>16.200000762939</ele>
        <time>2021-04-29T09:29:22.000Z</time>
      </trkpt>
      <trkpt lat="47.28963" lon="-2.23438">
        <ele>16.200000762939</ele>
        <time>2021-04-29T09:29:27.000Z</time>
      </trkpt>
      <trkpt lat="47.28965" lon="-2.23418">
        <ele>16.60000038147</ele>
        <time>2021-04-29T09:29:30.000Z</time>
      </trkpt>
      <trkpt lat="47.28965" lon="-2.23411">
        <ele>17</ele>
        <time>2021-04-29T09:29:31.000Z</time>
      </trkpt>
      <trkpt lat="47.28966" lon="-2.23405">
        <ele>17.39999961853</ele>
        <time>2021-04-29T09:29:32.000Z</time>
      </trkpt>
      <trkpt lat="47.28967" lon="-2.23398">
        <ele>18.200000762939</ele>
        <time>2021-04-29T09:29:33.000Z</time>
      </trkpt>
      <trkpt lat="47.28968" lon="-2.23392">
        <ele>18.200000762939</ele>
        <time>2021-04-29T09:29:34.000Z</time>
      </trkpt>
      <trkpt lat="47.28974" lon="-2.2333">
        <ele>18.200000762939</ele>
        <time>2021-04-29T09:29:43.000Z</time>
      </trkpt>
      <trkpt lat="47.28979" lon="-2.2327">
        <ele>18.200000762939</ele>
        <time>2021-04-29T09:29:50.000Z</time>
      </trkpt>
      <trkpt lat="47.2898" lon="-2.23261">
        <ele>17.799999237061</ele>
        <time>2021-04-29T09:29:51.000Z</time>
      </trkpt>
      <trkpt lat="47.28981" lon="-2.23251">
        <ele>17.39999961853</ele>
        <time>2021-04-29T09:29:52.000Z</time>
      </trkpt>
      <trkpt lat="47.28982" lon="-2.23242">
        <ele>17</ele>
        <time>2021-04-29T09:29:53.000Z</time>
      </trkpt>
      <trkpt lat="47.28982" lon="-2.23233">
        <ele>16.60000038147</ele>
        <time>2021-04-29T09:29:54.000Z</time>
      </trkpt>
      <trkpt lat="47.28983" lon="-2.23223">
        <ele>16.200000762939</ele>
        <time>2021-04-29T09:29:55.000Z</time>
      </trkpt>
      <trkpt lat="47.28986" lon="-2.23195">
        <ele>16.200000762939</ele>
        <time>2021-04-29T09:29:58.000Z</time>
      </trkpt>
      <trkpt lat="47.28987" lon="-2.23185">
        <ele>15.800000190735</ele>
        <time>2021-04-29T09:29:59.000Z</time>
      </trkpt>
      <trkpt lat="47.28988" lon="-2.23176">
        <ele>15.199999809265</ele>
        <time>2021-04-29T09:30:00.000Z</time>
      </trkpt>
      <trkpt lat="47.28989" lon="-2.23166">
        <ele>14.800000190735</ele>
        <time>2021-04-29T09:30:01.000Z</time>
      </trkpt>
      <trkpt lat="47.28991" lon="-2.23156">
        <ele>14.39999961853</ele>
        <time>2021-04-29T09:30:02.000Z</time>
      </trkpt>
      <trkpt lat="47.28992" lon="-2.23146">
        <ele>14</ele>
        <time>2021-04-29T09:30:03.000Z</time>
      </trkpt>
      <trkpt lat="47.28995" lon="-2.23117">
        <ele>14</ele>
        <time>2021-04-29T09:30:06.000Z</time>
      </trkpt>
      <trkpt lat="47.28996" lon="-2.2311">
        <ele>13.39999961853</ele>
        <time>2021-04-29T09:30:07.000Z</time>
      </trkpt>
      <trkpt lat="47.28997" lon="-2.23102">
        <ele>13</ele>
        <time>2021-04-29T09:30:08.000Z</time>
      </trkpt>
      <trkpt lat="47.28999" lon="-2.23096">
        <ele>12.39999961853</ele>
        <time>2021-04-29T09:30:09.000Z</time>
      </trkpt>
      <trkpt lat="47.29" lon="-2.23089">
        <ele>12</ele>
        <time>2021-04-29T09:30:10.000Z</time>
      </trkpt>
      <trkpt lat="47.29001" lon="-2.23083">
        <ele>11.39999961853</ele>
        <time>2021-04-29T09:30:11.000Z</time>
      </trkpt>
      <trkpt lat="47.29002" lon="-2.23076">
        <ele>11</ele>
        <time>2021-04-29T09:30:12.000Z</time>
      </trkpt>
      <trkpt lat="47.29003" lon="-2.23069">
        <ele>10.60000038147</ele>
        <time>2021-04-29T09:30:13.000Z</time>
      </trkpt>
      <trkpt lat="47.29004" lon="-2.23062">
        <ele>10.199999809265</ele>
        <time>2021-04-29T09:30:14.000Z</time>
      </trkpt>
      <trkpt lat="47.29006" lon="-2.23055">
        <ele>9.8000001907349</ele>
        <time>2021-04-29T09:30:15.000Z</time>
      </trkpt>
      <trkpt lat="47.29009" lon="-2.23047">
        <ele>9.3999996185303</ele>
        <time>2021-04-29T09:30:16.000Z</time>
      </trkpt>
      <trkpt lat="47.29011" lon="-2.2304">
        <ele>9.3999996185303</ele>
        <time>2021-04-29T09:30:17.000Z</time>
      </trkpt>
      <trkpt lat="47.29023" lon="-2.23">
        <ele>9.3999996185303</ele>
        <time>2021-04-29T09:30:22.000Z</time>
      </trkpt>
      <trkpt lat="47.29024" lon="-2.22988">
        <ele>9.3999996185303</ele>
        <time>2021-04-29T09:30:24.000Z</time>
      </trkpt>
      <trkpt lat="47.29025" lon="-2.22981">
        <ele>9</ele>
        <time>2021-04-29T09:30:25.000Z</time>
      </trkpt>
      <trkpt lat="47.29027" lon="-2.22975">
        <ele>8.6000003814697</ele>
        <time>2021-04-29T09:30:26.000Z</time>
      </trkpt>
      <trkpt lat="47.29031" lon="-2.22972">
        <ele>8.1999998092651</ele>
        <time>2021-04-29T09:30:27.000Z</time>
      </trkpt>
      <trkpt lat="47.29035" lon="-2.22973">
        <ele>7.8000001907349</ele>
        <time>2021-04-29T09:30:28.000Z</time>
      </trkpt>
      <trkpt lat="47.2904" lon="-2.22979">
        <ele>7.4000000953674</ele>
        <time>2021-04-29T09:30:29.000Z</time>
      </trkpt>
      <trkpt lat="47.29043" lon="-2.22987">
        <ele>7.4000000953674</ele>
        <time>2021-04-29T09:30:30.000Z</time>
      </trkpt>
      <trkpt lat="47.29046" lon="-2.22995">
        <ele>7.4000000953674</ele>
        <time>2021-04-29T09:30:31.000Z</time>
      </trkpt>
      <trkpt lat="47.29051" lon="-2.23001">
        <ele>7.4000000953674</ele>
        <time>2021-04-29T09:30:32.000Z</time>
      </trkpt>
      <trkpt lat="47.29062" lon="-2.23012">
        <ele>7.4000000953674</ele>
        <time>2021-04-29T09:30:34.000Z</time>
      </trkpt>
      <trkpt lat="47.29072" lon="-2.23024">
        <ele>7.4000000953674</ele>
        <time>2021-04-29T09:30:36.000Z</time>
      </trkpt>
      <trkpt lat="47.29093" lon="-2.2305">
        <ele>7.4000000953674</ele>
        <time>2021-04-29T09:30:40.000Z</time>
      </trkpt>
      <trkpt lat="47.29132" lon="-2.23101">
        <ele>7.4000000953674</ele>
        <time>2021-04-29T09:30:47.000Z</time>
      </trkpt>
      <trkpt lat="47.29166" lon="-2.23143">
        <ele>7.4000000953674</ele>
        <time>2021-04-29T09:30:53.000Z</time>
      </trkpt>
      <trkpt lat="47.29185" lon="-2.23166">
        <ele>7.4000000953674</ele>
        <time>2021-04-29T09:30:57.000Z</time>
      </trkpt>
      <trkpt lat="47.29188" lon="-2.23173">
        <ele>7.4000000953674</ele>
        <time>2021-04-29T09:30:58.000Z</time>
      </trkpt>
      <trkpt lat="47.292" lon="-2.23196">
        <ele>7.4000000953674</ele>
        <time>2021-04-29T09:31:02.000Z</time>
      </trkpt>
      <trkpt lat="47.29201" lon="-2.23205">
        <ele>7.4000000953674</ele>
        <time>2021-04-29T09:31:03.000Z</time>
      </trkpt>
      <trkpt lat="47.29213" lon="-2.2324">
        <ele>7.4000000953674</ele>
        <time>2021-04-29T09:31:07.000Z</time>
      </trkpt>
      <trkpt lat="47.29224" lon="-2.23253">
        <ele>7.4000000953674</ele>
        <time>2021-04-29T09:31:09.000Z</time>
      </trkpt>
      <trkpt lat="47.29239" lon="-2.23273">
        <ele>7.4000000953674</ele>
        <time>2021-04-29T09:31:12.000Z</time>
      </trkpt>
      <trkpt lat="47.29249" lon="-2.23286">
        <ele>7.4000000953674</ele>
        <time>2021-04-29T09:31:14.000Z</time>
      </trkpt>
      <trkpt lat="47.29261" lon="-2.2331">
        <ele>7.4000000953674</ele>
        <time>2021-04-29T09:31:17.000Z</time>
      </trkpt>
      <trkpt lat="47.29263" lon="-2.23319">
        <ele>7.4000000953674</ele>
        <time>2021-04-29T09:31:18.000Z</time>
      </trkpt>
      <trkpt lat="47.2927" lon="-2.23347">
        <ele>7.4000000953674</ele>
        <time>2021-04-29T09:31:21.000Z</time>
      </trkpt>
      <trkpt lat="47.29272" lon="-2.23356">
        <ele>7.4000000953674</ele>
        <time>2021-04-29T09:31:22.000Z</time>
      </trkpt>
      <trkpt lat="47.29285" lon="-2.23423">
        <ele>7.4000000953674</ele>
        <time>2021-04-29T09:31:29.000Z</time>
      </trkpt>
      <trkpt lat="47.293" lon="-2.23495">
        <ele>7.4000000953674</ele>
        <time>2021-04-29T09:31:37.000Z</time>
      </trkpt>
      <trkpt lat="47.29309" lon="-2.23558">
        <ele>7.4000000953674</ele>
        <time>2021-04-29T09:31:44.000Z</time>
      </trkpt>
      <trkpt lat="47.29311" lon="-2.23616">
        <ele>7.4000000953674</ele>
        <time>2021-04-29T09:31:50.000Z</time>
      </trkpt>
      <trkpt lat="47.29311" lon="-2.23671">
        <ele>7.4000000953674</ele>
        <time>2021-04-29T09:31:56.000Z</time>
      </trkpt>
      <trkpt lat="47.29311" lon="-2.23679">
        <ele>7.4000000953674</ele>
        <time>2021-04-29T09:31:57.000Z</time>
      </trkpt>
      <trkpt lat="47.29312" lon="-2.23715">
        <ele>7.4000000953674</ele>
        <time>2021-04-29T09:32:01.000Z</time>
      </trkpt>
      <trkpt lat="47.29312" lon="-2.23785">
        <ele>7.4000000953674</ele>
        <time>2021-04-29T09:32:09.000Z</time>
      </trkpt>
      <trkpt lat="47.29314" lon="-2.23852">
        <ele>7.4000000953674</ele>
        <time>2021-04-29T09:32:16.000Z</time>
      </trkpt>
      <trkpt lat="47.29324" lon="-2.23896">
        <ele>7.4000000953674</ele>
        <time>2021-04-29T09:32:21.000Z</time>
      </trkpt>
      <trkpt lat="47.29343" lon="-2.23933">
        <ele>7.4000000953674</ele>
        <time>2021-04-29T09:32:26.000Z</time>
      </trkpt>
      <trkpt lat="47.29353" lon="-2.23951">
        <ele>7.4000000953674</ele>
        <time>2021-04-29T09:32:29.000Z</time>
      </trkpt>
      <trkpt lat="47.29359" lon="-2.23964">
        <ele>7.4000000953674</ele>
        <time>2021-04-29T09:32:31.000Z</time>
      </trkpt>
      <trkpt lat="47.2936" lon="-2.23971">
        <ele>7.4000000953674</ele>
        <time>2021-04-29T09:32:32.000Z</time>
      </trkpt>
      <trkpt lat="47.29354" lon="-2.23978">
        <ele>7.4000000953674</ele>
        <time>2021-04-29T09:32:34.000Z</time>
      </trkpt>
      <trkpt lat="47.29339" lon="-2.23977">
        <ele>7.4000000953674</ele>
        <time>2021-04-29T09:32:37.000Z</time>
      </trkpt>
      <trkpt lat="47.29309" lon="-2.23975">
        <ele>7.4000000953674</ele>
        <time>2021-04-29T09:32:43.000Z</time>
      </trkpt>
      <trkpt lat="47.293" lon="-2.23972">
        <ele>7.4000000953674</ele>
        <time>2021-04-29T09:32:45.000Z</time>
      </trkpt>
      <trkpt lat="47.29279" lon="-2.23968">
        <ele>7.4000000953674</ele>
        <time>2021-04-29T09:32:49.000Z</time>
      </trkpt>
      <trkpt lat="47.29273" lon="-2.23969">
        <ele>7.4000000953674</ele>
        <time>2021-04-29T09:32:50.000Z</time>
      </trkpt>
      <trkpt lat="47.29251" lon="-2.23979">
        <ele>7.4000000953674</ele>
        <time>2021-04-29T09:32:54.000Z</time>
      </trkpt>
      <trkpt lat="47.29246" lon="-2.23983">
        <ele>7.4000000953674</ele>
        <time>2021-04-29T09:32:55.000Z</time>
      </trkpt>
      <trkpt lat="47.29226" lon="-2.23998">
        <ele>7.4000000953674</ele>
        <time>2021-04-29T09:32:59.000Z</time>
      </trkpt>
      <trkpt lat="47.29206" lon="-2.24014">
        <ele>7.8000001907349</ele>
        <time>2021-04-29T09:33:03.000Z</time>
      </trkpt>
      <trkpt lat="47.29201" lon="-2.24018">
        <ele>8.1999998092651</ele>
        <time>2021-04-29T09:33:04.000Z</time>
      </trkpt>
      <trkpt lat="47.29196" lon="-2.24021">
        <ele>8.6000003814697</ele>
        <time>2021-04-29T09:33:05.000Z</time>
      </trkpt>
      <trkpt lat="47.2919" lon="-2.24025">
        <ele>9</ele>
        <time>2021-04-29T09:33:06.000Z</time>
      </trkpt>
      <trkpt lat="47.29185" lon="-2.24029">
        <ele>9.3999996185303</ele>
        <time>2021-04-29T09:33:07.000Z</time>
      </trkpt>
      <trkpt lat="47.29166" lon="-2.24046">
        <ele>9.3999996185303</ele>
        <time>2021-04-29T09:33:12.000Z</time>
      </trkpt>
      <trkpt lat="47.29153" lon="-2.24054">
        <ele>10</ele>
        <time>2021-04-29T09:33:15.000Z</time>
      </trkpt>
      <trkpt lat="47.29148" lon="-2.24056">
        <ele>10.800000190735</ele>
        <time>2021-04-29T09:33:16.000Z</time>
      </trkpt>
      <trkpt lat="47.29143" lon="-2.24058">
        <ele>11.199999809265</ele>
        <time>2021-04-29T09:33:17.000Z</time>
      </trkpt>
      <trkpt lat="47.29139" lon="-2.2406">
        <ele>11.60000038147</ele>
        <time>2021-04-29T09:33:18.000Z</time>
      </trkpt>
      <trkpt lat="47.29135" lon="-2.24062">
        <ele>11.60000038147</ele>
        <time>2021-04-29T09:33:19.000Z</time>
      </trkpt>
      <trkpt lat="47.29124" lon="-2.24072">
        <ele>12</ele>
        <time>2021-04-29T09:33:22.000Z</time>
      </trkpt>
      <trkpt lat="47.29123" lon="-2.24076">
        <ele>12.39999961853</ele>
        <time>2021-04-29T09:33:23.000Z</time>
      </trkpt>
      <trkpt lat="47.29124" lon="-2.24081">
        <ele>12.800000190735</ele>
        <time>2021-04-29T09:33:24.000Z</time>
      </trkpt>
      <trkpt lat="47.29125" lon="-2.24085">
        <ele>13.199999809265</ele>
        <time>2021-04-29T09:33:25.000Z</time>
      </trkpt>
      <trkpt lat="47.29127" lon="-2.24091">
        <ele>13.60000038147</ele>
        <time>2021-04-29T09:33:26.000Z</time>
      </trkpt>
      <trkpt lat="47.29134" lon="-2.24125">
        <ele>13.60000038147</ele>
        <time>2021-04-29T09:33:32.000Z</time>
      </trkpt>
      <trkpt lat="47.29133" lon="-2.24131">
        <ele>13.60000038147</ele>
        <time>2021-04-29T09:33:33.000Z</time>
      </trkpt>
      <trkpt lat="47.29135" lon="-2.24144">
        <ele>13.60000038147</ele>
        <time>2021-04-29T09:33:35.000Z</time>
      </trkpt>
      <trkpt lat="47.29143" lon="-2.24176">
        <ele>13.60000038147</ele>
        <time>2021-04-29T09:33:40.000Z</time>
      </trkpt>
      <trkpt lat="47.29155" lon="-2.24227">
        <ele>13.60000038147</ele>
        <time>2021-04-29T09:33:46.000Z</time>
      </trkpt>
      <trkpt lat="47.2917" lon="-2.24286">
        <ele>13.60000038147</ele>
        <time>2021-04-29T09:33:52.000Z</time>
      </trkpt>
      <trkpt lat="47.29188" lon="-2.24334">
        <ele>13.60000038147</ele>
        <time>2021-04-29T09:33:58.000Z</time>
      </trkpt>
      <trkpt lat="47.29213" lon="-2.24392">
        <ele>13.60000038147</ele>
        <time>2021-04-29T09:34:05.000Z</time>
      </trkpt>
      <trkpt lat="47.29227" lon="-2.24439">
        <ele>13.60000038147</ele>
        <time>2021-04-29T09:34:11.000Z</time>
      </trkpt>
      <trkpt lat="47.29235" lon="-2.24469">
        <ele>13.60000038147</ele>
        <time>2021-04-29T09:34:16.000Z</time>
      </trkpt>
      <trkpt lat="47.29243" lon="-2.24474">
        <ele>14</ele>
        <time>2021-04-29T09:34:18.000Z</time>
      </trkpt>
      <trkpt lat="47.29246" lon="-2.24474">
        <ele>14.39999961853</ele>
        <time>2021-04-29T09:34:19.000Z</time>
      </trkpt>
      <trkpt lat="47.29251" lon="-2.24472">
        <ele>15</ele>
        <time>2021-04-29T09:34:20.000Z</time>
      </trkpt>
      <trkpt lat="47.29256" lon="-2.24469">
        <ele>15.39999961853</ele>
        <time>2021-04-29T09:34:21.000Z</time>
      </trkpt>
      <trkpt lat="47.29261" lon="-2.24468">
        <ele>15.800000190735</ele>
        <time>2021-04-29T09:34:22.000Z</time>
      </trkpt>
      <trkpt lat="47.29291" lon="-2.24459">
        <ele>15.800000190735</ele>
        <time>2021-04-29T09:34:28.000Z</time>
      </trkpt>
      <trkpt lat="47.29296" lon="-2.24477">
        <ele>15.800000190735</ele>
        <time>2021-04-29T09:34:31.000Z</time>
      </trkpt>
      <trkpt lat="47.29298" lon="-2.245">
        <ele>15.800000190735</ele>
        <time>2021-04-29T09:34:34.000Z</time>
      </trkpt>
      <trkpt lat="47.29299" lon="-2.24556">
        <ele>15.800000190735</ele>
        <time>2021-04-29T09:34:40.000Z</time>
      </trkpt>
      <trkpt lat="47.29301" lon="-2.24616">
        <ele>15.800000190735</ele>
        <time>2021-04-29T09:34:46.000Z</time>
      </trkpt>
      <trkpt lat="47.29299" lon="-2.24657">
        <ele>15.800000190735</ele>
        <time>2021-04-29T09:34:51.000Z</time>
      </trkpt>
      <trkpt lat="47.293" lon="-2.24674">
        <ele>15.800000190735</ele>
        <time>2021-04-29T09:34:53.000Z</time>
      </trkpt>
      <trkpt lat="47.29305" lon="-2.24697">
        <ele>15.800000190735</ele>
        <time>2021-04-29T09:34:56.000Z</time>
      </trkpt>
      <trkpt lat="47.29306" lon="-2.24704">
        <ele>15.800000190735</ele>
        <time>2021-04-29T09:34:57.000Z</time>
      </trkpt>
      <trkpt lat="47.29312" lon="-2.24733">
        <ele>15.800000190735</ele>
        <time>2021-04-29T09:35:01.000Z</time>
      </trkpt>
      <trkpt lat="47.29313" lon="-2.2474">
        <ele>15.800000190735</ele>
        <time>2021-04-29T09:35:02.000Z</time>
      </trkpt>
      <trkpt lat="47.29317" lon="-2.24757">
        <ele>15.800000190735</ele>
        <time>2021-04-29T09:35:04.000Z</time>
      </trkpt>
      <trkpt lat="47.29321" lon="-2.24768">
        <ele>15.800000190735</ele>
        <time>2021-04-29T09:35:06.000Z</time>
      </trkpt>
      <trkpt lat="47.29322" lon="-2.24775">
        <ele>15.800000190735</ele>
        <time>2021-04-29T09:35:07.000Z</time>
      </trkpt>
      <trkpt lat="47.29326" lon="-2.24796">
        <ele>15.800000190735</ele>
        <time>2021-04-29T09:35:10.000Z</time>
      </trkpt>
      <trkpt lat="47.29334" lon="-2.24849">
        <ele>15.800000190735</ele>
        <time>2021-04-29T09:35:17.000Z</time>
      </trkpt>
      <trkpt lat="47.29334" lon="-2.24858">
        <ele>15.800000190735</ele>
        <time>2021-04-29T09:35:18.000Z</time>
      </trkpt>
      <trkpt lat="47.29336" lon="-2.24888">
        <ele>16.200000762939</ele>
        <time>2021-04-29T09:35:22.000Z</time>
      </trkpt>
      <trkpt lat="47.29335" lon="-2.24895">
        <ele>16.60000038147</ele>
        <time>2021-04-29T09:35:23.000Z</time>
      </trkpt>
      <trkpt lat="47.29333" lon="-2.24901">
        <ele>17</ele>
        <time>2021-04-29T09:35:24.000Z</time>
      </trkpt>
      <trkpt lat="47.2933" lon="-2.24909">
        <ele>17.39999961853</ele>
        <time>2021-04-29T09:35:25.000Z</time>
      </trkpt>
      <trkpt lat="47.29324" lon="-2.24913">
        <ele>17.799999237061</ele>
        <time>2021-04-29T09:35:26.000Z</time>
      </trkpt>
      <trkpt lat="47.29308" lon="-2.24915">
        <ele>17.799999237061</ele>
        <time>2021-04-29T09:35:29.000Z</time>
      </trkpt>
      <trkpt lat="47.2927" lon="-2.24918">
        <ele>17.799999237061</ele>
        <time>2021-04-29T09:35:36.000Z</time>
      </trkpt>
      <trkpt lat="47.29264" lon="-2.2492">
        <ele>17.799999237061</ele>
        <time>2021-04-29T09:35:37.000Z</time>
      </trkpt>
      <trkpt lat="47.29258" lon="-2.24929">
        <ele>17.799999237061</ele>
        <time>2021-04-29T09:35:39.000Z</time>
      </trkpt>
      <trkpt lat="47.29259" lon="-2.24951">
        <ele>17.799999237061</ele>
        <time>2021-04-29T09:35:42.000Z</time>
      </trkpt>
      <trkpt lat="47.29266" lon="-2.24984">
        <ele>17.799999237061</ele>
        <time>2021-04-29T09:35:47.000Z</time>
      </trkpt>
      <trkpt lat="47.2928" lon="-2.25043">
        <ele>17.799999237061</ele>
        <time>2021-04-29T09:35:55.000Z</time>
      </trkpt>
      <trkpt lat="47.29293" lon="-2.251">
        <ele>17.799999237061</ele>
        <time>2021-04-29T09:36:02.000Z</time>
      </trkpt>
      <trkpt lat="47.29297" lon="-2.2512">
        <ele>17.799999237061</ele>
        <time>2021-04-29T09:36:04.000Z</time>
      </trkpt>
      <trkpt lat="47.29303" lon="-2.2516">
        <ele>17</ele>
        <time>2021-04-29T09:36:08.000Z</time>
      </trkpt>
      <trkpt lat="47.29304" lon="-2.2517">
        <ele>16.60000038147</ele>
        <time>2021-04-29T09:36:09.000Z</time>
      </trkpt>
      <trkpt lat="47.29305" lon="-2.2518">
        <ele>16.200000762939</ele>
        <time>2021-04-29T09:36:10.000Z</time>
      </trkpt>
      <trkpt lat="47.29307" lon="-2.25187">
        <ele>15.800000190735</ele>
        <time>2021-04-29T09:36:11.000Z</time>
      </trkpt>
      <trkpt lat="47.29316" lon="-2.25199">
        <ele>15.800000190735</ele>
        <time>2021-04-29T09:36:13.000Z</time>
      </trkpt>
      <trkpt lat="47.29325" lon="-2.25197">
        <ele>15.800000190735</ele>
        <time>2021-04-29T09:36:15.000Z</time>
      </trkpt>
      <trkpt lat="47.29345" lon="-2.25197">
        <ele>15.800000190735</ele>
        <time>2021-04-29T09:36:19.000Z</time>
      </trkpt>
      <trkpt lat="47.29381" lon="-2.25207">
        <ele>15.800000190735</ele>
        <time>2021-04-29T09:36:25.000Z</time>
      </trkpt>
      <trkpt lat="47.29412" lon="-2.25214">
        <ele>15.800000190735</ele>
        <time>2021-04-29T09:36:30.000Z</time>
      </trkpt>
      <trkpt lat="47.29418" lon="-2.25213">
        <ele>15.800000190735</ele>
        <time>2021-04-29T09:36:31.000Z</time>
      </trkpt>
      <trkpt lat="47.29436" lon="-2.25208">
        <ele>15.800000190735</ele>
        <time>2021-04-29T09:36:34.000Z</time>
      </trkpt>
      <trkpt lat="47.29447" lon="-2.25204">
        <ele>15.800000190735</ele>
        <time>2021-04-29T09:36:36.000Z</time>
      </trkpt>
      <trkpt lat="47.29494" lon="-2.25191">
        <ele>15.800000190735</ele>
        <time>2021-04-29T09:36:44.000Z</time>
      </trkpt>
      <trkpt lat="47.29525" lon="-2.25181">
        <ele>16.200000762939</ele>
        <time>2021-04-29T09:36:50.000Z</time>
      </trkpt>
      <trkpt lat="47.2953" lon="-2.2518">
        <ele>16.60000038147</ele>
        <time>2021-04-29T09:36:51.000Z</time>
      </trkpt>
      <trkpt lat="47.29533" lon="-2.2518">
        <ele>17</ele>
        <time>2021-04-29T09:36:52.000Z</time>
      </trkpt>
      <trkpt lat="47.29537" lon="-2.2518">
        <ele>17.39999961853</ele>
        <time>2021-04-29T09:36:53.000Z</time>
      </trkpt>
      <trkpt lat="47.2954" lon="-2.25181">
        <ele>18</ele>
        <time>2021-04-29T09:36:54.000Z</time>
      </trkpt>
      <trkpt lat="47.29542" lon="-2.25184">
        <ele>18</ele>
        <time>2021-04-29T09:36:55.000Z</time>
      </trkpt>
      <trkpt lat="47.29545" lon="-2.25195">
        <ele>18</ele>
        <time>2021-04-29T09:36:58.000Z</time>
      </trkpt>
      <trkpt lat="47.29545" lon="-2.25199">
        <ele>18</ele>
        <time>2021-04-29T09:36:59.000Z</time>
      </trkpt>
      <trkpt lat="47.2954" lon="-2.25222">
        <ele>18</ele>
        <time>2021-04-29T09:37:03.000Z</time>
      </trkpt>
      <trkpt lat="47.29537" lon="-2.25259">
        <ele>18</ele>
        <time>2021-04-29T09:37:08.000Z</time>
      </trkpt>
      <trkpt lat="47.29537" lon="-2.25275">
        <ele>18</ele>
        <time>2021-04-29T09:37:10.000Z</time>
      </trkpt>
      <trkpt lat="47.2954" lon="-2.25294">
        <ele>18</ele>
        <time>2021-04-29T09:37:12.000Z</time>
      </trkpt>
      <trkpt lat="47.29544" lon="-2.25311">
        <ele>18</ele>
        <time>2021-04-29T09:37:14.000Z</time>
      </trkpt>
      <trkpt lat="47.29552" lon="-2.25333">
        <ele>18</ele>
        <time>2021-04-29T09:37:17.000Z</time>
      </trkpt>
      <trkpt lat="47.29564" lon="-2.25355">
        <ele>18.39999961853</ele>
        <time>2021-04-29T09:37:20.000Z</time>
      </trkpt>
      <trkpt lat="47.29568" lon="-2.25363">
        <ele>18.799999237061</ele>
        <time>2021-04-29T09:37:21.000Z</time>
      </trkpt>
      <trkpt lat="47.29571" lon="-2.25371">
        <ele>19.200000762939</ele>
        <time>2021-04-29T09:37:22.000Z</time>
      </trkpt>
      <trkpt lat="47.29574" lon="-2.2538">
        <ele>20</ele>
        <time>2021-04-29T09:37:23.000Z</time>
      </trkpt>
      <trkpt lat="47.29579" lon="-2.25397">
        <ele>20</ele>
        <time>2021-04-29T09:37:25.000Z</time>
      </trkpt>
      <trkpt lat="47.29582" lon="-2.25416">
        <ele>20</ele>
        <time>2021-04-29T09:37:27.000Z</time>
      </trkpt>
      <trkpt lat="47.29584" lon="-2.25445">
        <ele>20</ele>
        <time>2021-04-29T09:37:30.000Z</time>
      </trkpt>
      <trkpt lat="47.29585" lon="-2.25464">
        <ele>20.39999961853</ele>
        <time>2021-04-29T09:37:32.000Z</time>
      </trkpt>
      <trkpt lat="47.29585" lon="-2.25473">
        <ele>20.799999237061</ele>
        <time>2021-04-29T09:37:33.000Z</time>
      </trkpt>
      <trkpt lat="47.29586" lon="-2.25483">
        <ele>21.200000762939</ele>
        <time>2021-04-29T09:37:34.000Z</time>
      </trkpt>
      <trkpt lat="47.29585" lon="-2.25492">
        <ele>21.60000038147</ele>
        <time>2021-04-29T09:37:35.000Z</time>
      </trkpt>
      <trkpt lat="47.29584" lon="-2.25502">
        <ele>22.200000762939</ele>
        <time>2021-04-29T09:37:36.000Z</time>
      </trkpt>
      <trkpt lat="47.29579" lon="-2.25521">
        <ele>22.200000762939</ele>
        <time>2021-04-29T09:37:38.000Z</time>
      </trkpt>
      <trkpt lat="47.29565" lon="-2.25544">
        <ele>22.200000762939</ele>
        <time>2021-04-29T09:37:41.000Z</time>
      </trkpt>
      <trkpt lat="47.29545" lon="-2.25559">
        <ele>22.200000762939</ele>
        <time>2021-04-29T09:37:44.000Z</time>
      </trkpt>
      <trkpt lat="47.29517" lon="-2.25576">
        <ele>22.60000038147</ele>
        <time>2021-04-29T09:37:49.000Z</time>
      </trkpt>
      <trkpt lat="47.29511" lon="-2.2558">
        <ele>23</ele>
        <time>2021-04-29T09:37:50.000Z</time>
      </trkpt>
      <trkpt lat="47.29505" lon="-2.25585">
        <ele>23.39999961853</ele>
        <time>2021-04-29T09:37:51.000Z</time>
      </trkpt>
      <trkpt lat="47.29499" lon="-2.25588">
        <ele>23.799999237061</ele>
        <time>2021-04-29T09:37:52.000Z</time>
      </trkpt>
      <trkpt lat="47.29494" lon="-2.25592">
        <ele>24.200000762939</ele>
        <time>2021-04-29T09:37:53.000Z</time>
      </trkpt>
      <trkpt lat="47.29454" lon="-2.25612">
        <ele>24.60000038147</ele>
        <time>2021-04-29T09:38:00.000Z</time>
      </trkpt>
      <trkpt lat="47.29448" lon="-2.25614">
        <ele>25</ele>
        <time>2021-04-29T09:38:01.000Z</time>
      </trkpt>
      <trkpt lat="47.29443" lon="-2.25616">
        <ele>25.39999961853</ele>
        <time>2021-04-29T09:38:02.000Z</time>
      </trkpt>
      <trkpt lat="47.29438" lon="-2.25618">
        <ele>25.799999237061</ele>
        <time>2021-04-29T09:38:03.000Z</time>
      </trkpt>
      <trkpt lat="47.29432" lon="-2.25621">
        <ele>26.200000762939</ele>
        <time>2021-04-29T09:38:04.000Z</time>
      </trkpt>
      <trkpt lat="47.29409" lon="-2.2563">
        <ele>26.200000762939</ele>
        <time>2021-04-29T09:38:08.000Z</time>
      </trkpt>
      <trkpt lat="47.29404" lon="-2.25633">
        <ele>26.200000762939</ele>
        <time>2021-04-29T09:38:09.000Z</time>
      </trkpt>
      <trkpt lat="47.2939" lon="-2.25649">
        <ele>26.200000762939</ele>
        <time>2021-04-29T09:38:12.000Z</time>
      </trkpt>
      <trkpt lat="47.29385" lon="-2.25665">
        <ele>26.200000762939</ele>
        <time>2021-04-29T09:38:14.000Z</time>
      </trkpt>
      <trkpt lat="47.29382" lon="-2.25683">
        <ele>26.200000762939</ele>
        <time>2021-04-29T09:38:16.000Z</time>
      </trkpt>
      <trkpt lat="47.29369" lon="-2.25739">
        <ele>26.200000762939</ele>
        <time>2021-04-29T09:38:22.000Z</time>
      </trkpt>
      <trkpt lat="47.2936" lon="-2.2576">
        <ele>26.200000762939</ele>
        <time>2021-04-29T09:38:25.000Z</time>
      </trkpt>
      <trkpt lat="47.29356" lon="-2.25766">
        <ele>26.200000762939</ele>
        <time>2021-04-29T09:38:26.000Z</time>
      </trkpt>
      <trkpt lat="47.29346" lon="-2.25775">
        <ele>26.200000762939</ele>
        <time>2021-04-29T09:38:28.000Z</time>
      </trkpt>
      <trkpt lat="47.2933" lon="-2.25783">
        <ele>26.200000762939</ele>
        <time>2021-04-29T09:38:31.000Z</time>
      </trkpt>
      <trkpt lat="47.29326" lon="-2.25787">
        <ele>26.200000762939</ele>
        <time>2021-04-29T09:38:35.000Z</time>
      </trkpt>
      <trkpt lat="47.29329" lon="-2.25788">
        <ele>26.200000762939</ele>
        <time>2021-04-29T09:38:37.000Z</time>
      </trkpt>
      <trkpt lat="47.29334" lon="-2.25791">
        <ele>26.200000762939</ele>
        <time>2021-04-29T09:38:40.000Z</time>
      </trkpt>
      <trkpt lat="47.29344" lon="-2.25792">
        <ele>25.799999237061</ele>
        <time>2021-04-29T09:38:44.000Z</time>
      </trkpt>
      <trkpt lat="47.29347" lon="-2.25792">
        <ele>25.39999961853</ele>
        <time>2021-04-29T09:38:45.000Z</time>
      </trkpt>
      <trkpt lat="47.29349" lon="-2.25791">
        <ele>25</ele>
        <time>2021-04-29T09:38:46.000Z</time>
      </trkpt>
      <trkpt lat="47.29351" lon="-2.2579">
        <ele>24.60000038147</ele>
        <time>2021-04-29T09:38:47.000Z</time>
      </trkpt>
      <trkpt lat="47.29353" lon="-2.25788">
        <ele>24.200000762939</ele>
        <time>2021-04-29T09:38:48.000Z</time>
      </trkpt>
      <trkpt lat="47.29356" lon="-2.25784">
        <ele>24.200000762939</ele>
        <time>2021-04-29T09:38:50.000Z</time>
      </trkpt>
      <trkpt lat="47.29357" lon="-2.25781">
        <ele>24.200000762939</ele>
        <time>2021-04-29T09:38:51.000Z</time>
      </trkpt>
      <trkpt lat="47.29359" lon="-2.25772">
        <ele>24.200000762939</ele>
        <time>2021-04-29T09:38:54.000Z</time>
      </trkpt>
      <trkpt lat="47.29359" lon="-2.25769">
        <ele>24.200000762939</ele>
        <time>2021-04-29T09:38:55.000Z</time>
      </trkpt>
      <trkpt lat="47.29362" lon="-2.25765">
        <ele>24.200000762939</ele>
        <time>2021-04-29T09:38:58.000Z</time>
      </trkpt>
      <trkpt lat="47.29364" lon="-2.25765">
        <ele>24.200000762939</ele>
        <time>2021-04-29T09:38:59.000Z</time>
      </trkpt>
      <trkpt lat="47.29374" lon="-2.25757">
        <ele>24.200000762939</ele>
        <time>2021-04-29T09:39:03.000Z</time>
      </trkpt>
      <trkpt lat="47.29377" lon="-2.25755">
        <ele>24.200000762939</ele>
        <time>2021-04-29T09:39:04.000Z</time>
      </trkpt>
      <trkpt lat="47.29389" lon="-2.25754">
        <ele>23.60000038147</ele>
        <time>2021-04-29T09:39:08.000Z</time>
      </trkpt>
      <trkpt lat="47.29392" lon="-2.25755">
        <ele>23.200000762939</ele>
        <time>2021-04-29T09:39:09.000Z</time>
      </trkpt>
      <trkpt lat="47.29395" lon="-2.25757">
        <ele>22.799999237061</ele>
        <time>2021-04-29T09:39:10.000Z</time>
      </trkpt>
      <trkpt lat="47.29398" lon="-2.2576">
        <ele>22.39999961853</ele>
        <time>2021-04-29T09:39:11.000Z</time>
      </trkpt>
      <trkpt lat="47.29401" lon="-2.25762">
        <ele>22</ele>
        <time>2021-04-29T09:39:12.000Z</time>
      </trkpt>
      <trkpt lat="47.29414" lon="-2.25773">
        <ele>22</ele>
        <time>2021-04-29T09:39:15.000Z</time>
      </trkpt>
      <trkpt lat="47.29415" lon="-2.25777">
        <ele>21.60000038147</ele>
        <time>2021-04-29T09:39:16.000Z</time>
      </trkpt>
      <trkpt lat="47.29416" lon="-2.2578">
        <ele>21.200000762939</ele>
        <time>2021-04-29T09:39:17.000Z</time>
      </trkpt>
      <trkpt lat="47.29417" lon="-2.25785">
        <ele>20.799999237061</ele>
        <time>2021-04-29T09:39:18.000Z</time>
      </trkpt>
      <trkpt lat="47.29417" lon="-2.25789">
        <ele>20.39999961853</ele>
        <time>2021-04-29T09:39:19.000Z</time>
      </trkpt>
      <trkpt lat="47.29417" lon="-2.25792">
        <ele>20</ele>
        <time>2021-04-29T09:39:20.000Z</time>
      </trkpt>
      <trkpt lat="47.2942" lon="-2.25801">
        <ele>20</ele>
        <time>2021-04-29T09:39:22.000Z</time>
      </trkpt>
      <trkpt lat="47.29421" lon="-2.25814">
        <ele>20</ele>
        <time>2021-04-29T09:39:24.000Z</time>
      </trkpt>
      <trkpt lat="47.2942" lon="-2.25827">
        <ele>20</ele>
        <time>2021-04-29T09:39:26.000Z</time>
      </trkpt>
      <trkpt lat="47.29423" lon="-2.25869">
        <ele>20</ele>
        <time>2021-04-29T09:39:32.000Z</time>
      </trkpt>
      <trkpt lat="47.29437" lon="-2.25906">
        <ele>20</ele>
        <time>2021-04-29T09:39:36.000Z</time>
      </trkpt>
      <trkpt lat="47.29442" lon="-2.25916">
        <ele>20</ele>
        <time>2021-04-29T09:39:37.000Z</time>
      </trkpt>
      <trkpt lat="47.29444" lon="-2.25937">
        <ele>20</ele>
        <time>2021-04-29T09:39:40.000Z</time>
      </trkpt>
      <trkpt lat="47.29441" lon="-2.25941">
        <ele>20</ele>
        <time>2021-04-29T09:39:41.000Z</time>
      </trkpt>
      <trkpt lat="47.29419" lon="-2.2596">
        <ele>20</ele>
        <time>2021-04-29T09:39:47.000Z</time>
      </trkpt>
      <trkpt lat="47.294" lon="-2.25959">
        <ele>20</ele>
        <time>2021-04-29T09:39:51.000Z</time>
      </trkpt>
      <trkpt lat="47.29388" lon="-2.25977">
        <ele>20</ele>
        <time>2021-04-29T09:39:56.000Z</time>
      </trkpt>
      <trkpt lat="47.29386" lon="-2.25984">
        <ele>20</ele>
        <time>2021-04-29T09:39:57.000Z</time>
      </trkpt>
      <trkpt lat="47.29381" lon="-2.26006">
        <ele>20</ele>
        <time>2021-04-29T09:40:00.000Z</time>
      </trkpt>
      <trkpt lat="47.29382" lon="-2.26015">
        <ele>20</ele>
        <time>2021-04-29T09:40:01.000Z</time>
      </trkpt>
      <trkpt lat="47.29383" lon="-2.2603">
        <ele>20</ele>
        <time>2021-04-29T09:40:03.000Z</time>
      </trkpt>
      <trkpt lat="47.29386" lon="-2.2604">
        <ele>20</ele>
        <time>2021-04-29T09:40:05.000Z</time>
      </trkpt>
      <trkpt lat="47.29389" lon="-2.26046">
        <ele>20</ele>
        <time>2021-04-29T09:40:06.000Z</time>
      </trkpt>
      <trkpt lat="47.29392" lon="-2.26051">
        <ele>20</ele>
        <time>2021-04-29T09:40:07.000Z</time>
      </trkpt>
      <trkpt lat="47.29398" lon="-2.26063">
        <ele>20</ele>
        <time>2021-04-29T09:40:09.000Z</time>
      </trkpt>
      <trkpt lat="47.29406" lon="-2.26082">
        <ele>20</ele>
        <time>2021-04-29T09:40:12.000Z</time>
      </trkpt>
      <trkpt lat="47.29411" lon="-2.26115">
        <ele>20</ele>
        <time>2021-04-29T09:40:17.000Z</time>
      </trkpt>
      <trkpt lat="47.29409" lon="-2.26146">
        <ele>20</ele>
        <time>2021-04-29T09:40:22.000Z</time>
      </trkpt>
      <trkpt lat="47.29407" lon="-2.26149">
        <ele>20</ele>
        <time>2021-04-29T09:40:23.000Z</time>
      </trkpt>
      <trkpt lat="47.29402" lon="-2.26156">
        <ele>20.39999961853</ele>
        <time>2021-04-29T09:40:25.000Z</time>
      </trkpt>
      <trkpt lat="47.294" lon="-2.26158">
        <ele>20.799999237061</ele>
        <time>2021-04-29T09:40:26.000Z</time>
      </trkpt>
      <trkpt lat="47.29397" lon="-2.26159">
        <ele>21.200000762939</ele>
        <time>2021-04-29T09:40:27.000Z</time>
      </trkpt>
      <trkpt lat="47.29395" lon="-2.2616">
        <ele>21.60000038147</ele>
        <time>2021-04-29T09:40:28.000Z</time>
      </trkpt>
      <trkpt lat="47.29392" lon="-2.2616">
        <ele>22</ele>
        <time>2021-04-29T09:40:29.000Z</time>
      </trkpt>
      <trkpt lat="47.29386" lon="-2.26159">
        <ele>22</ele>
        <time>2021-04-29T09:40:32.000Z</time>
      </trkpt>
      <trkpt lat="47.29378" lon="-2.26158">
        <ele>22</ele>
        <time>2021-04-29T09:40:38.000Z</time>
      </trkpt>
      <trkpt lat="47.29377" lon="-2.26159">
        <ele>22</ele>
        <time>2021-04-29T09:40:40.000Z</time>
      </trkpt>
      <trkpt lat="47.29374" lon="-2.26157">
        <ele>22</ele>
        <time>2021-04-29T09:42:05.000Z</time>
      </trkpt>
      <trkpt lat="47.29371" lon="-2.26152">
        <ele>22</ele>
        <time>2021-04-29T09:42:07.000Z</time>
      </trkpt>
      <trkpt lat="47.29363" lon="-2.26142">
        <ele>22.60000038147</ele>
        <time>2021-04-29T09:42:10.000Z</time>
      </trkpt>
      <trkpt lat="47.2936" lon="-2.26137">
        <ele>23</ele>
        <time>2021-04-29T09:42:11.000Z</time>
      </trkpt>
      <trkpt lat="47.29357" lon="-2.26133">
        <ele>23.39999961853</ele>
        <time>2021-04-29T09:42:12.000Z</time>
      </trkpt>
      <trkpt lat="47.29354" lon="-2.26129">
        <ele>23.799999237061</ele>
        <time>2021-04-29T09:42:13.000Z</time>
      </trkpt>
      <trkpt lat="47.29352" lon="-2.26125">
        <ele>24.200000762939</ele>
        <time>2021-04-29T09:42:14.000Z</time>
      </trkpt>
      <trkpt lat="47.2934" lon="-2.26105">
        <ele>24.200000762939</ele>
        <time>2021-04-29T09:42:18.000Z</time>
      </trkpt>
      <trkpt lat="47.29327" lon="-2.26072">
        <ele>24.200000762939</ele>
        <time>2021-04-29T09:42:24.000Z</time>
      </trkpt>
      <trkpt lat="47.2932" lon="-2.26048">
        <ele>24.200000762939</ele>
        <time>2021-04-29T09:42:28.000Z</time>
      </trkpt>
      <trkpt lat="47.29317" lon="-2.26036">
        <ele>24.200000762939</ele>
        <time>2021-04-29T09:42:30.000Z</time>
      </trkpt>
      <trkpt lat="47.2931" lon="-2.26">
        <ele>24.200000762939</ele>
        <time>2021-04-29T09:42:35.000Z</time>
      </trkpt>
      <trkpt lat="47.29308" lon="-2.25978">
        <ele>24.200000762939</ele>
        <time>2021-04-29T09:42:39.000Z</time>
      </trkpt>
      <trkpt lat="47.29315" lon="-2.25956">
        <ele>24.200000762939</ele>
        <time>2021-04-29T09:42:43.000Z</time>
      </trkpt>
      <trkpt lat="47.29317" lon="-2.25918">
        <ele>24.200000762939</ele>
        <time>2021-04-29T09:42:48.000Z</time>
      </trkpt>
      <trkpt lat="47.29311" lon="-2.25897">
        <ele>24.200000762939</ele>
        <time>2021-04-29T09:42:51.000Z</time>
      </trkpt>
      <trkpt lat="47.29306" lon="-2.25888">
        <ele>24.200000762939</ele>
        <time>2021-04-29T09:42:53.000Z</time>
      </trkpt>
      <trkpt lat="47.29299" lon="-2.25861">
        <ele>24.200000762939</ele>
        <time>2021-04-29T09:42:59.000Z</time>
      </trkpt>
      <trkpt lat="47.293" lon="-2.25859">
        <ele>24.200000762939</ele>
        <time>2021-04-29T09:43:01.000Z</time>
      </trkpt>
      <trkpt lat="47.29305" lon="-2.2587">
        <ele>24.200000762939</ele>
        <time>2021-04-29T09:43:04.000Z</time>
      </trkpt>
      <trkpt lat="47.2931" lon="-2.25878">
        <ele>24.200000762939</ele>
        <time>2021-04-29T09:43:06.000Z</time>
      </trkpt>
      <trkpt lat="47.29313" lon="-2.25883">
        <ele>24.200000762939</ele>
        <time>2021-04-29T09:43:07.000Z</time>
      </trkpt>
      <trkpt lat="47.29316" lon="-2.25888">
        <ele>24.200000762939</ele>
        <time>2021-04-29T09:43:08.000Z</time>
      </trkpt>
      <trkpt lat="47.29323" lon="-2.25893">
        <ele>24.200000762939</ele>
        <time>2021-04-29T09:43:09.000Z</time>
      </trkpt>
      <trkpt lat="47.29335" lon="-2.259">
        <ele>24.200000762939</ele>
        <time>2021-04-29T09:43:11.000Z</time>
      </trkpt>
      <trkpt lat="47.29351" lon="-2.25917">
        <ele>24.200000762939</ele>
        <time>2021-04-29T09:43:15.000Z</time>
      </trkpt>
      <trkpt lat="47.29354" lon="-2.25921">
        <ele>24.200000762939</ele>
        <time>2021-04-29T09:43:16.000Z</time>
      </trkpt>
      <trkpt lat="47.29355" lon="-2.25929">
        <ele>24.200000762939</ele>
        <time>2021-04-29T09:43:18.000Z</time>
      </trkpt>
      <trkpt lat="47.29344" lon="-2.25931">
        <ele>24.200000762939</ele>
        <time>2021-04-29T09:43:21.000Z</time>
      </trkpt>
      <trkpt lat="47.29329" lon="-2.25916">
        <ele>24.200000762939</ele>
        <time>2021-04-29T09:43:25.000Z</time>
      </trkpt>
      <trkpt lat="47.29321" lon="-2.25906">
        <ele>24.200000762939</ele>
        <time>2021-04-29T09:43:28.000Z</time>
      </trkpt>
      <trkpt lat="47.2932" lon="-2.25908">
        <ele>24.200000762939</ele>
        <time>2021-04-29T09:43:29.000Z</time>
      </trkpt>
      <trkpt lat="47.29317" lon="-2.25912">
        <ele>24.200000762939</ele>
        <time>2021-04-29T09:43:32.000Z</time>
      </trkpt>
      <trkpt lat="47.29312" lon="-2.25916">
        <ele>24.200000762939</ele>
        <time>2021-04-29T09:43:35.000Z</time>
      </trkpt>
      <trkpt lat="47.29308" lon="-2.25919">
        <ele>24.200000762939</ele>
        <time>2021-04-29T09:43:37.000Z</time>
      </trkpt>
      <trkpt lat="47.29294" lon="-2.25932">
        <ele>24.200000762939</ele>
        <time>2021-04-29T09:43:42.000Z</time>
      </trkpt>
      <trkpt lat="47.29272" lon="-2.25951">
        <ele>24.200000762939</ele>
        <time>2021-04-29T09:43:48.000Z</time>
      </trkpt>
      <trkpt lat="47.29268" lon="-2.25954">
        <ele>24.200000762939</ele>
        <time>2021-04-29T09:43:49.000Z</time>
      </trkpt>
      <trkpt lat="47.29259" lon="-2.2596">
        <ele>24.200000762939</ele>
        <time>2021-04-29T09:43:51.000Z</time>
      </trkpt>
      <trkpt lat="47.29246" lon="-2.25969">
        <ele>24.200000762939</ele>
        <time>2021-04-29T09:43:54.000Z</time>
      </trkpt>
      <trkpt lat="47.29214" lon="-2.25981">
        <ele>24.200000762939</ele>
        <time>2021-04-29T09:44:00.000Z</time>
      </trkpt>
      <trkpt lat="47.29186" lon="-2.25987">
        <ele>24.200000762939</ele>
        <time>2021-04-29T09:44:05.000Z</time>
      </trkpt>
      <trkpt lat="47.2918" lon="-2.25986">
        <ele>24.200000762939</ele>
        <time>2021-04-29T09:44:06.000Z</time>
      </trkpt>
      <trkpt lat="47.29163" lon="-2.25985">
        <ele>24.200000762939</ele>
        <time>2021-04-29T09:44:09.000Z</time>
      </trkpt>
      <trkpt lat="47.29153" lon="-2.25983">
        <ele>24.200000762939</ele>
        <time>2021-04-29T09:44:11.000Z</time>
      </trkpt>
      <trkpt lat="47.29131" lon="-2.2598">
        <ele>24.200000762939</ele>
        <time>2021-04-29T09:44:16.000Z</time>
      </trkpt>
      <trkpt lat="47.29115" lon="-2.25976">
        <ele>24.200000762939</ele>
        <time>2021-04-29T09:44:22.000Z</time>
      </trkpt>
      <trkpt lat="47.29103" lon="-2.25979">
        <ele>24.200000762939</ele>
        <time>2021-04-29T09:44:27.000Z</time>
      </trkpt>
      <trkpt lat="47.29099" lon="-2.25987">
        <ele>24.200000762939</ele>
        <time>2021-04-29T09:44:31.000Z</time>
      </trkpt>
      <trkpt lat="47.29097" lon="-2.25989">
        <ele>24.200000762939</ele>
        <time>2021-04-29T09:44:32.000Z</time>
      </trkpt>
      <trkpt lat="47.29088" lon="-2.25996">
        <ele>24.200000762939</ele>
        <time>2021-04-29T09:44:38.000Z</time>
      </trkpt>
      <trkpt lat="47.29085" lon="-2.26001">
        <ele>24.200000762939</ele>
        <time>2021-04-29T09:44:41.000Z</time>
      </trkpt>
      <trkpt lat="47.29082" lon="-2.26005">
        <ele>24.200000762939</ele>
        <time>2021-04-29T09:44:43.000Z</time>
      </trkpt>
      <trkpt lat="47.29081" lon="-2.26014">
        <ele>24.200000762939</ele>
        <time>2021-04-29T09:44:46.000Z</time>
      </trkpt>
      <trkpt lat="47.29084" lon="-2.26021">
        <ele>24.200000762939</ele>
        <time>2021-04-29T09:44:48.000Z</time>
      </trkpt>
      <trkpt lat="47.29088" lon="-2.26034">
        <ele>24.200000762939</ele>
        <time>2021-04-29T09:44:51.000Z</time>
      </trkpt>
      <trkpt lat="47.29097" lon="-2.26061">
        <ele>24.200000762939</ele>
        <time>2021-04-29T09:44:57.000Z</time>
      </trkpt>
      <trkpt lat="47.29106" lon="-2.26094">
        <ele>24.200000762939</ele>
        <time>2021-04-29T09:45:04.000Z</time>
      </trkpt>
      <trkpt lat="47.29101" lon="-2.26119">
        <ele>24.200000762939</ele>
        <time>2021-04-29T09:45:09.000Z</time>
      </trkpt>
      <trkpt lat="47.29095" lon="-2.26144">
        <ele>24.200000762939</ele>
        <time>2021-04-29T09:45:14.000Z</time>
      </trkpt>
      <trkpt lat="47.29091" lon="-2.26179">
        <ele>24.200000762939</ele>
        <time>2021-04-29T09:45:20.000Z</time>
      </trkpt>
      <trkpt lat="47.29083" lon="-2.26224">
        <ele>24.200000762939</ele>
        <time>2021-04-29T09:45:27.000Z</time>
      </trkpt>
      <trkpt lat="47.29082" lon="-2.26231">
        <ele>24.200000762939</ele>
        <time>2021-04-29T09:45:28.000Z</time>
      </trkpt>
      <trkpt lat="47.29076" lon="-2.26263">
        <ele>24.60000038147</ele>
        <time>2021-04-29T09:45:33.000Z</time>
      </trkpt>
      <trkpt lat="47.29075" lon="-2.2627">
        <ele>25</ele>
        <time>2021-04-29T09:45:34.000Z</time>
      </trkpt>
      <trkpt lat="47.29074" lon="-2.26276">
        <ele>25.39999961853</ele>
        <time>2021-04-29T09:45:35.000Z</time>
      </trkpt>
      <trkpt lat="47.29072" lon="-2.26282">
        <ele>26</ele>
        <time>2021-04-29T09:45:36.000Z</time>
      </trkpt>
      <trkpt lat="47.29071" lon="-2.26288">
        <ele>26.39999961853</ele>
        <time>2021-04-29T09:45:37.000Z</time>
      </trkpt>
      <trkpt lat="47.29063" lon="-2.26321">
        <ele>26.39999961853</ele>
        <time>2021-04-29T09:45:42.000Z</time>
      </trkpt>
      <trkpt lat="47.29061" lon="-2.26327">
        <ele>26.39999961853</ele>
        <time>2021-04-29T09:45:43.000Z</time>
      </trkpt>
      <trkpt lat="47.29051" lon="-2.26341">
        <ele>26.39999961853</ele>
        <time>2021-04-29T09:45:46.000Z</time>
      </trkpt>
      <trkpt lat="47.2904" lon="-2.26353">
        <ele>26.39999961853</ele>
        <time>2021-04-29T09:45:49.000Z</time>
      </trkpt>
      <trkpt lat="47.29028" lon="-2.26362">
        <ele>26.39999961853</ele>
        <time>2021-04-29T09:45:52.000Z</time>
      </trkpt>
      <trkpt lat="47.29018" lon="-2.26372">
        <ele>26.39999961853</ele>
        <time>2021-04-29T09:45:55.000Z</time>
      </trkpt>
      <trkpt lat="47.29013" lon="-2.26382">
        <ele>26.39999961853</ele>
        <time>2021-04-29T09:45:57.000Z</time>
      </trkpt>
      <trkpt lat="47.29008" lon="-2.26399">
        <ele>26.39999961853</ele>
        <time>2021-04-29T09:46:00.000Z</time>
      </trkpt>
      <trkpt lat="47.29009" lon="-2.26414">
        <ele>26.39999961853</ele>
        <time>2021-04-29T09:46:02.000Z</time>
      </trkpt>
      <trkpt lat="47.29014" lon="-2.26454">
        <ele>26.39999961853</ele>
        <time>2021-04-29T09:46:06.000Z</time>
      </trkpt>
      <trkpt lat="47.29022" lon="-2.2651">
        <ele>26.39999961853</ele>
        <time>2021-04-29T09:46:11.000Z</time>
      </trkpt>
      <trkpt lat="47.29027" lon="-2.26531">
        <ele>26.39999961853</ele>
        <time>2021-04-29T09:46:13.000Z</time>
      </trkpt>
      <trkpt lat="47.29034" lon="-2.26558">
        <ele>26.39999961853</ele>
        <time>2021-04-29T09:46:16.000Z</time>
      </trkpt>
      <trkpt lat="47.29039" lon="-2.26578">
        <ele>25.799999237061</ele>
        <time>2021-04-29T09:46:19.000Z</time>
      </trkpt>
      <trkpt lat="47.2904" lon="-2.26585">
        <ele>25.39999961853</ele>
        <time>2021-04-29T09:46:20.000Z</time>
      </trkpt>
      <trkpt lat="47.29041" lon="-2.26593">
        <ele>25</ele>
        <time>2021-04-29T09:46:21.000Z</time>
      </trkpt>
      <trkpt lat="47.29042" lon="-2.26601">
        <ele>24.60000038147</ele>
        <time>2021-04-29T09:46:22.000Z</time>
      </trkpt>
      <trkpt lat="47.29042" lon="-2.2661">
        <ele>24.200000762939</ele>
        <time>2021-04-29T09:46:23.000Z</time>
      </trkpt>
      <trkpt lat="47.29043" lon="-2.26628">
        <ele>24.200000762939</ele>
        <time>2021-04-29T09:46:25.000Z</time>
      </trkpt>
      <trkpt lat="47.29049" lon="-2.26684">
        <ele>24.200000762939</ele>
        <time>2021-04-29T09:46:31.000Z</time>
      </trkpt>
      <trkpt lat="47.29052" lon="-2.26704">
        <ele>23.799999237061</ele>
        <time>2021-04-29T09:46:33.000Z</time>
      </trkpt>
      <trkpt lat="47.29053" lon="-2.26715">
        <ele>23.39999961853</ele>
        <time>2021-04-29T09:46:34.000Z</time>
      </trkpt>
      <trkpt lat="47.29055" lon="-2.26727">
        <ele>22.799999237061</ele>
        <time>2021-04-29T09:46:35.000Z</time>
      </trkpt>
      <trkpt lat="47.29056" lon="-2.26739">
        <ele>22.39999961853</ele>
        <time>2021-04-29T09:46:36.000Z</time>
      </trkpt>
      <trkpt lat="47.29057" lon="-2.26751">
        <ele>22</ele>
        <time>2021-04-29T09:46:37.000Z</time>
      </trkpt>
      <trkpt lat="47.29059" lon="-2.26763">
        <ele>21.60000038147</ele>
        <time>2021-04-29T09:46:38.000Z</time>
      </trkpt>
      <trkpt lat="47.2906" lon="-2.26776">
        <ele>21.200000762939</ele>
        <time>2021-04-29T09:46:39.000Z</time>
      </trkpt>
      <trkpt lat="47.29062" lon="-2.26788">
        <ele>20.799999237061</ele>
        <time>2021-04-29T09:46:40.000Z</time>
      </trkpt>
      <trkpt lat="47.29062" lon="-2.26801">
        <ele>20.39999961853</ele>
        <time>2021-04-29T09:46:41.000Z</time>
      </trkpt>
      <trkpt lat="47.29063" lon="-2.26814">
        <ele>20</ele>
        <time>2021-04-29T09:46:42.000Z</time>
      </trkpt>
      <trkpt lat="47.29063" lon="-2.2685">
        <ele>19.39999961853</ele>
        <time>2021-04-29T09:46:45.000Z</time>
      </trkpt>
      <trkpt lat="47.29063" lon="-2.2686">
        <ele>19</ele>
        <time>2021-04-29T09:46:46.000Z</time>
      </trkpt>
      <trkpt lat="47.29063" lon="-2.26869">
        <ele>18.60000038147</ele>
        <time>2021-04-29T09:46:47.000Z</time>
      </trkpt>
      <trkpt lat="47.29063" lon="-2.26878">
        <ele>18.200000762939</ele>
        <time>2021-04-29T09:46:48.000Z</time>
      </trkpt>
      <trkpt lat="47.29063" lon="-2.26886">
        <ele>17.799999237061</ele>
        <time>2021-04-29T09:46:49.000Z</time>
      </trkpt>
      <trkpt lat="47.29064" lon="-2.26892">
        <ele>17.799999237061</ele>
        <time>2021-04-29T09:46:50.000Z</time>
      </trkpt>
      <trkpt lat="47.29065" lon="-2.26896">
        <ele>17.799999237061</ele>
        <time>2021-04-29T09:46:51.000Z</time>
      </trkpt>
      <trkpt lat="47.29071" lon="-2.26904">
        <ele>17.200000762939</ele>
        <time>2021-04-29T09:46:54.000Z</time>
      </trkpt>
      <trkpt lat="47.29073" lon="-2.26907">
        <ele>16.799999237061</ele>
        <time>2021-04-29T09:46:55.000Z</time>
      </trkpt>
      <trkpt lat="47.29075" lon="-2.2691">
        <ele>16.39999961853</ele>
        <time>2021-04-29T09:46:56.000Z</time>
      </trkpt>
      <trkpt lat="47.29076" lon="-2.26913">
        <ele>16</ele>
        <time>2021-04-29T09:46:57.000Z</time>
      </trkpt>
      <trkpt lat="47.29078" lon="-2.26917">
        <ele>15.60000038147</ele>
        <time>2021-04-29T09:46:58.000Z</time>
      </trkpt>
      <trkpt lat="47.2908" lon="-2.26922">
        <ele>15.60000038147</ele>
        <time>2021-04-29T09:47:00.000Z</time>
      </trkpt>
      <trkpt lat="47.29079" lon="-2.26935">
        <ele>15.60000038147</ele>
        <time>2021-04-29T09:47:04.000Z</time>
      </trkpt>
      <trkpt lat="47.29078" lon="-2.26951">
        <ele>15.60000038147</ele>
        <time>2021-04-29T09:47:09.000Z</time>
      </trkpt>
      <trkpt lat="47.29079" lon="-2.26983">
        <ele>15.60000038147</ele>
        <time>2021-04-29T09:47:15.000Z</time>
      </trkpt>
      <trkpt lat="47.29077" lon="-2.27007">
        <ele>15.60000038147</ele>
        <time>2021-04-29T09:47:19.000Z</time>
      </trkpt>
      <trkpt lat="47.29076" lon="-2.27029">
        <ele>15.60000038147</ele>
        <time>2021-04-29T09:47:23.000Z</time>
      </trkpt>
      <trkpt lat="47.29073" lon="-2.27057">
        <ele>15.60000038147</ele>
        <time>2021-04-29T09:47:27.000Z</time>
      </trkpt>
      <trkpt lat="47.29071" lon="-2.27095">
        <ele>15.60000038147</ele>
        <time>2021-04-29T09:47:33.000Z</time>
      </trkpt>
      <trkpt lat="47.2907" lon="-2.27115">
        <ele>15.60000038147</ele>
        <time>2021-04-29T09:47:36.000Z</time>
      </trkpt>
      <trkpt lat="47.29069" lon="-2.27133">
        <ele>15.60000038147</ele>
        <time>2021-04-29T09:47:39.000Z</time>
      </trkpt>
      <trkpt lat="47.29069" lon="-2.27139">
        <ele>15.60000038147</ele>
        <time>2021-04-29T09:47:40.000Z</time>
      </trkpt>
      <trkpt lat="47.29069" lon="-2.27145">
        <ele>16.39999961853</ele>
        <time>2021-04-29T09:47:41.000Z</time>
      </trkpt>
      <trkpt lat="47.29069" lon="-2.27152">
        <ele>16.799999237061</ele>
        <time>2021-04-29T09:47:42.000Z</time>
      </trkpt>
      <trkpt lat="47.29069" lon="-2.27158">
        <ele>17.200000762939</ele>
        <time>2021-04-29T09:47:43.000Z</time>
      </trkpt>
      <trkpt lat="47.29069" lon="-2.27164">
        <ele>17.60000038147</ele>
        <time>2021-04-29T09:47:44.000Z</time>
      </trkpt>
      <trkpt lat="47.29068" lon="-2.2717">
        <ele>17.60000038147</ele>
        <time>2021-04-29T09:47:45.000Z</time>
      </trkpt>
      <trkpt lat="47.2907" lon="-2.2718">
        <ele>17.60000038147</ele>
        <time>2021-04-29T09:47:47.000Z</time>
      </trkpt>
      <trkpt lat="47.29076" lon="-2.27188">
        <ele>17.60000038147</ele>
        <time>2021-04-29T09:47:49.000Z</time>
      </trkpt>
      <trkpt lat="47.29093" lon="-2.27194">
        <ele>17.60000038147</ele>
        <time>2021-04-29T09:47:53.000Z</time>
      </trkpt>
      <trkpt lat="47.29107" lon="-2.27195">
        <ele>17.60000038147</ele>
        <time>2021-04-29T09:47:57.000Z</time>
      </trkpt>
      <trkpt lat="47.29113" lon="-2.27198">
        <ele>17.60000038147</ele>
        <time>2021-04-29T09:48:00.000Z</time>
      </trkpt>
      <trkpt lat="47.29113" lon="-2.272">
        <ele>17.60000038147</ele>
        <time>2021-04-29T09:48:01.000Z</time>
      </trkpt>
      <trkpt lat="47.29114" lon="-2.27201">
        <ele>17.60000038147</ele>
        <time>2021-04-29T09:48:02.000Z</time>
      </trkpt>
      <trkpt lat="47.29114" lon="-2.27208">
        <ele>15.60000038147</ele>
        <time>2021-04-29T09:48:09.000Z</time>
      </trkpt>
      <trkpt lat="47.29114" lon="-2.27213">
        <ele>15.60000038147</ele>
        <time>2021-04-29T09:48:11.000Z</time>
      </trkpt>
      <trkpt lat="47.29112" lon="-2.27218">
        <ele>15.60000038147</ele>
        <time>2021-04-29T09:48:13.000Z</time>
      </trkpt>
      <trkpt lat="47.29111" lon="-2.27223">
        <ele>15.60000038147</ele>
        <time>2021-04-29T09:48:14.000Z</time>
      </trkpt>
      <trkpt lat="47.2911" lon="-2.27229">
        <ele>15.60000038147</ele>
        <time>2021-04-29T09:48:15.000Z</time>
      </trkpt>
      <trkpt lat="47.29107" lon="-2.27241">
        <ele>15.60000038147</ele>
        <time>2021-04-29T09:48:17.000Z</time>
      </trkpt>
      <trkpt lat="47.29106" lon="-2.27253">
        <ele>15.60000038147</ele>
        <time>2021-04-29T09:48:19.000Z</time>
      </trkpt>
      <trkpt lat="47.29103" lon="-2.27272">
        <ele>15.60000038147</ele>
        <time>2021-04-29T09:48:22.000Z</time>
      </trkpt>
      <trkpt lat="47.29102" lon="-2.27286">
        <ele>15.60000038147</ele>
        <time>2021-04-29T09:48:24.000Z</time>
      </trkpt>
      <trkpt lat="47.291" lon="-2.273">
        <ele>15.60000038147</ele>
        <time>2021-04-29T09:48:26.000Z</time>
      </trkpt>
      <trkpt lat="47.29095" lon="-2.27325">
        <ele>15.60000038147</ele>
        <time>2021-04-29T09:48:30.000Z</time>
      </trkpt>
      <trkpt lat="47.29093" lon="-2.27348">
        <ele>15.60000038147</ele>
        <time>2021-04-29T09:48:34.000Z</time>
      </trkpt>
      <trkpt lat="47.29098" lon="-2.27371">
        <ele>15.60000038147</ele>
        <time>2021-04-29T09:48:38.000Z</time>
      </trkpt>
      <trkpt lat="47.29102" lon="-2.27386">
        <ele>15.60000038147</ele>
        <time>2021-04-29T09:48:40.000Z</time>
      </trkpt>
      <trkpt lat="47.29107" lon="-2.27411">
        <ele>15.60000038147</ele>
        <time>2021-04-29T09:48:43.000Z</time>
      </trkpt>
      <trkpt lat="47.29107" lon="-2.27427">
        <ele>16</ele>
        <time>2021-04-29T09:48:45.000Z</time>
      </trkpt>
      <trkpt lat="47.29106" lon="-2.27435">
        <ele>16.39999961853</ele>
        <time>2021-04-29T09:48:46.000Z</time>
      </trkpt>
      <trkpt lat="47.29106" lon="-2.27443">
        <ele>16.799999237061</ele>
        <time>2021-04-29T09:48:47.000Z</time>
      </trkpt>
      <trkpt lat="47.29106" lon="-2.27451">
        <ele>17.200000762939</ele>
        <time>2021-04-29T09:48:48.000Z</time>
      </trkpt>
      <trkpt lat="47.29106" lon="-2.27457">
        <ele>17.60000038147</ele>
        <time>2021-04-29T09:48:49.000Z</time>
      </trkpt>
      <trkpt lat="47.29106" lon="-2.2747">
        <ele>17.60000038147</ele>
        <time>2021-04-29T09:48:51.000Z</time>
      </trkpt>
      <trkpt lat="47.29105" lon="-2.27482">
        <ele>17.60000038147</ele>
        <time>2021-04-29T09:48:53.000Z</time>
      </trkpt>
      <trkpt lat="47.29104" lon="-2.27509">
        <ele>17.60000038147</ele>
        <time>2021-04-29T09:48:59.000Z</time>
      </trkpt>
      <trkpt lat="47.29104" lon="-2.27515">
        <ele>17.60000038147</ele>
        <time>2021-04-29T09:49:02.000Z</time>
      </trkpt>
      <trkpt lat="47.29104" lon="-2.27522">
        <ele>17.60000038147</ele>
        <time>2021-04-29T09:49:24.000Z</time>
      </trkpt>
      <trkpt lat="47.29102" lon="-2.27525">
        <ele>17.60000038147</ele>
        <time>2021-04-29T09:49:25.000Z</time>
      </trkpt>
      <trkpt lat="47.2909" lon="-2.27529">
        <ele>17.60000038147</ele>
        <time>2021-04-29T09:49:29.000Z</time>
      </trkpt>
      <trkpt lat="47.29086" lon="-2.27529">
        <ele>17.60000038147</ele>
        <time>2021-04-29T09:49:30.000Z</time>
      </trkpt>
      <trkpt lat="47.29061" lon="-2.27527">
        <ele>17.60000038147</ele>
        <time>2021-04-29T09:49:37.000Z</time>
      </trkpt>
      <trkpt lat="47.29036" lon="-2.27526">
        <ele>17.60000038147</ele>
        <time>2021-04-29T09:49:43.000Z</time>
      </trkpt>
      <trkpt lat="47.28996" lon="-2.27525">
        <ele>17.60000038147</ele>
        <time>2021-04-29T09:49:50.000Z</time>
      </trkpt>
      <trkpt lat="47.28948" lon="-2.27526">
        <ele>17.60000038147</ele>
        <time>2021-04-29T09:49:58.000Z</time>
      </trkpt>
      <trkpt lat="47.28896" lon="-2.27531">
        <ele>17.60000038147</ele>
        <time>2021-04-29T09:50:06.000Z</time>
      </trkpt>
      <trkpt lat="47.28858" lon="-2.27538">
        <ele>17.60000038147</ele>
        <time>2021-04-29T09:50:12.000Z</time>
      </trkpt>
      <trkpt lat="47.28824" lon="-2.27543">
        <ele>17.60000038147</ele>
        <time>2021-04-29T09:50:17.000Z</time>
      </trkpt>
      <trkpt lat="47.28809" lon="-2.2755">
        <ele>17.60000038147</ele>
        <time>2021-04-29T09:50:19.000Z</time>
      </trkpt>
      <trkpt lat="47.28796" lon="-2.27561">
        <ele>17.60000038147</ele>
        <time>2021-04-29T09:50:21.000Z</time>
      </trkpt>
      <trkpt lat="47.28764" lon="-2.27599">
        <ele>17.60000038147</ele>
        <time>2021-04-29T09:50:27.000Z</time>
      </trkpt>
      <trkpt lat="47.28736" lon="-2.27638">
        <ele>17.60000038147</ele>
        <time>2021-04-29T09:50:33.000Z</time>
      </trkpt>
      <trkpt lat="47.28702" lon="-2.27687">
        <ele>17.60000038147</ele>
        <time>2021-04-29T09:50:40.000Z</time>
      </trkpt>
      <trkpt lat="47.28681" lon="-2.27725">
        <ele>17.60000038147</ele>
        <time>2021-04-29T09:50:45.000Z</time>
      </trkpt>
      <trkpt lat="47.28664" lon="-2.27756">
        <ele>18</ele>
        <time>2021-04-29T09:50:49.000Z</time>
      </trkpt>
      <trkpt lat="47.28661" lon="-2.27764">
        <ele>18.60000038147</ele>
        <time>2021-04-29T09:50:50.000Z</time>
      </trkpt>
      <trkpt lat="47.28657" lon="-2.27773">
        <ele>19</ele>
        <time>2021-04-29T09:50:51.000Z</time>
      </trkpt>
      <trkpt lat="47.28655" lon="-2.27782">
        <ele>19.39999961853</ele>
        <time>2021-04-29T09:50:52.000Z</time>
      </trkpt>
      <trkpt lat="47.28653" lon="-2.2779">
        <ele>19.799999237061</ele>
        <time>2021-04-29T09:50:53.000Z</time>
      </trkpt>
      <trkpt lat="47.28645" lon="-2.27835">
        <ele>19.799999237061</ele>
        <time>2021-04-29T09:50:58.000Z</time>
      </trkpt>
      <trkpt lat="47.28636" lon="-2.27889">
        <ele>19.799999237061</ele>
        <time>2021-04-29T09:51:04.000Z</time>
      </trkpt>
      <trkpt lat="47.28632" lon="-2.2792">
        <ele>19.799999237061</ele>
        <time>2021-04-29T09:51:08.000Z</time>
      </trkpt>
      <trkpt lat="47.28632" lon="-2.27927">
        <ele>19.799999237061</ele>
        <time>2021-04-29T09:51:09.000Z</time>
      </trkpt>
      <trkpt lat="47.2863" lon="-2.27934">
        <ele>19.799999237061</ele>
        <time>2021-04-29T09:51:10.000Z</time>
      </trkpt>
      <trkpt lat="47.28622" lon="-2.27954">
        <ele>19.799999237061</ele>
        <time>2021-04-29T09:51:13.000Z</time>
      </trkpt>
      <trkpt lat="47.28614" lon="-2.27977">
        <ele>19.799999237061</ele>
        <time>2021-04-29T09:51:16.000Z</time>
      </trkpt>
      <trkpt lat="47.2861" lon="-2.27992">
        <ele>19.799999237061</ele>
        <time>2021-04-29T09:51:18.000Z</time>
      </trkpt>
      <trkpt lat="47.28608" lon="-2.27999">
        <ele>19.799999237061</ele>
        <time>2021-04-29T09:51:19.000Z</time>
      </trkpt>
      <trkpt lat="47.28597" lon="-2.28018">
        <ele>19.799999237061</ele>
        <time>2021-04-29T09:51:22.000Z</time>
      </trkpt>
      <trkpt lat="47.28589" lon="-2.28029">
        <ele>20.60000038147</ele>
        <time>2021-04-29T09:51:24.000Z</time>
      </trkpt>
      <trkpt lat="47.28584" lon="-2.28034">
        <ele>21</ele>
        <time>2021-04-29T09:51:25.000Z</time>
      </trkpt>
      <trkpt lat="47.28581" lon="-2.28038">
        <ele>21.39999961853</ele>
        <time>2021-04-29T09:51:26.000Z</time>
      </trkpt>
      <trkpt lat="47.28577" lon="-2.28043">
        <ele>21.799999237061</ele>
        <time>2021-04-29T09:51:27.000Z</time>
      </trkpt>
      <trkpt lat="47.28574" lon="-2.28046">
        <ele>21.799999237061</ele>
        <time>2021-04-29T09:51:28.000Z</time>
      </trkpt>
      <trkpt lat="47.28564" lon="-2.28052">
        <ele>21.799999237061</ele>
        <time>2021-04-29T09:51:32.000Z</time>
      </trkpt>
      <trkpt lat="47.2855" lon="-2.28049">
        <ele>21.799999237061</ele>
        <time>2021-04-29T09:51:36.000Z</time>
      </trkpt>
      <trkpt lat="47.28539" lon="-2.28047">
        <ele>21.799999237061</ele>
        <time>2021-04-29T09:51:40.000Z</time>
      </trkpt>
      <trkpt lat="47.28536" lon="-2.28046">
        <ele>22.39999961853</ele>
        <time>2021-04-29T09:51:41.000Z</time>
      </trkpt>
      <trkpt lat="47.28534" lon="-2.28045">
        <ele>22.799999237061</ele>
        <time>2021-04-29T09:51:42.000Z</time>
      </trkpt>
      <trkpt lat="47.28531" lon="-2.28046">
        <ele>23.200000762939</ele>
        <time>2021-04-29T09:51:43.000Z</time>
      </trkpt>
      <trkpt lat="47.28528" lon="-2.28046">
        <ele>23.60000038147</ele>
        <time>2021-04-29T09:51:44.000Z</time>
      </trkpt>
      <trkpt lat="47.28525" lon="-2.28047">
        <ele>24.200000762939</ele>
        <time>2021-04-29T09:51:45.000Z</time>
      </trkpt>
      <trkpt lat="47.2852" lon="-2.28046">
        <ele>24.60000038147</ele>
        <time>2021-04-29T09:51:47.000Z</time>
      </trkpt>
      <trkpt lat="47.28517" lon="-2.28045">
        <ele>25.60000038147</ele>
        <time>2021-04-29T09:51:48.000Z</time>
      </trkpt>
      <trkpt lat="47.28514" lon="-2.28043">
        <ele>26</ele>
        <time>2021-04-29T09:51:49.000Z</time>
      </trkpt>
      <trkpt lat="47.28512" lon="-2.28041">
        <ele>26.39999961853</ele>
        <time>2021-04-29T09:51:50.000Z</time>
      </trkpt>
      <trkpt lat="47.2851" lon="-2.2804">
        <ele>26.39999961853</ele>
        <time>2021-04-29T09:51:51.000Z</time>
      </trkpt>
      <trkpt lat="47.28506" lon="-2.28037">
        <ele>26.799999237061</ele>
        <time>2021-04-29T09:51:53.000Z</time>
      </trkpt>
      <trkpt lat="47.28502" lon="-2.28036">
        <ele>27.200000762939</ele>
        <time>2021-04-29T09:51:54.000Z</time>
      </trkpt>
      <trkpt lat="47.28499" lon="-2.28036">
        <ele>27.60000038147</ele>
        <time>2021-04-29T09:51:55.000Z</time>
      </trkpt>
      <trkpt lat="47.28496" lon="-2.28038">
        <ele>28</ele>
        <time>2021-04-29T09:51:56.000Z</time>
      </trkpt>
      <trkpt lat="47.28493" lon="-2.28039">
        <ele>28.39999961853</ele>
        <time>2021-04-29T09:51:57.000Z</time>
      </trkpt>
      <trkpt lat="47.2849" lon="-2.28041">
        <ele>28.39999961853</ele>
        <time>2021-04-29T09:51:58.000Z</time>
      </trkpt>
      <trkpt lat="47.28486" lon="-2.28051">
        <ele>28.39999961853</ele>
        <time>2021-04-29T09:52:02.000Z</time>
      </trkpt>
      <trkpt lat="47.28487" lon="-2.28058">
        <ele>28.39999961853</ele>
        <time>2021-04-29T09:52:04.000Z</time>
      </trkpt>
      <trkpt lat="47.28489" lon="-2.28062">
        <ele>28.39999961853</ele>
        <time>2021-04-29T09:52:05.000Z</time>
      </trkpt>
      <trkpt lat="47.28493" lon="-2.2807">
        <ele>28.39999961853</ele>
        <time>2021-04-29T09:52:07.000Z</time>
      </trkpt>
      <trkpt lat="47.28492" lon="-2.28081">
        <ele>28.39999961853</ele>
        <time>2021-04-29T09:52:10.000Z</time>
      </trkpt>
      <trkpt lat="47.28482" lon="-2.2809">
        <ele>28.39999961853</ele>
        <time>2021-04-29T09:52:13.000Z</time>
      </trkpt>
      <trkpt lat="47.28478" lon="-2.28093">
        <ele>28.39999961853</ele>
        <time>2021-04-29T09:52:14.000Z</time>
      </trkpt>
      <trkpt lat="47.28474" lon="-2.28095">
        <ele>28</ele>
        <time>2021-04-29T09:52:15.000Z</time>
      </trkpt>
      <trkpt lat="47.28471" lon="-2.28095">
        <ele>27.60000038147</ele>
        <time>2021-04-29T09:52:16.000Z</time>
      </trkpt>
      <trkpt lat="47.28468" lon="-2.28095">
        <ele>27.200000762939</ele>
        <time>2021-04-29T09:52:17.000Z</time>
      </trkpt>
      <trkpt lat="47.28466" lon="-2.28093">
        <ele>26.799999237061</ele>
        <time>2021-04-29T09:52:18.000Z</time>
      </trkpt>
      <trkpt lat="47.28464" lon="-2.28092">
        <ele>26.39999961853</ele>
        <time>2021-04-29T09:52:19.000Z</time>
      </trkpt>
      <trkpt lat="47.28459" lon="-2.28091">
        <ele>26.39999961853</ele>
        <time>2021-04-29T09:52:21.000Z</time>
      </trkpt>
      <trkpt lat="47.28454" lon="-2.28089">
        <ele>26.39999961853</ele>
        <time>2021-04-29T09:52:23.000Z</time>
      </trkpt>
      <trkpt lat="47.28439" lon="-2.28089">
        <ele>26.39999961853</ele>
        <time>2021-04-29T09:52:27.000Z</time>
      </trkpt>
      <trkpt lat="47.28425" lon="-2.28085">
        <ele>26.39999961853</ele>
        <time>2021-04-29T09:52:31.000Z</time>
      </trkpt>
      <trkpt lat="47.28415" lon="-2.28083">
        <ele>26.39999961853</ele>
        <time>2021-04-29T09:52:34.000Z</time>
      </trkpt>
      <trkpt lat="47.28411" lon="-2.28082">
        <ele>26.39999961853</ele>
        <time>2021-04-29T09:52:35.000Z</time>
      </trkpt>
      <trkpt lat="47.28401" lon="-2.28079">
        <ele>26.39999961853</ele>
        <time>2021-04-29T09:52:38.000Z</time>
      </trkpt>
      <trkpt lat="47.28397" lon="-2.28079">
        <ele>26.39999961853</ele>
        <time>2021-04-29T09:52:39.000Z</time>
      </trkpt>
      <trkpt lat="47.28384" lon="-2.28077">
        <ele>26.39999961853</ele>
        <time>2021-04-29T09:52:43.000Z</time>
      </trkpt>
      <trkpt lat="47.28373" lon="-2.28075">
        <ele>26.39999961853</ele>
        <time>2021-04-29T09:52:48.000Z</time>
      </trkpt>
      <trkpt lat="47.28371" lon="-2.28075">
        <ele>26.39999961853</ele>
        <time>2021-04-29T09:52:49.000Z</time>
      </trkpt>
      <trkpt lat="47.28366" lon="-2.28084">
        <ele>26.39999961853</ele>
        <time>2021-04-29T09:52:52.000Z</time>
      </trkpt>
      <trkpt lat="47.28359" lon="-2.28092">
        <ele>26.39999961853</ele>
        <time>2021-04-29T09:52:56.000Z</time>
      </trkpt>
      <trkpt lat="47.28358" lon="-2.28093">
        <ele>26.39999961853</ele>
        <time>2021-04-29T09:52:57.000Z</time>
      </trkpt>
      <trkpt lat="47.28343" lon="-2.28098">
        <ele>26.39999961853</ele>
        <time>2021-04-29T09:53:07.000Z</time>
      </trkpt>
      <trkpt lat="47.28329" lon="-2.28122">
        <ele>26.39999961853</ele>
        <time>2021-04-29T09:53:12.000Z</time>
      </trkpt>
      <trkpt lat="47.28326" lon="-2.2816">
        <ele>26.39999961853</ele>
        <time>2021-04-29T09:53:18.000Z</time>
      </trkpt>
      <trkpt lat="47.28326" lon="-2.2818">
        <ele>26.799999237061</ele>
        <time>2021-04-29T09:53:21.000Z</time>
      </trkpt>
      <trkpt lat="47.28325" lon="-2.28187">
        <ele>27.200000762939</ele>
        <time>2021-04-29T09:53:22.000Z</time>
      </trkpt>
      <trkpt lat="47.28325" lon="-2.28194">
        <ele>27.60000038147</ele>
        <time>2021-04-29T09:53:23.000Z</time>
      </trkpt>
      <trkpt lat="47.28325" lon="-2.282">
        <ele>28</ele>
        <time>2021-04-29T09:53:24.000Z</time>
      </trkpt>
      <trkpt lat="47.28325" lon="-2.28207">
        <ele>28.39999961853</ele>
        <time>2021-04-29T09:53:25.000Z</time>
      </trkpt>
      <trkpt lat="47.28324" lon="-2.28233">
        <ele>28.39999961853</ele>
        <time>2021-04-29T09:53:29.000Z</time>
      </trkpt>
      <trkpt lat="47.28324" lon="-2.2824">
        <ele>28.799999237061</ele>
        <time>2021-04-29T09:53:30.000Z</time>
      </trkpt>
      <trkpt lat="47.28324" lon="-2.28247">
        <ele>29.200000762939</ele>
        <time>2021-04-29T09:53:31.000Z</time>
      </trkpt>
      <trkpt lat="47.28323" lon="-2.28253">
        <ele>29.799999237061</ele>
        <time>2021-04-29T09:53:32.000Z</time>
      </trkpt>
      <trkpt lat="47.28323" lon="-2.2826">
        <ele>30.200000762939</ele>
        <time>2021-04-29T09:53:33.000Z</time>
      </trkpt>
      <trkpt lat="47.28323" lon="-2.28266">
        <ele>30.60000038147</ele>
        <time>2021-04-29T09:53:34.000Z</time>
      </trkpt>
      <trkpt lat="47.28323" lon="-2.28295">
        <ele>30.60000038147</ele>
        <time>2021-04-29T09:53:39.000Z</time>
      </trkpt>
      <trkpt lat="47.28321" lon="-2.28306">
        <ele>31</ele>
        <time>2021-04-29T09:53:42.000Z</time>
      </trkpt>
      <trkpt lat="47.28321" lon="-2.28308">
        <ele>31.39999961853</ele>
        <time>2021-04-29T09:53:43.000Z</time>
      </trkpt>
      <trkpt lat="47.28322" lon="-2.28311">
        <ele>31.799999237061</ele>
        <time>2021-04-29T09:53:44.000Z</time>
      </trkpt>
      <trkpt lat="47.28323" lon="-2.28314">
        <ele>32.200000762939</ele>
        <time>2021-04-29T09:53:45.000Z</time>
      </trkpt>
      <trkpt lat="47.28324" lon="-2.28317">
        <ele>32.799999237061</ele>
        <time>2021-04-29T09:53:46.000Z</time>
      </trkpt>
      <trkpt lat="47.28324" lon="-2.28324">
        <ele>32.799999237061</ele>
        <time>2021-04-29T09:53:51.000Z</time>
      </trkpt>
      <trkpt lat="47.28324" lon="-2.28324">
        <ele>32.799999237061</ele>
        <time>2021-04-29T09:53:52.000Z</time>
      </trkpt>
      <trkpt lat="47.28324" lon="-2.28326">
        <ele>32.799999237061</ele>
        <time>2021-04-29T09:54:08.000Z</time>
      </trkpt>
      <trkpt lat="47.28325" lon="-2.28332">
        <ele>32.799999237061</ele>
        <time>2021-04-29T09:54:10.000Z</time>
      </trkpt>
      <trkpt lat="47.28323" lon="-2.28357">
        <ele>32.799999237061</ele>
        <time>2021-04-29T09:54:15.000Z</time>
      </trkpt>
      <trkpt lat="47.28318" lon="-2.28395">
        <ele>32.799999237061</ele>
        <time>2021-04-29T09:54:21.000Z</time>
      </trkpt>
      <trkpt lat="47.28305" lon="-2.28439">
        <ele>32.799999237061</ele>
        <time>2021-04-29T09:54:28.000Z</time>
      </trkpt>
      <trkpt lat="47.28294" lon="-2.28489">
        <ele>32.799999237061</ele>
        <time>2021-04-29T09:54:35.000Z</time>
      </trkpt>
      <trkpt lat="47.28286" lon="-2.28546">
        <ele>32.799999237061</ele>
        <time>2021-04-29T09:54:42.000Z</time>
      </trkpt>
      <trkpt lat="47.28275" lon="-2.28607">
        <ele>32.799999237061</ele>
        <time>2021-04-29T09:54:49.000Z</time>
      </trkpt>
      <trkpt lat="47.28262" lon="-2.28671">
        <ele>32.799999237061</ele>
        <time>2021-04-29T09:54:56.000Z</time>
      </trkpt>
      <trkpt lat="47.28249" lon="-2.28742">
        <ele>32.799999237061</ele>
        <time>2021-04-29T09:55:04.000Z</time>
      </trkpt>
      <trkpt lat="47.28241" lon="-2.28794">
        <ele>32.799999237061</ele>
        <time>2021-04-29T09:55:10.000Z</time>
      </trkpt>
      <trkpt lat="47.28231" lon="-2.28851">
        <ele>32.799999237061</ele>
        <time>2021-04-29T09:55:17.000Z</time>
      </trkpt>
      <trkpt lat="47.28216" lon="-2.28872">
        <ele>32.799999237061</ele>
        <time>2021-04-29T09:55:21.000Z</time>
      </trkpt>
      <trkpt lat="47.28199" lon="-2.28866">
        <ele>32.799999237061</ele>
        <time>2021-04-29T09:55:24.000Z</time>
      </trkpt>
      <trkpt lat="47.28178" lon="-2.28846">
        <ele>32.799999237061</ele>
        <time>2021-04-29T09:55:28.000Z</time>
      </trkpt>
      <trkpt lat="47.28172" lon="-2.28841">
        <ele>32.799999237061</ele>
        <time>2021-04-29T09:55:29.000Z</time>
      </trkpt>
      <trkpt lat="47.28132" lon="-2.28807">
        <ele>32.200000762939</ele>
        <time>2021-04-29T09:55:36.000Z</time>
      </trkpt>
      <trkpt lat="47.28126" lon="-2.28802">
        <ele>31.799999237061</ele>
        <time>2021-04-29T09:55:37.000Z</time>
      </trkpt>
      <trkpt lat="47.28119" lon="-2.28798">
        <ele>31.39999961853</ele>
        <time>2021-04-29T09:55:38.000Z</time>
      </trkpt>
      <trkpt lat="47.28111" lon="-2.28794">
        <ele>31</ele>
        <time>2021-04-29T09:55:39.000Z</time>
      </trkpt>
      <trkpt lat="47.28104" lon="-2.2879">
        <ele>30.39999961853</ele>
        <time>2021-04-29T09:55:40.000Z</time>
      </trkpt>
      <trkpt lat="47.28097" lon="-2.28786">
        <ele>30.39999961853</ele>
        <time>2021-04-29T09:55:41.000Z</time>
      </trkpt>
      <trkpt lat="47.28083" lon="-2.28778">
        <ele>30</ele>
        <time>2021-04-29T09:55:43.000Z</time>
      </trkpt>
      <trkpt lat="47.28075" lon="-2.28774">
        <ele>29.60000038147</ele>
        <time>2021-04-29T09:55:44.000Z</time>
      </trkpt>
      <trkpt lat="47.28067" lon="-2.28771">
        <ele>29.200000762939</ele>
        <time>2021-04-29T09:55:45.000Z</time>
      </trkpt>
      <trkpt lat="47.28059" lon="-2.28767">
        <ele>28.799999237061</ele>
        <time>2021-04-29T09:55:46.000Z</time>
      </trkpt>
      <trkpt lat="47.28051" lon="-2.28764">
        <ele>28.39999961853</ele>
        <time>2021-04-29T09:55:47.000Z</time>
      </trkpt>
      <trkpt lat="47.28012" lon="-2.28754">
        <ele>28.39999961853</ele>
        <time>2021-04-29T09:55:52.000Z</time>
      </trkpt>
      <trkpt lat="47.27969" lon="-2.28748">
        <ele>28.39999961853</ele>
        <time>2021-04-29T09:55:58.000Z</time>
      </trkpt>
      <trkpt lat="47.2793" lon="-2.28757">
        <ele>28.39999961853</ele>
        <time>2021-04-29T09:56:04.000Z</time>
      </trkpt>
      <trkpt lat="47.27892" lon="-2.28772">
        <ele>28.39999961853</ele>
        <time>2021-04-29T09:56:11.000Z</time>
      </trkpt>
      <trkpt lat="47.27888" lon="-2.28773">
        <ele>28.39999961853</ele>
        <time>2021-04-29T09:56:12.000Z</time>
      </trkpt>
      <trkpt lat="47.27877" lon="-2.28784">
        <ele>28.39999961853</ele>
        <time>2021-04-29T09:56:15.000Z</time>
      </trkpt>
      <trkpt lat="47.27873" lon="-2.28803">
        <ele>28.39999961853</ele>
        <time>2021-04-29T09:56:18.000Z</time>
      </trkpt>
      <trkpt lat="47.27871" lon="-2.28809">
        <ele>28.39999961853</ele>
        <time>2021-04-29T09:56:19.000Z</time>
      </trkpt>
      <trkpt lat="47.27868" lon="-2.28815">
        <ele>28.39999961853</ele>
        <time>2021-04-29T09:56:20.000Z</time>
      </trkpt>
      <trkpt lat="47.2786" lon="-2.28817">
        <ele>28.39999961853</ele>
        <time>2021-04-29T09:56:22.000Z</time>
      </trkpt>
      <trkpt lat="47.27846" lon="-2.28808">
        <ele>28.39999961853</ele>
        <time>2021-04-29T09:56:25.000Z</time>
      </trkpt>
      <trkpt lat="47.27836" lon="-2.28801">
        <ele>28.39999961853</ele>
        <time>2021-04-29T09:56:27.000Z</time>
      </trkpt>
      <trkpt lat="47.27816" lon="-2.28795">
        <ele>28.39999961853</ele>
        <time>2021-04-29T09:56:30.000Z</time>
      </trkpt>
      <trkpt lat="47.27785" lon="-2.28797">
        <ele>28.39999961853</ele>
        <time>2021-04-29T09:56:35.000Z</time>
      </trkpt>
      <trkpt lat="47.27764" lon="-2.288">
        <ele>28.39999961853</ele>
        <time>2021-04-29T09:56:38.000Z</time>
      </trkpt>
      <trkpt lat="47.2775" lon="-2.28806">
        <ele>28.39999961853</ele>
        <time>2021-04-29T09:56:40.000Z</time>
      </trkpt>
      <trkpt lat="47.2771" lon="-2.28822">
        <ele>28.39999961853</ele>
        <time>2021-04-29T09:56:46.000Z</time>
      </trkpt>
      <trkpt lat="47.27704" lon="-2.2882">
        <ele>28.39999961853</ele>
        <time>2021-04-29T09:56:47.000Z</time>
      </trkpt>
      <trkpt lat="47.27693" lon="-2.28804">
        <ele>28.39999961853</ele>
        <time>2021-04-29T09:56:50.000Z</time>
      </trkpt>
      <trkpt lat="47.27676" lon="-2.28777">
        <ele>28.39999961853</ele>
        <time>2021-04-29T09:56:54.000Z</time>
      </trkpt>
      <trkpt lat="47.27659" lon="-2.28767">
        <ele>28.39999961853</ele>
        <time>2021-04-29T09:56:57.000Z</time>
      </trkpt>
      <trkpt lat="47.27653" lon="-2.28764">
        <ele>28.39999961853</ele>
        <time>2021-04-29T09:56:58.000Z</time>
      </trkpt>
      <trkpt lat="47.27647" lon="-2.28762">
        <ele>28.39999961853</ele>
        <time>2021-04-29T09:56:59.000Z</time>
      </trkpt>
      <trkpt lat="47.27619" lon="-2.28755">
        <ele>28.39999961853</ele>
        <time>2021-04-29T09:57:03.000Z</time>
      </trkpt>
      <trkpt lat="47.27592" lon="-2.2874">
        <ele>28.39999961853</ele>
        <time>2021-04-29T09:57:07.000Z</time>
      </trkpt>
      <trkpt lat="47.2758" lon="-2.28731">
        <ele>28.39999961853</ele>
        <time>2021-04-29T09:57:09.000Z</time>
      </trkpt>
      <trkpt lat="47.2754" lon="-2.28706">
        <ele>28.39999961853</ele>
        <time>2021-04-29T09:57:16.000Z</time>
      </trkpt>
      <trkpt lat="47.27529" lon="-2.28699">
        <ele>28.39999961853</ele>
        <time>2021-04-29T09:57:18.000Z</time>
      </trkpt>
      <trkpt lat="47.27517" lon="-2.28684">
        <ele>28.39999961853</ele>
        <time>2021-04-29T09:57:21.000Z</time>
      </trkpt>
      <trkpt lat="47.27498" lon="-2.28651">
        <ele>28.39999961853</ele>
        <time>2021-04-29T09:57:26.000Z</time>
      </trkpt>
      <trkpt lat="47.27481" lon="-2.28615">
        <ele>28.39999961853</ele>
        <time>2021-04-29T09:57:32.000Z</time>
      </trkpt>
      <trkpt lat="47.27471" lon="-2.28614">
        <ele>28.39999961853</ele>
        <time>2021-04-29T09:57:34.000Z</time>
      </trkpt>
      <trkpt lat="47.27454" lon="-2.28632">
        <ele>28.39999961853</ele>
        <time>2021-04-29T09:57:38.000Z</time>
      </trkpt>
      <trkpt lat="47.2745" lon="-2.28637">
        <ele>28.39999961853</ele>
        <time>2021-04-29T09:57:39.000Z</time>
      </trkpt>
      <trkpt lat="47.27442" lon="-2.28649">
        <ele>28.39999961853</ele>
        <time>2021-04-29T09:57:42.000Z</time>
      </trkpt>
      <trkpt lat="47.2744" lon="-2.28655">
        <ele>28.39999961853</ele>
        <time>2021-04-29T09:57:43.000Z</time>
      </trkpt>
      <trkpt lat="47.27433" lon="-2.28673">
        <ele>28.39999961853</ele>
        <time>2021-04-29T09:57:46.000Z</time>
      </trkpt>
      <trkpt lat="47.2743" lon="-2.2868">
        <ele>28.39999961853</ele>
        <time>2021-04-29T09:57:47.000Z</time>
      </trkpt>
      <trkpt lat="47.2741" lon="-2.28717">
        <ele>28.39999961853</ele>
        <time>2021-04-29T09:57:53.000Z</time>
      </trkpt>
      <trkpt lat="47.27404" lon="-2.28731">
        <ele>28.39999961853</ele>
        <time>2021-04-29T09:57:55.000Z</time>
      </trkpt>
      <trkpt lat="47.27398" lon="-2.28746">
        <ele>28.39999961853</ele>
        <time>2021-04-29T09:57:57.000Z</time>
      </trkpt>
      <trkpt lat="47.27394" lon="-2.28753">
        <ele>28.39999961853</ele>
        <time>2021-04-29T09:57:58.000Z</time>
      </trkpt>
      <trkpt lat="47.2737" lon="-2.28804">
        <ele>28.39999961853</ele>
        <time>2021-04-29T09:58:04.000Z</time>
      </trkpt>
      <trkpt lat="47.27363" lon="-2.28833">
        <ele>28.39999961853</ele>
        <time>2021-04-29T09:58:07.000Z</time>
      </trkpt>
      <trkpt lat="47.27359" lon="-2.28852">
        <ele>28.39999961853</ele>
        <time>2021-04-29T09:58:09.000Z</time>
      </trkpt>
      <trkpt lat="47.27348" lon="-2.28916">
        <ele>28.39999961853</ele>
        <time>2021-04-29T09:58:16.000Z</time>
      </trkpt>
      <trkpt lat="47.27345" lon="-2.28939">
        <ele>28.39999961853</ele>
        <time>2021-04-29T09:58:19.000Z</time>
      </trkpt>
      <trkpt lat="47.27343" lon="-2.28944">
        <ele>28.39999961853</ele>
        <time>2021-04-29T09:58:20.000Z</time>
      </trkpt>
      <trkpt lat="47.27338" lon="-2.2895">
        <ele>28.39999961853</ele>
        <time>2021-04-29T09:58:23.000Z</time>
      </trkpt>
      <trkpt lat="47.27332" lon="-2.28946">
        <ele>28.39999961853</ele>
        <time>2021-04-29T09:58:25.000Z</time>
      </trkpt>
      <trkpt lat="47.27329" lon="-2.28944">
        <ele>28.39999961853</ele>
        <time>2021-04-29T09:58:26.000Z</time>
      </trkpt>
      <trkpt lat="47.27315" lon="-2.28945">
        <ele>28.39999961853</ele>
        <time>2021-04-29T09:58:30.000Z</time>
      </trkpt>
      <trkpt lat="47.27313" lon="-2.28948">
        <ele>28.39999961853</ele>
        <time>2021-04-29T09:58:31.000Z</time>
      </trkpt>
      <trkpt lat="47.27311" lon="-2.28956">
        <ele>28.39999961853</ele>
        <time>2021-04-29T09:58:33.000Z</time>
      </trkpt>
      <trkpt lat="47.27302" lon="-2.28965">
        <ele>28.39999961853</ele>
        <time>2021-04-29T09:58:36.000Z</time>
      </trkpt>
      <trkpt lat="47.27287" lon="-2.28983">
        <ele>28.39999961853</ele>
        <time>2021-04-29T09:58:40.000Z</time>
      </trkpt>
      <trkpt lat="47.27283" lon="-2.28988">
        <ele>28.39999961853</ele>
        <time>2021-04-29T09:58:41.000Z</time>
      </trkpt>
      <trkpt lat="47.27276" lon="-2.28999">
        <ele>28.39999961853</ele>
        <time>2021-04-29T09:58:43.000Z</time>
      </trkpt>
      <trkpt lat="47.2727" lon="-2.2901">
        <ele>28.39999961853</ele>
        <time>2021-04-29T09:58:45.000Z</time>
      </trkpt>
      <trkpt lat="47.27245" lon="-2.29043">
        <ele>28.39999961853</ele>
        <time>2021-04-29T09:58:51.000Z</time>
      </trkpt>
      <trkpt lat="47.27217" lon="-2.29078">
        <ele>28.39999961853</ele>
        <time>2021-04-29T09:58:56.000Z</time>
      </trkpt>
      <trkpt lat="47.27186" lon="-2.29112">
        <ele>28.39999961853</ele>
        <time>2021-04-29T09:59:02.000Z</time>
      </trkpt>
      <trkpt lat="47.27157" lon="-2.29146">
        <ele>28.39999961853</ele>
        <time>2021-04-29T09:59:09.000Z</time>
      </trkpt>
      <trkpt lat="47.2715" lon="-2.29166">
        <ele>29.200000762939</ele>
        <time>2021-04-29T09:59:13.000Z</time>
      </trkpt>
      <trkpt lat="47.27151" lon="-2.29173">
        <ele>29.60000038147</ele>
        <time>2021-04-29T09:59:14.000Z</time>
      </trkpt>
      <trkpt lat="47.27152" lon="-2.2918">
        <ele>30</ele>
        <time>2021-04-29T09:59:15.000Z</time>
      </trkpt>
      <trkpt lat="47.27154" lon="-2.29187">
        <ele>30.39999961853</ele>
        <time>2021-04-29T09:59:16.000Z</time>
      </trkpt>
      <trkpt lat="47.27157" lon="-2.29194">
        <ele>30.39999961853</ele>
        <time>2021-04-29T09:59:17.000Z</time>
      </trkpt>
      <trkpt lat="47.2716" lon="-2.29202">
        <ele>30.39999961853</ele>
        <time>2021-04-29T09:59:18.000Z</time>
      </trkpt>
      <trkpt lat="47.27174" lon="-2.29234">
        <ele>30.39999961853</ele>
        <time>2021-04-29T09:59:23.000Z</time>
      </trkpt>
      <trkpt lat="47.27173" lon="-2.29254">
        <ele>30.39999961853</ele>
        <time>2021-04-29T09:59:26.000Z</time>
      </trkpt>
      <trkpt lat="47.27172" lon="-2.29262">
        <ele>30.39999961853</ele>
        <time>2021-04-29T09:59:27.000Z</time>
      </trkpt>
      <trkpt lat="47.27169" lon="-2.29269">
        <ele>30.39999961853</ele>
        <time>2021-04-29T09:59:28.000Z</time>
      </trkpt>
      <trkpt lat="47.27164" lon="-2.29284">
        <ele>30.39999961853</ele>
        <time>2021-04-29T09:59:30.000Z</time>
      </trkpt>
      <trkpt lat="47.2716" lon="-2.2929">
        <ele>30.39999961853</ele>
        <time>2021-04-29T09:59:31.000Z</time>
      </trkpt>
      <trkpt lat="47.27156" lon="-2.29301">
        <ele>30.39999961853</ele>
        <time>2021-04-29T09:59:33.000Z</time>
      </trkpt>
      <trkpt lat="47.27157" lon="-2.29312">
        <ele>30.39999961853</ele>
        <time>2021-04-29T09:59:35.000Z</time>
      </trkpt>
      <trkpt lat="47.27168" lon="-2.29328">
        <ele>30.39999961853</ele>
        <time>2021-04-29T09:59:38.000Z</time>
      </trkpt>
      <trkpt lat="47.27172" lon="-2.29333">
        <ele>30.39999961853</ele>
        <time>2021-04-29T09:59:39.000Z</time>
      </trkpt>
      <trkpt lat="47.27184" lon="-2.29351">
        <ele>30.39999961853</ele>
        <time>2021-04-29T09:59:42.000Z</time>
      </trkpt>
      <trkpt lat="47.27199" lon="-2.29389">
        <ele>30.39999961853</ele>
        <time>2021-04-29T09:59:47.000Z</time>
      </trkpt>
      <trkpt lat="47.27209" lon="-2.29421">
        <ele>30.39999961853</ele>
        <time>2021-04-29T09:59:52.000Z</time>
      </trkpt>
      <trkpt lat="47.27211" lon="-2.29429">
        <ele>30.39999961853</ele>
        <time>2021-04-29T09:59:53.000Z</time>
      </trkpt>
      <trkpt lat="47.27224" lon="-2.29474">
        <ele>30.39999961853</ele>
        <time>2021-04-29T09:59:59.000Z</time>
      </trkpt>
      <trkpt lat="47.27227" lon="-2.29482">
        <ele>31</ele>
        <time>2021-04-29T10:00:00.000Z</time>
      </trkpt>
      <trkpt lat="47.27229" lon="-2.2949">
        <ele>31.39999961853</ele>
        <time>2021-04-29T10:00:01.000Z</time>
      </trkpt>
      <trkpt lat="47.27232" lon="-2.29498">
        <ele>32.200000762939</ele>
        <time>2021-04-29T10:00:02.000Z</time>
      </trkpt>
      <trkpt lat="47.27234" lon="-2.29506">
        <ele>32.799999237061</ele>
        <time>2021-04-29T10:00:03.000Z</time>
      </trkpt>
      <trkpt lat="47.27245" lon="-2.29539">
        <ele>32.799999237061</ele>
        <time>2021-04-29T10:00:07.000Z</time>
      </trkpt>
      <trkpt lat="47.27246" lon="-2.29547">
        <ele>32.799999237061</ele>
        <time>2021-04-29T10:00:08.000Z</time>
      </trkpt>
      <trkpt lat="47.27246" lon="-2.29563">
        <ele>32.799999237061</ele>
        <time>2021-04-29T10:00:10.000Z</time>
      </trkpt>
      <trkpt lat="47.27234" lon="-2.29587">
        <ele>32.799999237061</ele>
        <time>2021-04-29T10:00:14.000Z</time>
      </trkpt>
      <trkpt lat="47.27225" lon="-2.29592">
        <ele>32.799999237061</ele>
        <time>2021-04-29T10:00:16.000Z</time>
      </trkpt>
      <trkpt lat="47.27209" lon="-2.29604">
        <ele>32.799999237061</ele>
        <time>2021-04-29T10:00:19.000Z</time>
      </trkpt>
      <trkpt lat="47.27175" lon="-2.29632">
        <ele>32.799999237061</ele>
        <time>2021-04-29T10:00:25.000Z</time>
      </trkpt>
      <trkpt lat="47.27153" lon="-2.29645">
        <ele>32.799999237061</ele>
        <time>2021-04-29T10:00:30.000Z</time>
      </trkpt>
      <trkpt lat="47.27142" lon="-2.29645">
        <ele>32.799999237061</ele>
        <time>2021-04-29T10:00:32.000Z</time>
      </trkpt>
      <trkpt lat="47.27131" lon="-2.29646">
        <ele>32.799999237061</ele>
        <time>2021-04-29T10:00:34.000Z</time>
      </trkpt>
      <trkpt lat="47.27115" lon="-2.29661">
        <ele>32.799999237061</ele>
        <time>2021-04-29T10:00:39.000Z</time>
      </trkpt>
      <trkpt lat="47.27116" lon="-2.29677">
        <ele>32.799999237061</ele>
        <time>2021-04-29T10:00:42.000Z</time>
      </trkpt>
      <trkpt lat="47.27117" lon="-2.29689">
        <ele>32.799999237061</ele>
        <time>2021-04-29T10:00:44.000Z</time>
      </trkpt>
      <trkpt lat="47.27117" lon="-2.29697">
        <ele>32.799999237061</ele>
        <time>2021-04-29T10:00:45.000Z</time>
      </trkpt>
      <trkpt lat="47.27117" lon="-2.29725">
        <ele>32.799999237061</ele>
        <time>2021-04-29T10:00:48.000Z</time>
      </trkpt>
      <trkpt lat="47.27115" lon="-2.29745">
        <ele>32.799999237061</ele>
        <time>2021-04-29T10:00:50.000Z</time>
      </trkpt>
      <trkpt lat="47.27113" lon="-2.29793">
        <ele>32.799999237061</ele>
        <time>2021-04-29T10:00:55.000Z</time>
      </trkpt>
      <trkpt lat="47.27111" lon="-2.29829">
        <ele>32.799999237061</ele>
        <time>2021-04-29T10:00:59.000Z</time>
      </trkpt>
      <trkpt lat="47.27108" lon="-2.29845">
        <ele>32.799999237061</ele>
        <time>2021-04-29T10:01:01.000Z</time>
      </trkpt>
      <trkpt lat="47.27103" lon="-2.29861">
        <ele>32.799999237061</ele>
        <time>2021-04-29T10:01:03.000Z</time>
      </trkpt>
      <trkpt lat="47.27093" lon="-2.29887">
        <ele>32.799999237061</ele>
        <time>2021-04-29T10:01:06.000Z</time>
      </trkpt>
      <trkpt lat="47.27085" lon="-2.29904">
        <ele>32.799999237061</ele>
        <time>2021-04-29T10:01:08.000Z</time>
      </trkpt>
      <trkpt lat="47.27076" lon="-2.29916">
        <ele>32.799999237061</ele>
        <time>2021-04-29T10:01:10.000Z</time>
      </trkpt>
      <trkpt lat="47.27052" lon="-2.29948">
        <ele>32.799999237061</ele>
        <time>2021-04-29T10:01:15.000Z</time>
      </trkpt>
      <trkpt lat="47.27049" lon="-2.29956">
        <ele>32.799999237061</ele>
        <time>2021-04-29T10:01:16.000Z</time>
      </trkpt>
      <trkpt lat="47.27038" lon="-2.2998">
        <ele>32.799999237061</ele>
        <time>2021-04-29T10:01:19.000Z</time>
      </trkpt>
      <trkpt lat="47.27019" lon="-2.30028">
        <ele>32.799999237061</ele>
        <time>2021-04-29T10:01:25.000Z</time>
      </trkpt>
      <trkpt lat="47.27012" lon="-2.30054">
        <ele>32.799999237061</ele>
        <time>2021-04-29T10:01:29.000Z</time>
      </trkpt>
      <trkpt lat="47.27019" lon="-2.30059">
        <ele>32.799999237061</ele>
        <time>2021-04-29T10:01:31.000Z</time>
      </trkpt>
      <trkpt lat="47.27028" lon="-2.30058">
        <ele>32.799999237061</ele>
        <time>2021-04-29T10:01:34.000Z</time>
      </trkpt>
      <trkpt lat="47.27032" lon="-2.30057">
        <ele>32.799999237061</ele>
        <time>2021-04-29T10:01:35.000Z</time>
      </trkpt>
      <trkpt lat="47.27043" lon="-2.30057">
        <ele>32.799999237061</ele>
        <time>2021-04-29T10:01:37.000Z</time>
      </trkpt>
      <trkpt lat="47.27053" lon="-2.30059">
        <ele>32.799999237061</ele>
        <time>2021-04-29T10:01:39.000Z</time>
      </trkpt>
      <trkpt lat="47.27075" lon="-2.30068">
        <ele>32.799999237061</ele>
        <time>2021-04-29T10:01:43.000Z</time>
      </trkpt>
      <trkpt lat="47.27084" lon="-2.30077">
        <ele>32.799999237061</ele>
        <time>2021-04-29T10:01:45.000Z</time>
      </trkpt>
      <trkpt lat="47.27111" lon="-2.301">
        <ele>32.200000762939</ele>
        <time>2021-04-29T10:01:50.000Z</time>
      </trkpt>
      <trkpt lat="47.27117" lon="-2.30102">
        <ele>31.799999237061</ele>
        <time>2021-04-29T10:01:51.000Z</time>
      </trkpt>
      <trkpt lat="47.27122" lon="-2.30105">
        <ele>31.39999961853</ele>
        <time>2021-04-29T10:01:52.000Z</time>
      </trkpt>
      <trkpt lat="47.27127" lon="-2.30106">
        <ele>31</ele>
        <time>2021-04-29T10:01:53.000Z</time>
      </trkpt>
      <trkpt lat="47.27133" lon="-2.30107">
        <ele>30.60000038147</ele>
        <time>2021-04-29T10:01:54.000Z</time>
      </trkpt>
      <trkpt lat="47.27149" lon="-2.30111">
        <ele>30.60000038147</ele>
        <time>2021-04-29T10:01:57.000Z</time>
      </trkpt>
      <trkpt lat="47.27155" lon="-2.30119">
        <ele>30.60000038147</ele>
        <time>2021-04-29T10:01:59.000Z</time>
      </trkpt>
      <trkpt lat="47.27156" lon="-2.30124">
        <ele>30.200000762939</ele>
        <time>2021-04-29T10:02:00.000Z</time>
      </trkpt>
      <trkpt lat="47.27157" lon="-2.30129">
        <ele>29.799999237061</ele>
        <time>2021-04-29T10:02:01.000Z</time>
      </trkpt>
      <trkpt lat="47.27156" lon="-2.30134">
        <ele>29.39999961853</ele>
        <time>2021-04-29T10:02:02.000Z</time>
      </trkpt>
      <trkpt lat="47.27156" lon="-2.30139">
        <ele>29</ele>
        <time>2021-04-29T10:02:03.000Z</time>
      </trkpt>
      <trkpt lat="47.27156" lon="-2.30144">
        <ele>28.60000038147</ele>
        <time>2021-04-29T10:02:04.000Z</time>
      </trkpt>
      <trkpt lat="47.27157" lon="-2.30155">
        <ele>28.60000038147</ele>
        <time>2021-04-29T10:02:06.000Z</time>
      </trkpt>
      <trkpt lat="47.27157" lon="-2.30161">
        <ele>28</ele>
        <time>2021-04-29T10:02:07.000Z</time>
      </trkpt>
      <trkpt lat="47.27157" lon="-2.30167">
        <ele>27.60000038147</ele>
        <time>2021-04-29T10:02:08.000Z</time>
      </trkpt>
      <trkpt lat="47.27157" lon="-2.30174">
        <ele>27.200000762939</ele>
        <time>2021-04-29T10:02:09.000Z</time>
      </trkpt>
      <trkpt lat="47.27156" lon="-2.3018">
        <ele>26.799999237061</ele>
        <time>2021-04-29T10:02:10.000Z</time>
      </trkpt>
      <trkpt lat="47.27156" lon="-2.30187">
        <ele>26.39999961853</ele>
        <time>2021-04-29T10:02:11.000Z</time>
      </trkpt>
      <trkpt lat="47.27156" lon="-2.30203">
        <ele>26.39999961853</ele>
        <time>2021-04-29T10:02:13.000Z</time>
      </trkpt>
      <trkpt lat="47.27154" lon="-2.30217">
        <ele>26.39999961853</ele>
        <time>2021-04-29T10:02:15.000Z</time>
      </trkpt>
      <trkpt lat="47.27145" lon="-2.30232">
        <ele>26.39999961853</ele>
        <time>2021-04-29T10:02:18.000Z</time>
      </trkpt>
      <trkpt lat="47.27135" lon="-2.30238">
        <ele>26.39999961853</ele>
        <time>2021-04-29T10:02:20.000Z</time>
      </trkpt>
      <trkpt lat="47.27121" lon="-2.30246">
        <ele>26.39999961853</ele>
        <time>2021-04-29T10:02:23.000Z</time>
      </trkpt>
      <trkpt lat="47.27094" lon="-2.3026">
        <ele>26.39999961853</ele>
        <time>2021-04-29T10:02:28.000Z</time>
      </trkpt>
      <trkpt lat="47.2709" lon="-2.30263">
        <ele>26.39999961853</ele>
        <time>2021-04-29T10:02:29.000Z</time>
      </trkpt>
      <trkpt lat="47.27073" lon="-2.30288">
        <ele>26.39999961853</ele>
        <time>2021-04-29T10:02:34.000Z</time>
      </trkpt>
      <trkpt lat="47.27071" lon="-2.30302">
        <ele>26.39999961853</ele>
        <time>2021-04-29T10:02:36.000Z</time>
      </trkpt>
      <trkpt lat="47.27068" lon="-2.30318">
        <ele>26.39999961853</ele>
        <time>2021-04-29T10:02:38.000Z</time>
      </trkpt>
      <trkpt lat="47.27064" lon="-2.30345">
        <ele>26.799999237061</ele>
        <time>2021-04-29T10:02:41.000Z</time>
      </trkpt>
      <trkpt lat="47.27062" lon="-2.30354">
        <ele>27.200000762939</ele>
        <time>2021-04-29T10:02:42.000Z</time>
      </trkpt>
      <trkpt lat="47.2706" lon="-2.30363">
        <ele>27.799999237061</ele>
        <time>2021-04-29T10:02:43.000Z</time>
      </trkpt>
      <trkpt lat="47.27059" lon="-2.30372">
        <ele>28.200000762939</ele>
        <time>2021-04-29T10:02:44.000Z</time>
      </trkpt>
      <trkpt lat="47.27058" lon="-2.30381">
        <ele>28.60000038147</ele>
        <time>2021-04-29T10:02:45.000Z</time>
      </trkpt>
      <trkpt lat="47.2705" lon="-2.30434">
        <ele>28.60000038147</ele>
        <time>2021-04-29T10:02:50.000Z</time>
      </trkpt>
      <trkpt lat="47.27045" lon="-2.30463">
        <ele>28.60000038147</ele>
        <time>2021-04-29T10:02:53.000Z</time>
      </trkpt>
      <trkpt lat="47.27043" lon="-2.30473">
        <ele>28.60000038147</ele>
        <time>2021-04-29T10:02:54.000Z</time>
      </trkpt>
      <trkpt lat="47.2704" lon="-2.30482">
        <ele>28.60000038147</ele>
        <time>2021-04-29T10:02:55.000Z</time>
      </trkpt>
      <trkpt lat="47.27033" lon="-2.30508">
        <ele>28.60000038147</ele>
        <time>2021-04-29T10:02:58.000Z</time>
      </trkpt>
      <trkpt lat="47.27027" lon="-2.30534">
        <ele>28.60000038147</ele>
        <time>2021-04-29T10:03:01.000Z</time>
      </trkpt>
      <trkpt lat="47.27011" lon="-2.3059">
        <ele>28.60000038147</ele>
        <time>2021-04-29T10:03:08.000Z</time>
      </trkpt>
      <trkpt lat="47.27004" lon="-2.30603">
        <ele>28.60000038147</ele>
        <time>2021-04-29T10:03:10.000Z</time>
      </trkpt>
      <trkpt lat="47.26992" lon="-2.30613">
        <ele>28.60000038147</ele>
        <time>2021-04-29T10:03:12.000Z</time>
      </trkpt>
      <trkpt lat="47.26973" lon="-2.30623">
        <ele>28.60000038147</ele>
        <time>2021-04-29T10:03:15.000Z</time>
      </trkpt>
      <trkpt lat="47.26959" lon="-2.3063">
        <ele>28.60000038147</ele>
        <time>2021-04-29T10:03:18.000Z</time>
      </trkpt>
      <trkpt lat="47.26928" lon="-2.30635">
        <ele>28.60000038147</ele>
        <time>2021-04-29T10:03:25.000Z</time>
      </trkpt>
      <trkpt lat="47.26919" lon="-2.30639">
        <ele>28.60000038147</ele>
        <time>2021-04-29T10:03:29.000Z</time>
      </trkpt>
      <trkpt lat="47.26908" lon="-2.30648">
        <ele>28.60000038147</ele>
        <time>2021-04-29T10:03:35.000Z</time>
      </trkpt>
      <trkpt lat="47.26901" lon="-2.30652">
        <ele>28.60000038147</ele>
        <time>2021-04-29T10:03:40.000Z</time>
      </trkpt>
      <trkpt lat="47.26902" lon="-2.3065">
        <ele>28.60000038147</ele>
        <time>2021-04-29T10:03:41.000Z</time>
      </trkpt>
      <trkpt lat="47.26906" lon="-2.30642">
        <ele>28.60000038147</ele>
        <time>2021-04-29T10:03:46.000Z</time>
      </trkpt>
      <trkpt lat="47.26907" lon="-2.3064">
        <ele>28.60000038147</ele>
        <time>2021-04-29T10:03:49.000Z</time>
      </trkpt>
      <trkpt lat="47.26905" lon="-2.30646">
        <ele>28.60000038147</ele>
        <time>2021-04-29T10:04:13.000Z</time>
      </trkpt>
      <trkpt lat="47.26904" lon="-2.30647">
        <ele>28.60000038147</ele>
        <time>2021-04-29T10:04:14.000Z</time>
      </trkpt>
      <trkpt lat="47.26899" lon="-2.30652">
        <ele>28.60000038147</ele>
        <time>2021-04-29T10:04:18.000Z</time>
      </trkpt>
      <trkpt lat="47.26897" lon="-2.30656">
        <ele>28.60000038147</ele>
        <time>2021-04-29T10:04:21.000Z</time>
      </trkpt>
      <trkpt lat="47.26898" lon="-2.30661">
        <ele>28.60000038147</ele>
        <time>2021-04-29T10:05:40.000Z</time>
      </trkpt>
      <trkpt lat="47.26902" lon="-2.30673">
        <ele>28.60000038147</ele>
        <time>2021-04-29T10:05:45.000Z</time>
      </trkpt>
      <trkpt lat="47.26904" lon="-2.30676">
        <ele>28.60000038147</ele>
        <time>2021-04-29T10:05:46.000Z</time>
      </trkpt>
      <trkpt lat="47.26912" lon="-2.30689">
        <ele>28.60000038147</ele>
        <time>2021-04-29T10:05:50.000Z</time>
      </trkpt>
      <trkpt lat="47.26931" lon="-2.30716">
        <ele>28.60000038147</ele>
        <time>2021-04-29T10:05:56.000Z</time>
      </trkpt>
      <trkpt lat="47.26956" lon="-2.30749">
        <ele>28.60000038147</ele>
        <time>2021-04-29T10:06:02.000Z</time>
      </trkpt>
      <trkpt lat="47.26978" lon="-2.30779">
        <ele>28.60000038147</ele>
        <time>2021-04-29T10:06:07.000Z</time>
      </trkpt>
      <trkpt lat="47.26986" lon="-2.30791">
        <ele>28.60000038147</ele>
        <time>2021-04-29T10:06:09.000Z</time>
      </trkpt>
      <trkpt lat="47.26994" lon="-2.30804">
        <ele>28</ele>
        <time>2021-04-29T10:06:11.000Z</time>
      </trkpt>
      <trkpt lat="47.26998" lon="-2.30811">
        <ele>27.60000038147</ele>
        <time>2021-04-29T10:06:12.000Z</time>
      </trkpt>
      <trkpt lat="47.27003" lon="-2.30818">
        <ele>27</ele>
        <time>2021-04-29T10:06:13.000Z</time>
      </trkpt>
      <trkpt lat="47.27008" lon="-2.30825">
        <ele>26</ele>
        <time>2021-04-29T10:06:14.000Z</time>
      </trkpt>
      <trkpt lat="47.27012" lon="-2.30832">
        <ele>26</ele>
        <time>2021-04-29T10:06:15.000Z</time>
      </trkpt>
      <trkpt lat="47.27022" lon="-2.30844">
        <ele>26</ele>
        <time>2021-04-29T10:06:17.000Z</time>
      </trkpt>
      <trkpt lat="47.27026" lon="-2.3085">
        <ele>25.60000038147</ele>
        <time>2021-04-29T10:06:18.000Z</time>
      </trkpt>
      <trkpt lat="47.2703" lon="-2.30858">
        <ele>25.200000762939</ele>
        <time>2021-04-29T10:06:19.000Z</time>
      </trkpt>
      <trkpt lat="47.27035" lon="-2.30865">
        <ele>24.60000038147</ele>
        <time>2021-04-29T10:06:20.000Z</time>
      </trkpt>
      <trkpt lat="47.27039" lon="-2.30872">
        <ele>24.200000762939</ele>
        <time>2021-04-29T10:06:21.000Z</time>
      </trkpt>
      <trkpt lat="47.27042" lon="-2.30878">
        <ele>23.799999237061</ele>
        <time>2021-04-29T10:06:22.000Z</time>
      </trkpt>
      <trkpt lat="47.27047" lon="-2.30893">
        <ele>23.39999961853</ele>
        <time>2021-04-29T10:06:25.000Z</time>
      </trkpt>
      <trkpt lat="47.27048" lon="-2.30897">
        <ele>23</ele>
        <time>2021-04-29T10:06:26.000Z</time>
      </trkpt>
      <trkpt lat="47.27048" lon="-2.309">
        <ele>22.60000038147</ele>
        <time>2021-04-29T10:06:27.000Z</time>
      </trkpt>
      <trkpt lat="47.27048" lon="-2.30904">
        <ele>22.200000762939</ele>
        <time>2021-04-29T10:06:28.000Z</time>
      </trkpt>
      <trkpt lat="47.27049" lon="-2.30908">
        <ele>21.799999237061</ele>
        <time>2021-04-29T10:06:29.000Z</time>
      </trkpt>
      <trkpt lat="47.27057" lon="-2.30923">
        <ele>21.799999237061</ele>
        <time>2021-04-29T10:06:33.000Z</time>
      </trkpt>
      <trkpt lat="47.27062" lon="-2.30946">
        <ele>21.799999237061</ele>
        <time>2021-04-29T10:06:38.000Z</time>
      </trkpt>
      <trkpt lat="47.27067" lon="-2.30981">
        <ele>21.799999237061</ele>
        <time>2021-04-29T10:06:44.000Z</time>
      </trkpt>
      <trkpt lat="47.27066" lon="-2.30985">
        <ele>21.799999237061</ele>
        <time>2021-04-29T10:06:45.000Z</time>
      </trkpt>
      <trkpt lat="47.2706" lon="-2.30994">
        <ele>21.799999237061</ele>
        <time>2021-04-29T10:06:47.000Z</time>
      </trkpt>
      <trkpt lat="47.27054" lon="-2.31">
        <ele>21.799999237061</ele>
        <time>2021-04-29T10:06:49.000Z</time>
      </trkpt>
      <trkpt lat="47.27044" lon="-2.31008">
        <ele>21.799999237061</ele>
        <time>2021-04-29T10:06:52.000Z</time>
      </trkpt>
      <trkpt lat="47.27022" lon="-2.31029">
        <ele>21.799999237061</ele>
        <time>2021-04-29T10:06:57.000Z</time>
      </trkpt>
      <trkpt lat="47.27018" lon="-2.31034">
        <ele>21.799999237061</ele>
        <time>2021-04-29T10:06:58.000Z</time>
      </trkpt>
      <trkpt lat="47.27012" lon="-2.31038">
        <ele>21.799999237061</ele>
        <time>2021-04-29T10:06:59.000Z</time>
      </trkpt>
      <trkpt lat="47.27006" lon="-2.31043">
        <ele>22.200000762939</ele>
        <time>2021-04-29T10:07:00.000Z</time>
      </trkpt>
      <trkpt lat="47.27" lon="-2.31049">
        <ele>22.60000038147</ele>
        <time>2021-04-29T10:07:01.000Z</time>
      </trkpt>
      <trkpt lat="47.26996" lon="-2.31054">
        <ele>23</ele>
        <time>2021-04-29T10:07:02.000Z</time>
      </trkpt>
      <trkpt lat="47.26994" lon="-2.31058">
        <ele>23.799999237061</ele>
        <time>2021-04-29T10:07:03.000Z</time>
      </trkpt>
      <trkpt lat="47.26991" lon="-2.31081">
        <ele>23.799999237061</ele>
        <time>2021-04-29T10:07:06.000Z</time>
      </trkpt>
      <trkpt lat="47.26992" lon="-2.311">
        <ele>23.799999237061</ele>
        <time>2021-04-29T10:07:08.000Z</time>
      </trkpt>
      <trkpt lat="47.26991" lon="-2.31126">
        <ele>24.200000762939</ele>
        <time>2021-04-29T10:07:11.000Z</time>
      </trkpt>
      <trkpt lat="47.26991" lon="-2.31135">
        <ele>24.60000038147</ele>
        <time>2021-04-29T10:07:12.000Z</time>
      </trkpt>
      <trkpt lat="47.2699" lon="-2.31143">
        <ele>25</ele>
        <time>2021-04-29T10:07:13.000Z</time>
      </trkpt>
      <trkpt lat="47.26989" lon="-2.31151">
        <ele>25.39999961853</ele>
        <time>2021-04-29T10:07:14.000Z</time>
      </trkpt>
      <trkpt lat="47.26988" lon="-2.31158">
        <ele>25.799999237061</ele>
        <time>2021-04-29T10:07:15.000Z</time>
      </trkpt>
      <trkpt lat="47.26987" lon="-2.31165">
        <ele>25.799999237061</ele>
        <time>2021-04-29T10:07:16.000Z</time>
      </trkpt>
      <trkpt lat="47.26985" lon="-2.31178">
        <ele>25.799999237061</ele>
        <time>2021-04-29T10:07:18.000Z</time>
      </trkpt>
      <trkpt lat="47.2698" lon="-2.31207">
        <ele>26.200000762939</ele>
        <time>2021-04-29T10:07:22.000Z</time>
      </trkpt>
      <trkpt lat="47.26979" lon="-2.31214">
        <ele>26.799999237061</ele>
        <time>2021-04-29T10:07:23.000Z</time>
      </trkpt>
      <trkpt lat="47.26978" lon="-2.3122">
        <ele>27.200000762939</ele>
        <time>2021-04-29T10:07:24.000Z</time>
      </trkpt>
      <trkpt lat="47.26976" lon="-2.31226">
        <ele>27.60000038147</ele>
        <time>2021-04-29T10:07:25.000Z</time>
      </trkpt>
      <trkpt lat="47.26975" lon="-2.31233">
        <ele>28</ele>
        <time>2021-04-29T10:07:26.000Z</time>
      </trkpt>
      <trkpt lat="47.26975" lon="-2.3124">
        <ele>28</ele>
        <time>2021-04-29T10:07:27.000Z</time>
      </trkpt>
      <trkpt lat="47.26975" lon="-2.31254">
        <ele>28</ele>
        <time>2021-04-29T10:07:29.000Z</time>
      </trkpt>
      <trkpt lat="47.26975" lon="-2.31299">
        <ele>28</ele>
        <time>2021-04-29T10:07:36.000Z</time>
      </trkpt>
      <trkpt lat="47.26976" lon="-2.31306">
        <ele>28.39999961853</ele>
        <time>2021-04-29T10:07:37.000Z</time>
      </trkpt>
      <trkpt lat="47.26977" lon="-2.31312">
        <ele>28.799999237061</ele>
        <time>2021-04-29T10:07:38.000Z</time>
      </trkpt>
      <trkpt lat="47.26978" lon="-2.31318">
        <ele>29.200000762939</ele>
        <time>2021-04-29T10:07:39.000Z</time>
      </trkpt>
      <trkpt lat="47.26979" lon="-2.31324">
        <ele>29.799999237061</ele>
        <time>2021-04-29T10:07:40.000Z</time>
      </trkpt>
      <trkpt lat="47.2698" lon="-2.3133">
        <ele>30.200000762939</ele>
        <time>2021-04-29T10:07:41.000Z</time>
      </trkpt>
      <trkpt lat="47.26981" lon="-2.31336">
        <ele>30.200000762939</ele>
        <time>2021-04-29T10:07:42.000Z</time>
      </trkpt>
      <trkpt lat="47.26984" lon="-2.31363">
        <ele>30.200000762939</ele>
        <time>2021-04-29T10:07:46.000Z</time>
      </trkpt>
      <trkpt lat="47.26986" lon="-2.31408">
        <ele>30.200000762939</ele>
        <time>2021-04-29T10:07:51.000Z</time>
      </trkpt>
      <trkpt lat="47.26987" lon="-2.31417">
        <ele>29.60000038147</ele>
        <time>2021-04-29T10:07:52.000Z</time>
      </trkpt>
      <trkpt lat="47.26987" lon="-2.31428">
        <ele>28.799999237061</ele>
        <time>2021-04-29T10:07:53.000Z</time>
      </trkpt>
      <trkpt lat="47.26987" lon="-2.31438">
        <ele>28.200000762939</ele>
        <time>2021-04-29T10:07:54.000Z</time>
      </trkpt>
      <trkpt lat="47.26987" lon="-2.31446">
        <ele>27.799999237061</ele>
        <time>2021-04-29T10:07:55.000Z</time>
      </trkpt>
      <trkpt lat="47.26987" lon="-2.31455">
        <ele>27.799999237061</ele>
        <time>2021-04-29T10:07:56.000Z</time>
      </trkpt>
      <trkpt lat="47.26988" lon="-2.31463">
        <ele>27.799999237061</ele>
        <time>2021-04-29T10:07:57.000Z</time>
      </trkpt>
      <trkpt lat="47.26992" lon="-2.31491">
        <ele>27.200000762939</ele>
        <time>2021-04-29T10:08:00.000Z</time>
      </trkpt>
      <trkpt lat="47.26993" lon="-2.315">
        <ele>26.799999237061</ele>
        <time>2021-04-29T10:08:01.000Z</time>
      </trkpt>
      <trkpt lat="47.26996" lon="-2.31509">
        <ele>26.39999961853</ele>
        <time>2021-04-29T10:08:02.000Z</time>
      </trkpt>
      <trkpt lat="47.26997" lon="-2.31519">
        <ele>25.799999237061</ele>
        <time>2021-04-29T10:08:03.000Z</time>
      </trkpt>
      <trkpt lat="47.26999" lon="-2.31529">
        <ele>25.39999961853</ele>
        <time>2021-04-29T10:08:04.000Z</time>
      </trkpt>
      <trkpt lat="47.27001" lon="-2.31539">
        <ele>25.39999961853</ele>
        <time>2021-04-29T10:08:05.000Z</time>
      </trkpt>
      <trkpt lat="47.27008" lon="-2.31567">
        <ele>25</ele>
        <time>2021-04-29T10:08:08.000Z</time>
      </trkpt>
      <trkpt lat="47.2701" lon="-2.31575">
        <ele>24.60000038147</ele>
        <time>2021-04-29T10:08:09.000Z</time>
      </trkpt>
      <trkpt lat="47.27012" lon="-2.31581">
        <ele>24</ele>
        <time>2021-04-29T10:08:10.000Z</time>
      </trkpt>
      <trkpt lat="47.27015" lon="-2.31587">
        <ele>23.60000038147</ele>
        <time>2021-04-29T10:08:11.000Z</time>
      </trkpt>
      <trkpt lat="47.27017" lon="-2.31593">
        <ele>23</ele>
        <time>2021-04-29T10:08:12.000Z</time>
      </trkpt>
      <trkpt lat="47.27019" lon="-2.31599">
        <ele>22.39999961853</ele>
        <time>2021-04-29T10:08:13.000Z</time>
      </trkpt>
      <trkpt lat="47.2702" lon="-2.31604">
        <ele>21.799999237061</ele>
        <time>2021-04-29T10:08:14.000Z</time>
      </trkpt>
      <trkpt lat="47.27021" lon="-2.3161">
        <ele>21.200000762939</ele>
        <time>2021-04-29T10:08:15.000Z</time>
      </trkpt>
      <trkpt lat="47.27022" lon="-2.31617">
        <ele>20.60000038147</ele>
        <time>2021-04-29T10:08:16.000Z</time>
      </trkpt>
      <trkpt lat="47.27023" lon="-2.31625">
        <ele>20.200000762939</ele>
        <time>2021-04-29T10:08:17.000Z</time>
      </trkpt>
      <trkpt lat="47.27024" lon="-2.31634">
        <ele>19.799999237061</ele>
        <time>2021-04-29T10:08:18.000Z</time>
      </trkpt>
      <trkpt lat="47.27025" lon="-2.31643">
        <ele>19.39999961853</ele>
        <time>2021-04-29T10:08:19.000Z</time>
      </trkpt>
      <trkpt lat="47.27026" lon="-2.31653">
        <ele>19</ele>
        <time>2021-04-29T10:08:20.000Z</time>
      </trkpt>
      <trkpt lat="47.27026" lon="-2.31663">
        <ele>18.60000038147</ele>
        <time>2021-04-29T10:08:21.000Z</time>
      </trkpt>
      <trkpt lat="47.27025" lon="-2.3168">
        <ele>18.60000038147</ele>
        <time>2021-04-29T10:08:23.000Z</time>
      </trkpt>
      <trkpt lat="47.27025" lon="-2.31686">
        <ele>18</ele>
        <time>2021-04-29T10:08:24.000Z</time>
      </trkpt>
      <trkpt lat="47.27024" lon="-2.3169">
        <ele>17.60000038147</ele>
        <time>2021-04-29T10:08:25.000Z</time>
      </trkpt>
      <trkpt lat="47.27024" lon="-2.31695">
        <ele>17</ele>
        <time>2021-04-29T10:08:26.000Z</time>
      </trkpt>
      <trkpt lat="47.27023" lon="-2.31698">
        <ele>16.60000038147</ele>
        <time>2021-04-29T10:08:27.000Z</time>
      </trkpt>
      <trkpt lat="47.27023" lon="-2.31701">
        <ele>16.200000762939</ele>
        <time>2021-04-29T10:08:28.000Z</time>
      </trkpt>
      <trkpt lat="47.27027" lon="-2.31709">
        <ele>16.200000762939</ele>
        <time>2021-04-29T10:08:30.000Z</time>
      </trkpt>
      <trkpt lat="47.27032" lon="-2.31713">
        <ele>16.200000762939</ele>
        <time>2021-04-29T10:08:31.000Z</time>
      </trkpt>
      <trkpt lat="47.27047" lon="-2.31726">
        <ele>16.200000762939</ele>
        <time>2021-04-29T10:08:35.000Z</time>
      </trkpt>
      <trkpt lat="47.27046" lon="-2.31734">
        <ele>16.200000762939</ele>
        <time>2021-04-29T10:08:36.000Z</time>
      </trkpt>
      <trkpt lat="47.27046" lon="-2.31741">
        <ele>15.60000038147</ele>
        <time>2021-04-29T10:08:37.000Z</time>
      </trkpt>
      <trkpt lat="47.27045" lon="-2.31748">
        <ele>15.199999809265</ele>
        <time>2021-04-29T10:08:38.000Z</time>
      </trkpt>
      <trkpt lat="47.27046" lon="-2.31755">
        <ele>14.800000190735</ele>
        <time>2021-04-29T10:08:39.000Z</time>
      </trkpt>
      <trkpt lat="47.27048" lon="-2.31762">
        <ele>14.39999961853</ele>
        <time>2021-04-29T10:08:40.000Z</time>
      </trkpt>
      <trkpt lat="47.2705" lon="-2.31769">
        <ele>14</ele>
        <time>2021-04-29T10:08:41.000Z</time>
      </trkpt>
      <trkpt lat="47.27052" lon="-2.31798">
        <ele>14</ele>
        <time>2021-04-29T10:08:44.000Z</time>
      </trkpt>
      <trkpt lat="47.27054" lon="-2.31807">
        <ele>14</ele>
        <time>2021-04-29T10:08:45.000Z</time>
      </trkpt>
      <trkpt lat="47.27057" lon="-2.31833">
        <ele>13.60000038147</ele>
        <time>2021-04-29T10:08:48.000Z</time>
      </trkpt>
      <trkpt lat="47.27058" lon="-2.3184">
        <ele>13</ele>
        <time>2021-04-29T10:08:49.000Z</time>
      </trkpt>
      <trkpt lat="47.2706" lon="-2.31845">
        <ele>12.60000038147</ele>
        <time>2021-04-29T10:08:50.000Z</time>
      </trkpt>
      <trkpt lat="47.27063" lon="-2.31849">
        <ele>12.199999809265</ele>
        <time>2021-04-29T10:08:51.000Z</time>
      </trkpt>
      <trkpt lat="47.27067" lon="-2.31851">
        <ele>11.800000190735</ele>
        <time>2021-04-29T10:08:52.000Z</time>
      </trkpt>
      <trkpt lat="47.2707" lon="-2.31854">
        <ele>11.800000190735</ele>
        <time>2021-04-29T10:08:53.000Z</time>
      </trkpt>
      <trkpt lat="47.27074" lon="-2.3186">
        <ele>11.199999809265</ele>
        <time>2021-04-29T10:08:55.000Z</time>
      </trkpt>
      <trkpt lat="47.27074" lon="-2.31864">
        <ele>10.800000190735</ele>
        <time>2021-04-29T10:08:56.000Z</time>
      </trkpt>
      <trkpt lat="47.27073" lon="-2.31866">
        <ele>10.39999961853</ele>
        <time>2021-04-29T10:08:57.000Z</time>
      </trkpt>
      <trkpt lat="47.27073" lon="-2.31869">
        <ele>10</ele>
        <time>2021-04-29T10:08:58.000Z</time>
      </trkpt>
      <trkpt lat="47.27072" lon="-2.31872">
        <ele>9.3999996185303</ele>
        <time>2021-04-29T10:08:59.000Z</time>
      </trkpt>
      <trkpt lat="47.27071" lon="-2.31876">
        <ele>9.3999996185303</ele>
        <time>2021-04-29T10:09:00.000Z</time>
      </trkpt>
      <trkpt lat="47.27072" lon="-2.31897">
        <ele>9.3999996185303</ele>
        <time>2021-04-29T10:09:04.000Z</time>
      </trkpt>
      <trkpt lat="47.27074" lon="-2.31931">
        <ele>9.3999996185303</ele>
        <time>2021-04-29T10:09:10.000Z</time>
      </trkpt>
      <trkpt lat="47.27073" lon="-2.3194">
        <ele>9.3999996185303</ele>
        <time>2021-04-29T10:09:12.000Z</time>
      </trkpt>
      <trkpt lat="47.27069" lon="-2.31945">
        <ele>9.3999996185303</ele>
        <time>2021-04-29T10:09:14.000Z</time>
      </trkpt>
      <trkpt lat="47.27066" lon="-2.31943">
        <ele>9.3999996185303</ele>
        <time>2021-04-29T10:09:17.000Z</time>
      </trkpt>
      <trkpt lat="47.27066" lon="-2.31944">
        <ele>9.3999996185303</ele>
        <time>2021-04-29T10:09:18.000Z</time>
      </trkpt>
      <trkpt lat="47.27064" lon="-2.31944">
        <ele>7.4000000953674</ele>
        <time>2021-04-29T10:09:59.000Z</time>
      </trkpt>
      <trkpt lat="47.27062" lon="-2.31945">
        <ele>7.4000000953674</ele>
        <time>2021-04-29T10:10:00.000Z</time>
      </trkpt>
      <trkpt lat="47.27055" lon="-2.31946">
        <ele>7.4000000953674</ele>
        <time>2021-04-29T10:10:03.000Z</time>
      </trkpt>
      <trkpt lat="47.27048" lon="-2.31946">
        <ele>7.4000000953674</ele>
        <time>2021-04-29T10:10:06.000Z</time>
      </trkpt>
      <trkpt lat="47.27033" lon="-2.31951">
        <ele>7.4000000953674</ele>
        <time>2021-04-29T10:10:11.000Z</time>
      </trkpt>
      <trkpt lat="47.27007" lon="-2.31972">
        <ele>7.4000000953674</ele>
        <time>2021-04-29T10:10:18.000Z</time>
      </trkpt>
      <trkpt lat="47.27004" lon="-2.31977">
        <ele>7.4000000953674</ele>
        <time>2021-04-29T10:10:19.000Z</time>
      </trkpt>
      <trkpt lat="47.27005" lon="-2.31988">
        <ele>7.4000000953674</ele>
        <time>2021-04-29T10:10:21.000Z</time>
      </trkpt>
      <trkpt lat="47.2701" lon="-2.32007">
        <ele>7.4000000953674</ele>
        <time>2021-04-29T10:10:24.000Z</time>
      </trkpt>
      <trkpt lat="47.27012" lon="-2.32015">
        <ele>7.4000000953674</ele>
        <time>2021-04-29T10:10:25.000Z</time>
      </trkpt>
      <trkpt lat="47.27016" lon="-2.3204">
        <ele>7.4000000953674</ele>
        <time>2021-04-29T10:10:28.000Z</time>
      </trkpt>
      <trkpt lat="47.27017" lon="-2.32057">
        <ele>7.4000000953674</ele>
        <time>2021-04-29T10:10:30.000Z</time>
      </trkpt>
      <trkpt lat="47.27015" lon="-2.32074">
        <ele>7.4000000953674</ele>
        <time>2021-04-29T10:10:32.000Z</time>
      </trkpt>
      <trkpt lat="47.27013" lon="-2.32092">
        <ele>7.4000000953674</ele>
        <time>2021-04-29T10:10:34.000Z</time>
      </trkpt>
      <trkpt lat="47.27011" lon="-2.321">
        <ele>7.4000000953674</ele>
        <time>2021-04-29T10:10:35.000Z</time>
      </trkpt>
      <trkpt lat="47.27001" lon="-2.32118">
        <ele>7</ele>
        <time>2021-04-29T10:10:38.000Z</time>
      </trkpt>
      <trkpt lat="47.26997" lon="-2.32123">
        <ele>6.5999999046326</ele>
        <time>2021-04-29T10:10:39.000Z</time>
      </trkpt>
      <trkpt lat="47.26992" lon="-2.32129">
        <ele>6.1999998092651</ele>
        <time>2021-04-29T10:10:40.000Z</time>
      </trkpt>
      <trkpt lat="47.26989" lon="-2.32136">
        <ele>5.8000001907349</ele>
        <time>2021-04-29T10:10:41.000Z</time>
      </trkpt>
      <trkpt lat="47.26988" lon="-2.32142">
        <ele>5.4000000953674</ele>
        <time>2021-04-29T10:10:42.000Z</time>
      </trkpt>
      <trkpt lat="47.2699" lon="-2.32149">
        <ele>5.4000000953674</ele>
        <time>2021-04-29T10:10:43.000Z</time>
      </trkpt>
      <trkpt lat="47.27004" lon="-2.32167">
        <ele>5.4000000953674</ele>
        <time>2021-04-29T10:10:46.000Z</time>
      </trkpt>
      <trkpt lat="47.27012" lon="-2.3218">
        <ele>5.4000000953674</ele>
        <time>2021-04-29T10:10:48.000Z</time>
      </trkpt>
      <trkpt lat="47.27019" lon="-2.32204">
        <ele>5.4000000953674</ele>
        <time>2021-04-29T10:10:51.000Z</time>
      </trkpt>
      <trkpt lat="47.27021" lon="-2.32212">
        <ele>5.4000000953674</ele>
        <time>2021-04-29T10:10:52.000Z</time>
      </trkpt>
      <trkpt lat="47.27022" lon="-2.32221">
        <ele>5.4000000953674</ele>
        <time>2021-04-29T10:10:53.000Z</time>
      </trkpt>
      <trkpt lat="47.27021" lon="-2.3225">
        <ele>5.4000000953674</ele>
        <time>2021-04-29T10:10:56.000Z</time>
      </trkpt>
      <trkpt lat="47.27021" lon="-2.32259">
        <ele>5.4000000953674</ele>
        <time>2021-04-29T10:10:57.000Z</time>
      </trkpt>
      <trkpt lat="47.27022" lon="-2.32306">
        <ele>5.4000000953674</ele>
        <time>2021-04-29T10:11:02.000Z</time>
      </trkpt>
      <trkpt lat="47.27024" lon="-2.32344">
        <ele>5.4000000953674</ele>
        <time>2021-04-29T10:11:06.000Z</time>
      </trkpt>
      <trkpt lat="47.27026" lon="-2.32363">
        <ele>5.4000000953674</ele>
        <time>2021-04-29T10:11:08.000Z</time>
      </trkpt>
      <trkpt lat="47.27029" lon="-2.32392">
        <ele>5.4000000953674</ele>
        <time>2021-04-29T10:11:11.000Z</time>
      </trkpt>
      <trkpt lat="47.27031" lon="-2.32422">
        <ele>5.4000000953674</ele>
        <time>2021-04-29T10:11:14.000Z</time>
      </trkpt>
      <trkpt lat="47.27032" lon="-2.32462">
        <ele>5.4000000953674</ele>
        <time>2021-04-29T10:11:18.000Z</time>
      </trkpt>
      <trkpt lat="47.27031" lon="-2.32488">
        <ele>5.4000000953674</ele>
        <time>2021-04-29T10:11:21.000Z</time>
      </trkpt>
      <trkpt lat="47.27029" lon="-2.32494">
        <ele>5.4000000953674</ele>
        <time>2021-04-29T10:11:22.000Z</time>
      </trkpt>
      <trkpt lat="47.27021" lon="-2.32506">
        <ele>5.4000000953674</ele>
        <time>2021-04-29T10:11:24.000Z</time>
      </trkpt>
      <trkpt lat="47.27005" lon="-2.32506">
        <ele>5.4000000953674</ele>
        <time>2021-04-29T10:11:27.000Z</time>
      </trkpt>
      <trkpt lat="47.26994" lon="-2.32486">
        <ele>5.4000000953674</ele>
        <time>2021-04-29T10:11:30.000Z</time>
      </trkpt>
      <trkpt lat="47.26984" lon="-2.32464">
        <ele>5.4000000953674</ele>
        <time>2021-04-29T10:11:33.000Z</time>
      </trkpt>
      <trkpt lat="47.26975" lon="-2.3245">
        <ele>5.4000000953674</ele>
        <time>2021-04-29T10:11:35.000Z</time>
      </trkpt>
      <trkpt lat="47.2697" lon="-2.32445">
        <ele>5.4000000953674</ele>
        <time>2021-04-29T10:11:36.000Z</time>
      </trkpt>
      <trkpt lat="47.26957" lon="-2.32427">
        <ele>5.8000001907349</ele>
        <time>2021-04-29T10:11:39.000Z</time>
      </trkpt>
      <trkpt lat="47.26953" lon="-2.3242">
        <ele>6.1999998092651</ele>
        <time>2021-04-29T10:11:40.000Z</time>
      </trkpt>
      <trkpt lat="47.26951" lon="-2.32413">
        <ele>6.5999999046326</ele>
        <time>2021-04-29T10:11:41.000Z</time>
      </trkpt>
      <trkpt lat="47.26948" lon="-2.32406">
        <ele>7</ele>
        <time>2021-04-29T10:11:42.000Z</time>
      </trkpt>
      <trkpt lat="47.26945" lon="-2.32398">
        <ele>7.4000000953674</ele>
        <time>2021-04-29T10:11:43.000Z</time>
      </trkpt>
      <trkpt lat="47.26943" lon="-2.3239">
        <ele>7.4000000953674</ele>
        <time>2021-04-29T10:11:44.000Z</time>
      </trkpt>
      <trkpt lat="47.26942" lon="-2.32383">
        <ele>7.4000000953674</ele>
        <time>2021-04-29T10:11:45.000Z</time>
      </trkpt>
      <trkpt lat="47.26933" lon="-2.32352">
        <ele>7.4000000953674</ele>
        <time>2021-04-29T10:11:49.000Z</time>
      </trkpt>
      <trkpt lat="47.26915" lon="-2.32335">
        <ele>7.4000000953674</ele>
        <time>2021-04-29T10:11:53.000Z</time>
      </trkpt>
      <trkpt lat="47.269" lon="-2.32337">
        <ele>7.4000000953674</ele>
        <time>2021-04-29T10:11:56.000Z</time>
      </trkpt>
      <trkpt lat="47.26896" lon="-2.32338">
        <ele>7.4000000953674</ele>
        <time>2021-04-29T10:11:57.000Z</time>
      </trkpt>
      <trkpt lat="47.26878" lon="-2.32345">
        <ele>7.8000001907349</ele>
        <time>2021-04-29T10:12:01.000Z</time>
      </trkpt>
      <trkpt lat="47.26874" lon="-2.32347">
        <ele>8.1999998092651</ele>
        <time>2021-04-29T10:12:02.000Z</time>
      </trkpt>
      <trkpt lat="47.2687" lon="-2.32347">
        <ele>8.8000001907349</ele>
        <time>2021-04-29T10:12:03.000Z</time>
      </trkpt>
      <trkpt lat="47.26865" lon="-2.32349">
        <ele>9.1999998092651</ele>
        <time>2021-04-29T10:12:04.000Z</time>
      </trkpt>
      <trkpt lat="47.26861" lon="-2.3235">
        <ele>9.6000003814697</ele>
        <time>2021-04-29T10:12:05.000Z</time>
      </trkpt>
      <trkpt lat="47.26852" lon="-2.32352">
        <ele>10</ele>
        <time>2021-04-29T10:12:07.000Z</time>
      </trkpt>
      <trkpt lat="47.26848" lon="-2.32353">
        <ele>10.39999961853</ele>
        <time>2021-04-29T10:12:08.000Z</time>
      </trkpt>
      <trkpt lat="47.26844" lon="-2.32353">
        <ele>10.800000190735</ele>
        <time>2021-04-29T10:12:09.000Z</time>
      </trkpt>
      <trkpt lat="47.2684" lon="-2.32353">
        <ele>11.199999809265</ele>
        <time>2021-04-29T10:12:10.000Z</time>
      </trkpt>
      <trkpt lat="47.26836" lon="-2.32353">
        <ele>11.60000038147</ele>
        <time>2021-04-29T10:12:11.000Z</time>
      </trkpt>
      <trkpt lat="47.26828" lon="-2.32354">
        <ele>11.60000038147</ele>
        <time>2021-04-29T10:12:13.000Z</time>
      </trkpt>
      <trkpt lat="47.26822" lon="-2.32355">
        <ele>12</ele>
        <time>2021-04-29T10:12:15.000Z</time>
      </trkpt>
      <trkpt lat="47.26818" lon="-2.32357">
        <ele>12.60000038147</ele>
        <time>2021-04-29T10:12:16.000Z</time>
      </trkpt>
      <trkpt lat="47.26815" lon="-2.32357">
        <ele>13</ele>
        <time>2021-04-29T10:12:17.000Z</time>
      </trkpt>
      <trkpt lat="47.26812" lon="-2.32358">
        <ele>13.39999961853</ele>
        <time>2021-04-29T10:12:18.000Z</time>
      </trkpt>
      <trkpt lat="47.26808" lon="-2.32359">
        <ele>13.800000190735</ele>
        <time>2021-04-29T10:12:19.000Z</time>
      </trkpt>
      <trkpt lat="47.26798" lon="-2.32362">
        <ele>14.199999809265</ele>
        <time>2021-04-29T10:12:22.000Z</time>
      </trkpt>
      <trkpt lat="47.26795" lon="-2.32363">
        <ele>14.60000038147</ele>
        <time>2021-04-29T10:12:23.000Z</time>
      </trkpt>
      <trkpt lat="47.26792" lon="-2.32364">
        <ele>15.60000038147</ele>
        <time>2021-04-29T10:12:24.000Z</time>
      </trkpt>
      <trkpt lat="47.26788" lon="-2.32365">
        <ele>16</ele>
        <time>2021-04-29T10:12:25.000Z</time>
      </trkpt>
      <trkpt lat="47.26785" lon="-2.32367">
        <ele>16</ele>
        <time>2021-04-29T10:12:26.000Z</time>
      </trkpt>
      <trkpt lat="47.26777" lon="-2.3238">
        <ele>16.39999961853</ele>
        <time>2021-04-29T10:12:30.000Z</time>
      </trkpt>
      <trkpt lat="47.26778" lon="-2.32387">
        <ele>16.799999237061</ele>
        <time>2021-04-29T10:12:31.000Z</time>
      </trkpt>
      <trkpt lat="47.26778" lon="-2.32392">
        <ele>17.200000762939</ele>
        <time>2021-04-29T10:12:32.000Z</time>
      </trkpt>
      <trkpt lat="47.26779" lon="-2.32397">
        <ele>17.60000038147</ele>
        <time>2021-04-29T10:12:33.000Z</time>
      </trkpt>
      <trkpt lat="47.26781" lon="-2.32404">
        <ele>18.200000762939</ele>
        <time>2021-04-29T10:12:34.000Z</time>
      </trkpt>
      <trkpt lat="47.26782" lon="-2.3241">
        <ele>18.200000762939</ele>
        <time>2021-04-29T10:12:35.000Z</time>
      </trkpt>
      <trkpt lat="47.26783" lon="-2.32416">
        <ele>18.200000762939</ele>
        <time>2021-04-29T10:12:36.000Z</time>
      </trkpt>
      <trkpt lat="47.26789" lon="-2.32467">
        <ele>18.200000762939</ele>
        <time>2021-04-29T10:12:43.000Z</time>
      </trkpt>
      <trkpt lat="47.26794" lon="-2.32525">
        <ele>18.200000762939</ele>
        <time>2021-04-29T10:12:50.000Z</time>
      </trkpt>
      <trkpt lat="47.26797" lon="-2.32562">
        <ele>18.200000762939</ele>
        <time>2021-04-29T10:12:55.000Z</time>
      </trkpt>
      <trkpt lat="47.268" lon="-2.32587">
        <ele>18.200000762939</ele>
        <time>2021-04-29T10:12:57.000Z</time>
      </trkpt>
      <trkpt lat="47.26803" lon="-2.32613">
        <ele>18.200000762939</ele>
        <time>2021-04-29T10:13:00.000Z</time>
      </trkpt>
      <trkpt lat="47.26808" lon="-2.32662">
        <ele>18.200000762939</ele>
        <time>2021-04-29T10:13:06.000Z</time>
      </trkpt>
      <trkpt lat="47.26801" lon="-2.32686">
        <ele>18.200000762939</ele>
        <time>2021-04-29T10:13:09.000Z</time>
      </trkpt>
      <trkpt lat="47.268" lon="-2.32694">
        <ele>18.200000762939</ele>
        <time>2021-04-29T10:13:10.000Z</time>
      </trkpt>
      <trkpt lat="47.26805" lon="-2.32718">
        <ele>18.200000762939</ele>
        <time>2021-04-29T10:13:13.000Z</time>
      </trkpt>
      <trkpt lat="47.26819" lon="-2.32751">
        <ele>18.200000762939</ele>
        <time>2021-04-29T10:13:17.000Z</time>
      </trkpt>
      <trkpt lat="47.26827" lon="-2.32771">
        <ele>17.60000038147</ele>
        <time>2021-04-29T10:13:19.000Z</time>
      </trkpt>
      <trkpt lat="47.26831" lon="-2.32781">
        <ele>17.200000762939</ele>
        <time>2021-04-29T10:13:20.000Z</time>
      </trkpt>
      <trkpt lat="47.26834" lon="-2.32792">
        <ele>16.799999237061</ele>
        <time>2021-04-29T10:13:21.000Z</time>
      </trkpt>
      <trkpt lat="47.26837" lon="-2.32803">
        <ele>16.200000762939</ele>
        <time>2021-04-29T10:13:22.000Z</time>
      </trkpt>
      <trkpt lat="47.26841" lon="-2.32814">
        <ele>15.800000190735</ele>
        <time>2021-04-29T10:13:23.000Z</time>
      </trkpt>
      <trkpt lat="47.26844" lon="-2.32824">
        <ele>15.199999809265</ele>
        <time>2021-04-29T10:13:24.000Z</time>
      </trkpt>
      <trkpt lat="47.26847" lon="-2.32834">
        <ele>14.800000190735</ele>
        <time>2021-04-29T10:13:25.000Z</time>
      </trkpt>
      <trkpt lat="47.26851" lon="-2.32843">
        <ele>14.199999809265</ele>
        <time>2021-04-29T10:13:26.000Z</time>
      </trkpt>
      <trkpt lat="47.26856" lon="-2.32852">
        <ele>13.60000038147</ele>
        <time>2021-04-29T10:13:27.000Z</time>
      </trkpt>
      <trkpt lat="47.2686" lon="-2.32862">
        <ele>12.800000190735</ele>
        <time>2021-04-29T10:13:28.000Z</time>
      </trkpt>
      <trkpt lat="47.26862" lon="-2.3287">
        <ele>11.800000190735</ele>
        <time>2021-04-29T10:13:29.000Z</time>
      </trkpt>
      <trkpt lat="47.26862" lon="-2.32877">
        <ele>10.800000190735</ele>
        <time>2021-04-29T10:13:30.000Z</time>
      </trkpt>
      <trkpt lat="47.2686" lon="-2.32884">
        <ele>9.8000001907349</ele>
        <time>2021-04-29T10:13:31.000Z</time>
      </trkpt>
      <trkpt lat="47.26857" lon="-2.32888">
        <ele>8.6000003814697</ele>
        <time>2021-04-29T10:13:32.000Z</time>
      </trkpt>
      <trkpt lat="47.26851" lon="-2.32888">
        <ele>7.5999999046326</ele>
        <time>2021-04-29T10:13:33.000Z</time>
      </trkpt>
      <trkpt lat="47.26845" lon="-2.3289">
        <ele>6.5999999046326</ele>
        <time>2021-04-29T10:13:34.000Z</time>
      </trkpt>
      <trkpt lat="47.2684" lon="-2.32892">
        <ele>5.5999999046326</ele>
        <time>2021-04-29T10:13:35.000Z</time>
      </trkpt>
      <trkpt lat="47.26827" lon="-2.32899">
        <ele>5.5999999046326</ele>
        <time>2021-04-29T10:13:37.000Z</time>
      </trkpt>
      <trkpt lat="47.26815" lon="-2.32908">
        <ele>5.5999999046326</ele>
        <time>2021-04-29T10:13:39.000Z</time>
      </trkpt>
      <trkpt lat="47.26783" lon="-2.32932">
        <ele>5.5999999046326</ele>
        <time>2021-04-29T10:13:44.000Z</time>
      </trkpt>
      <trkpt lat="47.26777" lon="-2.32939">
        <ele>5.5999999046326</ele>
        <time>2021-04-29T10:13:45.000Z</time>
      </trkpt>
      <trkpt lat="47.2676" lon="-2.32957">
        <ele>5.5999999046326</ele>
        <time>2021-04-29T10:13:48.000Z</time>
      </trkpt>
      <trkpt lat="47.2674" lon="-2.32983">
        <ele>5.5999999046326</ele>
        <time>2021-04-29T10:13:52.000Z</time>
      </trkpt>
      <trkpt lat="47.26734" lon="-2.33">
        <ele>5.5999999046326</ele>
        <time>2021-04-29T10:13:54.000Z</time>
      </trkpt>
      <trkpt lat="47.26733" lon="-2.33027">
        <ele>5.5999999046326</ele>
        <time>2021-04-29T10:13:57.000Z</time>
      </trkpt>
      <trkpt lat="47.26735" lon="-2.33044">
        <ele>5.5999999046326</ele>
        <time>2021-04-29T10:13:59.000Z</time>
      </trkpt>
      <trkpt lat="47.26734" lon="-2.3305">
        <ele>5.5999999046326</ele>
        <time>2021-04-29T10:14:00.000Z</time>
      </trkpt>
      <trkpt lat="47.26732" lon="-2.33056">
        <ele>5.5999999046326</ele>
        <time>2021-04-29T10:14:01.000Z</time>
      </trkpt>
      <trkpt lat="47.26729" lon="-2.33061">
        <ele>5.1999998092651</ele>
        <time>2021-04-29T10:14:02.000Z</time>
      </trkpt>
      <trkpt lat="47.26724" lon="-2.33066">
        <ele>4.1999998092651</ele>
        <time>2021-04-29T10:14:03.000Z</time>
      </trkpt>
      <trkpt lat="47.2672" lon="-2.33072">
        <ele>3.7999999523163</ele>
        <time>2021-04-29T10:14:04.000Z</time>
      </trkpt>
      <trkpt lat="47.26715" lon="-2.33077">
        <ele>3.4000000953674</ele>
        <time>2021-04-29T10:14:05.000Z</time>
      </trkpt>
      <trkpt lat="47.26697" lon="-2.33097">
        <ele>3.4000000953674</ele>
        <time>2021-04-29T10:14:09.000Z</time>
      </trkpt>
      <trkpt lat="47.26679" lon="-2.33117">
        <ele>3.4000000953674</ele>
        <time>2021-04-29T10:14:13.000Z</time>
      </trkpt>
      <trkpt lat="47.26665" lon="-2.33129">
        <ele>3.4000000953674</ele>
        <time>2021-04-29T10:14:16.000Z</time>
      </trkpt>
      <trkpt lat="47.26635" lon="-2.33149">
        <ele>3.4000000953674</ele>
        <time>2021-04-29T10:14:22.000Z</time>
      </trkpt>
      <trkpt lat="47.26625" lon="-2.33152">
        <ele>3.4000000953674</ele>
        <time>2021-04-29T10:14:24.000Z</time>
      </trkpt>
      <trkpt lat="47.26615" lon="-2.33151">
        <ele>3.4000000953674</ele>
        <time>2021-04-29T10:14:26.000Z</time>
      </trkpt>
      <trkpt lat="47.26611" lon="-2.3315">
        <ele>3.4000000953674</ele>
        <time>2021-04-29T10:14:27.000Z</time>
      </trkpt>
      <trkpt lat="47.26601" lon="-2.33147">
        <ele>3.4000000953674</ele>
        <time>2021-04-29T10:14:30.000Z</time>
      </trkpt>
      <trkpt lat="47.26599" lon="-2.33146">
        <ele>3.4000000953674</ele>
        <time>2021-04-29T10:14:33.000Z</time>
      </trkpt>
      <trkpt lat="47.26599" lon="-2.3315">
        <ele>3.4000000953674</ele>
        <time>2021-04-29T10:21:12.000Z</time>
      </trkpt>
      <trkpt lat="47.26591" lon="-2.33162">
        <ele>3.4000000953674</ele>
        <time>2021-04-29T10:21:17.000Z</time>
      </trkpt>
      <trkpt lat="47.2658" lon="-2.33188">
        <ele>3.4000000953674</ele>
        <time>2021-04-29T10:21:23.000Z</time>
      </trkpt>
      <trkpt lat="47.26564" lon="-2.33204">
        <ele>3.4000000953674</ele>
        <time>2021-04-29T10:21:28.000Z</time>
      </trkpt>
      <trkpt lat="47.26538" lon="-2.33218">
        <ele>3.4000000953674</ele>
        <time>2021-04-29T10:21:34.000Z</time>
      </trkpt>
      <trkpt lat="47.26501" lon="-2.3324">
        <ele>3.4000000953674</ele>
        <time>2021-04-29T10:21:42.000Z</time>
      </trkpt>
      <trkpt lat="47.26487" lon="-2.33258">
        <ele>3.4000000953674</ele>
        <time>2021-04-29T10:21:46.000Z</time>
      </trkpt>
      <trkpt lat="47.26475" lon="-2.33274">
        <ele>3.4000000953674</ele>
        <time>2021-04-29T10:21:50.000Z</time>
      </trkpt>
      <trkpt lat="47.2646" lon="-2.33273">
        <ele>3.4000000953674</ele>
        <time>2021-04-29T10:21:53.000Z</time>
      </trkpt>
      <trkpt lat="47.26455" lon="-2.33272">
        <ele>3.4000000953674</ele>
        <time>2021-04-29T10:21:54.000Z</time>
      </trkpt>
      <trkpt lat="47.26418" lon="-2.33267">
        <ele>3.4000000953674</ele>
        <time>2021-04-29T10:22:01.000Z</time>
      </trkpt>
      <trkpt lat="47.26392" lon="-2.33263">
        <ele>3.4000000953674</ele>
        <time>2021-04-29T10:22:06.000Z</time>
      </trkpt>
      <trkpt lat="47.26384" lon="-2.33254">
        <ele>3.4000000953674</ele>
        <time>2021-04-29T10:22:08.000Z</time>
      </trkpt>
      <trkpt lat="47.26378" lon="-2.33232">
        <ele>3.4000000953674</ele>
        <time>2021-04-29T10:22:11.000Z</time>
      </trkpt>
      <trkpt lat="47.26377" lon="-2.33224">
        <ele>3.4000000953674</ele>
        <time>2021-04-29T10:22:12.000Z</time>
      </trkpt>
      <trkpt lat="47.26374" lon="-2.33167">
        <ele>3.4000000953674</ele>
        <time>2021-04-29T10:22:19.000Z</time>
      </trkpt>
      <trkpt lat="47.26372" lon="-2.33116">
        <ele>3.4000000953674</ele>
        <time>2021-04-29T10:22:26.000Z</time>
      </trkpt>
      <trkpt lat="47.2637" lon="-2.33073">
        <ele>3.4000000953674</ele>
        <time>2021-04-29T10:22:32.000Z</time>
      </trkpt>
      <trkpt lat="47.26368" lon="-2.33026">
        <ele>3.4000000953674</ele>
        <time>2021-04-29T10:22:39.000Z</time>
      </trkpt>
      <trkpt lat="47.26365" lon="-2.32999">
        <ele>3.4000000953674</ele>
        <time>2021-04-29T10:22:44.000Z</time>
      </trkpt>
      <trkpt lat="47.26363" lon="-2.32986">
        <ele>3.4000000953674</ele>
        <time>2021-04-29T10:22:46.000Z</time>
      </trkpt>
      <trkpt lat="47.26357" lon="-2.32976">
        <ele>3.4000000953674</ele>
        <time>2021-04-29T10:22:48.000Z</time>
      </trkpt>
      <trkpt lat="47.26342" lon="-2.32956">
        <ele>3.4000000953674</ele>
        <time>2021-04-29T10:22:52.000Z</time>
      </trkpt>
      <trkpt lat="47.26339" lon="-2.3294">
        <ele>3.4000000953674</ele>
        <time>2021-04-29T10:22:54.000Z</time>
      </trkpt>
      <trkpt lat="47.26334" lon="-2.3292">
        <ele>3.4000000953674</ele>
        <time>2021-04-29T10:22:57.000Z</time>
      </trkpt>
      <trkpt lat="47.26316" lon="-2.32868">
        <ele>3.4000000953674</ele>
        <time>2021-04-29T10:23:05.000Z</time>
      </trkpt>
      <trkpt lat="47.26302" lon="-2.32857">
        <ele>3.4000000953674</ele>
        <time>2021-04-29T10:23:08.000Z</time>
      </trkpt>
      <trkpt lat="47.26296" lon="-2.32855">
        <ele>3.4000000953674</ele>
        <time>2021-04-29T10:23:09.000Z</time>
      </trkpt>
      <trkpt lat="47.26292" lon="-2.32852">
        <ele>3.4000000953674</ele>
        <time>2021-04-29T10:23:10.000Z</time>
      </trkpt>
      <trkpt lat="47.26286" lon="-2.32838">
        <ele>3.4000000953674</ele>
        <time>2021-04-29T10:23:12.000Z</time>
      </trkpt>
      <trkpt lat="47.26283" lon="-2.32823">
        <ele>3.4000000953674</ele>
        <time>2021-04-29T10:23:14.000Z</time>
      </trkpt>
      <trkpt lat="47.26282" lon="-2.32815">
        <ele>3.4000000953674</ele>
        <time>2021-04-29T10:23:15.000Z</time>
      </trkpt>
      <trkpt lat="47.2628" lon="-2.32807">
        <ele>3.4000000953674</ele>
        <time>2021-04-29T10:23:16.000Z</time>
      </trkpt>
      <trkpt lat="47.26278" lon="-2.32799">
        <ele>3.4000000953674</ele>
        <time>2021-04-29T10:23:17.000Z</time>
      </trkpt>
      <trkpt lat="47.26266" lon="-2.32772">
        <ele>3.4000000953674</ele>
        <time>2021-04-29T10:23:21.000Z</time>
      </trkpt>
      <trkpt lat="47.26253" lon="-2.32759">
        <ele>3.4000000953674</ele>
        <time>2021-04-29T10:23:24.000Z</time>
      </trkpt>
      <trkpt lat="47.26245" lon="-2.32748">
        <ele>3.4000000953674</ele>
        <time>2021-04-29T10:23:26.000Z</time>
      </trkpt>
      <trkpt lat="47.26222" lon="-2.32713">
        <ele>3.4000000953674</ele>
        <time>2021-04-29T10:23:32.000Z</time>
      </trkpt>
      <trkpt lat="47.26209" lon="-2.3269">
        <ele>3.4000000953674</ele>
        <time>2021-04-29T10:23:36.000Z</time>
      </trkpt>
      <trkpt lat="47.26205" lon="-2.32684">
        <ele>3.4000000953674</ele>
        <time>2021-04-29T10:23:37.000Z</time>
      </trkpt>
      <trkpt lat="47.26183" lon="-2.32662">
        <ele>3.7999999523163</ele>
        <time>2021-04-29T10:23:42.000Z</time>
      </trkpt>
      <trkpt lat="47.26179" lon="-2.32659">
        <ele>4.1999998092651</ele>
        <time>2021-04-29T10:23:43.000Z</time>
      </trkpt>
      <trkpt lat="47.26174" lon="-2.32656">
        <ele>4.5999999046326</ele>
        <time>2021-04-29T10:23:44.000Z</time>
      </trkpt>
      <trkpt lat="47.26169" lon="-2.32653">
        <ele>5.1999998092651</ele>
        <time>2021-04-29T10:23:45.000Z</time>
      </trkpt>
      <trkpt lat="47.26163" lon="-2.3265">
        <ele>5.5999999046326</ele>
        <time>2021-04-29T10:23:46.000Z</time>
      </trkpt>
      <trkpt lat="47.26148" lon="-2.32643">
        <ele>5.5999999046326</ele>
        <time>2021-04-29T10:23:49.000Z</time>
      </trkpt>
      <trkpt lat="47.26121" lon="-2.32637">
        <ele>5.5999999046326</ele>
        <time>2021-04-29T10:23:54.000Z</time>
      </trkpt>
      <trkpt lat="47.26116" lon="-2.32637">
        <ele>5.5999999046326</ele>
        <time>2021-04-29T10:23:55.000Z</time>
      </trkpt>
      <trkpt lat="47.26074" lon="-2.32644">
        <ele>5.5999999046326</ele>
        <time>2021-04-29T10:24:02.000Z</time>
      </trkpt>
      <trkpt lat="47.2602" lon="-2.32654">
        <ele>5.5999999046326</ele>
        <time>2021-04-29T10:24:11.000Z</time>
      </trkpt>
      <trkpt lat="47.25984" lon="-2.32658">
        <ele>5.5999999046326</ele>
        <time>2021-04-29T10:24:17.000Z</time>
      </trkpt>
      <trkpt lat="47.25978" lon="-2.32657">
        <ele>5</ele>
        <time>2021-04-29T10:24:18.000Z</time>
      </trkpt>
      <trkpt lat="47.25971" lon="-2.32657">
        <ele>4.5999999046326</ele>
        <time>2021-04-29T10:24:19.000Z</time>
      </trkpt>
      <trkpt lat="47.25965" lon="-2.32658">
        <ele>3.7999999523163</ele>
        <time>2021-04-29T10:24:20.000Z</time>
      </trkpt>
      <trkpt lat="47.25959" lon="-2.32658">
        <ele>3.4000000953674</ele>
        <time>2021-04-29T10:24:21.000Z</time>
      </trkpt>
      <trkpt lat="47.25954" lon="-2.32656">
        <ele>3.4000000953674</ele>
        <time>2021-04-29T10:24:22.000Z</time>
      </trkpt>
      <trkpt lat="47.2594" lon="-2.32642">
        <ele>3.4000000953674</ele>
        <time>2021-04-29T10:24:25.000Z</time>
      </trkpt>
      <trkpt lat="47.25909" lon="-2.326">
        <ele>3.4000000953674</ele>
        <time>2021-04-29T10:24:32.000Z</time>
      </trkpt>
      <trkpt lat="47.25895" lon="-2.32584">
        <ele>3.4000000953674</ele>
        <time>2021-04-29T10:24:35.000Z</time>
      </trkpt>
      <trkpt lat="47.25885" lon="-2.32577">
        <ele>3.4000000953674</ele>
        <time>2021-04-29T10:24:37.000Z</time>
      </trkpt>
      <trkpt lat="47.25864" lon="-2.32551">
        <ele>3.4000000953674</ele>
        <time>2021-04-29T10:24:42.000Z</time>
      </trkpt>
      <trkpt lat="47.2584" lon="-2.32516">
        <ele>3.4000000953674</ele>
        <time>2021-04-29T10:24:48.000Z</time>
      </trkpt>
      <trkpt lat="47.25836" lon="-2.32511">
        <ele>3.4000000953674</ele>
        <time>2021-04-29T10:24:49.000Z</time>
      </trkpt>
      <trkpt lat="47.25825" lon="-2.3249">
        <ele>3.4000000953674</ele>
        <time>2021-04-29T10:24:53.000Z</time>
      </trkpt>
      <trkpt lat="47.25828" lon="-2.3248">
        <ele>3.4000000953674</ele>
        <time>2021-04-29T10:24:56.000Z</time>
      </trkpt>
      <trkpt lat="47.25842" lon="-2.32476">
        <ele>3.4000000953674</ele>
        <time>2021-04-29T10:25:00.000Z</time>
      </trkpt>
      <trkpt lat="47.25853" lon="-2.32478">
        <ele>3.4000000953674</ele>
        <time>2021-04-29T10:25:02.000Z</time>
      </trkpt>
      <trkpt lat="47.25869" lon="-2.32478">
        <ele>3.4000000953674</ele>
        <time>2021-04-29T10:25:05.000Z</time>
      </trkpt>
      <trkpt lat="47.25885" lon="-2.32463">
        <ele>3.4000000953674</ele>
        <time>2021-04-29T10:25:09.000Z</time>
      </trkpt>
      <trkpt lat="47.25909" lon="-2.32436">
        <ele>3.4000000953674</ele>
        <time>2021-04-29T10:25:15.000Z</time>
      </trkpt>
      <trkpt lat="47.25941" lon="-2.32394">
        <ele>3.4000000953674</ele>
        <time>2021-04-29T10:25:23.000Z</time>
      </trkpt>
      <trkpt lat="47.25977" lon="-2.32349">
        <ele>3.4000000953674</ele>
        <time>2021-04-29T10:25:32.000Z</time>
      </trkpt>
      <trkpt lat="47.26005" lon="-2.32315">
        <ele>3.4000000953674</ele>
        <time>2021-04-29T10:25:39.000Z</time>
      </trkpt>
      <trkpt lat="47.2603" lon="-2.32286">
        <ele>3.4000000953674</ele>
        <time>2021-04-29T10:25:45.000Z</time>
      </trkpt>
      <trkpt lat="47.26062" lon="-2.32247">
        <ele>3.4000000953674</ele>
        <time>2021-04-29T10:25:53.000Z</time>
      </trkpt>
      <trkpt lat="47.26089" lon="-2.32212">
        <ele>3.4000000953674</ele>
        <time>2021-04-29T10:26:00.000Z</time>
      </trkpt>
      <trkpt lat="47.26109" lon="-2.32173">
        <ele>3.4000000953674</ele>
        <time>2021-04-29T10:26:06.000Z</time>
      </trkpt>
      <trkpt lat="47.26122" lon="-2.32132">
        <ele>3.4000000953674</ele>
        <time>2021-04-29T10:26:12.000Z</time>
      </trkpt>
      <trkpt lat="47.26134" lon="-2.32083">
        <ele>3.4000000953674</ele>
        <time>2021-04-29T10:26:19.000Z</time>
      </trkpt>
      <trkpt lat="47.26139" lon="-2.32063">
        <ele>3.4000000953674</ele>
        <time>2021-04-29T10:26:22.000Z</time>
      </trkpt>
      <trkpt lat="47.26142" lon="-2.3205">
        <ele>3.4000000953674</ele>
        <time>2021-04-29T10:26:24.000Z</time>
      </trkpt>
      <trkpt lat="47.26154" lon="-2.3202">
        <ele>3.4000000953674</ele>
        <time>2021-04-29T10:26:29.000Z</time>
      </trkpt>
      <trkpt lat="47.26161" lon="-2.32015">
        <ele>3.4000000953674</ele>
        <time>2021-04-29T10:26:31.000Z</time>
      </trkpt>
      <trkpt lat="47.26165" lon="-2.32016">
        <ele>3.4000000953674</ele>
        <time>2021-04-29T10:26:32.000Z</time>
      </trkpt>
      <trkpt lat="47.26183" lon="-2.3202">
        <ele>3.4000000953674</ele>
        <time>2021-04-29T10:26:37.000Z</time>
      </trkpt>
      <trkpt lat="47.26194" lon="-2.32018">
        <ele>3.4000000953674</ele>
        <time>2021-04-29T10:26:42.000Z</time>
      </trkpt>
      <trkpt lat="47.26203" lon="-2.32005">
        <ele>3.4000000953674</ele>
        <time>2021-04-29T10:26:47.000Z</time>
      </trkpt>
      <trkpt lat="47.26218" lon="-2.31983">
        <ele>3.4000000953674</ele>
        <time>2021-04-29T10:26:53.000Z</time>
      </trkpt>
      <trkpt lat="47.2623" lon="-2.31967">
        <ele>3.4000000953674</ele>
        <time>2021-04-29T10:26:58.000Z</time>
      </trkpt>
      <trkpt lat="47.26241" lon="-2.31943">
        <ele>3.4000000953674</ele>
        <time>2021-04-29T10:27:03.000Z</time>
      </trkpt>
      <trkpt lat="47.26246" lon="-2.31933">
        <ele>3.4000000953674</ele>
        <time>2021-04-29T10:27:05.000Z</time>
      </trkpt>
      <trkpt lat="47.26253" lon="-2.3192">
        <ele>3.4000000953674</ele>
        <time>2021-04-29T10:27:08.000Z</time>
      </trkpt>
      <trkpt lat="47.26267" lon="-2.31899">
        <ele>3.4000000953674</ele>
        <time>2021-04-29T10:27:14.000Z</time>
      </trkpt>
      <trkpt lat="47.26289" lon="-2.31886">
        <ele>3.4000000953674</ele>
        <time>2021-04-29T10:27:20.000Z</time>
      </trkpt>
      <trkpt lat="47.26289" lon="-2.31882">
        <ele>3.4000000953674</ele>
        <time>2021-04-29T10:27:44.000Z</time>
      </trkpt>
      <trkpt lat="47.26292" lon="-2.31877">
        <ele>3.4000000953674</ele>
        <time>2021-04-29T10:27:46.000Z</time>
      </trkpt>
      <trkpt lat="47.26295" lon="-2.31861">
        <ele>3.4000000953674</ele>
        <time>2021-04-29T10:27:50.000Z</time>
      </trkpt>
      <trkpt lat="47.26295" lon="-2.31857">
        <ele>3.4000000953674</ele>
        <time>2021-04-29T10:27:51.000Z</time>
      </trkpt>
      <trkpt lat="47.26301" lon="-2.31827">
        <ele>3.4000000953674</ele>
        <time>2021-04-29T10:27:57.000Z</time>
      </trkpt>
      <trkpt lat="47.26302" lon="-2.31799">
        <ele>3.4000000953674</ele>
        <time>2021-04-29T10:28:02.000Z</time>
      </trkpt>
      <trkpt lat="47.26303" lon="-2.31763">
        <ele>3.4000000953674</ele>
        <time>2021-04-29T10:28:08.000Z</time>
      </trkpt>
      <trkpt lat="47.26302" lon="-2.31751">
        <ele>3.4000000953674</ele>
        <time>2021-04-29T10:28:10.000Z</time>
      </trkpt>
      <trkpt lat="47.26302" lon="-2.31731">
        <ele>3.4000000953674</ele>
        <time>2021-04-29T10:28:13.000Z</time>
      </trkpt>
      <trkpt lat="47.26303" lon="-2.31724">
        <ele>3.4000000953674</ele>
        <time>2021-04-29T10:28:14.000Z</time>
      </trkpt>
      <trkpt lat="47.26309" lon="-2.31715">
        <ele>3.4000000953674</ele>
        <time>2021-04-29T10:28:16.000Z</time>
      </trkpt>
      <trkpt lat="47.26325" lon="-2.31708">
        <ele>3.4000000953674</ele>
        <time>2021-04-29T10:28:20.000Z</time>
      </trkpt>
      <trkpt lat="47.26329" lon="-2.31706">
        <ele>3.4000000953674</ele>
        <time>2021-04-29T10:28:21.000Z</time>
      </trkpt>
      <trkpt lat="47.26334" lon="-2.31698">
        <ele>3.4000000953674</ele>
        <time>2021-04-29T10:28:23.000Z</time>
      </trkpt>
      <trkpt lat="47.26335" lon="-2.31693">
        <ele>3.4000000953674</ele>
        <time>2021-04-29T10:28:24.000Z</time>
      </trkpt>
      <trkpt lat="47.26341" lon="-2.31685">
        <ele>3.4000000953674</ele>
        <time>2021-04-29T10:28:27.000Z</time>
      </trkpt>
      <trkpt lat="47.26343" lon="-2.31682">
        <ele>3.4000000953674</ele>
        <time>2021-04-29T10:28:28.000Z</time>
      </trkpt>
      <trkpt lat="47.26346" lon="-2.31681">
        <ele>3.7999999523163</ele>
        <time>2021-04-29T10:28:29.000Z</time>
      </trkpt>
      <trkpt lat="47.26349" lon="-2.31679">
        <ele>4.1999998092651</ele>
        <time>2021-04-29T10:28:30.000Z</time>
      </trkpt>
      <trkpt lat="47.26352" lon="-2.31678">
        <ele>4.5999999046326</ele>
        <time>2021-04-29T10:28:31.000Z</time>
      </trkpt>
      <trkpt lat="47.26355" lon="-2.31676">
        <ele>5</ele>
        <time>2021-04-29T10:28:32.000Z</time>
      </trkpt>
      <trkpt lat="47.26358" lon="-2.31675">
        <ele>5.4000000953674</ele>
        <time>2021-04-29T10:28:33.000Z</time>
      </trkpt>
      <trkpt lat="47.26361" lon="-2.31673">
        <ele>5.4000000953674</ele>
        <time>2021-04-29T10:28:34.000Z</time>
      </trkpt>
      <trkpt lat="47.26384" lon="-2.31659">
        <ele>5.4000000953674</ele>
        <time>2021-04-29T10:28:41.000Z</time>
      </trkpt>
      <trkpt lat="47.26402" lon="-2.31651">
        <ele>5.4000000953674</ele>
        <time>2021-04-29T10:28:47.000Z</time>
      </trkpt>
      <trkpt lat="47.26411" lon="-2.31642">
        <ele>5.8000001907349</ele>
        <time>2021-04-29T10:28:51.000Z</time>
      </trkpt>
      <trkpt lat="47.26412" lon="-2.31638">
        <ele>6.1999998092651</ele>
        <time>2021-04-29T10:28:52.000Z</time>
      </trkpt>
      <trkpt lat="47.26412" lon="-2.31632">
        <ele>6.8000001907349</ele>
        <time>2021-04-29T10:28:53.000Z</time>
      </trkpt>
      <trkpt lat="47.26412" lon="-2.31627">
        <ele>7.1999998092651</ele>
        <time>2021-04-29T10:28:54.000Z</time>
      </trkpt>
      <trkpt lat="47.26412" lon="-2.31622">
        <ele>7.5999999046326</ele>
        <time>2021-04-29T10:28:55.000Z</time>
      </trkpt>
      <trkpt lat="47.2641" lon="-2.31585">
        <ele>7.5999999046326</ele>
        <time>2021-04-29T10:29:02.000Z</time>
      </trkpt>
      <trkpt lat="47.26409" lon="-2.31559">
        <ele>7.5999999046326</ele>
        <time>2021-04-29T10:29:08.000Z</time>
      </trkpt>
      <trkpt lat="47.26411" lon="-2.31551">
        <ele>7.5999999046326</ele>
        <time>2021-04-29T10:29:13.000Z</time>
      </trkpt>
      <trkpt lat="47.26412" lon="-2.3155">
        <ele>7.5999999046326</ele>
        <time>2021-04-29T10:29:16.000Z</time>
      </trkpt>
    </trkseg>
  </trk>
</gpx>